Build Record

Build Number: 8468

Transaction: 4394
Package: vivaldi
Version: 2.1.1337.51-1
Start: 11/28/2018 02:49PM
Finish: 11/28/2018 04:36PM
Result: completed
 vivaldi/PKGBUILD CHANGED

Build Log

   1 [11/28/2018 02:49PM]: [\^/\^/^\^/^\^/\^/\^/^\^/^\^/]  SETTING UP ENVIRONMENT  [\^/\^/^\^/^\^/\^/\^/^\^/^\^/]
   2  [11/28/2018 02:49PM]: [\^/\^/^\^/^\^/\^/\^/^\^/^\^/]  ADDING UPSTREAM PGP KEYS TO KEYRING  [\^/\^/^\^/^\^/\^/\^/^\^/^\^/]
   3  [11/28/2018 02:49PM]: gpg: WARNING: unsafe ownership on homedir /tmp/antbs/.gnupg
   4  [11/28/2018 02:49PM]: gpg: keybox /tmp/antbs/.gnupg/pubring.kbx created
   5  [11/28/2018 02:53PM]: gpg: key 09FE44734EB7990E: 5 signatures not checked due to missing keys
   6  [11/28/2018 02:53PM]: gpg: /tmp/antbs/.gnupg/trustdb.gpg: trustdb created
   7  [11/28/2018 02:53PM]: gpg: key 09FE44734EB7990E: public key Jeremiah Senkpiel <[email protected]> imported
   8  [11/28/2018 02:53PM]: gpg: key 7434390BDBE9B9C5: public key Colin Ihrig <[email protected]> imported
   9  [11/28/2018 02:53PM]: gpg: key 61B7B526D98F0353: 27 signatures not checked due to missing keys
  10  [11/28/2018 02:53PM]: gpg: key 61B7B526D98F0353: public key Mozilla Software Releases <[email protected]> imported
  11  [11/28/2018 02:53PM]: gpg: key 61B7B526D98F0353: Mozilla Software Releases <[email protected]> not changed
  12  [11/28/2018 02:53PM]: gpg: no ultimately trusted keys found
  13  [11/28/2018 02:53PM]: gpg: Total number processed: 4
  14  [11/28/2018 02:53PM]: gpg:               imported: 3
  15  [11/28/2018 02:53PM]: gpg:              unchanged: 1
  16  [11/28/2018 02:53PM]: [\^/\^/^\^/^\^/\^/\^/^\^/^\^/]  SYNCING REPO DATABASES  [\^/\^/^\^/^\^/\^/\^/^\^/^\^/]
  17  [11/28/2018 02:53PM]: :: Synchronizing package databases...
  18  [11/28/2018 02:53PM]: downloading antergos-staging.db...
  19  [11/28/2018 02:53PM]: downloading antergos.db...
  20  [11/28/2018 02:53PM]: downloading core.db...
  21  [11/28/2018 02:53PM]: downloading community.db...
  22  [11/28/2018 02:53PM]: :: Starting full system upgrade...
  23  [11/28/2018 02:53PM]: [\^/\^/^\^/^\^/\^/\^/^\^/^\^/]  TRYING BUILD  [\^/\^/^\^/^\^/\^/\^/^\^/^\^/]
  24  [11/28/2018 02:53PM]: [\^/\^/^\^/^\^/\^/\^/^\^/^\^/]  UPDATING SOURCE CHECKSUMS  [\^/\^/^\^/^\^/\^/\^/^\^/^\^/]
  25  [11/28/2018 02:53PM]: Copyright (c) 2006-2018 Pacman Development Team <[email protected]>.
  26  [11/28/2018 02:53PM]: Copyright (C) 2002-2006 Judd Vinet <[email protected]>.
  27  [11/28/2018 02:53PM]: This is free software; see the source for copying conditions.
  28  [11/28/2018 02:53PM]: There is NO WARRANTY, to the extent permitted by law.
  29  [11/28/2018 02:53PM]:   -> Downloading vivaldi-stable-2.1.1337.51-1.x86_64.rpm...
  30  [11/28/2018 02:53PM]:   % Total    % Received % Xferd  Average Speed   Time    Time     Time  Current
  31  [11/28/2018 02:53PM]:                                  Dload  Upload   Total   Spent    Left  Speed
  32  [11/28/2018 02:53PM]: 
  33   0     0    0     0    0     0      0      0 --:--:-- --:--:-- --:--:--     0
  34  36 54.7M   36 19.9M    0     0  27.6M      0  0:00:01 --:--:--  0:00:01 27.6M
  35 100 54.7M  100 54.7M    0     0  33.9M      0  0:00:01  0:00:01 --:--:-- 34.0M
  36  [11/28/2018 02:53PM]:   -> Downloading chromium-70.0.3538.77.tar.xz...
  37  [11/28/2018 02:56PM]: 
  38   0     0    0     0    0     0      0      0 --:--:-- --:--:-- --:--:--     0
  39   0  594M    0 2878k    0     0  2878k      0  0:03:31  0:00:01  0:03:30 2878k
  40   0  594M    0 4158k    0     0  2080k      0  0:04:52  0:00:01  0:04:51 2079k
  41   0  594M    0 5502k    0     0  1836k      0  0:05:31  0:00:02  0:05:29 1836k
  42   1  594M    1 6878k    0     0  1720k      0  0:05:53  0:00:03  0:05:50 1719k
  43   1  594M    1 8094k    0     0  1615k      0  0:06:16  0:00:05  0:06:11 1615k
  44   1  594M    1 9422k    0     0  1571k      0  0:06:27  0:00:05  0:06:22 1309k
  45   1  594M    1 10.4M    0     0  1529k      0  0:06:37  0:00:06  0:06:31 1309k
  46   1  594M    1 11.7M    0     0  1503k      0  0:06:44  0:00:08  0:06:36 1304k
  47   2  594M    2 12.7M    0     0  1456k      0  0:06:57  0:00:08  0:06:49 1244k
  48   2  594M    2 14.1M    0     0  1443k      0  0:07:01  0:00:10  0:06:51 1271k
  49   2  594M    2 15.5M    0     0  1444k      0  0:07:01  0:00:11  0:06:50 1292k
  50   2  594M    2 17.0M    0     0  1454k      0  0:06:58  0:00:12  0:06:46 1349k
  51   3  594M    3 18.5M    0     0  1462k      0  0:06:56  0:00:12  0:06:44 1395k
  52   3  594M    3 19.9M    0     0  1457k      0  0:06:57  0:00:14  0:06:43 1461k
  53   3  594M    3 21.2M    0     0  1451k      0  0:06:59  0:00:15  0:06:44 1466k
  54   3  594M    3 22.7M    0     0  1459k      0  0:06:57  0:00:15  0:06:42 1491k
  55   4  594M    4 24.2M    0     0  1458k      0  0:06:57  0:00:16  0:06:41 1466k
  56   4  594M    4 25.4M    0     0  1445k      0  0:07:00  0:00:17  0:06:43 1402k
  57   4  594M    4 26.4M    0     0  1426k      0  0:07:06  0:00:19  0:06:47 1337k
  58   4  594M    4 27.6M    0     0  1414k      0  0:07:10  0:00:20  0:06:50 1305k
  59   4  594M    4 29.6M    0     0  1443k      0  0:07:01  0:00:21  0:06:40 1395k
  60   5  594M    5 31.1M    0     0  1448k      0  0:07:00  0:00:21  0:06:39 1414k
  61   5  594M    5 32.4M    0     0  1447k      0  0:07:00  0:00:22  0:06:38 1452k
  62   5  594M    5 33.6M    0     0  1436k      0  0:07:03  0:00:23  0:06:40 1476k
  63   5  594M    5 34.8M    0     0  1426k      0  0:07:06  0:00:25  0:06:41 1474k
  64   6  594M    6 36.0M    0     0  1420k      0  0:07:08  0:00:25  0:06:43 1324k
  65   6  594M    6 37.1M    0     0  1407k      0  0:07:12  0:00:26  0:06:46 1228k
  66   6  594M    6 38.3M    0     0  1401k      0  0:07:14  0:00:28  0:06:46 1194k
  67   6  594M    6 39.4M    0     0  1394k      0  0:07:16  0:00:29  0:06:47 1189k
  68   6  594M    6 40.2M    0     0  1375k      0  0:07:22  0:00:29  0:06:53 1118k
  69   6  594M    6 41.5M    0     0  1373k      0  0:07:23  0:00:31  0:06:52 1126k
  70   7  594M    7 42.8M    0     0  1371k      0  0:07:23  0:00:31  0:06:52 1174k
  71   7  594M    7 43.9M    0     0  1364k      0  0:07:26  0:00:33  0:06:53 1153k
  72   7  594M    7 45.0M    0     0  1356k      0  0:07:28  0:00:33  0:06:55 1139k
  73   7  594M    7 45.9M    0     0  1344k      0  0:07:32  0:00:34  0:06:58 1155k
  74   7  594M    7 46.9M    0     0  1336k      0  0:07:35  0:00:35  0:07:00 1107k
  75   8  594M    8 48.2M    0     0  1336k      0  0:07:35  0:00:36  0:06:59 1116k
  76   8  594M    8 49.3M    0     0  1328k      0  0:07:37  0:00:38  0:06:59 1094k
  77   8  594M    8 50.4M    0     0  1325k      0  0:07:39  0:00:38  0:07:01 1110k
  78   8  594M    8 51.7M    0     0  1324k      0  0:07:39  0:00:39  0:07:00 1190k
  79   8  594M    8 53.0M    0     0  1324k      0  0:07:39  0:00:41  0:06:58 1237k
  80   9  594M    9 54.1M    0     0  1319k      0  0:07:41  0:00:42  0:06:59 1192k
  81   9  594M    9 55.0M    0     0  1310k      0  0:07:44  0:00:42  0:07:02 1168k
  82   9  594M    9 57.1M    0     0  1330k      0  0:07:37  0:00:43  0:06:54 1372k
  83  10  594M   10 60.0M    0     0  1365k      0  0:07:25  0:00:45  0:06:40 1693k
  84  10  594M   10 60.9M    0     0  1357k      0  0:07:28  0:00:46  0:06:42 1623k
  85  10  594M   10 62.0M    0     0  1352k      0  0:07:29  0:00:46  0:06:43 1633k
  86  10  594M   10 63.0M    0     0  1345k      0  0:07:32  0:00:47  0:06:45 1647k
  87  10  594M   10 63.8M    0     0  1334k      0  0:07:35  0:00:49  0:06:46 1369k
  88  10  594M   10 65.1M    0     0  1334k      0  0:07:36  0:00:50  0:06:46 1049k
  89  11  594M   11 66.1M    0     0  1328k      0  0:07:37  0:00:50  0:06:47 1066k
  90  11  594M   11 67.1M    0     0  1322k      0  0:07:40  0:00:52  0:06:48 1032k
  91  11  594M   11 68.2M    0     0  1318k      0  0:07:41  0:00:53  0:06:48 1064k
  92  11  594M   11 69.1M    0     0  1310k      0  0:07:44  0:00:53  0:06:51 1075k
  93  11  594M   11 70.3M    0     0  1309k      0  0:07:44  0:00:54  0:06:50 1056k
  94  12  594M   12 71.6M    0     0  1310k      0  0:07:44  0:00:56  0:06:48 1125k
  95  12  594M   12 72.7M    0     0  1306k      0  0:07:45  0:00:56  0:06:49 1143k
  96  12  594M   12 74.9M    0     0  1323k      0  0:07:39  0:00:57  0:06:42 1367k
  97  12  594M   12 76.0M    0     0  1319k      0  0:07:41  0:00:58  0:06:43 1420k
  98  12  594M   12 77.2M    0     0  1317k      0  0:07:41  0:01:00  0:06:41 1408k
  99  13  594M   13 78.3M    0     0  1314k      0  0:07:42  0:01:01  0:06:41 1358k
 100  13  594M   13 79.5M    0     0  1313k      0  0:07:43  0:01:01  0:06:42 1398k
 101  13  594M   13 80.8M    0     0  1314k      0  0:07:42  0:01:03  0:06:39 1218k
 102  13  594M   13 81.9M    0     0  1310k      0  0:07:44  0:01:04  0:06:40 1205k
 103  13  594M   13 82.8M    0     0  1305k      0  0:07:46  0:01:04  0:06:42 1157k
 104  14  594M   14 84.1M    0     0  1305k      0  0:07:46  0:01:05  0:06:41 1191k
 105  14  594M   14 85.0M    0     0  1299k      0  0:07:48  0:01:07  0:06:41 1118k
 106  14  594M   14 86.1M    0     0  1296k      0  0:07:49  0:01:08  0:06:41 1069k
 107  14  594M   14 87.3M    0     0  1295k      0  0:07:49  0:01:09  0:06:40 1100k
 108  14  594M   14 88.3M    0     0  1292k      0  0:07:50  0:01:09  0:06:41 1126k
 109  15  594M   15 89.6M    0     0  1292k      0  0:07:50  0:01:11  0:06:39 1121k
 110  15  594M   15 90.7M    0     0  1290k      0  0:07:51  0:01:11  0:06:40 1166k
 111  15  594M   15 92.2M    0     0  1294k      0  0:07:49  0:01:12  0:06:37 1267k
 112  15  594M   15 93.6M    0     0  1295k      0  0:07:49  0:01:14  0:06:35 1289k
 113  15  594M   15 94.8M    0     0  1294k      0  0:07:50  0:01:14  0:06:36 1325k
 114  16  594M   16 95.6M    0     0  1288k      0  0:07:52  0:01:16  0:06:36 1230k
 115  16  594M   16 97.0M    0     0  1290k      0  0:07:51  0:01:16  0:06:35 1302k
 116  16  594M   16 98.2M    0     0  1289k      0  0:07:51  0:01:18  0:06:33 1211k
 117  16  594M   16 98.9M    0     0  1283k      0  0:07:54  0:01:18  0:06:36 1101k
 118  16  594M   16  100M    0     0  1285k      0  0:07:53  0:01:20  0:06:33 1150k
 119  17  594M   17  101M    0     0  1284k      0  0:07:53  0:01:21  0:06:32 1222k
 120  17  594M   17  102M    0     0  1278k      0  0:07:55  0:01:22  0:06:33 1097k
 121  17  594M   17  103M    0     0  1281k      0  0:07:54  0:01:23  0:06:31 1164k
 122  17  594M   17  104M    0     0  1278k      0  0:07:55  0:01:23  0:06:32 1212k
 123  17  594M   17  105M    0     0  1275k      0  0:07:57  0:01:25  0:06:32 1107k
 124  18  594M   18  107M    0     0  1278k      0  0:07:56  0:01:25  0:06:31 1181k
 125  18  594M   18  109M    0     0  1290k      0  0:07:51  0:01:26  0:06:25 1478k
 126  18  594M   18  110M    0     0  1290k      0  0:07:51  0:01:27  0:06:24 1425k
 127  18  594M   18  111M    0     0  1288k      0  0:07:52  0:01:29  0:06:23 1442k
 128  19  594M   19  115M    0     0  1311k      0  0:07:44  0:01:29  0:06:15 1923k
 129  19  594M   19  118M    0     0  1331k      0  0:07:37  0:01:30  0:06:07 2246k
 130  20  594M   20  120M    0     0  1339k      0  0:07:34  0:01:32  0:06:02 2187k
 131  20  594M   20  122M    0     0  1345k      0  0:07:32  0:01:33  0:05:59 2320k
 132  20  594M   20  123M    0     0  1349k      0  0:07:30  0:01:34  0:05:56 2439k
 133  21  594M   21  124M    0     0  1346k      0  0:07:32  0:01:34  0:05:58 1975k
 134  21  594M   21  125M    0     0  1343k      0  0:07:32  0:01:36  0:05:56 1573k
 135  21  594M   21  126M    0     0  1340k      0  0:07:33  0:01:36  0:05:57 1367k
 136  21  594M   21  128M    0     0  1340k      0  0:07:34  0:01:38  0:05:56 1238k
 137  21  594M   21  129M    0     0  1339k      0  0:07:34  0:01:38  0:05:56 1165k
 138  21  594M   21  130M    0     0  1337k      0  0:07:34  0:01:40  0:05:54 1183k
 139  22  594M   22  131M    0     0  1334k      0  0:07:35  0:01:40  0:05:55 1158k
 140  22  594M   22  132M    0     0  1330k      0  0:07:37  0:01:42  0:05:55 1130k
 141  22  594M   22  134M    0     0  1341k      0  0:07:33  0:01:42  0:05:51 1376k
 142  23  594M   23  138M    0     0  1362k      0  0:07:26  0:01:43  0:05:43 1814k
 143  23  594M   23  139M    0     0  1360k      0  0:07:27  0:01:45  0:05:42 1810k
 144  23  594M   23  140M    0     0  1358k      0  0:07:27  0:01:45  0:05:42 1833k
 145  23  594M   23  142M    0     0  1361k      0  0:07:27  0:01:46  0:05:41 1991k
 146  24  594M   24  143M    0     0  1358k      0  0:07:27  0:01:48  0:05:39 1711k
 147  24  594M   24  145M    0     0  1362k      0  0:07:26  0:01:49  0:05:37 1356k
 148  24  594M   24  147M    0     0  1376k      0  0:07:22  0:01:50  0:05:32 1709k
 149  25  594M   25  149M    0     0  1379k      0  0:07:21  0:01:50  0:05:31 1821k
 150  25  594M   25  150M    0     0  1377k      0  0:07:21  0:01:52  0:05:29 1719k
 151  25  594M   25  151M    0     0  1375k      0  0:07:22  0:01:52  0:05:30 1742k
 152  25  594M   25  153M    0     0  1380k      0  0:07:20  0:01:54  0:05:26 1776k
 153  26  594M   26  154M    0     0  1378k      0  0:07:21  0:01:55  0:05:26 1422k
 154  26  594M   26  155M    0     0  1373k      0  0:07:23  0:01:55  0:05:28 1244k
 155  26  594M   26  156M    0     0  1370k      0  0:07:23  0:01:56  0:05:27 1223k
 156  26  594M   26  158M    0     0  1371k      0  0:07:23  0:01:58  0:05:25 1265k
 157  26  594M   26  159M    0     0  1372k      0  0:07:23  0:01:59  0:05:24 1193k
 158  27  594M   27  160M    0     0  1373k      0  0:07:22  0:01:59  0:05:23 1269k
 159  27  594M   27  162M    0     0  1375k      0  0:07:22  0:02:00  0:05:22 1420k
 160  27  594M   27  164M    0     0  1377k      0  0:07:21  0:02:02  0:05:19 1534k
 161  27  594M   27  165M    0     0  1374k      0  0:07:22  0:02:03  0:05:19 1457k
 162  27  594M   27  166M    0     0  1372k      0  0:07:23  0:02:03  0:05:20 1377k
 163  28  594M   28  167M    0     0  1371k      0  0:07:23  0:02:04  0:05:19 1324k
 164  28  594M   28  168M    0     0  1370k      0  0:07:24  0:02:06  0:05:18 1246k
 165  28  594M   28  169M    0     0  1368k      0  0:07:24  0:02:06  0:05:18 1143k
 166  28  594M   28  170M    0     0  1367k      0  0:07:24  0:02:08  0:05:16 1188k
 167  28  594M   28  171M    0     0  1365k      0  0:07:25  0:02:09  0:05:16 1170k
 168  29  594M   29  173M    0     0  1367k      0  0:07:24  0:02:09  0:05:15 1270k
 169  29  594M   29  174M    0     0  1367k      0  0:07:25  0:02:11  0:05:14 1288k
 170  29  594M   29  175M    0     0  1365k      0  0:07:25  0:02:11  0:05:14 1283k
 171  29  594M   29  177M    0     0  1366k      0  0:07:25  0:02:12  0:05:13 1331k
 172  30  594M   30  178M    0     0  1366k      0  0:07:25  0:02:14  0:05:11 1409k
 173  30  594M   30  180M    0     0  1366k      0  0:07:25  0:02:14  0:05:11 1328k
 174  30  594M   30  181M    0     0  1367k      0  0:07:24  0:02:16  0:05:08 1387k
 175  30  594M   30  182M    0     0  1366k      0  0:07:25  0:02:17  0:05:08 1394k
 176  30  594M   30  184M    0     0  1365k      0  0:07:25  0:02:18  0:05:07 1346k
 177  31  594M   31  185M    0     0  1369k      0  0:07:24  0:02:18  0:05:06 1433k
 178  31  594M   31  187M    0     0  1372k      0  0:07:23  0:02:20  0:05:03 1537k
 179  31  594M   31  189M    0     0  1374k      0  0:07:22  0:02:20  0:05:02 1556k
 180  32  594M   32  190M    0     0  1376k      0  0:07:22  0:02:21  0:05:01 1657k
 181  32  594M   32  192M    0     0  1375k      0  0:07:22  0:02:22  0:05:00 1664k
 182  32  594M   32  193M    0     0  1373k      0  0:07:23  0:02:24  0:04:59 1489k
 183  32  594M   32  194M    0     0  1372k      0  0:07:23  0:02:25  0:04:58 1358k
 184  32  594M   32  195M    0     0  1370k      0  0:07:23  0:02:26  0:04:57 1258k
 185  33  594M   33  196M    0     0  1369k      0  0:07:24  0:02:27  0:04:57 1164k
 186  33  594M   33  197M    0     0  1367k      0  0:07:25  0:02:28  0:04:57 1119k
 187  33  594M   33  198M    0     0  1367k      0  0:07:25  0:02:29  0:04:56 1190k
 188  33  594M   33  200M    0     0  1366k      0  0:07:25  0:02:29  0:04:56 1212k
 189  33  594M   33  201M    0     0  1367k      0  0:07:24  0:02:31  0:04:53 1274k
 190  34  594M   34  202M    0     0  1366k      0  0:07:25  0:02:32  0:04:53 1292k
 191  34  594M   34  204M    0     0  1365k      0  0:07:25  0:02:33  0:04:52 1312k
 192  34  594M   34  205M    0     0  1365k      0  0:07:25  0:02:34  0:04:51 1309k
 193  34  594M   34  206M    0     0  1364k      0  0:07:25  0:02:34  0:04:51 1299k
 194  34  594M   34  207M    0     0  1363k      0  0:07:26  0:02:35  0:04:51 1242k
 195  35  594M   35  209M    0     0  1363k      0  0:07:26  0:02:37  0:04:49 1276k
 196  35  594M   35  210M    0     0  1365k      0  0:07:25  0:02:38  0:04:47 1362k
 197  35  594M   35  212M    0     0  1369k      0  0:07:24  0:02:38  0:04:46 1488k
 198  36  594M   36  214M    0     0  1371k      0  0:07:23  0:02:39  0:04:44 1583k
 199  36  594M   36  215M    0     0  1372k      0  0:07:23  0:02:41  0:04:42 1671k
 200  36  594M   36  217M    0     0  1371k      0  0:07:23  0:02:42  0:04:41 1622k
 201  36  594M   36  218M    0     0  1371k      0  0:07:23  0:02:43  0:04:40 1577k
 202  36  594M   36  219M    0     0  1370k      0  0:07:23  0:02:44  0:04:39 1418k
 203  37  594M   37  220M    0     0  1369k      0  0:07:24  0:02:44  0:04:40 1295k
 204  37  594M   37  221M    0     0  1366k      0  0:07:25  0:02:46  0:04:39 1143k
 205  37  594M   37  222M    0     0  1365k      0  0:07:25  0:02:47  0:04:38 1153k
 206  37  594M   37  224M    0     0  1365k      0  0:07:25  0:02:47  0:04:38 1156k
 207  37  594M   37  225M    0     0  1366k      0  0:07:25  0:02:48  0:04:37 1224k
 208  38  594M   38  226M    0     0  1366k      0  0:07:25  0:02:49  0:04:36 1286k
 209  38  594M   38  228M    0     0  1366k      0  0:07:25  0:02:50  0:04:35 1383k
 210  38  594M   38  230M    0     0  1369k      0  0:07:24  0:02:52  0:04:32 1526k
 211  39  594M   39  236M    0     0  1399k      0  0:07:14  0:02:53  0:04:21 2548k
 212  39  594M   39  237M    0     0  1397k      0  0:07:15  0:02:54  0:04:21 2462k
 213  40  594M   40  238M    0     0  1397k      0  0:07:15  0:02:55  0:04:20 2457k
 214  40  594M   40  239M    0     0  1395k      0  0:07:15  0:02:56  0:04:19 2390k
 215  40  594M   40  241M    0     0  1394k      0  0:07:16  0:02:57  0:04:19 2249k
 216  40  594M   40  241M    0     0  1391k      0  0:07:17  0:02:58  0:04:19 1124k
 217  40  594M   40  242M    0     0  1388k      0  0:07:18  0:02:59  0:04:19 1072k
 218  41  594M   41  243M    0     0  1386k      0  0:07:18  0:02:59  0:04:19  982k
 219  41  594M   41  244M    0     0  1385k      0  0:07:19  0:03:01  0:04:18 1018k
 220  41  594M   41  245M    0     0  1382k      0  0:07:19  0:03:02  0:04:17  964k
 221  41  594M   41  246M    0     0  1380k      0  0:07:20  0:03:02  0:04:18  984k
 222  41  594M   41  247M    0     0  1379k      0  0:07:21  0:03:03  0:04:18 1034k
 223  41  594M   41  248M    0     0  1376k      0  0:07:22  0:03:04  0:04:18 1011k
 224  42  594M   42  249M    0     0  1375k      0  0:07:22  0:03:06  0:04:16 1007k
 225  42  594M   42  250M    0     0  1372k      0  0:07:23  0:03:07  0:04:16 1001k
 226  42  594M   42  251M    0     0  1371k      0  0:07:23  0:03:07  0:04:16 1024k
 227  42  594M   42  252M    0     0  1369k      0  0:07:24  0:03:08  0:04:16 1027k
 228  42  594M   42  253M    0     0  1367k      0  0:07:24  0:03:09  0:04:15 1062k
 229  42  594M   42  254M    0     0  1365k      0  0:07:25  0:03:10  0:04:15 1024k
 230  43  594M   43  255M    0     0  1364k      0  0:07:25  0:03:11  0:04:14 1050k
 231  43  594M   43  256M    0     0  1361k      0  0:07:26  0:03:12  0:04:14 1010k
 232  43  594M   43  257M    0     0  1359k      0  0:07:27  0:03:13  0:04:14  966k
 233  43  594M   43  258M    0     0  1357k      0  0:07:28  0:03:14  0:04:14  944k
 234  43  594M   43  259M    0     0  1354k      0  0:07:29  0:03:15  0:04:14  928k
 235  43  594M   43  260M    0     0  1353k      0  0:07:29  0:03:17  0:04:12  919k
 236  43  594M   43  261M    0     0  1351k      0  0:07:30  0:03:17  0:04:13  953k
 237  44  594M   44  262M    0     0  1349k      0  0:07:30  0:03:19  0:04:11  975k
 238  44  594M   44  263M    0     0  1347k      0  0:07:31  0:03:20  0:04:11  987k
 239  44  594M   44  264M    0     0  1345k      0  0:07:32  0:03:21  0:04:11  965k
 240  44  594M   44  264M    0     0  1342k      0  0:07:33  0:03:21  0:04:12  945k
 241  44  594M   44  266M    0     0  1342k      0  0:07:33  0:03:22  0:04:11  960k
 242  44  594M   44  266M    0     0  1340k      0  0:07:34  0:03:24  0:04:10  953k
 243  45  594M   45  267M    0     0  1337k      0  0:07:34  0:03:24  0:04:10  941k
 244  45  594M   45  268M    0     0  1336k      0  0:07:35  0:03:26  0:04:09  985k
 245  45  594M   45  270M    0
 246  [11/28/2018 03:00PM]: 0  1336k      0  0:07:35  0:03:26  0:04:09 1065k
 247  45  594M   45  271M    0     0  1335k      0  0:07:35  0:03:27  0:04:08 1065k
 248  45  594M   45  272M    0     0  1334k      0  0:07:35  0:03:29  0:04:06 1117k
 249  46  594M   46  273M    0     0  1333k      0  0:07:36  0:03:30  0:04:06 1147k
 250  46  594M   46  274M    0     0  1331k      0  0:07:36  0:03:30  0:04:06 1130k
 251  46  594M   46  275M    0     0  1330k      0  0:07:37  0:03:32  0:04:05 1091k
 252  46  594M   46  276M    0     0  1329k      0  0:07:37  0:03:32  0:04:05 1069k
 253  46  594M   46  277M    0     0  1328k      0  0:07:38  0:03:33  0:04:05 1053k
 254  46  594M   46  279M    0     0  1329k      0  0:07:37  0:03:35  0:04:02 1177k
 255  47  594M   47  280M    0     0  1330k      0  0:07:37  0:03:36  0:04:01 1271k
 256  47  594M   47  281M    0     0  1329k      0  0:07:37  0:03:37  0:04:00 1289k
 257  47  594M   47  283M    0     0  1329k      0  0:07:37  0:03:38  0:03:59 1336k
 258  47  594M   47  284M    0     0  1328k      0  0:07:37  0:03:39  0:03:58 1355k
 259  48  594M   48  286M    0     0  1331k      0  0:07:37  0:03:40  0:03:57 1398k
 260  48  594M   48  287M    0     0  1330k      0  0:07:37  0:03:41  0:03:56 1345k
 261  48  594M   48  288M    0     0  1329k      0  0:07:37  0:03:42  0:03:55 1308k
 262  48  594M   48  289M    0     0  1328k      0  0:07:37  0:03:43  0:03:54 1310k
 263  48  594M   48  290M    0     0  1328k      0  0:07:38  0:03:43  0:03:55 1316k
 264  49  594M   49  291M    0     0  1327k      0  0:07:38  0:03:45  0:03:53 1161k
 265  49  594M   49  292M    0     0  1326k      0  0:07:38  0:03:46  0:03:52 1141k
 266  49  594M   49  293M    0     0  1325k      0  0:07:39  0:03:47  0:03:52 1156k
 267  49  594M   49  294M    0     0  1323k      0  0:07:39  0:03:48  0:03:51 1064k
 268  49  594M   49  295M    0     0  1321k      0  0:07:40  0:03:48  0:03:52  998k
 269  49  594M   49  296M    0     0  1319k      0  0:07:41  0:03:50  0:03:51  956k
 270  50  594M   50  297M    0     0  1317k      0  0:07:41  0:03:50  0:03:51  929k
 271  50  594M   50  297M    0     0  1315k      0  0:07:42  0:03:52  0:03:50  855k
 272  50  594M   50  298M    0     0  1312k      0  0:07:43  0:03:53  0:03:50  836k
 273  50  594M   50  299M    0     0  1311k      0  0:07:43  0:03:54  0:03:49  866k
 274  50  594M   50  300M    0     0  1310k      0  0:07:44  0:03:55  0:03:49  895k
 275  50  594M   50  301M    0     0  1308k      0  0:07:44  0:03:56  0:03:48  895k
 276  50  594M   50  302M    0     0  1307k      0  0:07:45  0:03:57  0:03:48  943k
 277  51  594M   51  303M    0     0  1306k      0  0:07:45  0:03:57  0:03:48 1041k
 278  51  594M   51  304M    0     0  1305k      0  0:07:45  0:03:59  0:03:46 1042k
 279  51  594M   51  305M    0     0  1304k      0  0:07:46  0:03:59  0:03:47 1006k
 280  51  594M   51  306M    0     0  1302k      0  0:07:47  0:04:01  0:03:46 1009k
 281  51  594M   51  307M    0     0  1301k      0  0:07:47  0:04:01  0:03:46 1005k
 282  51  594M   51  308M    0     0  1299k      0  0:07:48  0:04:02  0:03:46  963k
 283  52  594M   52  309M    0     0  1297k      0  0:07:48  0:04:03  0:03:45  904k
 284  52  594M   52  310M    0     0  1296k      0  0:07:49  0:04:05  0:03:44  919k
 285  52  594M   52  310M    0     0  1294k      0  0:07:50  0:04:06  0:03:44  905k
 286  52  594M   52  311M    0     0  1292k      0  0:07:50  0:04:07  0:03:43  894k
 287  52  594M   52  312M    0     0  1291k      0  0:07:50  0:04:07  0:03:43  905k
 288  52  594M   52  313M    0     0  1289k      0  0:07:51  0:04:08  0:03:43  895k
 289  52  594M   52  314M    0     0  1287k      0  0:07:52  0:04:10  0:03:42  874k
 290  53  594M   53  315M    0     0  1285k      0  0:07:53  0:04:11  0:03:42  867k
 291  53  594M   53  316M    0     0  1284k      0  0:07:53  0:04:12  0:03:41  864k
 292  53  594M   53  316M    0     0  1282k      0  0:07:54  0:04:13  0:03:41  808k
 293  53  594M   53  317M    0     0  1281k      0  0:07:54  0:04:14  0:03:40  884k
 294  53  594M   53  318M    0     0  1280k      0  0:07:55  0:04:15  0:03:40  889k
 295  53  594M   53  319M    0     0  1278k      0  0:07:56  0:04:16  0:03:40  886k
 296  53  594M   53  320M    0     0  1276k      0  0:07:56  0:04:17  0:03:39  877k
 297  54  594M   54  321M    0     0  1275k      0  0:07:57  0:04:17  0:03:40  913k
 298  54  594M   54  322M    0     0  1274k      0  0:07:57  0:04:19  0:03:38  890k
 299  54  594M   54  323M    0     0  1272k      0  0:07:58  0:04:20  0:03:38  912k
 300  54  594M   54  324M    0     0  1271k      0  0:07:58  0:04:20  0:03:38  954k
 301  54  594M   54  325M    0     0  1270k      0  0:07:58  0:04:22  0:03:36  982k
 302  54  594M   54  326M    0     0  1270k      0  0:07:59  0:04:22  0:03:37 1007k
 303  55  594M   55  327M    0     0  1269k      0  0:07:59  0:04:24  0:03:35 1030k
 304  55  594M   55  328M    0     0  1269k      0  0:07:59  0:04:25  0:03:34 1074k
 305  55  594M   55  329M    0     0  1267k      0  0:08:00  0:04:25  0:03:35 1020k
 306  55  594M   55  329M    0     0  1265k      0  0:08:00  0:04:27  0:03:33  962k
 307  55  594M   55  330M    0     0  1263k      0  0:08:01  0:04:28  0:03:33  911k
 308  55  594M   55  331M    0     0  1262k      0  0:08:01  0:04:29  0:03:32  888k
 309  55  594M   55  332M    0     0  1261k      0  0:08:02  0:04:30  0:03:32  848k
 310  56  594M   56  333M    0     0  1260k      0  0:08:02  0:04:30  0:03:32  918k
 311  56  594M   56  334M    0     0  1259k      0  0:08:03  0:04:32  0:03:31  947k
 312  56  594M   56  335M    0     0  1258k      0  0:08:03  0:04:33  0:03:30  985k
 313  56  594M   56  336M    0     0  1257k      0  0:08:03  0:04:34  0:03:29  983k
 314  56  594M   56  337M    0     0  1256k      0  0:08:04  0:04:35  0:03:29  997k
 315  56  594M   56  338M    0     0  1255k      0  0:08:04  0:04:36  0:03:28  994k
 316  57  594M   57  339M    0     0  1255k      0  0:08:04  0:04:37  0:03:27 1028k
 317  57  594M   57  340M    0     0  1254k      0  0:08:05  0:04:38  0:03:27 1024k
 318  57  594M   57  341M    0     0  1253k      0  0:08:05  0:04:39  0:03:26 1066k
 319  57  594M   57  343M    0     0  1254k      0  0:08:05  0:04:40  0:03:25 1132k
 320  57  594M   57  344M    0     0  1254k      0  0:08:05  0:04:40  0:03:25 1156k
 321  58  594M   58  345M    0     0  1254k      0  0:08:04  0:04:41  0:03:23 1234k
 322  58  594M   58  346M    0     0  1254k      0  0:08:05  0:04:43  0:03:22 1269k
 323  58  594M   58  347M    0     0  1252k      0  0:08:05  0:04:43  0:03:22 1191k
 324  58  594M   58  348M    0     0  1252k      0  0:08:05  0:04:45  0:03:20 1172k
 325  58  594M   58  350M    0     0  1253k      0  0:08:05  0:04:45  0:03:20 1206k
 326  59  594M   59  350M    0     0  1252k      0  0:08:05  0:04:47  0:03:18 1106k
 327  59  594M   59  351M    0     0  1250k      0  0:08:06  0:04:48  0:03:18 1056k
 328  59  594M   59  352M    0     0  1250k      0  0:08:06  0:04:48  0:03:18 1100k
 329  59  594M   59  353M    0     0  1249k      0  0:08:06  0:04:49  0:03:17 1062k
 330  59  594M   59  354M    0     0  1249k      0  0:08:07  0:04:50  0:03:17 1005k
 331  60  594M   60  356M    0     0  1250k      0  0:08:06  0:04:52  0:03:14 1158k
 332  60  594M   60  358M    0     0  1252k      0  0:08:05  0:04:52  0:03:13 1320k
 333  60  594M   60  359M    0     0  1253k      0  0:08:05  0:04:54  0:03:11 1426k
 334  60  594M   60  361M    0     0  1253k      0  0:08:05  0:04:54  0:03:11 1487k
 335  61  594M   61  363M    0     0  1256k      0  0:08:04  0:04:55  0:03:09 1673k
 336  61  594M   61  364M    0     0  1257k      0  0:08:03  0:04:57  0:03:06 1674k
 337  61  594M   61  366M    0     0  1258k      0  0:08:03  0:04:57  0:03:06 1657k
 338  61  594M   61  367M    0     0  1260k      0  0:08:02  0:04:58  0:03:04 1674k
 339  62  594M   62  369M    0     0  1261k      0  0:08:02  0:04:59  0:03:03 1696k
 340  62  594M   62  370M    0     0  1261k      0  0:08:02  0:05:00  0:03:02 1564k
 341  62  594M   62  371M    0     0  1260k      0  0:08:02  0:05:02  0:03:00 1454k
 342  62  594M   62  373M    0     0  1260k      0  0:08:02  0:05:02  0:03:00 1382k
 343  62  594M   62  374M    0     0  1260k      0  0:08:02  0:05:04  0:02:58 1272k
 344  63  594M   63  375M    0     0  1260k      0  0:08:02  0:05:04  0:02:58 1206k
 345  63  594M   63  376M    0     0  1260k      0  0:08:02  0:05:06  0:02:56 1180k
 346  63  594M   63  377M    0     0  1259k      0  0:08:03  0:05:06  0:02:57 1163k
 347  63  594M   63  378M    0     0  1259k      0  0:08:03  0:05:07  0:02:56 1177k
 348  63  594M   63  380M    0     0  1259k      0  0:08:03  0:05:08  0:02:55 1204k
 349  64  594M   64  380M    0     0  1257k      0  0:08:03  0:05:09  0:02:54 1116k
 350  64  594M   64  382M    0     0  1259k      0  0:08:03  0:05:10  0:02:53 1197k
 351  64  594M   64  383M    0     0  1258k      0  0:08:03  0:05:11  0:02:52 1229k
 352  64  594M   64  385M    0     0  1259k      0  0:08:03  0:05:13  0:02:50 1262k
 353  65  594M   65  386M    0     0  1260k      0  0:08:02  0:05:14  0:02:48 1304k
 354  65  594M   65  387M    0     0  1260k      0  0:08:02  0:05:15  0:02:47 1397k
 355  65  594M   65  388M    0     0  1260k      0  0:08:02  0:05:16  0:02:46 1320k
 356  65  594M   65  389M    0     0  1259k      0  0:08:03  0:05:16  0:02:47 1298k
 357  65  594M   65  390M    0     0  1258k      0  0:08:03  0:05:17  0:02:46 1201k
 358  65  594M   65  392M    0     0  1258k      0  0:08:03  0:05:18  0:02:45 1143k
 359  66  594M   66  393M    0     0  1257k      0  0:08:03  0:05:20  0:02:43 1103k
 360  66  594M   66  394M    0     0  1257k      0  0:08:04  0:05:21  0:02:43 1071k
 361  66  594M   66  394M    0     0  1255k      0  0:08:04  0:05:22  0:02:42 1030k
 362  66  594M   66  395M    0     0  1255k      0  0:08:04  0:05:23  0:02:41 1032k
 363  66  594M   66  397M    0     0  1255k      0  0:08:04  0:05:23  0:02:41 1055k
 364  67  594M   67  398M    0     0  1255k      0  0:08:04  0:05:25  0:02:39 1129k
 365  67  594M   67  399M    0     0  1255k      0  0:08:04  0:05:26  0:02:38 1145k
 366  67  594M   67  401M    0     0  1255k      0  0:08:04  0:05:27  0:02:37 1262k
 367  68  594M   68  404M    0     0  1264k      0  0:08:01  0:05:28  0:02:33 1827k
 368  68  594M   68  408M    0     0  1270k      0  0:07:58  0:05:29  0:02:29 2247k
 369  68  594M   68  409M    0     0  1270k      0  0:07:58  0:05:29  0:02:29 2257k
 370  69  594M   69  411M    0     0  1272k      0  0:07:58  0:05:31  0:02:27 2386k
 371  69  594M   69  412M    0     0  1273k      0  0:07:57  0:05:31  0:02:26 2403k
 372  69  594M   69  414M    0     0  1273k      0  0:07:57  0:05:32  0:02:25 1892k
 373  69  594M   69  415M    0     0  1273k      0  0:07:57  0:05:33  0:02:24 1502k
 374  70  594M   70  416M    0     0  1273k      0  0:07:57  0:05:34  0:02:23 1462k
 375  70  594M   70  417M    0     0  1273k      0  0:07:57  0:05:35  0:02:22 1335k
 376  70  594M   70  418M    0     0  1273k      0  0:07:57  0:05:37  0:02:20 1266k
 377  70  594M   70  420M    0     0  1274k      0  0:07:57  0:05:38  0:02:19 1369k
 378  71  594M   71  421M    0     0  1274k      0  0:07:57  0:05:38  0:02:19 1315k
 379  71  594M   71  423M    0     0  1274k      0  0:07:57  0:05:40  0:02:17 1323k
 380  71  594M   71  424M    0     0  1274k      0  0:07:57  0:05:40  0:02:17 1327k
 381  71  594M   71  425M    0     0  1274k      0  0:07:57  0:05:41  0:02:16 1392k
 382  71  594M   71  427M    0     0  1276k      0  0:07:56  0:05:43  0:02:13 1362k
 383  72  594M   72  428M    0     0  1276k      0  0:07:56  0:05:44  0:02:12 1383k
 384  72  594M   72  429M    0     0  1276k      0  0:07:56  0:05:44  0:02:12 1392k
 385  72  594M   72  431M    0     0  1277k      0  0:07:56  0:05:45  0:02:11 1520k
 386  72  594M   72  433M    0     0  1278k      0  0:07:55  0:05:47  0:02:08 1535k
 387  73  594M   73  434M    0     0  1279k      0  0:07:55  0:05:47  0:02:08 1530k
 388  73  594M   73  436M    0     0  1280k      0  0:07:55  0:05:48  0:02:07 1573k
 389  73  594M   73  437M    0     0  1280k      0  0:07:55  0:05:49  0:02:06 1604k
 390  73  594M   73  439M    0     0  1280k      0  0:07:55  0:05:51  0:02:04 1490k
 391  74  594M   74  440M    0     0  1280k      0  0:07:55  0:05:51  0:02:04 1421k
 392  74  594M   74  442M    0     0  1283k      0  0:07:54  0:05:52  0:02:02 1519k
 393  74  594M   74  443M    0     0  1283k      0  0:07:54  0:05:53  0:02:01 1494k
 394  74  594M   74  445M    0     0  1283k      0  0:07:54  0:05:54  0:02:00 1478k
 395  75  594M   75  445M    0     0  1282k      0  0:07:54  0:05:56  0:01:58 1422k
 396  75  594M   75  447M    0     0  1282k      0  0:07:54  0:05:56  0:01:58 1401k
 397  75  594M   75  448M    0     0  1282k      0  0:07:54  0:05:57  0:01:57 1264k
 398  75  594M   75  449M    0     0  1282k      0  0:07:54  0:05:58  0:01:56 1225k
 399  75  594M   75  450M    0     0  1281k      0  0:07:54  0:06:00  0:01:54 1134k
 400  76  594M   76  451M    0     0  1281k      0  0:07:54  0:06:00  0:01:54 1185k
 401  76  594M   76  453M    0     0  1282k      0  0:07:54  0:06:02  0:01:52 1326k
 402  76  594M   76  454M    0     0  1282k      0  0:07:54  0:06:02  0:01:52 1253k
 403  76  594M   76  455M    0     0  1282k      0  0:07:54  0:06:03  0:01:51 1270k
 404  76  594M   76  457M    0     0  1282k      0  0:07:54  0:06:05  0:01:49 1359k
 405  77  594M   77  458M    0     0  1283k      0  0:07:54  0:06:06  0:01:48 1399k
 406  77  594M   77  459M    0     0  1282k      0  0:07:54  0:06:06  0:01:48 1239k
 407  77  594M   77  461M    0     0  1282k      0  0:07:54  0:06:08  0:01:46 1313k
 408  77  594M   77  462M    0     0  1282k      0  0:07:54  0:06:08  0:01:46 1324k
 409  78  594M   78  463M    0     0  1283k      0  0:07:53  0:06:10  0:01:43 1372k
 410  78  594M   78  464M    0     0  1283k      0  0:07:54  0:06:10  0:01:44 1285k
 411  78  594M   78  465M    0     0  1282k      0  0:07:54  0:06:11  0:01:43 1308k
 412  78  594M   78  467M    0     0  1282k      0  0:07:54  0:06:13  0:01:41 1254k
 413  78  594M   78  468M    0     0  1281k      0  0:07:54  0:06:14  0:01:40 1183k
 414  78  594M   78  468M    0     0  1280k      0  0:07:55  0:06:15  0:01:40 1031k
 415  79  594M   79  470M    0     0  1280k      0  0:07:55  0:06:15  0:01:40 1116k
 416  79  594M   79  471M    0     0  1280k      0  0:07:55  0:06:17  0:01:38 1102k
 417  79  594M   79  472M    0     0  1279k      0  0:07:55  0:06:18  0:01:37 1066k
 418  79  594M   79  473M    0     0  1279k      0  0:07:55  0:06:18  0:01:37 1088k
 419  79  594M   79  474M    0     0  1278k      0  0:07:55  0:06:19  0:01:36 1149k
 420  80  594M   80  475M    0     0  1278k      0  0:07:55  0:06:20  0:01:35 1110k
 421  80  594M   80  476M    0     0  1277k      0  0:07:56  0:06:22  0:01:34 1073k
 422  80  594M   80  478M    0     0  1280k      0  0:07:55  0:06:22  0:01:33 1312k
 423  80  594M   80  480M    0     0  1280k      0  0:07:55  0:06:23  0:01:32 1414k
 424  80  594M   80  481M    0     0  1279k      0  0:07:55  0:06:25  0:01:30 1342k
 425  81  594M   81  481M    0     0  1278k      0  0:07:55  0:06:26  0:01:29 1256k
 426  81  594M   81  482M    0     0  1277k      0  0:07:56  0:06:26  0:01:30 1290k
 427  81  594M   81  484M    0     0  1278k      0  0:07:55  0:06:27  0:01:28 1155k
 428  81  594M   81  486M    0     0  1279k      0  0:07:55  0:06:29  0:01:26 1176k
 429  82  594M   82  487M    0     0  1279k      0  0:07:55  0:06:30  0:01:25 1301k
 430  82  594M   82  489M    0     0  1281k      0  0:07:54  0:06:30  0:01:24 1525k
 431  82  594M   82  492M    0     0  1285k      0  0:07:53  0:06:31  0:01:22 1871k
 432  83  594M   83  493M    0     0  1285k      0  0:07:53  0:06:33  0:01:20 1817k
 433  83  594M   83  494M    0     0  1285k      0  0:07:53  0:06:34  0:01:19 1760k
 434  83  594M   83  495M    0     0  1285k      0  0:07:53  0:06:34  0:01:19 1709k
 435  83  594M   83  497M    0     0  1286k      0  0:07:53  0:06:36  0:01:17 1652k
 436  84  594M   84  500M    0     0  1291k      0  0:07:51  0:06:36  0:01:15 1778k
 437  84  594M   84  502M    0     0  1292k      0  0:07:50  0:06:37  0:01:13 1835k
 438  84  594M   84  503M    0     0  1293k      0  0:07:50  0:06:39  0:01:11 1881k
 439  84  594M   84  504M    0     0  1292k      0  0:07:50  0:06:39  0:01:11 1855k
 440  85  594M   85  506M    0     0  1292k      0  0:07:50  0:06:40  0:01:10 1783k
 441  85  594M   85  507M    0     0  1291k      0  0:07:51  0:06:42  0:01:09 1292k
 442  85  594M   85  507M    0     0  1290k      0  0:07:51  0:06:43  0:01:08 1147k
 443  85  594M   85  509M    0     0  1291k      0  0:07:51  0:06:43  0:01:08 1194k
 444  86  594M   86  511M    0     0  1293k      0  0:07:50  0:06:44  0:01:06 1414k
 445  86  594M   86  513M    0     0  1295k      0  0:07:49  0:06:45  0:01:04 1507k
 446  86  594M   86  514M    0     0  1295k      0  0:07:49  0:06:47  0:01:02 1591k
 447  86  594M   86  516M    0     0  1296k      0  0:07:49  0:06:48  0:01:01 1804k
 448  87  594M   87  518M    0     0  1297k      0  0:07:49  0:06:48  0:01:01 1724k
 449  87  594M   87  519M    0     0  1297k      0  0:07:48  0:06:49  0:00:59 1587k
 450  87  594M   87  520M    0     0  1297k      0  0:07:49  0:06:50  0:00:59 1484k
 451  87  594M   87  522M    0     0  1298k      0  0:07:48  0:06:51  0:00:57 1542k
 452  88  594M   88  523M    0     0  1297k      0  0:07:48  0:06:53  0:00:55 1351k
 453  88  594M   88  524M    0     0  1296k      0  0:07:49  0:06:
 454  [11/28/2018 03:01PM]: 54  0:00:55 1271k
 455  88  594M   88  525M    0     0  1296k      0  0:07:49  0:06:54  0:00:55 1202k
 456  88  594M   88  526M    0     0  1295k      0  0:07:49  0:06:56  0:00:53 1176k
 457  88  594M   88  527M    0     0  1295k      0  0:07:49  0:06:57  0:00:52 1030k
 458  88  594M   88  528M    0     0  1293k      0  0:07:50  0:06:57  0:00:53  995k
 459  89  594M   89  529M    0     0  1293k      0  0:07:50  0:06:59  0:00:51  982k
 460  89  594M   89  529M    0     0  1291k      0  0:07:50  0:07:00  0:00:50  927k
 461  89  594M   89  530M    0     0  1291k      0  0:07:51  0:07:01  0:00:50  898k
 462  89  594M   89  531M    0     0  1290k      0  0:07:51  0:07:01  0:00:50  876k
 463  89  594M   89  532M    0     0  1289k      0  0:07:51  0:07:02  0:00:49  928k
 464  89  594M   89  533M    0     0  1288k      0  0:07:52  0:07:03  0:00:49  870k
 465  89  594M   89  534M    0     0  1286k      0  0:07:52  0:07:05  0:00:47  838k
 466  89  594M   89  534M    0     0  1285k      0  0:07:53  0:07:06  0:00:47  786k
 467  90  594M   90  535M    0     0  1284k      0  0:07:53  0:07:06  0:00:47  769k
 468  90  594M   90  536M    0     0  1284k      0  0:07:53  0:07:07  0:00:46  841k
 469  90  594M   90  538M    0     0  1285k      0  0:07:53  0:07:08  0:00:45 1082k
 470  90  594M   90  539M    0     0  1285k      0  0:07:53  0:07:10  0:00:43 1164k
 471  90  594M   90  540M    0     0  1284k      0  0:07:53  0:07:11  0:00:42 1215k
 472  91  594M   91  541M    0     0  1283k      0  0:07:54  0:07:12  0:00:42 1223k
 473  91  594M   91  542M    0     0  1282k      0  0:07:54  0:07:13  0:00:41 1092k
 474  91  594M   91  542M    0     0  1281k      0  0:07:54  0:07:13  0:00:41  882k
 475  91  594M   91  544M    0     0  1280k      0  0:07:55  0:07:15  0:00:40  883k
 476  91  594M   91  545M    0     0  1280k      0  0:07:55  0:07:16  0:00:39  912k
 477  91  594M   91  546M    0     0  1280k      0  0:07:55  0:07:16  0:00:39 1011k
 478  92  594M   92  547M    0     0  1279k      0  0:07:55  0:07:18  0:00:37 1095k
 479  92  594M   92  548M    0     0  1279k      0  0:07:55  0:07:19  0:00:36 1141k
 480  92  594M   92  549M    0     0  1278k      0  0:07:55  0:07:20  0:00:35 1123k
 481  92  594M   92  550M    0     0  1278k      0  0:07:55  0:07:21  0:00:34 1120k
 482  92  594M   92  551M    0     0  1278k      0  0:07:56  0:07:22  0:00:34 1096k
 483  93  594M   93  553M    0     0  1278k      0  0:07:55  0:07:23  0:00:32 1158k
 484  93  594M   93  554M    0     0  1278k      0  0:07:55  0:07:23  0:00:32 1201k
 485  93  594M   93  555M    0     0  1278k      0  0:07:56  0:07:24  0:00:32 1217k
 486  93  594M   93  556M    0     0  1277k      0  0:07:56  0:07:26  0:00:30 1216k
 487  93  594M   93  557M    0     0  1277k      0  0:07:56  0:07:26  0:00:30 1195k
 488  94  594M   94  558M    0     0  1277k      0  0:07:56  0:07:28  0:00:28 1175k
 489  94  594M   94  560M    0     0  1277k      0  0:07:56  0:07:29  0:00:27 1181k
 490  94  594M   94  561M    0     0  1277k      0  0:07:56  0:07:30  0:00:26 1236k
 491  94  594M   94  562M    0     0  1277k      0  0:07:56  0:07:30  0:00:26 1280k
 492  94  594M   94  563M    0     0  1277k      0  0:07:56  0:07:32  0:00:24 1285k
 493  95  594M   95  565M    0     0  1277k      0  0:07:56  0:07:33  0:00:23 1299k
 494  95  594M   95  566M    0     0  1278k      0  0:07:56  0:07:34  0:00:22 1336k
 495  95  594M   95  568M    0     0  1279k      0  0:07:55  0:07:35  0:00:20 1467k
 496  95  594M   95  569M    0     0  1279k      0  0:07:55  0:07:35  0:00:20 1452k
 497  96  594M   96  570M    0     0  1279k      0  0:07:55  0:07:36  0:00:19 1462k
 498  96  594M   96  572M    0     0  1280k      0  0:07:55  0:07:37  0:00:18 1497k
 499  96  594M   96  574M    0     0  1280k      0  0:07:55  0:07:39  0:00:16 1520k
 500  96  594M   96  575M    0     0  1280k      0  0:07:55  0:07:40  0:00:15 1321k
 501  97  594M   97  576M    0     0  1280k      0  0:07:55  0:07:40  0:00:15 1364k
 502  97  594M   97  578M    0     0  1281k      0  0:07:54  0:07:41  0:00:13 1462k
 503  97  594M   97  580M    0     0  1282k      0  0:07:54  0:07:42  0:00:12 1542k
 504  97  594M   97  581M    0     0  1283k      0  0:07:54  0:07:43  0:00:11 1505k
 505  98  594M   98  582M    0     0  1283k      0  0:07:54  0:07:45  0:00:09 1568k
 506  98  594M   98  584M    0     0  1284k      0  0:07:53  0:07:45  0:00:08 1699k
 507  98  594M   98  586M    0     0  1285k      0  0:07:53  0:07:46  0:00:07 1648k
 508  98  594M   98  587M    0     0  1285k      0  0:07:53  0:07:47  0:00:06 1532k
 509  99  594M   99  588M    0     0  1285k      0  0:07:53  0:07:49  0:00:04 1541k
 510  99  594M   99  590M    0     0  1287k      0  0:07:52  0:07:49  0:00:03 1642k
 511  99  594M   99  593M    0     0  1289k      0  0:07:51  0:07:51 --:--:-- 1742k
 512 100  594M  100  594M    0     0  1289k      0  0:07:51  0:07:51 --:--:-- 1744k
 513  [11/28/2018 03:01PM]:   -> Downloading chrome.rpm...
 514  [11/28/2018 03:01PM]: 
 515   0     0    0     0    0     0      0      0 --:--:-- --:--:-- --:--:--     0
 516   0     0    0     0    0     0      0      0 --:--:-- --:--:-- --:--:--     0
 517   4 53.5M    4 2624k    0     0  2445k      0  0:00:22  0:00:01  0:00:21 2445k
 518   8 53.5M    8 4623k    0     0  2228k      0  0:00:24  0:00:02  0:00:22 2227k
 519  12 53.5M   12 6624k    0     0  2155k      0  0:00:25  0:00:03  0:00:22 2154k
 520  15 53.5M   15 8335k    0     0  2045k      0  0:00:26  0:00:04  0:00:22 2045k
 521  17 53.5M   17 9551k    0     0  1881k      0  0:00:29  0:00:05  0:00:24 1956k
 522  19 53.5M   19 10.5M    0     0  1769k      0  0:00:30  0:00:06  0:00:24 1623k
 523  21 53.5M   21 11.7M    0     0  1698k      0  0:00:32  0:00:07  0:00:25 1478k
 524  25 53.5M   25 13.8M    0     0  1751k      0  0:00:31  0:00:08  0:00:23 1504k
 525  28 53.5M   28 15.1M    0     0  1708k      0  0:00:32  0:00:09  0:00:23 1433k
 526  31 53.5M   31 16.9M    0     0  1725k      0  0:00:31  0:00:10  0:00:21 1566k
 527  34 53.5M   34 18.5M    0     0  1711k      0  0:00:32  0:00:11  0:00:21 1640k
 528  37 53.5M   37 19.9M    0     0  1690k      0  0:00:32  0:00:12  0:00:20 1680k
 529  40 53.5M   40 21.5M    0     0  1687k      0  0:00:32  0:00:13  0:00:19 1584k
 530  42 53.5M   42 22.9M    0     0  1667k      0  0:00:32  0:00:14  0:00:18 1592k
 531  45 53.5M   45 24.0M    0     0  1636k      0  0:00:33  0:00:15  0:00:18 1458k
 532  47 53.5M   47 25.1M    0     0  1604k      0  0:00:34  0:00:16  0:00:18 1367k
 533  49 53.5M   49 26.3M    0     0  1580k      0  0:00:34  0:00:17  0:00:17 1314k
 534  52 53.5M   52 28.1M    0     0  1596k      0  0:00:34  0:00:18  0:00:16 1356k
 535  57 53.5M   57 30.6M    0     0  1643k      0  0:00:33  0:00:19  0:00:14 1576k
 536  59 53.5M   59 31.7M    0     0  1620k      0  0:00:33  0:00:20  0:00:13 1572k
 537  61 53.5M   61 32.9M    0     0  1602k      0  0:00:34  0:00:21  0:00:13 1597k
 538  64 53.5M   64 34.6M    0     0  1606k      0  0:00:34  0:00:22  0:00:12 1693k
 539  67 53.5M   67 36.1M    0     0  1603k      0  0:00:34  0:00:23  0:00:11 1628k
 540  70 53.5M   70 37.4M    0     0  1593k      0  0:00:34  0:00:24  0:00:10 1405k
 541  72 53.5M   72 38.7M    0     0  1582k      0  0:00:34  0:00:25  0:00:09 1428k
 542  74 53.5M   74 39.7M    0     0  1560k      0  0:00:35  0:00:26  0:00:09 1385k
 543  75 53.5M   75 40.6M    0     0  1536k      0  0:00:35  0:00:27  0:00:08 1230k
 544  78 53.5M   78 41.7M    0     0  1523k      0  0:00:35  0:00:28  0:00:07 1154k
 545  80 53.5M   80 43.1M    0     0  1520k      0  0:00:36  0:00:29  0:00:07 1163k
 546  82 53.5M   82 44.1M    0     0  1504k      0  0:00:36  0:00:30  0:00:06 1114k
 547  84 53.5M   84 45.1M    0     0  1489k      0  0:00:36  0:00:31  0:00:05 1114k
 548  86 53.5M   86 46.4M    0     0  1481k      0  0:00:37  0:00:32  0:00:05 1181k
 549  89 53.5M   89 47.6M    0     0  1476k      0  0:00:37  0:00:33  0:00:04 1212k
 550  91 53.5M   91 49.0M    0     0  1472k      0  0:00:37  0:00:34  0:00:03 1196k
 551  94 53.5M   94 50.7M    0     0  1480k      0  0:00:37  0:00:35  0:00:02 1333k
 552  97 53.5M   97 52.3M    0     0  1486k      0  0:00:36  0:00:36 --:--:-- 1469k
 553 100 53.5M  100 53.5M    0     0  1488k      0  0:00:36  0:00:36 --:--:-- 1535k
 554  [11/28/2018 03:01PM]:   -> Downloading chrome-eula_text.html...
 555  [11/28/2018 03:01PM]: 
 556   0     0    0     0    0     0      0      0 --:--:-- --:--:-- --:--:--     0
 557 100   257  100   257    0     0   3426      0 --:--:-- --:--:-- --:--:--  4015
 558  [11/28/2018 03:01PM]: 
 559 100 45910    0 45910    0     0   457k      0 --:--:-- --:--:-- --:--:--  457k
 560  [11/28/2018 03:01PM]:   -> Downloading include-stdint.h-in-pdfium_mem_buffer_file_write.h.patch...
 561  [11/28/2018 03:01PM]: 
 562   0     0    0     0    0     0      0      0 --:--:-- --:--:-- --:--:--     0
 563 100   986  100   986    0     0    988      0 --:--:-- --:--:-- --:--:--   987
 564 100   986  100   986    0     0    988      0 --:--:-- --:--:-- --:--:--   987
 565  [11/28/2018 03:01PM]:   -> Downloading chromium-harfbuzz-r0.patch...
 566  [11/28/2018 03:01PM]: 
 567   0     0    0     0    0     0      0      0 --:--:-- --:--:-- --:--:--     0
 568 100  4173  100  4173    0     0   5398      0 --:--:-- --:--:-- --:--:--  5398
 569  [11/28/2018 03:01PM]:   -> Downloading chromium-widevine-r2.patch...
 570  [11/28/2018 03:01PM]: 
 571   0     0    0     0    0     0      0      0 --:--:-- --:--:-- --:--:--     0
 572   0     0    0     0    0     0      0      0 --:--:-- --:--:-- --:--:--     0
 573 100  1488  100  1488    0     0   2750      0 --:--:-- --:--:-- --:--:--  2770
 574  [11/28/2018 03:01PM]:   -> Downloading chromium-system-icu.patch...
 575  [11/28/2018 03:01PM]: 
 576   0     0    0     0    0     0      0      0 --:--:-- --:--:-- --:--:--     0
 577   0     0    0     0    0     0      0      0 --:--:-- --:--:-- --:--:--     0
 578 100   720  100   720    0     0   1306      0 --:--:-- --:--:-- --:--:--  1321
 579  [11/28/2018 03:01PM]:   -> Downloading chromium-skia-harmony.patch...
 580  [11/28/2018 03:01PM]: 
 581   0     0    0     0    0     0      0      0 --:--:-- --:--:-- --:--:--     0
 582   0     0    0     0    0     0      0      0 --:--:--  0:00:01 --:--:--     0
 583 100  2884  100  2884    0     0   1917      0  0:00:01  0:00:01 --:--:--  1917
 584  [11/28/2018 03:01PM]: ==> Generating checksums for source files...
 585  [11/28/2018 03:01PM]: ==> Making package: vivaldi 2.1.1337.51-1 (Wed Nov 28 21:01:59 2018)
 586  [11/28/2018 03:01PM]: ==> Checking runtime dependencies...
 587  [11/28/2018 03:02PM]: ==> Installing missing dependencies...
 588  [11/28/2018 03:02PM]: :: There are 11 providers available for ttf-font:
 589  [11/28/2018 03:02PM]:    1) ttf-google-fonts-typewolf
 590  [11/28/2018 03:02PM]:    2) noto-fonts  3) ttf-bitstream-vera  4) ttf-caladea  5) ttf-carlito  6) ttf-croscore  7) ttf-dejavu  8) ttf-freefont
 591  [11/28/2018 03:02PM]:    9) ttf-droid  10) ttf-liberation  11) ttf-ubuntu-font-family
 592  [11/28/2018 03:02PM]: Enter a number (default=1): warning: skipping target: freetype2
 593  [11/28/2018 03:02PM]: looking for conflicting packages...
 594  [11/28/2018 03:02PM]: warning: dependency cycle detected:
 595  [11/28/2018 03:02PM]: warning: harfbuzz will be installed before its freetype2 dependency
 596  [11/28/2018 03:02PM]: warning: libglvnd will be installed before its mesa dependency
 597  [11/28/2018 03:02PM]: Packages (98) adwaita-icon-theme-3.30.1-1  at-spi2-atk-2.30.0-1  at-spi2-core-2.30.0-2  atk-2.30.0-1  avahi-0.7+16+g1cc2b8e-2  cairo-1.16.0-1  cantarell-fonts-1:0.111-1  colord-1.4.3-2  dbus-glib-0.110-1  dconf-0.30.1-1  fribidi-1.0.5-1  gdk-pixbuf2-2.38.0-1  giflib-5.1.4-2  glib-networking-2.58.0-1  graphite-1:1.3.12-1  gsettings-desktop-schemas-3.28.1-1  gtk-update-icon-cache-3.24.1+8+g220f77d8c1-1  jasper-2.0.14-1  js52-52.9.0-1  json-glib-1.4.4-1  lcms2-2.9-1  libcanberra-0.30+2+gc0620e4-2  libcups-2.2.9-1  libdaemon-0.14-4  libdatrie-0.2.12-1  libdrm-2.4.96-1  libepoxy-1.5.3-1  libfontenc-1.1.3-2  libglvnd-1.1.0-1  libgudev-232-1  libgusb-0.3.0-1  libogg-1.3.3-3  libomxil-bellagio-0.9.3-2  libpciaccess-0.14-1  libpng-1.6.35-1  libproxy-0.4.15-8  librsvg-2:2.44.9-1  libsoup-2.64.2-1  libthai-0.1.28-1  libtiff-4.0.10-1  libunwind-1.2.1-2  libvorbis-1.3.6-1  libx11-1.6.7-1  libxau-1.0.8-3  libxcb-1.13.1-1  libxcomposite-0.4.4-3  libxcursor-1.1.15-1  libxdamage-1.1.4-3  libxdmcp-1.1.2-2  libxext-1.3.3-2  libxfixes-5.0.3-2  libxft-2.3.2-2  libxi-1.7.9-2  libxinerama-1.1.4-1  libxkbcommon-0.8.2-1  libxrandr-1.5.1-2  libxrender-0.9.10-2  libxshmfence-1.3-1  libxxf86vm-1.1.4-2  llvm-libs-7.0.0-1  lm_sensors-3.4.0+5176+dcf23676-1  mesa-18.2.5-1  pango-1.42.4-1  pixman-0.36.0-1  polkit-0.115+3+g8638ec5-1  rest-0.8.1-1  sound-theme-freedesktop-0.8-3  tdb-1.3.16-1  wayland-1.16.0-1  wayland-protocols-1.17-1  xcb-proto-1.13-2  xkeyboard-config-2.25-1  xorg-fonts-encodings-1.0.4-5  xorg-mkfontdir-1.0.7-9  xorg-mkfontscale-1.1.3-1  xorgproto-2018.4-1  alsa-lib-1.1.7-2  desktop-file-utils-0.23+4+g92af410-1  flac-1.3.2-2  fontconfig-2:2.13.1+12+g5f5ec56-1  freetype2-2.9.1-1  gconf-3.2.6+11+g07808097-4  gtk3-3.24.1+8+g220f77d8c1-1  harfbuzz-2.1.3-1  hicolor-icon-theme-0.17-1  libjpeg-turbo-2.0.1-1  libwebp-1.0.1-1  libxslt-1.1.32+3+g32c88216-1  libxss-1.2.3-1  libxtst-1.2.3-2  minizip-1:1.2.11-3  nspr-4.20-1  nss-3.40-2  opus-1.3-1  re2-20181001-1  shared-mime-info-1.10-1  snappy-1.1.7-1  ttf-google-fonts-typewolf-17.11.git+2e2caa2-1
 598  [11/28/2018 03:02PM]: Total Download Size:    23.86 MiB
 599  [11/28/2018 03:02PM]: Total Installed Size:  524.43 MiB
 600  [11/28/2018 03:02PM]: :: Proceed with installation? [Y/n]
 601  [11/28/2018 03:02PM]: downloading pixman-0.36.0-1-x86_64.pkg.tar.xz...
 602  [11/28/2018 03:02PM]: downloading adwaita-icon-theme-3.30.1-1-any.pkg.tar.xz...
 603  [11/28/2018 03:02PM]: downloading wayland-protocols-1.17-1-any.pkg.tar.xz...
 604  [11/28/2018 03:02PM]: downloading mesa-18.2.5-1-x86_64.pkg.tar.xz...
 605  [11/28/2018 03:02PM]: checking package integrity...
 606  [11/28/2018 03:02PM]: checking for file conflicts...
 607  [11/28/2018 03:02PM]: :: Processing package changes...
 608  [11/28/2018 03:02PM]: Optional dependencies for harfbuzz
 609  [11/28/2018 03:02PM]:     cairo: hb-view program [pending]
 610  [11/28/2018 03:02PM]: warning: directory permissions differ on /var/
 611  [11/28/2018 03:02PM]: filesystem: 777  package: 755
 612  [11/28/2018 03:02PM]:   Fontconfig configuration is done via /etc/fonts/conf.avail and conf.d.
 613  [11/28/2018 03:02PM]:   Read /etc/fonts/conf.d/README for more information.
 614  [11/28/2018 03:02PM]:   Configuration via /etc/fonts/local.conf is still possible,
 615  [11/28/2018 03:02PM]:   but is no longer recommended for options available in conf.avail.
 616  [11/28/2018 03:02PM]:   Main systemwide configuration should be done by symlinks
 617  [11/28/2018 03:02PM]:   (especially for autohinting, sub-pixel and lcdfilter):
 618  [11/28/2018 03:02PM]:   ln -s ../conf.avail/XX-foo.conf
 619  [11/28/2018 03:02PM]:   Check also https://wiki.archlinux.org/index.php/Font_Configuration
 620  [11/28/2018 03:02PM]:   and https://wiki.archlinux.org/index.php/Fonts.
 621  [11/28/2018 03:02PM]: Rebuilding fontconfig cache... done.
 622  [11/28/2018 03:02PM]: Optional dependencies for libxcursor
 623  [11/28/2018 03:02PM]:     gnome-themes-standard: fallback icon theme
 624  [11/28/2018 03:02PM]: Optional dependencies for libtiff
 625  [11/28/2018 03:02PM]:     freeglut: for using tiffgt
 626  [11/28/2018 03:02PM]: Optional dependencies for jasper
 627  [11/28/2018 03:02PM]:     jasper-doc: documentation
 628  [11/28/2018 03:02PM]: installing shared-mime-info...
 629  [11/28/2018 03:02PM]: Optional dependencies for at-spi2-core
 630  [11/28/2018 03:02PM]:     dbus-broker: Alternative bus implementation
 631  [11/28/2018 03:02PM]: installing xkeyboard-config...
 632  [11/28/2018 03:02PM]: installing hicolor-icon-theme...
 633  [11/28/2018 03:02PM]: installing gtk-update-icon-cache...
 634  [11/28/2018 03:02PM]: installing wayland-protocols...
 635  [11/28/2018 03:02PM]: installing desktop-file-utils...
 636  [11/28/2018 03:02PM]: installing libomxil-bellagio...
 637  [11/28/2018 03:02PM]: Optional dependencies for lm_sensors
 638  [11/28/2018 03:02PM]:     rrdtool: for logging with sensord
 639  [11/28/2018 03:02PM]: Optional dependencies for mesa
 640  [11/28/2018 03:02PM]:     opengl-man-pages: for the OpenGL API man pages
 641  [11/28/2018 03:02PM]:     mesa-vdpau: for accelerated video playback
 642  [11/28/2018 03:02PM]:     libva-mesa-driver: for accelerated video playback
 643  [11/28/2018 03:02PM]: installing cantarell-fonts...
 644  [11/28/2018 03:02PM]: Optional dependencies for colord
 645  [11/28/2018 03:02PM]:     argyllcms: color profiling
 646  [11/28/2018 03:02PM]:     colord-sane: SANE support
 647  [11/28/2018 03:02PM]: Optional dependencies for libproxy
 648  [11/28/2018 03:02PM]:     networkmanager: NetworkManager configuration module
 649  [11/28/2018 03:02PM]:     perl: Perl bindings [installed]
 650  [11/28/2018 03:02PM]:     python2: Python 2.x bindings [installed]
 651  [11/28/2018 03:02PM]:     python: Python 3.x bindings [installed]
 652  [11/28/2018 03:02PM]:     glib2: gsettings configuration module [installed]
 653  [11/28/2018 03:02PM]:     webkit2gtk: PAC proxy support (Webkit2gtk engine)
 654  [11/28/2018 03:02PM]: installing gsettings-desktop-schemas...
 655  [11/28/2018 03:02PM]: installing glib-networking...
 656  [11/28/2018 03:02PM]: Optional dependencies for avahi
 657  [11/28/2018 03:02PM]:     gtk3: avahi-discover, avahi-discover-standalone, bshell, bssh, bvnc [pending]
 658  [11/28/2018 03:02PM]:     qt5-base: qt5 bindings
 659  [11/28/2018 03:02PM]:     python2-twisted: avahi-bookmarks
 660  [11/28/2018 03:02PM]:     nss-mdns: NSS support for mDNS
 661  [11/28/2018 03:02PM]:     python-gobject: avahi-discover
 662  [11/28/2018 03:02PM]:     python-dbus: avahi-discover
 663  [11/28/2018 03:02PM]: Optional dependencies for alsa-lib
 664  [11/28/2018 03:02PM]:     python2: for python smixer plugin [installed]
 665  [11/28/2018 03:02PM]: Optional dependencies for tdb
 666  [11/28/2018 03:02PM]: installing sound-theme-freedesktop...
 667  [11/28/2018 03:02PM]: Optional dependencies for libcanberra
 668  [11/28/2018 03:02PM]:     libcanberra-pulse: PulseAudio driver
 669  [11/28/2018 03:02PM]:     libcanberra-gstreamer: GStreamer driver
 670  [11/28/2018 03:02PM]: installing xorg-fonts-encodings...
 671  [11/28/2018 03:02PM]: installing xorg-mkfontscale...
 672  [11/28/2018 03:02PM]: installing xorg-mkfontdir...
 673  [11/28/2018 03:02PM]: Creating X fontdir indices... done.
 674  [11/28/2018 03:02PM]: installing ttf-google-fonts-typewolf...
 675  [11/28/2018 03:02PM]: Optional dependencies for libwebp
 676  [11/28/2018 03:02PM]:     freeglut: vwebp viewer
 677  [11/28/2018 03:02PM]: :: Running post-transaction hooks...
 678  [11/28/2018 03:02PM]: ( 1/15) Warn about old perl modules
 679  [11/28/2018 03:02PM]: ( 2/15) Updating fontconfig cache...
 680  [11/28/2018 03:02PM]: ( 3/15) Probing GDK-Pixbuf loader modules...
 681  [11/28/2018 03:02PM]: ( 4/15) Updating GIO module cache...
 682  [11/28/2018 03:02PM]: ( 5/15) Compiling GSettings XML schema files...
 683  [11/28/2018 03:02PM]: ( 6/15) Probing GTK3 input method modules...
 684  [11/28/2018 03:02PM]: ( 7/15) Updating icon theme caches...
 685  [11/28/2018 03:02PM]: ( 8/15) Reloading system manager configuration...
 686  [11/28/2018 03:02PM]:   Skipped: Current root is not booted.
 687  [11/28/2018 03:02PM]: ( 9/15) Creating system user accounts...
 688  [11/28/2018 03:02PM]: (10/15) Creating temporary files...
 689  [11/28/2018 03:02PM]:   Skipped: Device manager is not running.
 690  [11/28/2018 03:02PM]: (12/15) Arming ConditionNeedsUpdate...
 691  [11/28/2018 03:02PM]: (13/15) Updating the desktop file MIME type cache...
 692  [11/28/2018 03:02PM]: (14/15) Updating the MIME type database...
 693  [11/28/2018 03:02PM]: (15/15) Updating X fontdir indices...
 694  [11/28/2018 03:02PM]: Packages (25) c-ares-1.15.0-1  compiler-rt-7.0.0-2  gpm-1.20.7.r27.g1fd1941-1  http-parser-2.8.1-1  libasyncns-0.8+3+g68cd5af-2  libice-1.0.9-2  libsm-1.2.3-1  libsndfile-1.0.28-2  libuv-1.24.0-1  libxmu-1.1.2-2  libxt-1.1.5-2  procps-ng-3.3.15-1  xorg-xset-1.2.4-1  clang-7.0.0-1  gperf-3.1-2  harfbuzz-icu-2.1.3-1  libexif-0.6.21-3  libpulse-12.2-2  lld-7.0.0-1  ninja-1.8.2-1  nodejs-11.3.0-1  pciutils-3.6.2-1  w3m-0.5.3.git20180125-1  xdg-utils-1.1.3-3  yasm-1.3.0-3
 695  [11/28/2018 03:02PM]: Total Download Size:     6.20 MiB
 696  [11/28/2018 03:02PM]: Total Installed Size:  159.12 MiB
 697  [11/28/2018 03:02PM]: downloading pciutils-3.6.2-1-x86_64.pkg.tar.xz...
 698  [11/28/2018 03:02PM]: downloading libuv-1.24.0-1-x86_64.pkg.tar.xz...
 699  [11/28/2018 03:02PM]: downloading gperf-3.1-2-x86_64.pkg.tar.xz...
 700  [11/28/2018 03:02PM]: downloading yasm-1.3.0-3-x86_64.pkg.tar.xz...
 701  [11/28/2018 03:03PM]: Optional dependencies for w3m
 702  [11/28/2018 03:03PM]:     imlib2: for graphics support
 703  [11/28/2018 03:03PM]: Optional dependencies for xdg-utils
 704  [11/28/2018 03:03PM]:     kde-cli-tools: for KDE Plasma5 support in xdg-open
 705  [11/28/2018 03:03PM]:     exo: for Xfce support in xdg-open
 706  [11/28/2018 03:03PM]:     xorg-xprop: for Xfce support in xdg-open
 707  [11/28/2018 03:03PM]:     pcmanfm: for LXDE support in xdg-open
 708  [11/28/2018 03:03PM]:     perl-file-mimeinfo: for generic support in xdg-open
 709  [11/28/2018 03:03PM]:     perl-net-dbus: Perl extension to dbus used in xdg-screensaver
 710  [11/28/2018 03:03PM]:     perl-x11-protocol: Perl X11 protocol used in xdg-screensaver
 711  [11/28/2018 03:03PM]: Optional dependencies for nodejs
 712  [11/28/2018 03:03PM]:     npm: nodejs package manager
 713  [11/28/2018 03:03PM]: Optional dependencies for clang
 714  [11/28/2018 03:03PM]:     openmp: OpenMP support in clang with -fopenmp
 715  [11/28/2018 03:03PM]:     python: for git-clang-format [installed]
 716  [11/28/2018 03:03PM]:     python2: for scan-view [installed]
 717  [11/28/2018 03:03PM]: (1/3) Reloading system manager configuration...
 718  [11/28/2018 03:03PM]: (2/3) Arming ConditionNeedsUpdate...
 719  [11/28/2018 03:03PM]: (3/3) Updating the info directory file...
 720  [11/28/2018 03:03PM]:   -> Found vivaldi-stable-2.1.1337.51-1.x86_64.rpm
 721  [11/28/2018 03:03PM]:   -> Found chromium-70.0.3538.77.tar.xz
 722  [11/28/2018 03:03PM]:   -> Found chrome-eula_text.html
 723  [11/28/2018 03:03PM]:   -> Found include-stdint.h-in-pdfium_mem_buffer_file_write.h.patch
 724  [11/28/2018 03:03PM]:   -> Found chromium-harfbuzz-r0.patch
 725  [11/28/2018 03:03PM]:   -> Found chromium-widevine-r2.patch
 726  [11/28/2018 03:03PM]:   -> Found chromium-system-icu.patch
 727  [11/28/2018 03:03PM]:   -> Found chromium-skia-harmony.patch
 728  [11/28/2018 03:03PM]: ==> Validating source files with md5sums...
 729  [11/28/2018 03:03PM]:     vivaldi-stable-2.1.1337.51-1.x86_64.rpm ... Passed
 730  [11/28/2018 03:03PM]:     chromium-70.0.3538.77.tar.xz ... Passed
 731  [11/28/2018 03:03PM]:     chrome-eula_text.html ... Passed
 732  [11/28/2018 03:03PM]:     include-stdint.h-in-pdfium_mem_buffer_file_write.h.patch ... Passed
 733  [11/28/2018 03:03PM]:     chromium-harfbuzz-r0.patch ... Passed
 734  [11/28/2018 03:03PM]:     chromium-system-icu.patch ... Passed
 735  [11/28/2018 03:03PM]:     chromium-skia-harmony.patch ... Passed
 736  [11/28/2018 03:03PM]:   -> Extracting vivaldi-stable-2.1.1337.51-1.x86_64.rpm with bsdtar
 737  [11/28/2018 03:03PM]:   -> Extracting chromium-70.0.3538.77.tar.xz with bsdtar
 738  [11/28/2018 03:05PM]: patching file pdf/pdfium/pdfium_mem_buffer_file_write.h
 739  [11/28/2018 03:05PM]: patching file third_party/skia/src/ports/SkFontHost_FreeType.cpp
 740  [11/28/2018 03:05PM]: Hunk #1 succeeded at 115 with fuzz 2 (offset 16 lines).
 741  [11/28/2018 03:05PM]: Hunk #2 succeeded at 174 (offset 29 lines).
 742  [11/28/2018 03:05PM]: Hunk #4 succeeded at 199 (offset 35 lines).
 743  [11/28/2018 03:05PM]: Hunk #5 succeeded at 696 (offset 3 lines).
 744  [11/28/2018 03:05PM]: Hunk #6 succeeded at 1095 with fuzz 2 (offset 2 lines).
 745  [11/28/2018 03:05PM]: patching file third_party/blink/renderer/platform/fonts/shaping/harfbuzz_face.cc
 746  [11/28/2018 03:05PM]: Hunk #1 succeeded at 138 (offset -1 lines).
 747  [11/28/2018 03:05PM]: patching file third_party/blink/renderer/platform/fonts/skia/skia_text_metrics.cc
 748  [11/28/2018 03:05PM]: patching file third_party/blink/renderer/platform/fonts/skia/skia_text_metrics.h
 749  [11/28/2018 03:05PM]: patching file third_party/widevine/cdm/stub/widevine_cdm_version.h
 750  [11/28/2018 03:05PM]: patching file third_party/widevine/cdm/BUILD.gn
 751  [11/28/2018 03:05PM]: patching file third_party/blink/renderer/platform/text/character_property_data_generator.h
 752  [11/28/2018 03:08PM]: ninja: Entering directory `/pkg/src/chromium-70.0.3538.77/out/Release/gn_build
 753  [11/28/2018 03:08PM]: [1/171] CXX base/callback_internal.o
 754  [11/28/2018 03:08PM]: [2/171] CXX base/files/file_enumerator.o
 755  [11/28/2018 03:08PM]: [3/171] CXX base/files/file.o
 756  [11/28/2018 03:08PM]: [4/171] CXX base/environment.o
 757  [11/28/2018 03:08PM]: [5/171] CXX base/files/file_path.o
 758  [11/28/2018 03:08PM]: [6/171] CXX base/files/file_path_constants.o
 759  [11/28/2018 03:08PM]: [7/171] CXX base/files/scoped_file.o
 760  [11/28/2018 03:08PM]: [8/171] CXX base/files/scoped_temp_dir.o
 761  [11/28/2018 03:08PM]: [9/171] CXX base/files/file_util.o
 762  [11/28/2018 03:08PM]: [10/171] CXX base/command_line.o
 763  [11/28/2018 03:08PM]: [11/171] CXX base/json/json_reader.o
 764  [11/28/2018 03:08PM]: [13/171] CXX base/json/string_escape.o
 765  [11/28/2018 03:08PM]: [14/171] CXX base/json/json_writer.o
 766  [11/28/2018 03:08PM]: [15/171] CXX base/memory/ref_counted.o
 767  [11/28/2018 03:08PM]: [16/171] CXX base/logging.o
 768  [11/28/2018 03:08PM]: [17/171] CXX base/memory/weak_ptr.o
 769  [11/28/2018 03:08PM]: [19/171] CXX base/json/json_parser.o
 770  [11/28/2018 03:08PM]: [20/171] CXX base/strings/string_util_constants.o
 771  [11/28/2018 03:08PM]: [21/171] CXX base/strings/string_number_conversions.o
 772  [11/28/2018 03:08PM]: [22/171] CXX base/strings/stringprintf.o
 773  [11/28/2018 03:08PM]: [23/171] CXX base/strings/utf_string_conversion_utils.o
 774  [11/28/2018 03:08PM]: [24/171] CXX base/third_party/icu/icu_utf.o
 775  [11/28/2018 03:08PM]: [25/171] CXX base/strings/string_split.o
 776  [11/28/2018 03:08PM]: [26/171] CXX base/timer/elapsed_timer.o
 777  [11/28/2018 03:08PM]: [27/171] CXX base/strings/string_piece.o
 778  [11/28/2018 03:08PM]: [28/171] CXX base/value_iterators.o
 779  [11/28/2018 03:08PM]: [29/171] CXX base/strings/utf_string_conversions.o
 780  [11/28/2018 03:08PM]: [30/171] CXX base/strings/string_util.o
 781  [11/28/2018 03:08PM]: [31/171] CXX base/files/file_posix.o
 782  [11/28/2018 03:08PM]: [32/171] CXX base/files/file_enumerator_posix.o
 783  [11/28/2018 03:08PM]: [33/171] CXX base/posix/safe_strerror.o
 784  [11/28/2018 03:08PM]: [34/171] CXX base/posix/file_descriptor_shuffle.o
 785  [11/28/2018 03:08PM]: [35/171] CXX base/strings/sys_string_conversions_posix.o
 786  [11/28/2018 03:08PM]: [36/171] CXX base/files/file_util_posix.o
 787  [11/28/2018 03:08PM]: [37/171] CXX tools/gn/action_values.o
 788  [11/28/2018 03:08PM]: [38/171] CXX base/strings/string16.o
 789  [11/28/2018 03:08PM]: [39/171] CXX base/values.o
 790  [11/28/2018 03:08PM]: [41/171] CXX tools/gn/action_target_generator.o
 791  [11/28/2018 03:08PM]: [42/171] CXX tools/gn/binary_target_generator.o
 792  [11/28/2018 03:08PM]: [43/171] CXX tools/gn/builder_record.o
 793  [11/28/2018 03:08PM]: [44/171] CXX tools/gn/args.o
 794  [11/28/2018 03:08PM]: [45/171] CXX tools/gn/build_settings.o
 795  [11/28/2018 03:08PM]: [46/171] CXX tools/gn/builder.o
 796  [11/28/2018 03:08PM]: [47/171] CXX tools/gn/analyzer.o
 797  [11/28/2018 03:08PM]: [48/171] CXX tools/gn/c_include_iterator.o
 798  [11/28/2018 03:08PM]: [49/171] CXX tools/gn/bundle_file_rule.o
 799  [11/28/2018 03:08PM]: [50/171] CXX tools/gn/bundle_data_target_generator.o
 800  [11/28/2018 03:09PM]: [51/171] CXX tools/gn/bundle_data.o
 801  [11/28/2018 03:09PM]: [52/171] CXX tools/gn/command_analyze.o
 802  [11/28/2018 03:09PM]: [53/171] CXX tools/gn/command_clean.o
 803  [11/28/2018 03:09PM]: [54/171] CXX tools/gn/command_check.o
 804  [11/28/2018 03:09PM]: [55/171] CXX tools/gn/command_args.o
 805  [11/28/2018 03:09PM]: [56/171] CXX tools/gn/command_desc.o
 806  [11/28/2018 03:09PM]: [57/171] CXX tools/gn/command_ls.o
 807  [11/28/2018 03:09PM]: [58/171] CXX tools/gn/command_path.o
 808  [11/28/2018 03:09PM]: [59/171] CXX tools/gn/command_help.o
 809  [11/28/2018 03:09PM]: [60/171] CXX tools/gn/command_gen.o
 810  [11/28/2018 03:09PM]: [61/171] CXX tools/gn/command_format.o
 811  [11/28/2018 03:09PM]: [62/171] CXX tools/gn/compile_commands_writer.o
 812  [11/28/2018 03:09PM]: [63/171] CXX tools/gn/command_refs.o
 813  [11/28/2018 03:09PM]: [64/171] CXX tools/gn/config_values.o
 814  [11/28/2018 03:09PM]: [65/171] CXX tools/gn/config_values_extractors.o
 815  [11/28/2018 03:09PM]: [66/171] CXX tools/gn/deps_iterator.o
 816  [11/28/2018 03:09PM]: [67/171] CXX tools/gn/config_values_generator.o
 817  [11/28/2018 03:09PM]: [68/171] CXX tools/gn/copy_target_generator.o
 818  [11/28/2018 03:09PM]: [69/171] CXX tools/gn/config.o
 819  [11/28/2018 03:09PM]: [70/171] CXX tools/gn/create_bundle_target_generator.o
 820  [11/28/2018 03:09PM]: [71/171] CXX tools/gn/escape.o
 821  [11/28/2018 03:09PM]: [72/171] CXX tools/gn/commands.o
 822  [11/28/2018 03:09PM]: [73/171] CXX tools/gn/exec_process.o
 823  [11/28/2018 03:09PM]: [74/171] CXX tools/gn/eclipse_writer.o
 824  [11/28/2018 03:09PM]: [76/171] CXX tools/gn/function_foreach.o
 825  [11/28/2018 03:09PM]: [77/171] CXX tools/gn/function_exec_script.o
 826  [11/28/2018 03:09PM]: [78/171] CXX tools/gn/filesystem_utils.o
 827  [11/28/2018 03:09PM]: [79/171] CXX tools/gn/function_get_label_info.o
 828  [11/28/2018 03:09PM]: [80/171] CXX tools/gn/function_forward_variables_from.o
 829  [11/28/2018 03:09PM]: [81/171] CXX tools/gn/function_get_target_outputs.o
 830  [11/28/2018 03:09PM]: [82/171] CXX tools/gn/function_get_path_info.o
 831  [11/28/2018 03:09PM]: [83/171] CXX tools/gn/desc_builder.o
 832  [11/28/2018 03:09PM]: [84/171] CXX tools/gn/function_process_file_template.o
 833  [11/28/2018 03:09PM]: [85/171] CXX tools/gn/function_read_file.o
 834  [11/28/2018 03:09PM]: [86/171] CXX tools/gn/function_set_defaults.o
 835  [11/28/2018 03:09PM]: [87/171] CXX tools/gn/function_rebase_path.o
 836  [11/28/2018 03:09PM]: [88/171] CXX tools/gn/functions_target.o
 837  [11/28/2018 03:09PM]: [89/171] CXX tools/gn/function_set_default_toolchain.o
 838  [11/28/2018 03:09PM]: [90/171] CXX tools/gn/function_template.o
 839  [11/28/2018 03:10PM]: [91/171] CXX tools/gn/function_write_file.o
 840  [11/28/2018 03:10PM]: [92/171] CXX tools/gn/group_target_generator.o
 841  [11/28/2018 03:10PM]: [93/171] CXX tools/gn/functions.o
 842  [11/28/2018 03:10PM]: [94/171] CXX tools/gn/function_toolchain.o
 843  [11/28/2018 03:10PM]: [95/171] CXX tools/gn/input_file.o
 844  [11/28/2018 03:10PM]: [96/171] CXX tools/gn/import_manager.o
 845  [11/28/2018 03:10PM]: [97/171] CXX tools/gn/inherited_libraries.o
 846  [11/28/2018 03:10PM]: [98/171] CXX tools/gn/input_conversion.o
 847  [11/28/2018 03:10PM]: [99/171] CXX tools/gn/item.o
 848  [11/28/2018 03:10PM]: [100/171] CXX tools/gn/header_checker.o
 849  [11/28/2018 03:10PM]: [101/171] CXX tools/gn/lib_file.o
 850  [11/28/2018 03:10PM]: [102/171] CXX tools/gn/label.o
 851  [11/28/2018 03:10PM]: [103/171] CXX tools/gn/location.o
 852  [11/28/2018 03:10PM]: [104/171] CXX tools/gn/json_project_writer.o
 853  [11/28/2018 03:10PM]: [105/171] CXX tools/gn/input_file_manager.o
 854  [11/28/2018 03:10PM]: [106/171] CXX tools/gn/label_pattern.o
 855  [11/28/2018 03:10PM]: [107/171] CXX tools/gn/loader.o
 856  [11/28/2018 03:10PM]: [108/171] CXX tools/gn/ninja_bundle_data_target_writer.o
 857  [11/28/2018 03:10PM]: [109/171] CXX tools/gn/ninja_action_target_writer.o
 858  [11/28/2018 03:10PM]: [110/171] CXX tools/gn/ninja_copy_target_writer.o
 859  [11/28/2018 03:10PM]: [111/171] CXX tools/gn/ninja_group_target_writer.o
 860  [11/28/2018 03:10PM]: [112/171] CXX tools/gn/ninja_binary_target_writer.o
 861  [11/28/2018 03:10PM]: [113/171] CXX tools/gn/ninja_target_command_util.o
 862  [11/28/2018 03:10PM]: [114/171] CXX tools/gn/ninja_build_writer.o
 863  [11/28/2018 03:10PM]: [115/171] CXX tools/gn/ninja_create_bundle_target_writer.o
 864  [11/28/2018 03:10PM]: [116/171] CXX tools/gn/ninja_toolchain_writer.o
 865  [11/28/2018 03:10PM]: [117/171] CXX tools/gn/ninja_utils.o
 866  [11/28/2018 03:10PM]: [118/171] CXX tools/gn/ninja_writer.o
 867  [11/28/2018 03:10PM]: [119/171] CXX tools/gn/ninja_target_writer.o
 868  [11/28/2018 03:10PM]: [120/171] CXX tools/gn/output_conversion.o
 869  [11/28/2018 03:10PM]: [121/171] CXX tools/gn/output_file.o
 870  [11/28/2018 03:10PM]: [122/171] CXX tools/gn/operators.o
 871  [11/28/2018 03:10PM]: [123/171] CXX tools/gn/parse_node_value_adapter.o
 872  [11/28/2018 03:10PM]: [124/171] CXX tools/gn/pool.o
 873  [11/28/2018 03:10PM]: [125/171] CXX tools/gn/path_output.o
 874  [11/28/2018 03:10PM]: [126/171] CXX tools/gn/parser.o
 875  [11/28/2018 03:10PM]: [127/171] CXX tools/gn/pattern.o
 876  [11/28/2018 03:10PM]: [128/171] CXX tools/gn/parse_tree.o
 877  [11/28/2018 03:10PM]: [129/171] CXX tools/gn/qt_creator_writer.o
 878  [11/28/2018 03:10PM]: [130/171] CXX tools/gn/scope_per_file_provider.o
 879  [11/28/2018 03:10PM]: [131/171] CXX tools/gn/scheduler.o
 880  [11/28/2018 03:10PM]: [132/171] CXX tools/gn/runtime_deps.o
 881  [11/28/2018 03:10PM]: [133/171] CXX tools/gn/settings.o
 882  [11/28/2018 03:10PM]: [134/171] CXX tools/gn/source_dir.o
 883  [11/28/2018 03:10PM]: [135/171] CXX tools/gn/standard_out.o
 884  [11/28/2018 03:11PM]: [136/171] CXX tools/gn/source_file.o
 885  [11/28/2018 03:11PM]: [137/171] CXX tools/gn/scope.o
 886  [11/28/2018 03:11PM]: [138/171] CXX tools/gn/source_file_type.o
 887  [11/28/2018 03:11PM]: [139/171] CXX tools/gn/setup.o
 888  [11/28/2018 03:11PM]: [140/171] CXX tools/gn/substitution_list.o
 889  [11/28/2018 03:11PM]: [141/171] CXX tools/gn/substitution_type.o
 890  [11/28/2018 03:11PM]: [142/171] CXX tools/gn/switches.o
 891  [11/28/2018 03:11PM]: [143/171] CXX tools/gn/string_utils.o
 892  [11/28/2018 03:11PM]: [144/171] CXX tools/gn/token.o
 893  [11/28/2018 03:11PM]: [145/171] CXX tools/gn/substitution_pattern.o
 894  [11/28/2018 03:11PM]: [146/171] CXX tools/gn/substitution_writer.o
 895  [11/28/2018 03:11PM]: [147/171] CXX tools/gn/template.o
 896  [11/28/2018 03:11PM]: [149/171] CXX tools/gn/tokenizer.o
 897  [11/28/2018 03:11PM]: [150/171] CXX tools/gn/target_generator.o
 898  [11/28/2018 03:11PM]: [151/171] CXX tools/gn/toolchain.o
 899  [11/28/2018 03:11PM]: [152/171] CXX tools/gn/value.o
 900  [11/28/2018 03:11PM]: [153/171] CXX tools/gn/variables.o
 901  [11/28/2018 03:11PM]: [154/171] CXX tools/gn/target.o
 902  [11/28/2018 03:11PM]: [155/171] CXX tools/gn/trace.o
 903  [11/28/2018 03:11PM]: [156/171] CXX tools/gn/visual_studio_utils.o
 904  [11/28/2018 03:11PM]: [157/171] CXX tools/gn/visibility.o
 905  [11/28/2018 03:11PM]: [158/171] CXX tools/gn/value_extractors.o
 906  [11/28/2018 03:11PM]: [159/171] CXX util/exe_path.o
 907  [11/28/2018 03:11PM]: [160/171] CXX tools/gn/xml_element_writer.o
 908  [11/28/2018 03:11PM]: [161/171] CXX util/semaphore.o
 909  [11/28/2018 03:11PM]: [162/171] CXX util/msg_loop.o
 910  [11/28/2018 03:11PM]: [163/171] CXX util/sys_info.o
 911  [11/28/2018 03:11PM]: [165/171] CXX util/worker_pool.o
 912  [11/28/2018 03:11PM]: [166/171] CXX tools/gn/xcode_object.o
 913  [11/28/2018 03:11PM]: [167/171] CXX tools/gn/gn_main.o
 914  [11/28/2018 03:11PM]: [168/171] CXX tools/gn/visual_studio_writer.o
 915  [11/28/2018 03:11PM]: [169/171] CXX tools/gn/xcode_writer.o
 916  [11/28/2018 03:12PM]: WARNING at the command-line --args:1:216: Build argument has no effect.
 917  [11/28/2018 03:12PM]: clang_use_chrome_plugins=false fieldtrial_testing_like_official_build=true remove_webcore_debug_symbols=true ffmpeg_branding=Chrome proprietary_codecs=true enable_hevc_demuxing=true link_pulseaudio=true use_gconf=false use_gio=false use_gnome_keyring=false use_kerberos=false use_cups=false use_sysroot=false use_gold=false linux_use_bundled_binutils=false use_gtk3=true use_custom_libcxx=false fatal_linker_warnings=false treat_warnings_as_errors=false is_clang=true custom_toolchain=//build/toolchain/linux/unbundle:default host_toolchain=//build/toolchain/linux/unbundle:default is_component_build=true is_debug=false symbol_level=0 enable_nacl=false enable_swiftshader=false enable_nacl=false enable_widevine=true use_system_freetype=true use_system_harfbuzz=true is_debug=false
 918  [11/28/2018 03:12PM]:                                                                                                                                                                                                                        ^----
 919  [11/28/2018 03:12PM]: The variable use_gconf was set as a build argument
 920  [11/28/2018 03:12PM]: but never appeared in a declare_args() block in any buildfile.
 921  [11/28/2018 03:12PM]: To view all possible args, run gn args --list <out_dir>
 922  [11/28/2018 03:12PM]: The build continued as if that argument was unspecified.
 923  [11/28/2018 03:12PM]: Done. Made 9939 targets from 1735 files in 35186ms
 924  [11/28/2018 03:12PM]: clang_use_chrome_plugins=false fieldtrial_testing_like_official_build=true remove_webcore_debug_symbols=true ffmpeg_branding=Chrome proprietary_codecs=true enable_hevc_demuxing=true link_pulseaudio=true use_gconf=false use_gio=false use_gnome_keyring=false use_kerberos=false use_cups=false use_sysroot=false use_gold=false linux_use_bundled_binutils=false use_gtk3=true use_custom_libcxx=false fatal_linker_warnings=false treat_warnings_as_errors=false is_clang=true custom_toolchain=//build/toolchain/linux/unbundle:default host_toolchain=//build/toolchain/linux/unbundle:default is_component_build=true is_debug=false symbol_level=0 enable_nacl=false enable_swiftshader=false enable_nacl=false enable_widevine=true use_system_freetype=true use_system_harfbuzz=true
 925  [11/28/2018 03:12PM]: Done. Made 9939 targets from 1735 files in 25533ms
 926  [11/28/2018 03:12PM]: ninja: Entering directory `out/Release
 927  [11/28/2018 03:12PM]: [1/5007] touch obj/base/numerics/base_numerics.stamp
 928  [11/28/2018 03:12PM]: [2/5007] clang++ -MMD -MF obj/base/base_static/base_switches.o.d -DV8_DEPRECATION_WARNINGS -DUSE_UDEV -DUSE_AURA=1 -DUSE_GLIB=1 -DUSE_NSS_CERTS=1 -DUSE_X11=1 -DFULL_SAFE_BROWSING -DSAFE_BROWSING_CSD -DSAFE_BROWSING_DB_LOCAL -DCHROMIUM_BUILD -D_FILE_OFFSET_BITS=64 -D_LARGEFILE_SOURCE -D_LARGEFILE64_SOURCE -D_GNU_SOURCE -DCR_CLANG_REVISION=\340925-1\ -D__STDC_CONSTANT_MACROS -D__STDC_FORMAT_MACROS -DCOMPONENT_BUILD -DNDEBUG -DNVALGRIND -DDYNAMIC_ANNOTATIONS_ENABLED=0 -I../.. -Igen -fno-strict-aliasing --param=ssp-buffer-size=4 -fstack-protector -Wno-builtin-macro-redefined -D__DATE__= -D__TIME__= -D__TIMESTAMP__= -funwind-tables -fPIC -pthread -fcolor-diagnostics -fmerge-all-constants -Xclang -mllvm -Xclang -instcombine-lower-dbg-declare=0 -no-canonical-prefixes -m64 -march=x86-64 -Wall -Wextra -Wimplicit-fallthrough -Wthread-safety -Wno-missing-field-initializers -Wno-unused-parameter -Wno-c++11-narrowing -Wno-covered-switch-default -Wno-unneeded-internal-declaration -Wno-undefined-var-template -Wno-nonportable-include-path -Wno-user-defined-warnings -Wno-unused-lambda-capture -Wno-ignored-pragma-optimize -fno-omit-frame-pointer -g0 -fvisibility=hidden -Wheader-hygiene -Wstring-conversion -Wtautological-overlap-compare -O2 -fno-ident -fdata-sections -ffunction-sections -std=c++14 -fno-exceptions -fno-rtti -fvisibility-inlines-hidden -D_FORTIFY_SOURCE=2 -march=x86-64 -mtune=generic -O2 -pipe -fstack-protector-strong -fno-plt -c ../../base/base_switches.cc -o obj/base/base_static/base_switches.o
 929  [11/28/2018 03:12PM]: [3/5007] /usr/bin/python2 ../../build/write_build_date_header.py gen/base/generated_build_date.h 1538888400
 930  [11/28/2018 03:12PM]: [4/5007] touch obj/base/build_date.stamp
 931  [11/28/2018 03:12PM]: [5/5007] rm -f obj/base/libbase_static.a && ar -T -r -c -s -D obj/base/libbase_static.a @obj/base/libbase_static.a.rsp
 932  [11/28/2018 03:12PM]: [6/5007] clang -MMD -MF obj/base/third_party/libevent/libevent/evbuffer.o.d -DHAVE_CONFIG_H -DV8_DEPRECATION_WARNINGS -DUSE_UDEV -DUSE_AURA=1 -DUSE_GLIB=1 -DUSE_NSS_CERTS=1 -DUSE_X11=1 -DFULL_SAFE_BROWSING -DSAFE_BROWSING_CSD -DSAFE_BROWSING_DB_LOCAL -DCHROMIUM_BUILD -D_FILE_OFFSET_BITS=64 -D_LARGEFILE_SOURCE -D_LARGEFILE64_SOURCE -D_GNU_SOURCE -DCR_CLANG_REVISION=\340925-1\ -DCOMPONENT_BUILD -DNDEBUG -DNVALGRIND -DDYNAMIC_ANNOTATIONS_ENABLED=0 -I../../base/third_party/libevent/linux -I../.. -Igen -fno-strict-aliasing --param=ssp-buffer-size=4 -fstack-protector -Wno-builtin-macro-redefined -D__DATE__= -D__TIME__= -D__TIMESTAMP__= -funwind-tables -fPIC -pthread -fcolor-diagnostics -fmerge-all-constants -Xclang -mllvm -Xclang -instcombine-lower-dbg-declare=0 -no-canonical-prefixes -m64 -march=x86-64 -O2 -fno-ident -fdata-sections -ffunction-sections -fno-omit-frame-pointer -g0 -fvisibility=hidden -Wheader-hygiene -Wstring-conversion -Wtautological-overlap-compare -Wall -Wno-unused-variable -Wno-missing-field-initializers -Wno-unused-parameter -Wno-c++11-narrowing -Wno-covered-switch-default -Wno-unneeded-internal-declaration -Wno-undefined-var-template -Wno-nonportable-include-path -Wno-user-defined-warnings -Wno-unused-lambda-capture -Wno-ignored-pragma-optimize -std=c11 -D_FORTIFY_SOURCE=2 -march=x86-64 -mtune=generic -O2 -pipe -fstack-protector-strong -fno-plt -c ../../base/third_party/libevent/evbuffer.c -o obj/base/third_party/libevent/libevent/evbuffer.o
 933  [11/28/2018 03:12PM]: [7/5007] clang -MMD -MF obj/base/third_party/libevent/libevent/buffer.o.d -DHAVE_CONFIG_H -DV8_DEPRECATION_WARNINGS -DUSE_UDEV -DUSE_AURA=1 -DUSE_GLIB=1 -DUSE_NSS_CERTS=1 -DUSE_X11=1 -DFULL_SAFE_BROWSING -DSAFE_BROWSING_CSD -DSAFE_BROWSING_DB_LOCAL -DCHROMIUM_BUILD -D_FILE_OFFSET_BITS=64 -D_LARGEFILE_SOURCE -D_LARGEFILE64_SOURCE -D_GNU_SOURCE -DCR_CLANG_REVISION=\340925-1\ -DCOMPONENT_BUILD -DNDEBUG -DNVALGRIND -DDYNAMIC_ANNOTATIONS_ENABLED=0 -I../../base/third_party/libevent/linux -I../.. -Igen -fno-strict-aliasing --param=ssp-buffer-size=4 -fstack-protector -Wno-builtin-macro-redefined -D__DATE__= -D__TIME__= -D__TIMESTAMP__= -funwind-tables -fPIC -pthread -fcolor-diagnostics -fmerge-all-constants -Xclang -mllvm -Xclang -instcombine-lower-dbg-declare=0 -no-canonical-prefixes -m64 -march=x86-64 -O2 -fno-ident -fdata-sections -ffunction-sections -fno-omit-frame-pointer -g0 -fvisibility=hidden -Wheader-hygiene -Wstring-conversion -Wtautological-overlap-compare -Wall -Wno-unused-variable -Wno-missing-field-initializers -Wno-unused-parameter -Wno-c++11-narrowing -Wno-covered-switch-default -Wno-unneeded-internal-declaration -Wno-undefined-var-template -Wno-nonportable-include-path -Wno-user-defined-warnings -Wno-unused-lambda-capture -Wno-ignored-pragma-optimize -std=c11 -D_FORTIFY_SOURCE=2 -march=x86-64 -mtune=generic -O2 -pipe -fstack-protector-strong -fno-plt -c ../../base/third_party/libevent/buffer.c -o obj/base/third_party/libevent/libevent/buffer.o
 934  [11/28/2018 03:12PM]: [8/5007] clang -MMD -MF obj/base/third_party/libevent/libevent/evutil.o.d -DHAVE_CONFIG_H -DV8_DEPRECATION_WARNINGS -DUSE_UDEV -DUSE_AURA=1 -DUSE_GLIB=1 -DUSE_NSS_CERTS=1 -DUSE_X11=1 -DFULL_SAFE_BROWSING -DSAFE_BROWSING_CSD -DSAFE_BROWSING_DB_LOCAL -DCHROMIUM_BUILD -D_FILE_OFFSET_BITS=64 -D_LARGEFILE_SOURCE -D_LARGEFILE64_SOURCE -D_GNU_SOURCE -DCR_CLANG_REVISION=\340925-1\ -DCOMPONENT_BUILD -DNDEBUG -DNVALGRIND -DDYNAMIC_ANNOTATIONS_ENABLED=0 -I../../base/third_party/libevent/linux -I../.. -Igen -fno-strict-aliasing --param=ssp-buffer-size=4 -fstack-protector -Wno-builtin-macro-redefined -D__DATE__= -D__TIME__= -D__TIMESTAMP__= -funwind-tables -fPIC -pthread -fcolor-diagnostics -fmerge-all-constants -Xclang -mllvm -Xclang -instcombine-lower-dbg-declare=0 -no-canonical-prefixes -m64 -march=x86-64 -O2 -fno-ident -fdata-sections -ffunction-sections -fno-omit-frame-pointer -g0 -fvisibility=hidden -Wheader-hygiene -Wstring-conversion -Wtautological-overlap-compare -Wall -Wno-unused-variable -Wno-missing-field-initializers -Wno-unused-parameter -Wno-c++11-narrowing -Wno-covered-switch-default -Wno-unneeded-internal-declaration -Wno-undefined-var-template -Wno-nonportable-include-path -Wno-user-defined-warnings -Wno-unused-lambda-capture -Wno-ignored-pragma-optimize -std=c11 -D_FORTIFY_SOURCE=2 -march=x86-64 -mtune=generic -O2 -pipe -fstack-protector-strong -fno-plt -c ../../base/third_party/libevent/evutil.c -o obj/base/third_party/libevent/libevent/evutil.o
 935  [11/28/2018 03:12PM]: [9/5007] clang -MMD -MF obj/base/third_party/libevent/libevent/event_tagging.o.d -DHAVE_CONFIG_H -DV8_DEPRECATION_WARNINGS -DUSE_UDEV -DUSE_AURA=1 -DUSE_GLIB=1 -DUSE_NSS_CERTS=1 -DUSE_X11=1 -DFULL_SAFE_BROWSING -DSAFE_BROWSING_CSD -DSAFE_BROWSING_DB_LOCAL -DCHROMIUM_BUILD -D_FILE_OFFSET_BITS=64 -D_LARGEFILE_SOURCE -D_LARGEFILE64_SOURCE -D_GNU_SOURCE -DCR_CLANG_REVISION=\340925-1\ -DCOMPONENT_BUILD -DNDEBUG -DNVALGRIND -DDYNAMIC_ANNOTATIONS_ENABLED=0 -I../../base/third_party/libevent/linux -I../.. -Igen -fno-strict-aliasing --param=ssp-buffer-size=4 -fstack-protector -Wno-builtin-macro-redefined -D__DATE__= -D__TIME__= -D__TIMESTAMP__= -funwind-tables -fPIC -pthread -fcolor-diagnostics -fmerge-all-constants -Xclang -mllvm -Xclang -instcombine-lower-dbg-declare=0 -no-canonical-prefixes -m64 -march=x86-64 -O2 -fno-ident -fdata-sections -ffunction-sections -fno-omit-frame-pointer -g0 -fvisibility=hidden -Wheader-hygiene -Wstring-conversion -Wtautological-overlap-compare -Wall -Wno-unused-variable -Wno-missing-field-initializers -Wno-unused-parameter -Wno-c++11-narrowing -Wno-covered-switch-default -Wno-unneeded-internal-declaration -Wno-undefined-var-template -Wno-nonportable-include-path -Wno-user-defined-warnings -Wno-unused-lambda-capture -Wno-ignored-pragma-optimize -std=c11 -D_FORTIFY_SOURCE=2 -march=x86-64 -mtune=generic -O2 -pipe -fstack-protector-strong -fno-plt -c ../../base/third_party/libevent/event_tagging.c -o obj/base/third_party/libevent/libevent/event_tagging.o
 936  [11/28/2018 03:12PM]: [10/5007] clang -MMD -MF obj/base/third_party/libevent/libevent/evrpc.o.d -DHAVE_CONFIG_H -DV8_DEPRECATION_WARNINGS -DUSE_UDEV -DUSE_AURA=1 -DUSE_GLIB=1 -DUSE_NSS_CERTS=1 -DUSE_X11=1 -DFULL_SAFE_BROWSING -DSAFE_BROWSING_CSD -DSAFE_BROWSING_DB_LOCAL -DCHROMIUM_BUILD -D_FILE_OFFSET_BITS=64 -D_LARGEFILE_SOURCE -D_LARGEFILE64_SOURCE -D_GNU_SOURCE -DCR_CLANG_REVISION=\340925-1\ -DCOMPONENT_BUILD -DNDEBUG -DNVALGRIND -DDYNAMIC_ANNOTATIONS_ENABLED=0 -I../../base/third_party/libevent/linux -I../.. -Igen -fno-strict-aliasing --param=ssp-buffer-size=4 -fstack-protector -Wno-builtin-macro-redefined -D__DATE__= -D__TIME__= -D__TIMESTAMP__= -funwind-tables -fPIC -pthread -fcolor-diagnostics -fmerge-all-constants -Xclang -mllvm -Xclang -instcombine-lower-dbg-declare=0 -no-canonical-prefixes -m64 -march=x86-64 -O2 -fno-ident -fdata-sections -ffunction-sections -fno-omit-frame-pointer -g0 -fvisibility=hidden -Wheader-hygiene -Wstring-conversion -Wtautological-overlap-compare -Wall -Wno-unused-variable -Wno-missing-field-initializers -Wno-unused-parameter -Wno-c++11-narrowing -Wno-covered-switch-default -Wno-unneeded-internal-declaration -Wno-undefined-var-template -Wno-nonportable-include-path -Wno-user-defined-warnings -Wno-unused-lambda-capture -Wno-ignored-pragma-optimize -std=c11 -D_FORTIFY_SOURCE=2 -march=x86-64 -mtune=generic -O2 -pipe -fstack-protector-strong -fno-plt -c ../../base/third_party/libevent/evrpc.c -o obj/base/third_party/libevent/libevent/evrpc.o
 937  [11/28/2018 03:12PM]: [11/5007] clang -MMD -MF obj/base/third_party/libevent/libevent/event.o.d -DHAVE_CONFIG_H -DV8_DEPRECATION_WARNINGS -DUSE_UDEV -DUSE_AURA=1 -DUSE_GLIB=1 -DUSE_NSS_CERTS=1 -DUSE_X11=1 -DFULL_SAFE_BROWSING -DSAFE_BROWSING_CSD -DSAFE_BROWSING_DB_LOCAL -DCHROMIUM_BUILD -D_FILE_OFFSET_BITS=64 -D_LARGEFILE_SOURCE -D_LARGEFILE64_SOURCE -D_GNU_SOURCE -DCR_CLANG_REVISION=\340925-1\ -DCOMPONENT_BUILD -DNDEBUG -DNVALGRIND -DDYNAMIC_ANNOTATIONS_ENABLED=0 -I../../base/third_party/libevent/linux -I../.. -Igen -fno-strict-aliasing --param=ssp-buffer-size=4 -fstack-protector -Wno-builtin-macro-redefined -D__DATE__= -D__TIME__= -D__TIMESTAMP__= -funwind-tables -fPIC -pthread -fcolor-diagnostics -fmerge-all-constants -Xclang -mllvm -Xclang -instcombine-lower-dbg-declare=0 -no-canonical-prefixes -m64 -march=x86-64 -O2 -fno-ident -fdata-sections -ffunction-sections -fno-omit-frame-pointer -g0 -fvisibility=hidden -Wheader-hygiene -Wstring-conversion -Wtautological-overlap-compare -Wall -Wno-unused-variable -Wno-missing-field-initializers -Wno-unused-parameter -Wno-c++11-narrowing -Wno-covered-switch-default -Wno-unneeded-internal-declaration -Wno-undefined-var-template -Wno-nonportable-include-path -Wno-user-defined-warnings -Wno-unused-lambda-capture -Wno-ignored-pragma-optimize -std=c11 -D_FORTIFY_SOURCE=2 -march=x86-64 -mtune=generic -O2 -pipe -fstack-protector-strong -fno-plt -c ../../base/third_party/libevent/event.c -o obj/base/third_party/libevent/libevent/event.o
 938  [11/28/2018 03:12PM]: [12/5007] clang -MMD -MF obj/base/third_party/libevent/libevent/log.o.d -DHAVE_CONFIG_H -DV8_DEPRECATION_WARNINGS -DUSE_UDEV -DUSE_AURA=1 -DUSE_GLIB=1 -DUSE_NSS_CERTS=1 -DUSE_X11=1 -DFULL_SAFE_BROWSING -DSAFE_BROWSING_CSD -DSAFE_BROWSING_DB_LOCAL -DCHROMIUM_BUILD -D_FILE_OFFSET_BITS=64 -D_LARGEFILE_SOURCE -D_LARGEFILE64_SOURCE -D_GNU_SOURCE -DCR_CLANG_REVISION=\340925-1\ -DCOMPONENT_BUILD -DNDEBUG -DNVALGRIND -DDYNAMIC_ANNOTATIONS_ENABLED=0 -I../../base/third_party/libevent/linux -I../.. -Igen -fno-strict-aliasing --param=ssp-buffer-size=4 -fstack-protector -Wno-builtin-macro-redefined -D__DATE__= -D__TIME__= -D__TIMESTAMP__= -funwind-tables -fPIC -pthread -fcolor-diagnostics -fmerge-all-constants -Xclang -mllvm -Xclang -instcombine-lower-dbg-declare=0 -no-canonical-prefixes -m64 -march=x86-64 -O2 -fno-ident -fdata-sections -ffunction-sections -fno-omit-frame-pointer -g0 -fvisibility=hidden -Wheader-hygiene -Wstring-conversion -Wtautological-overlap-compare -Wall -Wno-unused-variable -Wno-missing-field-initializers -Wno-unused-parameter -Wno-c++11-narrowing -Wno-covered-switch-default -Wno-unneeded-internal-declaration -Wno-undefined-var-template -Wno-nonportable-include-path -Wno-user-defined-warnings -Wno-unused-lambda-capture -Wno-ignored-pragma-optimize -std=c11 -D_FORTIFY_SOURCE=2 -march=x86-64 -mtune=generic -O2 -pipe -fstack-protector-strong -fno-plt -c ../../base/third_party/libevent/log.c -o obj/base/third_party/libevent/libevent/log.o
 939  [11/28/2018 03:12PM]: [13/5007] clang -MMD -MF obj/base/third_party/libevent/libevent/select.o.d -DHAVE_CONFIG_H -DV8_DEPRECATION_WARNINGS -DUSE_UDEV -DUSE_AURA=1 -DUSE_GLIB=1 -DUSE_NSS_CERTS=1 -DUSE_X11=1 -DFULL_SAFE_BROWSING -DSAFE_BROWSING_CSD -DSAFE_BROWSING_DB_LOCAL -DCHROMIUM_BUILD -D_FILE_OFFSET_BITS=64 -D_LARGEFILE_SOURCE -D_LARGEFILE64_SOURCE -D_GNU_SOURCE -DCR_CLANG_REVISION=\340925-1\ -DCOMPONENT_BUILD -DNDEBUG -DNVALGRIND -DDYNAMIC_ANNOTATIONS_ENABLED=0 -I../../base/third_party/libevent/linux -I../.. -Igen -fno-strict-aliasing --param=ssp-buffer-size=4 -fstack-protector -Wno-builtin-macro-redefined -D__DATE__= -D__TIME__= -D__TIMESTAMP__= -funwind-tables -fPIC -pthread -fcolor-diagnostics -fmerge-all-constants -Xclang -mllvm -Xclang -instcombine-lower-dbg-declare=0 -no-canonical-prefixes -m64 -march=x86-64 -O2 -fno-ident -fdata-sections -ffunction-sections -fno-omit-frame-pointer -g0 -fvisibility=hidden -Wheader-hygiene -Wstring-conversion -Wtautological-overlap-compare -Wall -Wno-unused-variable -Wno-missing-field-initializers -Wno-unused-parameter -Wno-c++11-narrowing -Wno-covered-switch-default -Wno-unneeded-internal-declaration -Wno-undefined-var-template -Wno-nonportable-include-path -Wno-user-defined-warnings -Wno-unused-lambda-capture -Wno-ignored-pragma-optimize -std=c11 -D_FORTIFY_SOURCE=2 -march=x86-64 -mtune=generic -O2 -pipe -fstack-protector-strong -fno-plt -c ../../base/third_party/libevent/select.c -o obj/base/third_party/libevent/libevent/select.o
 940  [11/28/2018 03:12PM]: [14/5007] clang -MMD -MF obj/base/third_party/libevent/libevent/poll.o.d -DHAVE_CONFIG_H -DV8_DEPRECATION_WARNINGS -DUSE_UDEV -DUSE_AURA=1 -DUSE_GLIB=1 -DUSE_NSS_CERTS=1 -DUSE_X11=1 -DFULL_SAFE_BROWSING -DSAFE_BROWSING_CSD -DSAFE_BROWSING_DB_LOCAL -DCHROMIUM_BUILD -D_FILE_OFFSET_BITS=64 -D_LARGEFILE_SOURCE -D_LARGEFILE64_SOURCE -D_GNU_SOURCE -DCR_CLANG_REVISION=\340925-1\ -DCOMPONENT_BUILD -DNDEBUG -DNVALGRIND -DDYNAMIC_ANNOTATIONS_ENABLED=0 -I../../base/third_party/libevent/linux -I../.. -Igen -fno-strict-aliasing --param=ssp-buffer-size=4 -fstack-protector -Wno-builtin-macro-redefined -D__DATE__= -D__TIME__= -D__TIMESTAMP__= -funwind-tables -fPIC -pthread -fcolor-diagnostics -fmerge-all-constants -Xclang -mllvm -Xclang -instcombine-lower-dbg-declare=0 -no-canonical-prefixes -m64 -march=x86-64 -O2 -fno-ident -fdata-sections -ffunction-sections -fno-omit-frame-pointer -g0 -fvisibility=hidden -Wheader-hygiene -Wstring-conversion -Wtautological-overlap-compare -Wall -Wno-unused-variable -Wno-missing-field-initializers -Wno-unused-parameter -Wno-c++11-narrowing -Wno-covered-switch-default -Wno-unneeded-internal-declaration -Wno-undefined-var-template -Wno-nonportable-include-path -Wno-user-defined-warnings -Wno-unused-lambda-capture -Wno-ignored-pragma-optimize -std=c11 -D_FORTIFY_SOURCE=2 -march=x86-64 -mtune=generic -O2 -pipe -fstack-protector-strong -fno-plt -c ../../base/third_party/libevent/poll.c -o obj/base/third_party/libevent/libevent/poll.o
 941  [11/28/2018 03:12PM]: [15/5007] clang -MMD -MF obj/base/third_party/libevent/libevent/signal.o.d -DHAVE_CONFIG_H -DV8_DEPRECATION_WARNINGS -DUSE_UDEV -DUSE_AURA=1 -DUSE_GLIB=1 -DUSE_NSS_CERTS=1 -DUSE_X11=1 -DFULL_SAFE_BROWSING -DSAFE_BROWSING_CSD -DSAFE_BROWSING_DB_LOCAL -DCHROMIUM_BUILD -D_FILE_OFFSET_BITS=64 -D_LARGEFILE_SOURCE -D_LARGEFILE64_SOURCE -D_GNU_SOURCE -DCR_CLANG_REVISION=\340925-1\ -DCOMPONENT_BUILD -DNDEBUG -DNVALGRIND -DDYNAMIC_ANNOTATIONS_ENABLED=0 -I../../base/third_party/libevent/linux -I../.. -Igen -fno-strict-aliasing --param=ssp-buffer-size=4 -fstack-protector -Wno-builtin-macro-redefined -D__DATE__= -D__TIME__= -D__TIMESTAMP__= -funwind-tables -fPIC -pthread -fcolor-diagnostics -fmerge-all-constants -Xclang -mllvm -Xclang -instcombine-lower-dbg-declare=0 -no-canonical-prefixes -m64 -march=x86-64 -O2 -fno-ident -fdata-sections -ffunction-sections -fno-omit-frame-pointer -g0 -fvisibility=hidden -Wheader-hygiene -Wstring-conversion -Wtautological-overlap-compare -Wall -Wno-unused-variable -Wno-missing-field-initializers -Wno-unused-parameter -Wno-c++11-narrowing -Wno-covered-switch-default -Wno-unneeded-internal-declaration -Wno-undefined-var-template -Wno-nonportable-include-path -Wno-user-defined-warnings -Wno-unused-lambda-capture -Wno-ignored-pragma-optimize -std=c11 -D_FORTIFY_SOURCE=2 -march=x86-64 -mtune=generic -O2 -pipe -fstack-protector-strong -fno-plt -c ../../base/third_party/libevent/signal.c -o obj/base/third_party/libevent/libevent/signal.o
 942  [11/28/2018 03:12PM]: [16/5007] clang -MMD -MF obj/base/third_party/xdg_mime/xdg_mime/xdgmimealias.o.d -DV8_DEPRECATION_WARNINGS -DUSE_UDEV -DUSE_AURA=1 -DUSE_GLIB=1 -DUSE_NSS_CERTS=1 -DUSE_X11=1 -DFULL_SAFE_BROWSING -DSAFE_BROWSING_CSD -DSAFE_BROWSING_DB_LOCAL -DCHROMIUM_BUILD -D_FILE_OFFSET_BITS=64 -D_LARGEFILE_SOURCE -D_LARGEFILE64_SOURCE -D_GNU_SOURCE -DCR_CLANG_REVISION=\340925-1\ -DCOMPONENT_BUILD -DNDEBUG -DNVALGRIND -DDYNAMIC_ANNOTATIONS_ENABLED=0 -I../.. -Igen -fno-strict-aliasing --param=ssp-buffer-size=4 -fstack-protector -Wno-builtin-macro-redefined -D__DATE__= -D__TIME__= -D__TIMESTAMP__= -funwind-tables -fPIC -pthread -fcolor-diagnostics -fmerge-all-constants -Xclang -mllvm -Xclang -instcombine-lower-dbg-declare=0 -no-canonical-prefixes -m64 -march=x86-64 -O2 -fno-ident -fdata-sections -ffunction-sections -fno-omit-frame-pointer -g0 -fvisibility=hidden -Wheader-hygiene -Wstring-conversion -Wtautological-overlap-compare -Wall -Wno-unused-variable -Wno-missing-field-initializers -Wno-unused-parameter -Wno-c++11-narrowing -Wno-covered-switch-default -Wno-unneeded-internal-declaration -Wno-undefined-var-template -Wno-nonportable-include-path -Wno-user-defined-warnings -Wno-unused-lambda-capture -Wno-ignored-pragma-optimize -std=c11 -D_FORTIFY_SOURCE=2 -march=x86-64 -mtune=generic -O2 -pipe -fstack-protector-strong -fno-plt -c ../../base/third_party/xdg_mime/xdgmimealias.c -o obj/base/third_party/xdg_mime/xdg_mime/xdgmimealias.o
 943  [11/28/2018 03:12PM]: [17/5007] clang -MMD -MF obj/base/third_party/libevent/libevent/evdns.o.d -DHAVE_CONFIG_H -DV8_DEPRECATION_WARNINGS -DUSE_UDEV -DUSE_AURA=1 -DUSE_GLIB=1 -DUSE_NSS_CERTS=1 -DUSE_X11=1 -DFULL_SAFE_BROWSING -DSAFE_BROWSING_CSD -DSAFE_BROWSING_DB_LOCAL -DCHROMIUM_BUILD -D_FILE_OFFSET_BITS=64 -D_LARGEFILE_SOURCE -D_LARGEFILE64_SOURCE -D_GNU_SOURCE -DCR_CLANG_REVISION=\340925-1\ -DCOMPONENT_BUILD -DNDEBUG -DNVALGRIND -DDYNAMIC_ANNOTATIONS_ENABLED=0 -I../../base/third_party/libevent/linux -I../.. -Igen -fno-strict-aliasing --param=ssp-buffer-size=4 -fstack-protector -Wno-builtin-macro-redefined -D__DATE__= -D__TIME__= -D__TIMESTAMP__= -funwind-tables -fPIC -pthread -fcolor-diagnostics -fmerge-all-constants -Xclang -mllvm -Xclang -instcombine-lower-dbg-declare=0 -no-canonical-prefixes -m64 -march=x86-64 -O2 -fno-ident -fdata-sections -ffunction-sections -fno-omit-frame-pointer -g0 -fvisibility=hidden -Wheader-hygiene -Wstring-conversion -Wtautological-overlap-compare -Wall -Wno-unused-variable -Wno-missing-field-initializers -Wno-unused-parameter -Wno-c++11-narrowing -Wno-covered-switch-default -Wno-unneeded-internal-declaration -Wno-undefined-var-template -Wno-nonportable-include-path -Wno-user-defined-warnings -Wno-unused-lambda-capture -Wno-ignored-pragma-optimize -std=c11 -D_FORTIFY_SOURCE=2 -march=x86-64 -mtune=generic -O2 -pipe -fstack-protector-strong -fno-plt -c ../../base/third_party/libevent/evdns.c -o obj/base/third_party/libevent/libevent/evdns.o
 944  [11/28/2018 03:12PM]: [18/5007] clang -MMD -MF obj/base/third_party/libevent/libevent/strlcpy.o.d -DHAVE_CONFIG_H -DV8_DEPRECATION_WARNINGS -DUSE_UDEV -DUSE_AURA=1 -DUSE_GLIB=1 -DUSE_NSS_CERTS=1 -DUSE_X11=1 -DFULL_SAFE_BROWSING -DSAFE_BROWSING_CSD -DSAFE_BROWSING_DB_LOCAL -DCHROMIUM_BUILD -D_FILE_OFFSET_BITS=64 -D_LARGEFILE_SOURCE -D_LARGEFILE64_SOURCE -D_GNU_SOURCE -DCR_CLANG_REVISION=\340925-1\ -DCOMPONENT_BUILD -DNDEBUG -DNVALGRIND -DDYNAMIC_ANNOTATIONS_ENABLED=0 -I../../base/third_party/libevent/linux -I../.. -Igen -fno-strict-aliasing --param=ssp-buffer-size=4 -fstack-protector -Wno-builtin-macro-redefined -D__DATE__= -D__TIME__= -D__TIMESTAMP__= -funwind-tables -fPIC -pthread -fcolor-diagnostics -fmerge-all-constants -Xclang -mllvm -Xclang -instcombine-lower-dbg-declare=0 -no-canonical-prefixes -m64 -march=x86-64 -O2 -fno-ident -fdata-sections -ffunction-sections -fno-omit-frame-pointer -g0 -fvisibility=hidden -Wheader-hygiene -Wstring-conversion -Wtautological-overlap-compare -Wall -Wno-unused-variable -Wno-missing-field-initializers -Wno-unused-parameter -Wno-c++11-narrowing -Wno-covered-switch-default -Wno-unneeded-internal-declaration -Wno-undefined-var-template -Wno-nonportable-include-path -Wno-user-defined-warnings -Wno-unused-lambda-capture -Wno-ignored-pragma-optimize -std=c11 -D_FORTIFY_SOURCE=2 -march=x86-64 -mtune=generic -O2 -pipe -fstack-protector-strong -fno-plt -c ../../base/third_party/libevent/strlcpy.c -o obj/base/third_party/libevent/libevent/strlcpy.o
 945  [11/28/2018 03:12PM]: [19/5007] clang -MMD -MF obj/base/third_party/xdg_mime/xdg_mime/xdgmime.o.d -DV8_DEPRECATION_WARNINGS -DUSE_UDEV -DUSE_AURA=1 -DUSE_GLIB=1 -DUSE_NSS_CERTS=1 -DUSE_X11=1 -DFULL_SAFE_BROWSING -DSAFE_BROWSING_CSD -DSAFE_BROWSING_DB_LOCAL -DCHROMIUM_BUILD -D_FILE_OFFSET_BITS=64 -D_LARGEFILE_SOURCE -D_LARGEFILE64_SOURCE -D_GNU_SOURCE -DCR_CLANG_REVISION=\340925-1\ -DCOMPONENT_BUILD -DNDEBUG -DNVALGRIND -DDYNAMIC_ANNOTATIONS_ENABLED=0 -I../.. -Igen -fno-strict-aliasing --param=ssp-buffer-size=4 -fstack-protector -Wno-builtin-macro-redefined -D__DATE__= -D__TIME__= -D__TIMESTAMP__= -funwind-tables -fPIC -pthread -fcolor-diagnostics -fmerge-all-constants -Xclang -mllvm -Xclang -instcombine-lower-dbg-declare=0 -no-canonical-prefixes -m64 -march=x86-64 -O2 -fno-ident -fdata-sections -ffunction-sections -fno-omit-frame-pointer -g0 -fvisibility=hidden -Wheader-hygiene -Wstring-conversion -Wtautological-overlap-compare -Wall -Wno-unused-variable -Wno-missing-field-initializers -Wno-unused-parameter -Wno-c++11-narrowing -Wno-covered-switch-default -Wno-unneeded-internal-declaration -Wno-undefined-var-template -Wno-nonportable-include-path -Wno-user-defined-warnings -Wno-unused-lambda-capture -Wno-ignored-pragma-optimize -std=c11 -D_FORTIFY_SOURCE=2 -march=x86-64 -mtune=generic -O2 -pipe -fstack-protector-strong -fno-plt -c ../../base/third_party/xdg_mime/xdgmime.c -o obj/base/third_party/xdg_mime/xdg_mime/xdgmime.o
 946  [11/28/2018 03:12PM]: [20/5007] touch obj/build/config/freetype/freetype.stamp
 947  [11/28/2018 03:12PM]: [21/5007] clang -MMD -MF obj/base/third_party/libevent/libevent/http.o.d -DHAVE_CONFIG_H -DV8_DEPRECATION_WARNINGS -DUSE_UDEV -DUSE_AURA=1 -DUSE_GLIB=1 -DUSE_NSS_CERTS=1 -DUSE_X11=1 -DFULL_SAFE_BROWSING -DSAFE_BROWSING_CSD -DSAFE_BROWSING_DB_LOCAL -DCHROMIUM_BUILD -D_FILE_OFFSET_BITS=64 -D_LARGEFILE_SOURCE -D_LARGEFILE64_SOURCE -D_GNU_SOURCE -DCR_CLANG_REVISION=\340925-1\ -DCOMPONENT_BUILD -DNDEBUG -DNVALGRIND -DDYNAMIC_ANNOTATIONS_ENABLED=0 -I../../base/third_party/libevent/linux -I../.. -Igen -fno-strict-aliasing --param=ssp-buffer-size=4 -fstack-protector -Wno-builtin-macro-redefined -D__DATE__= -D__TIME__= -D__TIMESTAMP__= -funwind-tables -fPIC -pthread -fcolor-diagnostics -fmerge-all-constants -Xclang -mllvm -Xclang -instcombine-lower-dbg-declare=0 -no-canonical-prefixes -m64 -march=x86-64 -O2 -fno-ident -fdata-sections -ffunction-sections -fno-omit-frame-pointer -g0 -fvisibility=hidden -Wheader-hygiene -Wstring-conversion -Wtautological-overlap-compare -Wall -Wno-unused-variable -Wno-missing-field-initializers -Wno-unused-parameter -Wno-c++11-narrowing -Wno-covered-switch-default -Wno-unneeded-internal-declaration -Wno-undefined-var-template -Wno-nonportable-include-path -Wno-user-defined-warnings -Wno-unused-lambda-capture -Wno-ignored-pragma-optimize -std=c11 -D_FORTIFY_SOURCE=2 -march=x86-64 -mtune=generic -O2 -pipe -fstack-protector-strong -fno-plt -c ../../base/third_party/libevent/http.c -o obj/base/third_party/libevent/libevent/http.o
 948  [11/28/2018 03:12PM]: [22/5007] touch obj/build/buildflag_header_h.stamp
 949  [11/28/2018 03:12PM]: [23/5007] touch obj/build/config/common_deps.stamp
 950  [11/28/2018 03:12PM]: [24/5007] touch obj/build/config/executable_deps.stamp
 951  [11/28/2018 03:12PM]: [25/5007] touch obj/build/config/shared_library_deps.stamp
 952  [11/28/2018 03:12PM]: [26/5007] clang -MMD -MF obj/base/third_party/xdg_mime/xdg_mime/xdgmimecache.o.d -DV8_DEPRECATION_WARNINGS -DUSE_UDEV -DUSE_AURA=1 -DUSE_GLIB=1 -DUSE_NSS_CERTS=1 -DUSE_X11=1 -DFULL_SAFE_BROWSING -DSAFE_BROWSING_CSD -DSAFE_BROWSING_DB_LOCAL -DCHROMIUM_BUILD -D_FILE_OFFSET_BITS=64 -D_LARGEFILE_SOURCE -D_LARGEFILE64_SOURCE -D_GNU_SOURCE -DCR_CLANG_REVISION=\340925-1\ -DCOMPONENT_BUILD -DNDEBUG -DNVALGRIND -DDYNAMIC_ANNOTATIONS_ENABLED=0 -I../.. -Igen -fno-strict-aliasing --param=ssp-buffer-size=4 -fstack-protector -Wno-builtin-macro-redefined -D__DATE__= -D__TIME__= -D__TIMESTAMP__= -funwind-tables -fPIC -pthread -fcolor-diagnostics -fmerge-all-constants -Xclang -mllvm -Xclang -instcombine-lower-dbg-declare=0 -no-canonical-prefixes -m64 -march=x86-64 -O2 -fno-ident -fdata-sections -ffunction-sections -fno-omit-frame-pointer -g0 -fvisibility=hidden -Wheader-hygiene -Wstring-conversion -Wtautological-overlap-compare -Wall -Wno-unused-variable -Wno-missing-field-initializers -Wno-unused-parameter -Wno-c++11-narrowing -Wno-covered-switch-default -Wno-unneeded-internal-declaration -Wno-undefined-var-template -Wno-nonportable-include-path -Wno-user-defined-warnings -Wno-unused-lambda-capture -Wno-ignored-pragma-optimize -std=c11 -D_FORTIFY_SOURCE=2 -march=x86-64 -mtune=generic -O2 -pipe -fstack-protector-strong -fno-plt -c ../../base/third_party/xdg_mime/xdgmimecache.c -o obj/base/third_party/xdg_mime/xdg_mime/xdgmimecache.o
 953  [11/28/2018 03:12PM]: [27/5007] clang -MMD -MF obj/base/third_party/libevent/libevent/epoll.o.d -DHAVE_CONFIG_H -DV8_DEPRECATION_WARNINGS -DUSE_UDEV -DUSE_AURA=1 -DUSE_GLIB=1 -DUSE_NSS_CERTS=1 -DUSE_X11=1 -DFULL_SAFE_BROWSING -DSAFE_BROWSING_CSD -DSAFE_BROWSING_DB_LOCAL -DCHROMIUM_BUILD -D_FILE_OFFSET_BITS=64 -D_LARGEFILE_SOURCE -D_LARGEFILE64_SOURCE -D_GNU_SOURCE -DCR_CLANG_REVISION=\340925-1\ -DCOMPONENT_BUILD -DNDEBUG -DNVALGRIND -DDYNAMIC_ANNOTATIONS_ENABLED=0 -I../../base/third_party/libevent/linux -I../.. -Igen -fno-strict-aliasing --param=ssp-buffer-size=4 -fstack-protector -Wno-builtin-macro-redefined -D__DATE__= -D__TIME__= -D__TIMESTAMP__= -funwind-tables -fPIC -pthread -fcolor-diagnostics -fmerge-all-constants -Xclang -mllvm -Xclang -instcombine-lower-dbg-declare=0 -no-canonical-prefixes -m64 -march=x86-64 -O2 -fno-ident -fdata-sections -ffunction-sections -fno-omit-frame-pointer -g0 -fvisibility=hidden -Wheader-hygiene -Wstring-conversion -Wtautological-overlap-compare -Wall -Wno-unused-variable -Wno-missing-field-initializers -Wno-unused-parameter -Wno-c++11-narrowing -Wno-covered-switch-default -Wno-unneeded-internal-declaration -Wno-undefined-var-template -Wno-nonportable-include-path -Wno-user-defined-warnings -Wno-unused-lambda-capture -Wno-ignored-pragma-optimize -std=c11 -D_FORTIFY_SOURCE=2 -march=x86-64 -mtune=generic -O2 -pipe -fstack-protector-strong -fno-plt -c ../../base/third_party/libevent/epoll.c -o obj/base/third_party/libevent/libevent/epoll.o
 954  [11/28/2018 03:12PM]: [28/5007] rm -f obj/base/third_party/libevent/libevent.a && ar -T -r -c -s -D obj/base/third_party/libevent/libevent.a @obj/base/third_party/libevent/libevent.a.rsp
 955  [11/28/2018 03:12PM]: [29/5007] clang -MMD -MF obj/base/third_party/xdg_mime/xdg_mime/xdgmimeicon.o.d -DV8_DEPRECATION_WARNINGS -DUSE_UDEV -DUSE_AURA=1 -DUSE_GLIB=1 -DUSE_NSS_CERTS=1 -DUSE_X11=1 -DFULL_SAFE_BROWSING -DSAFE_BROWSING_CSD -DSAFE_BROWSING_DB_LOCAL -DCHROMIUM_BUILD -D_FILE_OFFSET_BITS=64 -D_LARGEFILE_SOURCE -D_LARGEFILE64_SOURCE -D_GNU_SOURCE -DCR_CLANG_REVISION=\340925-1\ -DCOMPONENT_BUILD -DNDEBUG -DNVALGRIND -DDYNAMIC_ANNOTATIONS_ENABLED=0 -I../.. -Igen -fno-strict-aliasing --param=ssp-buffer-size=4 -fstack-protector -Wno-builtin-macro-redefined -D__DATE__= -D__TIME__= -D__TIMESTAMP__= -funwind-tables -fPIC -pthread -fcolor-diagnostics -fmerge-all-constants -Xclang -mllvm -Xclang -instcombine-lower-dbg-declare=0 -no-canonical-prefixes -m64 -march=x86-64 -O2 -fno-ident -fdata-sections -ffunction-sections -fno-omit-frame-pointer -g0 -fvisibility=hidden -Wheader-hygiene -Wstring-conversion -Wtautological-overlap-compare -Wall -Wno-unused-variable -Wno-missing-field-initializers -Wno-unused-parameter -Wno-c++11-narrowing -Wno-covered-switch-default -Wno-unneeded-internal-declaration -Wno-undefined-var-template -Wno-nonportable-include-path -Wno-user-defined-warnings -Wno-unused-lambda-capture -Wno-ignored-pragma-optimize -std=c11 -D_FORTIFY_SOURCE=2 -march=x86-64 -mtune=generic -O2 -pipe -fstack-protector-strong -fno-plt -c ../../base/third_party/xdg_mime/xdgmimeicon.c -o obj/base/third_party/xdg_mime/xdg_mime/xdgmimeicon.o
 956  [11/28/2018 03:12PM]: [30/5007] clang -MMD -MF obj/base/third_party/xdg_mime/xdg_mime/xdgmimeglob.o.d -DV8_DEPRECATION_WARNINGS -DUSE_UDEV -DUSE_AURA=1 -DUSE_GLIB=1 -DUSE_NSS_CERTS=1 -DUSE_X11=1 -DFULL_SAFE_BROWSING -DSAFE_BROWSING_CSD -DSAFE_BROWSING_DB_LOCAL -DCHROMIUM_BUILD -D_FILE_OFFSET_BITS=64 -D_LARGEFILE_SOURCE -D_LARGEFILE64_SOURCE -D_GNU_SOURCE -DCR_CLANG_REVISION=\340925-1\ -DCOMPONENT_BUILD -DNDEBUG -DNVALGRIND -DDYNAMIC_ANNOTATIONS_ENABLED=0 -I../.. -Igen -fno-strict-aliasing --param=ssp-buffer-size=4 -fstack-protector -Wno-builtin-macro-redefined -D__DATE__= -D__TIME__= -D__TIMESTAMP__= -funwind-tables -fPIC -pthread -fcolor-diagnostics -fmerge-all-constants -Xclang -mllvm -Xclang -instcombine-lower-dbg-declare=0 -no-canonical-prefixes -m64 -march=x86-64 -O2 -fno-ident -fdata-sections -ffunction-sections -fno-omit-frame-pointer -g0 -fvisibility=hidden -Wheader-hygiene -Wstring-conversion -Wtautological-overlap-compare -Wall -Wno-unused-variable -Wno-missing-field-initializers -Wno-unused-parameter -Wno-c++11-narrowing -Wno-covered-switch-default -Wno-unneeded-internal-declaration -Wno-undefined-var-template -Wno-nonportable-include-path -Wno-user-defined-warnings -Wno-unused-lambda-capture -Wno-ignored-pragma-optimize -std=c11 -D_FORTIFY_SOURCE=2 -march=x86-64 -mtune=generic -O2 -pipe -fstack-protector-strong -fno-plt -c ../../base/third_party/xdg_mime/xdgmimeglob.c -o obj/base/third_party/xdg_mime/xdg_mime/xdgmimeglob.o
 957  [11/28/2018 03:12PM]: [31/5007] clang -MMD -MF obj/base/third_party/xdg_mime/xdg_mime/xdgmimeint.o.d -DV8_DEPRECATION_WARNINGS -DUSE_UDEV -DUSE_AURA=1 -DUSE_GLIB=1 -DUSE_NSS_CERTS=1 -DUSE_X11=1 -DFULL_SAFE_BROWSING -DSAFE_BROWSING_CSD -DSAFE_BROWSING_DB_LOCAL -DCHROMIUM_BUILD -D_FILE_OFFSET_BITS=64 -D_LARGEFILE_SOURCE -D_LARGEFILE64_SOURCE -D_GNU_SOURCE -DCR_CLANG_REVISION=\340925-1\ -DCOMPONENT_BUILD -DNDEBUG -DNVALGRIND -DDYNAMIC_ANNOTATIONS_ENABLED=0 -I../.. -Igen -fno-strict-aliasing --param=ssp-buffer-size=4 -fstack-protector -Wno-builtin-macro-redefined -D__DATE__= -D__TIME__= -D__TIMESTAMP__= -funwind-tables -fPIC -pthread -fcolor-diagnostics -fmerge-all-constants -Xclang -mllvm -Xclang -instcombine-lower-dbg-declare=0 -no-canonical-prefixes -m64 -march=x86-64 -O2 -fno-ident -fdata-sections -ffunction-sections -fno-omit-frame-pointer -g0 -fvisibility=hidden -Wheader-hygiene -Wstring-conversion -Wtautological-overlap-compare -Wall -Wno-unused-variable -Wno-missing-field-initializers -Wno-unused-parameter -Wno-c++11-narrowing -Wno-covered-switch-default -Wno-unneeded-internal-declaration -Wno-undefined-var-template -Wno-nonportable-include-path -Wno-user-defined-warnings -Wno-unused-lambda-capture -Wno-ignored-pragma-optimize -std=c11 -D_FORTIFY_SOURCE=2 -march=x86-64 -mtune=generic -O2 -pipe -fstack-protector-strong -fno-plt -c ../../base/third_party/xdg_mime/xdgmimeint.c -o obj/base/third_party/xdg_mime/xdg_mime/xdgmimeint.o
 958  [11/28/2018 03:12PM]: [32/5007] clang++ -MMD -MF obj/base/third_party/symbolize/symbolize/symbolize.o.d -DV8_DEPRECATION_WARNINGS -DUSE_UDEV -DUSE_AURA=1 -DUSE_GLIB=1 -DUSE_NSS_CERTS=1 -DUSE_X11=1 -DFULL_SAFE_BROWSING -DSAFE_BROWSING_CSD -DSAFE_BROWSING_DB_LOCAL -DCHROMIUM_BUILD -D_FILE_OFFSET_BITS=64 -D_LARGEFILE_SOURCE -D_LARGEFILE64_SOURCE -D_GNU_SOURCE -DCR_CLANG_REVISION=\340925-1\ -DCOMPONENT_BUILD -DNDEBUG -DNVALGRIND -DDYNAMIC_ANNOTATIONS_ENABLED=0 -I../.. -Igen -fno-strict-aliasing --param=ssp-buffer-size=4 -fstack-protector -Wno-builtin-macro-redefined -D__DATE__= -D__TIME__= -D__TIMESTAMP__= -funwind-tables -fPIC -pthread -fcolor-diagnostics -fmerge-all-constants -Xclang -mllvm -Xclang -instcombine-lower-dbg-declare=0 -no-canonical-prefixes -m64 -march=x86-64 -O2 -fno-ident -fdata-sections -ffunction-sections -fno-omit-frame-pointer -g0 -fvisibility=hidden -Wheader-hygiene -Wstring-conversion -Wtautological-overlap-compare -Wall -Wno-unused-variable -Wno-missing-field-initializers -Wno-unused-parameter -Wno-c++11-narrowing -Wno-covered-switch-default -Wno-unneeded-internal-declaration -Wno-undefined-var-template -Wno-nonportable-include-path -Wno-user-defined-warnings -Wno-unused-lambda-capture -Wno-ignored-pragma-optimize -std=c++14 -fno-exceptions -fno-rtti -fvisibility-inlines-hidden -D_FORTIFY_SOURCE=2 -march=x86-64 -mtune=generic -O2 -pipe -fstack-protector-strong -fno-plt -c ../../base/third_party/symbolize/symbolize.cc -o obj/base/third_party/symbolize/symbolize/symbolize.o
 959  [11/28/2018 03:12PM]: [33/5007] touch obj/build/win/default_exe_manifest.stamp
 960  [11/28/2018 03:12PM]: [34/5007] touch obj/components/viz/common/resource_format.stamp
 961  [11/28/2018 03:12PM]: [35/5007] ln -f ../../third_party/widevine/cdm/stub/widevine_cdm_version.h gen/widevine_cdm_version.h 2>/dev/null || (rm -rf gen/widevine_cdm_version.h && cp -af ../../third_party/widevine/cdm/stub/widevine_cdm_version.h gen/widevine_cdm_version.h)
 962  [11/28/2018 03:12PM]: [36/5007] clang -MMD -MF obj/base/third_party/dynamic_annotations/dynamic_annotations/dynamic_annotations.o.d -DV8_DEPRECATION_WARNINGS -DUSE_UDEV -DUSE_AURA=1 -DUSE_GLIB=1 -DUSE_NSS_CERTS=1 -DUSE_X11=1 -DFULL_SAFE_BROWSING -DSAFE_BROWSING_CSD -DSAFE_BROWSING_DB_LOCAL -DCHROMIUM_BUILD -D_FILE_OFFSET_BITS=64 -D_LARGEFILE_SOURCE -D_LARGEFILE64_SOURCE -D_GNU_SOURCE -DCR_CLANG_REVISION=\340925-1\ -D__STDC_CONSTANT_MACROS -D__STDC_FORMAT_MACROS -DCOMPONENT_BUILD -DNDEBUG -DNVALGRIND -DDYNAMIC_ANNOTATIONS_ENABLED=0 -I../.. -Igen -fno-strict-aliasing --param=ssp-buffer-size=4 -fstack-protector -Wno-builtin-macro-redefined -D__DATE__= -D__TIME__= -D__TIMESTAMP__= -funwind-tables -fPIC -pthread -fcolor-diagnostics -fmerge-all-constants -Xclang -mllvm -Xclang -instcombine-lower-dbg-declare=0 -no-canonical-prefixes -m64 -march=x86-64 -Wall -Wextra -Wimplicit-fallthrough -Wthread-safety -Wno-missing-field-initializers -Wno-unused-parameter -Wno-c++11-narrowing -Wno-covered-switch-default -Wno-unneeded-internal-declaration -Wno-undefined-var-template -Wno-nonportable-include-path -Wno-user-defined-warnings -Wno-unused-lambda-capture -Wno-ignored-pragma-optimize -O2 -fno-ident -fdata-sections -ffunction-sections -fno-omit-frame-pointer -g0 -fvisibility=hidden -Wheader-hygiene -Wstring-conversion -Wtautological-overlap-compare -std=c11 -D_FORTIFY_SOURCE=2 -march=x86-64 -mtune=generic -O2 -pipe -fstack-protector-strong -fno-plt -c ../../base/third_party/dynamic_annotations/dynamic_annotations.c -o obj/base/third_party/dynamic_annotations/dynamic_annotations/dynamic_annotations.o
 963  [11/28/2018 03:12PM]: [37/5007] rm -f obj/base/third_party/dynamic_annotations/libdynamic_annotations.a && ar -T -r -c -s -D obj/base/third_party/dynamic_annotations/libdynamic_annotations.a @obj/base/third_party/dynamic_annotations/libdynamic_annotations.a.rsp
 964  [11/28/2018 03:12PM]: [38/5007] touch obj/third_party/widevine/cdm/version_h.stamp
 965  [11/28/2018 03:12PM]: [39/5007] /usr/bin/python2 ../../gpu/config/build_workaround_header.py --output-file gen/gpu/config/gpu_driver_bug_workaround_autogen.h ../../gpu/config/gpu_workaround_list.txt ../../third_party/skia/src/gpu/gpu_workaround_list.txt
 966  [11/28/2018 03:12PM]: [40/5007] clang -MMD -MF obj/base/third_party/xdg_mime/xdg_mime/xdgmimeparent.o.d -DV8_DEPRECATION_WARNINGS -DUSE_UDEV -DUSE_AURA=1 -DUSE_GLIB=1 -DUSE_NSS_CERTS=1 -DUSE_X11=1 -DFULL_SAFE_BROWSING -DSAFE_BROWSING_CSD -DSAFE_BROWSING_DB_LOCAL -DCHROMIUM_BUILD -D_FILE_OFFSET_BITS=64 -D_LARGEFILE_SOURCE -D_LARGEFILE64_SOURCE -D_GNU_SOURCE -DCR_CLANG_REVISION=\340925-1\ -DCOMPONENT_BUILD -DNDEBUG -DNVALGRIND -DDYNAMIC_ANNOTATIONS_ENABLED=0 -I../.. -Igen -fno-strict-aliasing --param=ssp-buffer-size=4 -fstack-protector -Wno-builtin-macro-redefined -D__DATE__= -D__TIME__= -D__TIMESTAMP__= -funwind-tables -fPIC -pthread -fcolor-diagnostics -fmerge-all-constants -Xclang -mllvm -Xclang -instcombine-lower-dbg-declare=0 -no-canonical-prefixes -m64 -march=x86-64 -O2 -fno-ident -fdata-sections -ffunction-sections -fno-omit-frame-pointer -g0 -fvisibility=hidden -Wheader-hygiene -Wstring-conversion -Wtautological-overlap-compare -Wall -Wno-unused-variable -Wno-missing-field-initializers -Wno-unused-parameter -Wno-c++11-narrowing -Wno-covered-switch-default -Wno-unneeded-internal-declaration -Wno-undefined-var-template -Wno-nonportable-include-path -Wno-user-defined-warnings -Wno-unused-lambda-capture -Wno-ignored-pragma-optimize -std=c11 -D_FORTIFY_SOURCE=2 -march=x86-64 -mtune=generic -O2 -pipe -fstack-protector-strong -fno-plt -c ../../base/third_party/xdg_mime/xdgmimeparent.c -o obj/base/third_party/xdg_mime/xdg_mime/xdgmimeparent.o
 967  [11/28/2018 03:12PM]: [41/5007] touch obj/gpu/config/workaround_list.stamp
 968  [11/28/2018 03:12PM]: [42/5007] clang++ -MMD -MF obj/base/third_party/xdg_user_dirs/xdg_user_dirs/xdg_user_dir_lookup.o.d -DV8_DEPRECATION_WARNINGS -DUSE_UDEV -DUSE_AURA=1 -DUSE_GLIB=1 -DUSE_NSS_CERTS=1 -DUSE_X11=1 -DFULL_SAFE_BROWSING -DSAFE_BROWSING_CSD -DSAFE_BROWSING_DB_LOCAL -DCHROMIUM_BUILD -D_FILE_OFFSET_BITS=64 -D_LARGEFILE_SOURCE -D_LARGEFILE64_SOURCE -D_GNU_SOURCE -DCR_CLANG_REVISION=\340925-1\ -D__STDC_CONSTANT_MACROS -D__STDC_FORMAT_MACROS -DCOMPONENT_BUILD -DNDEBUG -DNVALGRIND -DDYNAMIC_ANNOTATIONS_ENABLED=0 -I../.. -Igen -fno-strict-aliasing --param=ssp-buffer-size=4 -fstack-protector -Wno-builtin-macro-redefined -D__DATE__= -D__TIME__= -D__TIMESTAMP__= -funwind-tables -fPIC -pthread -fcolor-diagnostics -fmerge-all-constants -Xclang -mllvm -Xclang -instcombine-lower-dbg-declare=0 -no-canonical-prefixes -m64 -march=x86-64 -Wall -Wextra -Wimplicit-fallthrough -Wthread-safety -Wno-missing-field-initializers -Wno-unused-parameter -Wno-c++11-narrowing -Wno-covered-switch-default -Wno-unneeded-internal-declaration -Wno-undefined-var-template -Wno-nonportable-include-path -Wno-user-defined-warnings -Wno-unused-lambda-capture -Wno-ignored-pragma-optimize -O2 -fno-ident -fdata-sections -ffunction-sections -fno-omit-frame-pointer -g0 -fvisibility=hidden -Wheader-hygiene -Wstring-conversion -Wtautological-overlap-compare -std=c++14 -fno-exceptions -fno-rtti -fvisibility-inlines-hidden -D_FORTIFY_SOURCE=2 -march=x86-64 -mtune=generic -O2 -pipe -fstack-protector-strong -fno-plt -c ../../base/third_party/xdg_user_dirs/xdg_user_dir_lookup.cc -o obj/base/third_party/xdg_user_dirs/xdg_user_dirs/xdg_user_dir_lookup.o
 969  [11/28/2018 03:12PM]: [43/5007] rm -f obj/base/third_party/xdg_user_dirs/libxdg_user_dirs.a && ar -T -r -c -s -D obj/base/third_party/xdg_user_dirs/libxdg_user_dirs.a @obj/base/third_party/xdg_user_dirs/libxdg_user_dirs.a.rsp
 970  [11/28/2018 03:12PM]: [44/5007] clang++ -MMD -MF obj/base/third_party/symbolize/symbolize/demangle.o.d -DV8_DEPRECATION_WARNINGS -DUSE_UDEV -DUSE_AURA=1 -DUSE_GLIB=1 -DUSE_NSS_CERTS=1 -DUSE_X11=1 -DFULL_SAFE_BROWSING -DSAFE_BROWSING_CSD -DSAFE_BROWSING_DB_LOCAL -DCHROMIUM_BUILD -D_FILE_OFFSET_BITS=64 -D_LARGEFILE_SOURCE -D_LARGEFILE64_SOURCE -D_GNU_SOURCE -DCR_CLANG_REVISION=\340925-1\ -DCOMPONENT_BUILD -DNDEBUG -DNVALGRIND -DDYNAMIC_ANNOTATIONS_ENABLED=0 -I../.. -Igen -fno-strict-aliasing --param=ssp-buffer-size=4 -fstack-protector -Wno-builtin-macro-redefined -D__DATE__= -D__TIME__= -D__TIMESTAMP__= -funwind-tables -fPIC -pthread -fcolor-diagnostics -fmerge-all-constants -Xclang -mllvm -Xclang -instcombine-lower-dbg-declare=0 -no-canonical-prefixes -m64 -march=x86-64 -O2 -fno-ident -fdata-sections -ffunction-sections -fno-omit-frame-pointer -g0 -fvisibility=hidden -Wheader-hygiene -Wstring-conversion -Wtautological-overlap-compare -Wall -Wno-unused-variable -Wno-missing-field-initializers -Wno-unused-parameter -Wno-c++11-narrowing -Wno-covered-switch-default -Wno-unneeded-internal-declaration -Wno-undefined-var-template -Wno-nonportable-include-path -Wno-user-defined-warnings -Wno-unused-lambda-capture -Wno-ignored-pragma-optimize -std=c++14 -fno-exceptions -fno-rtti -fvisibility-inlines-hidden -D_FORTIFY_SOURCE=2 -march=x86-64 -mtune=generic -O2 -pipe -fstack-protector-strong -fno-plt -c ../../base/third_party/symbolize/demangle.cc -o obj/base/third_party/symbolize/symbolize/demangle.o
 971  [11/28/2018 03:12PM]: [45/5007] clang -MMD -MF obj/base/third_party/xdg_mime/xdg_mime/xdgmimemagic.o.d -DV8_DEPRECATION_WARNINGS -DUSE_UDEV -DUSE_AURA=1 -DUSE_GLIB=1 -DUSE_NSS_CERTS=1 -DUSE_X11=1 -DFULL_SAFE_BROWSING -DSAFE_BROWSING_CSD -DSAFE_BROWSING_DB_LOCAL -DCHROMIUM_BUILD -D_FILE_OFFSET_BITS=64 -D_LARGEFILE_SOURCE -D_LARGEFILE64_SOURCE -D_GNU_SOURCE -DCR_CLANG_REVISION=\340925-1\ -DCOMPONENT_BUILD -DNDEBUG -DNVALGRIND -DDYNAMIC_ANNOTATIONS_ENABLED=0 -I../.. -Igen -fno-strict-aliasing --param=ssp-buffer-size=4 -fstack-protector -Wno-builtin-macro-redefined -D__DATE__= -D__TIME__= -D__TIMESTAMP__= -funwind-tables -fPIC -pthread -fcolor-diagnostics -fmerge-all-constants -Xclang -mllvm -Xclang -instcombine-lower-dbg-declare=0 -no-canonical-prefixes -m64 -march=x86-64 -O2 -fno-ident -fdata-sections -ffunction-sections -fno-omit-frame-pointer -g0 -fvisibility=hidden -Wheader-hygiene -Wstring-conversion -Wtautological-overlap-compare -Wall -Wno-unused-variable -Wno-missing-field-initializers -Wno-unused-parameter -Wno-c++11-narrowing -Wno-covered-switch-default -Wno-unneeded-internal-declaration -Wno-undefined-var-template -Wno-nonportable-include-path -Wno-user-defined-warnings -Wno-unused-lambda-capture -Wno-ignored-pragma-optimize -std=c11 -D_FORTIFY_SOURCE=2 -march=x86-64 -mtune=generic -O2 -pipe -fstack-protector-strong -fno-plt -c ../../base/third_party/xdg_mime/xdgmimemagic.c -o obj/base/third_party/xdg_mime/xdg_mime/xdgmimemagic.o
 972  [11/28/2018 03:12PM]: [46/5007] rm -f obj/base/third_party/symbolize/libsymbolize.a && ar -T -r -c -s -D obj/base/third_party/symbolize/libsymbolize.a @obj/base/third_party/symbolize/libsymbolize.a.rsp
 973  [11/28/2018 03:12PM]: [47/5007] rm -f obj/base/third_party/xdg_mime/libxdg_mime.a && ar -T -r -c -s -D obj/base/third_party/xdg_mime/libxdg_mime.a @obj/base/third_party/xdg_mime/libxdg_mime.a.rsp
 974  [11/28/2018 03:12PM]: [48/5007] clang -MMD -MF obj/third_party/boringssl/boringssl/a_bool.o.d -DV8_DEPRECATION_WARNINGS -DUSE_UDEV -DUSE_AURA=1 -DUSE_GLIB=1 -DUSE_NSS_CERTS=1 -DUSE_X11=1 -DFULL_SAFE_BROWSING -DSAFE_BROWSING_CSD -DSAFE_BROWSING_DB_LOCAL -DCHROMIUM_BUILD -D_FILE_OFFSET_BITS=64 -D_LARGEFILE_SOURCE -D_LARGEFILE64_SOURCE -D_GNU_SOURCE -DCR_CLANG_REVISION=\340925-1\ -DCOMPONENT_BUILD -DNDEBUG -DNVALGRIND -DDYNAMIC_ANNOTATIONS_ENABLED=0 -DBORINGSSL_ALLOW_CXX_RUNTIME -DBORINGSSL_IMPLEMENTATION -DBORINGSSL_NO_STATIC_INITIALIZER -DOPENSSL_SMALL -D_XOPEN_SOURCE=700 -DBORINGSSL_SHARED_LIBRARY -I../.. -Igen -I../../third_party/boringssl/src/include -fno-strict-aliasing --param=ssp-buffer-size=4 -fstack-protector -Wno-builtin-macro-redefined -D__DATE__= -D__TIME__= -D__TIMESTAMP__= -funwind-tables -fPIC -pthread -fcolor-diagnostics -fmerge-all-constants -Xclang -mllvm -Xclang -instcombine-lower-dbg-declare=0 -no-canonical-prefixes -m64 -march=x86-64 -O2 -fno-ident -fdata-sections -ffunction-sections -fno-omit-frame-pointer -g0 -fvisibility=hidden -Wheader-hygiene -Wstring-conversion -Wtautological-overlap-compare -Wall -Wno-unused-variable -Wno-missing-field-initializers -Wno-unused-parameter -Wno-c++11-narrowing -Wno-covered-switch-default -Wno-unneeded-internal-declaration -Wno-undefined-var-template -Wno-nonportable-include-path -Wno-user-defined-warnings -Wno-unused-lambda-capture -Wno-ignored-pragma-optimize -std=c11 -std=c99 -D_FORTIFY_SOURCE=2 -march=x86-64 -mtune=generic -O2 -pipe -fstack-protector-strong -fno-plt -c ../../third_party/boringssl/src/crypto/asn1/a_bool.c -o obj/third_party/boringssl/boringssl/a_bool.o
 975  [11/28/2018 03:12PM]: [49/5007] /usr/bin/python2 ../../build/write_buildflag_header.py --output base/android/library_loader/anchor_functions_buildflags.h --rulename //base:anchor_functions_buildflags --gen-dir gen --definitions __base_anchor_functions_buildflags___build_toolchain_linux_unbundle_default__rule.rsp
 976  [11/28/2018 03:12PM]: [50/5007] touch obj/base/anchor_functions_buildflags.stamp
 977  [11/28/2018 03:12PM]: [51/5007] clang -MMD -MF obj/third_party/boringssl/boringssl/a_bitstr.o.d -DV8_DEPRECATION_WARNINGS -DUSE_UDEV -DUSE_AURA=1 -DUSE_GLIB=1 -DUSE_NSS_CERTS=1 -DUSE_X11=1 -DFULL_SAFE_BROWSING -DSAFE_BROWSING_CSD -DSAFE_BROWSING_DB_LOCAL -DCHROMIUM_BUILD -D_FILE_OFFSET_BITS=64 -D_LARGEFILE_SOURCE -D_LARGEFILE64_SOURCE -D_GNU_SOURCE -DCR_CLANG_REVISION=\340925-1\ -DCOMPONENT_BUILD -DNDEBUG -DNVALGRIND -DDYNAMIC_ANNOTATIONS_ENABLED=0 -DBORINGSSL_ALLOW_CXX_RUNTIME -DBORINGSSL_IMPLEMENTATION -DBORINGSSL_NO_STATIC_INITIALIZER -DOPENSSL_SMALL -D_XOPEN_SOURCE=700 -DBORINGSSL_SHARED_LIBRARY -I../.. -Igen -I../../third_party/boringssl/src/include -fno-strict-aliasing --param=ssp-buffer-size=4 -fstack-protector -Wno-builtin-macro-redefined -D__DATE__= -D__TIME__= -D__TIMESTAMP__= -funwind-tables -fPIC -pthread -fcolor-diagnostics -fmerge-all-constants -Xclang -mllvm -Xclang -instcombine-lower-dbg-declare=0 -no-canonical-prefixes -m64 -march=x86-64 -O2 -fno-ident -fdata-sections -ffunction-sections -fno-omit-frame-pointer -g0 -fvisibility=hidden -Wheader-hygiene -Wstring-conversion -Wtautological-overlap-compare -Wall -Wno-unused-variable -Wno-missing-field-initializers -Wno-unused-parameter -Wno-c++11-narrowing -Wno-covered-switch-default -Wno-unneeded-internal-declaration -Wno-undefined-var-template -Wno-nonportable-include-path -Wno-user-defined-warnings -Wno-unused-lambda-capture -Wno-ignored-pragma-optimize -std=c11 -std=c99 -D_FORTIFY_SOURCE=2 -march=x86-64 -mtune=generic -O2 -pipe -fstack-protector-strong -fno-plt -c ../../third_party/boringssl/src/crypto/asn1/a_bitstr.c -o obj/third_party/boringssl/boringssl/a_bitstr.o
 978  [11/28/2018 03:12PM]: [52/5007] /usr/bin/python2 ../../build/write_buildflag_header.py --output base/debug/debugging_buildflags.h --rulename //base:debugging_buildflags --gen-dir gen --definitions __base_debugging_buildflags___build_toolchain_linux_unbundle_default__rule.rsp
 979  [11/28/2018 03:12PM]: [53/5007] clang -MMD -MF obj/third_party/boringssl/boringssl/a_d2i_fp.o.d -DV8_DEPRECATION_WARNINGS -DUSE_UDEV -DUSE_AURA=1 -DUSE_GLIB=1 -DUSE_NSS_CERTS=1 -DUSE_X11=1 -DFULL_SAFE_BROWSING -DSAFE_BROWSING_CSD -DSAFE_BROWSING_DB_LOCAL -DCHROMIUM_BUILD -D_FILE_OFFSET_BITS=64 -D_LARGEFILE_SOURCE -D_LARGEFILE64_SOURCE -D_GNU_SOURCE -DCR_CLANG_REVISION=\340925-1\ -DCOMPONENT_BUILD -DNDEBUG -DNVALGRIND -DDYNAMIC_ANNOTATIONS_ENABLED=0 -DBORINGSSL_ALLOW_CXX_RUNTIME -DBORINGSSL_IMPLEMENTATION -DBORINGSSL_NO_STATIC_INITIALIZER -DOPENSSL_SMALL -D_XOPEN_SOURCE=700 -DBORINGSSL_SHARED_LIBRARY -I../.. -Igen -I../../third_party/boringssl/src/include -fno-strict-aliasing --param=ssp-buffer-size=4 -fstack-protector -Wno-builtin-macro-redefined -D__DATE__= -D__TIME__= -D__TIMESTAMP__= -funwind-tables -fPIC -pthread -fcolor-diagnostics -fmerge-all-constants -Xclang -mllvm -Xclang -instcombine-lower-dbg-declare=0 -no-canonical-prefixes -m64 -march=x86-64 -O2 -fno-ident -fdata-sections -ffunction-sections -fno-omit-frame-pointer -g0 -fvisibility=hidden -Wheader-hygiene -Wstring-conversion -Wtautological-overlap-compare -Wall -Wno-unused-variable -Wno-missing-field-initializers -Wno-unused-parameter -Wno-c++11-narrowing -Wno-covered-switch-default -Wno-unneeded-internal-declaration -Wno-undefined-var-template -Wno-nonportable-include-path -Wno-user-defined-warnings -Wno-unused-lambda-capture -Wno-ignored-pragma-optimize -std=c11 -std=c99 -D_FORTIFY_SOURCE=2 -march=x86-64 -mtune=generic -O2 -pipe -fstack-protector-strong -fno-plt -c ../../third_party/boringssl/src/crypto/asn1/a_d2i_fp.c -o obj/third_party/boringssl/boringssl/a_d2i_fp.o
 980  [11/28/2018 03:12PM]: [54/5007] touch obj/base/debugging_buildflags.stamp
 981  [11/28/2018 03:12PM]: [55/5007] touch obj/ipc/param_traits.stamp
 982  [11/28/2018 03:12PM]: [56/5007] touch obj/media/base/video_facing.stamp
 983  [11/28/2018 03:12PM]: [57/5007] clang -MMD -MF obj/third_party/boringssl/boringssl/err_data.o.d -DV8_DEPRECATION_WARNINGS -DUSE_UDEV -DUSE_AURA=1 -DUSE_GLIB=1 -DUSE_NSS_CERTS=1 -DUSE_X11=1 -DFULL_SAFE_BROWSING -DSAFE_BROWSING_CSD -DSAFE_BROWSING_DB_LOCAL -DCHROMIUM_BUILD -D_FILE_OFFSET_BITS=64 -D_LARGEFILE_SOURCE -D_LARGEFILE64_SOURCE -D_GNU_SOURCE -DCR_CLANG_REVISION=\340925-1\ -DCOMPONENT_BUILD -DNDEBUG -DNVALGRIND -DDYNAMIC_ANNOTATIONS_ENABLED=0 -DBORINGSSL_ALLOW_CXX_RUNTIME -DBORINGSSL_IMPLEMENTATION -DBORINGSSL_NO_STATIC_INITIALIZER -DOPENSSL_SMALL -D_XOPEN_SOURCE=700 -DBORINGSSL_SHARED_LIBRARY -I../.. -Igen -I../../third_party/boringssl/src/include -fno-strict-aliasing --param=ssp-buffer-size=4 -fstack-protector -Wno-builtin-macro-redefined -D__DATE__= -D__TIME__= -D__TIMESTAMP__= -funwind-tables -fPIC -pthread -fcolor-diagnostics -fmerge-all-constants -Xclang -mllvm -Xclang -instcombine-lower-dbg-declare=0 -no-canonical-prefixes -m64 -march=x86-64 -O2 -fno-ident -fdata-sections -ffunction-sections -fno-omit-frame-pointer -g0 -fvisibility=hidden -Wheader-hygiene -Wstring-conversion -Wtautological-overlap-compare -Wall -Wno-unused-variable -Wno-missing-field-initializers -Wno-unused-parameter -Wno-c++11-narrowing -Wno-covered-switch-default -Wno-unneeded-internal-declaration -Wno-undefined-var-template -Wno-nonportable-include-path -Wno-user-defined-warnings -Wno-unused-lambda-capture -Wno-ignored-pragma-optimize -std=c11 -std=c99 -D_FORTIFY_SOURCE=2 -march=x86-64 -mtune=generic -O2 -pipe -fstack-protector-strong -fno-plt -c ../../third_party/boringssl/err_data.c -o obj/third_party/boringssl/boringssl/err_data.o
 984  [11/28/2018 03:12PM]: [58/5007] touch obj/third_party/boringssl/src/third_party/fiat/fiat_license.stamp
 985  [11/28/2018 03:12PM]: [59/5007] clang -MMD -MF obj/third_party/boringssl/boringssl/a_dup.o.d -DV8_DEPRECATION_WARNINGS -DUSE_UDEV -DUSE_AURA=1 -DUSE_GLIB=1 -DUSE_NSS_CERTS=1 -DUSE_X11=1 -DFULL_SAFE_BROWSING -DSAFE_BROWSING_CSD -DSAFE_BROWSING_DB_LOCAL -DCHROMIUM_BUILD -D_FILE_OFFSET_BITS=64 -D_LARGEFILE_SOURCE -D_LARGEFILE64_SOURCE -D_GNU_SOURCE -DCR_CLANG_REVISION=\340925-1\ -DCOMPONENT_BUILD -DNDEBUG -DNVALGRIND -DDYNAMIC_ANNOTATIONS_ENABLED=0 -DBORINGSSL_ALLOW_CXX_RUNTIME -DBORINGSSL_IMPLEMENTATION -DBORINGSSL_NO_STATIC_INITIALIZER -DOPENSSL_SMALL -D_XOPEN_SOURCE=700 -DBORINGSSL_SHARED_LIBRARY -I../.. -Igen -I../../third_party/boringssl/src/include -fno-strict-aliasing --param=ssp-buffer-size=4 -fstack-protector -Wno-builtin-macro-redefined -D__DATE__= -D__TIME__= -D__TIMESTAMP__= -funwind-tables -fPIC -pthread -fcolor-diagnostics -fmerge-all-constants -Xclang -mllvm -Xclang -instcombine-lower-dbg-declare=0 -no-canonical-prefixes -m64 -march=x86-64 -O2 -fno-ident -fdata-sections -ffunction-sections -fno-omit-frame-pointer -g0 -fvisibility=hidden -Wheader-hygiene -Wstring-conversion -Wtautological-overlap-compare -Wall -Wno-unused-variable -Wno-missing-field-initializers -Wno-unused-parameter -Wno-c++11-narrowing -Wno-covered-switch-default -Wno-unneeded-internal-declaration -Wno-undefined-var-template -Wno-nonportable-include-path -Wno-user-defined-warnings -Wno-unused-lambda-capture -Wno-ignored-pragma-optimize -std=c11 -std=c99 -D_FORTIFY_SOURCE=2 -march=x86-64 -mtune=generic -O2 -pipe -fstack-protector-strong -fno-plt -c ../../third_party/boringssl/src/crypto/asn1/a_dup.c -o obj/third_party/boringssl/boringssl/a_dup.o
 986  [11/28/2018 03:12PM]: [60/5007] /usr/bin/python2 ../../build/write_buildflag_header.py --output base/android/orderfile/orderfile_buildflags.h --rulename //base:orderfile_buildflags --gen-dir gen --definitions __base_orderfile_buildflags___build_toolchain_linux_unbundle_default__rule.rsp
 987  [11/28/2018 03:12PM]: [61/5007] touch obj/base/orderfile_buildflags.stamp
 988  [11/28/2018 03:12PM]: [62/5007] /usr/bin/python2 ../../build/write_buildflag_header.py --output base/partition_alloc_buildflags.h --rulename //base:partition_alloc_buildflags --gen-dir gen --definitions __base_partition_alloc_buildflags___build_toolchain_linux_unbundle_default__rule.rsp
 989  [11/28/2018 03:12PM]: [63/5007] touch obj/base/partition_alloc_buildflags.stamp
 990  [11/28/2018 03:12PM]: [64/5007] /usr/bin/python2 ../../mojo/public/tools/bindings/mojom_bindings_generator.py parse --filelist=__ipc_mojom__parser___build_toolchain_linux_unbundle_default__rule..rsp -o gen -d ../../ --enable_feature is_posix --enable_feature is_linux
 991  [11/28/2018 03:12PM]: [65/5007] /usr/bin/python2 ../../mojo/public/tools/bindings/mojom_bindings_generator.py parse --filelist=__gpu_ipc_common_gpu_preferences_interface__parser___build_toolchain_linux_unbundle_default__rule..rsp -o gen -d ../../ --enable_feature is_posix --enable_feature is_linux
 992  [11/28/2018 03:12PM]: [66/5007] /usr/bin/python2 ../../build/write_buildflag_header.py --output base/memory/protected_memory_buildflags.h --rulename //base:protected_memory_buildflags --gen-dir gen --definitions __base_protected_memory_buildflags___build_toolchain_linux_unbundle_default__rule.rsp
 993  [11/28/2018 03:12PM]: [67/5007] touch obj/base/protected_memory_buildflags.stamp
 994  [11/28/2018 03:12PM]: [68/5007] /usr/bin/python2 ../../build/write_buildflag_header.py --output base/synchronization/synchronization_buildflags.h --rulename //base:synchronization_buildflags --gen-dir gen --definitions __base_synchronization_buildflags___build_toolchain_linux_unbundle_default__rule.rsp
 995  [11/28/2018 03:12PM]: [69/5007] touch obj/base/synchronization_buildflags.stamp
 996  [11/28/2018 03:12PM]: [70/5007] clang++ -MMD -MF obj/third_party/breakpad/client/crash_generation_client.o.d -DV8_DEPRECATION_WARNINGS -DUSE_UDEV -DUSE_AURA=1 -DUSE_GLIB=1 -DUSE_NSS_CERTS=1 -DUSE_X11=1 -DFULL_SAFE_BROWSING -DSAFE_BROWSING_CSD -DSAFE_BROWSING_DB_LOCAL -DCHROMIUM_BUILD -D_FILE_OFFSET_BITS=64 -D_LARGEFILE_SOURCE -D_LARGEFILE64_SOURCE -D_GNU_SOURCE -DCR_CLANG_REVISION=\340925-1\ -DCOMPONENT_BUILD -DNDEBUG -DNVALGRIND -DDYNAMIC_ANNOTATIONS_ENABLED=0 -I../../third_party/breakpad -I../../third_party/breakpad/breakpad/src -I../../third_party/breakpad/breakpad/src/client -I../../third_party/breakpad/breakpad/src/third_party/linux/include -I../.. -Igen -I../../third_party/breakpad/breakpad/src -fno-strict-aliasing --param=ssp-buffer-size=4 -fstack-protector -Wno-builtin-macro-redefined -D__DATE__= -D__TIME__= -D__TIMESTAMP__= -funwind-tables -fPIC -pthread -fcolor-diagnostics -fmerge-all-constants -Xclang -mllvm -Xclang -instcombine-lower-dbg-declare=0 -no-canonical-prefixes -m64 -march=x86-64 -O2 -fno-ident -fdata-sections -ffunction-sections -fno-omit-frame-pointer -g0 -fvisibility=hidden -Wheader-hygiene -Wstring-conversion -Wtautological-overlap-compare -Wall -Wno-unused-variable -Wno-missing-field-initializers -Wno-unused-parameter -Wno-c++11-narrowing -Wno-covered-switch-default -Wno-unneeded-internal-declaration -Wno-undefined-var-template -Wno-nonportable-include-path -Wno-user-defined-warnings -Wno-unused-lambda-capture -Wno-ignored-pragma-optimize -std=c++14 -fno-exceptions -fno-rtti -fvisibility-inlines-hidden -D_FORTIFY_SOURCE=2 -march=x86-64 -mtune=generic -O2 -pipe -fstack-protector-strong -fno-plt -c ../../third_party/breakpad/breakpad/src/client/linux/crash_generation/crash_generation_client.cc -o obj/third_party/breakpad/client/crash_generation_client.o
 997  [11/28/2018 03:12PM]: [71/5007] touch obj/gpu/ipc/common/gpu_preferences_interface__parser.stamp
 998  [11/28/2018 03:12PM]: [72/5007] touch obj/ipc/mojom__parser.stamp
 999  [11/28/2018 03:12PM]: [73/5007] /usr/bin/python2 ../../build/write_buildflag_header.py --output base/allocator/buildflags.h --rulename //base/allocator:buildflags --gen-dir gen --definitions __base_allocator_buildflags___build_toolchain_linux_unbundle_default__rule.rsp
1000  [11/28/2018 03:12PM]: [74/5007] touch obj/base/allocator/buildflags.stamp
1001  [11/28/2018 03:12PM]: [75/5007] /usr/bin/python2 ../../build/write_buildflag_header.py --output base/cfi_buildflags.h --rulename //base:cfi_buildflags --gen-dir gen --definitions __base_cfi_buildflags___build_toolchain_linux_unbundle_default__rule.rsp
1002  [11/28/2018 03:12PM]: [76/5007] /usr/bin/python2 ../../build/write_buildflag_header.py --output net/net_buildflags.h --rulename //net:buildflags --gen-dir gen --definitions __net_buildflags___build_toolchain_linux_unbundle_default__rule.rsp
1003  [11/28/2018 03:12PM]: [77/5007] clang++ -MMD -MF obj/third_party/breakpad/client/ucontext_reader.o.d -DV8_DEPRECATION_WARNINGS -DUSE_UDEV -DUSE_AURA=1 -DUSE_GLIB=1 -DUSE_NSS_CERTS=1 -DUSE_X11=1 -DFULL_SAFE_BROWSING -DSAFE_BROWSING_CSD -DSAFE_BROWSING_DB_LOCAL -DCHROMIUM_BUILD -D_FILE_OFFSET_BITS=64 -D_LARGEFILE_SOURCE -D_LARGEFILE64_SOURCE -D_GNU_SOURCE -DCR_CLANG_REVISION=\340925-1\ -DCOMPONENT_BUILD -DNDEBUG -DNVALGRIND -DDYNAMIC_ANNOTATIONS_ENABLED=0 -I../../third_party/breakpad -I../../third_party/breakpad/breakpad/src -I../../third_party/breakpad/breakpad/src/client -I../../third_party/breakpad/breakpad/src/third_party/linux/include -I../.. -Igen -I../../third_party/breakpad/breakpad/src -fno-strict-aliasing --param=ssp-buffer-size=4 -fstack-protector -Wno-builtin-macro-redefined -D__DATE__= -D__TIME__= -D__TIMESTAMP__= -funwind-tables -fPIC -pthread -fcolor-diagnostics -fmerge-all-constants -Xclang -mllvm -Xclang -instcombine-lower-dbg-declare=0 -no-canonical-prefixes -m64 -march=x86-64 -O2 -fno-ident -fdata-sections -ffunction-sections -fno-omit-frame-pointer -g0 -fvisibility=hidden -Wheader-hygiene -Wstring-conversion -Wtautological-overlap-compare -Wall -Wno-unused-variable -Wno-missing-field-initializers -Wno-unused-parameter -Wno-c++11-narrowing -Wno-covered-switch-default -Wno-unneeded-internal-declaration -Wno-undefined-var-template -Wno-nonportable-include-path -Wno-user-defined-warnings -Wno-unused-lambda-capture -Wno-ignored-pragma-optimize -std=c++14 -fno-exceptions -fno-rtti -fvisibility-inlines-hidden -D_FORTIFY_SOURCE=2 -march=x86-64 -mtune=generic -O2 -pipe -fstack-protector-strong -fno-plt -c ../../third_party/breakpad/breakpad/src/client/linux/dump_writer_common/ucontext_reader.cc -o obj/third_party/breakpad/client/ucontext_reader.o
1004  [11/28/2018 03:12PM]: [78/5007] clang++ -MMD -MF obj/base/allocator/tcmalloc/abort.o.d -DNO_HEAP_CHECK -DV8_DEPRECATION_WARNINGS -DUSE_UDEV -DUSE_AURA=1 -DUSE_GLIB=1 -DUSE_NSS_CERTS=1 -DUSE_X11=1 -DFULL_SAFE_BROWSING -DSAFE_BROWSING_CSD -DSAFE_BROWSING_DB_LOCAL -DCHROMIUM_BUILD -D_FILE_OFFSET_BITS=64 -D_LARGEFILE_SOURCE -D_LARGEFILE64_SOURCE -D_GNU_SOURCE -DCR_CLANG_REVISION=\340925-1\ -DCOMPONENT_BUILD -DNDEBUG -DNVALGRIND -DDYNAMIC_ANNOTATIONS_ENABLED=0 -DTCMALLOC_USE_DOUBLYLINKED_FREELIST -DTCMALLOC_DISABLE_HUGE_ALLOCATIONS -DTCMALLOC_DONT_REPLACE_SYSTEM_ALLOC -I../../base/allocator -I../../third_party/tcmalloc/gperftools-2.0/chromium/src/base -I../../third_party/tcmalloc/gperftools-2.0/chromium/src -I../.. -Igen -fno-strict-aliasing --param=ssp-buffer-size=4 -fstack-protector -Wno-builtin-macro-redefined -D__DATE__= -D__TIME__= -D__TIMESTAMP__= -funwind-tables -fPIC -pthread -fcolor-diagnostics -fmerge-all-constants -Xclang -mllvm -Xclang -instcombine-lower-dbg-declare=0 -no-canonical-prefixes -m64 -march=x86-64 -fno-omit-frame-pointer -g0 -fvisibility=hidden -Wheader-hygiene -Wstring-conversion -Wtautological-overlap-compare -Wall -Wno-unused-variable -Wno-missing-field-initializers -Wno-unused-parameter -Wno-c++11-narrowing -Wno-covered-switch-default -Wno-unneeded-internal-declaration -Wno-undefined-var-template -Wno-nonportable-include-path -Wno-user-defined-warnings -Wno-unused-lambda-capture -Wno-ignored-pragma-optimize -Wno-reorder -Wno-unused-function -Wno-unused-local-typedefs -Wno-unused-private-field -Wno-sign-compare -Wno-unused-result -O2 -fno-ident -fdata-sections -ffunction-sections -std=c++14 -fno-exceptions -fno-rtti -fvisibility-inlines-hidden -D_FORTIFY_SOURCE=2 -march=x86-64 -mtune=generic -O2 -pipe -fstack-protector-strong -fno-plt -c ../../third_party/tcmalloc/gperftools-2.0/chromium/src/base/abort.cc -o obj/base/allocator/tcmalloc/abort.o
1005  [11/28/2018 03:12PM]: [79/5007] clang++ -MMD -MF obj/third_party/breakpad/client/thread_info.o.d -DV8_DEPRECATION_WARNINGS -DUSE_UDEV -DUSE_AURA=1 -DUSE_GLIB=1 -DUSE_NSS_CERTS=1 -DUSE_X11=1 -DFULL_SAFE_BROWSING -DSAFE_BROWSING_CSD -DSAFE_BROWSING_DB_LOCAL -DCHROMIUM_BUILD -D_FILE_OFFSET_BITS=64 -D_LARGEFILE_SOURCE -D_LARGEFILE64_SOURCE -D_GNU_SOURCE -DCR_CLANG_REVISION=\340925-1\ -DCOMPONENT_BUILD -DNDEBUG -DNVALGRIND -DDYNAMIC_ANNOTATIONS_ENABLED=0 -I../../third_party/breakpad -I../../third_party/breakpad/breakpad/src -I../../third_party/breakpad/breakpad/src/client -I../../third_party/breakpad/breakpad/src/third_party/linux/include -I../.. -Igen -I../../third_party/breakpad/breakpad/src -fno-strict-aliasing --param=ssp-buffer-size=4 -fstack-protector -Wno-builtin-macro-redefined -D__DATE__= -D__TIME__= -D__TIMESTAMP__= -funwind-tables -fPIC -pthread -fcolor-diagnostics -fmerge-all-constants -Xclang -mllvm -Xclang -instcombine-lower-dbg-declare=0 -no-canonical-prefixes -m64 -march=x86-64 -O2 -fno-ident -fdata-sections -ffunction-sections -fno-omit-frame-pointer -g0 -fvisibility=hidden -Wheader-hygiene -Wstring-conversion -Wtautological-overlap-compare -Wall -Wno-unused-variable -Wno-missing-field-initializers -Wno-unused-parameter -Wno-c++11-narrowing -Wno-covered-switch-default -Wno-unneeded-internal-declaration -Wno-undefined-var-template -Wno-nonportable-include-path -Wno-user-defined-warnings -Wno-unused-lambda-capture -Wno-ignored-pragma-optimize -std=c++14 -fno-exceptions -fno-rtti -fvisibility-inlines-hidden -D_FORTIFY_SOURCE=2 -march=x86-64 -mtune=generic -O2 -pipe -fstack-protector-strong -fno-plt -c ../../third_party/breakpad/breakpad/src/client/linux/dump_writer_common/thread_info.cc -o obj/third_party/breakpad/client/thread_info.o
1006  [11/28/2018 03:12PM]: [80/5007] clang++ -MMD -MF obj/base/allocator/tcmalloc/atomicops-internals-x86.o.d -DNO_HEAP_CHECK -DV8_DEPRECATION_WARNINGS -DUSE_UDEV -DUSE_AURA=1 -DUSE_GLIB=1 -DUSE_NSS_CERTS=1 -DUSE_X11=1 -DFULL_SAFE_BROWSING -DSAFE_BROWSING_CSD -DSAFE_BROWSING_DB_LOCAL -DCHROMIUM_BUILD -D_FILE_OFFSET_BITS=64 -D_LARGEFILE_SOURCE -D_LARGEFILE64_SOURCE -D_GNU_SOURCE -DCR_CLANG_REVISION=\340925-1\ -DCOMPONENT_BUILD -DNDEBUG -DNVALGRIND -DDYNAMIC_ANNOTATIONS_ENABLED=0 -DTCMALLOC_USE_DOUBLYLINKED_FREELIST -DTCMALLOC_DISABLE_HUGE_ALLOCATIONS -DTCMALLOC_DONT_REPLACE_SYSTEM_ALLOC -I../../base/allocator -I../../third_party/tcmalloc/gperftools-2.0/chromium/src/base -I../../third_party/tcmalloc/gperftools-2.0/chromium/src -I../.. -Igen -fno-strict-aliasing --param=ssp-buffer-size=4 -fstack-protector -Wno-builtin-macro-redefined -D__DATE__= -D__TIME__= -D__TIMESTAMP__= -funwind-tables -fPIC -pthread -fcolor-diagnostics -fmerge-all-constants -Xclang -mllvm -Xclang -instcombine-lower-dbg-declare=0 -no-canonical-prefixes -m64 -march=x86-64 -fno-omit-frame-pointer -g0 -fvisibility=hidden -Wheader-hygiene -Wstring-conversion -Wtautological-overlap-compare -Wall -Wno-unused-variable -Wno-missing-field-initializers -Wno-unused-parameter -Wno-c++11-narrowing -Wno-covered-switch-default -Wno-unneeded-internal-declaration -Wno-undefined-var-template -Wno-nonportable-include-path -Wno-user-defined-warnings -Wno-unused-lambda-capture -Wno-ignored-pragma-optimize -Wno-reorder -Wno-unused-function -Wno-unused-local-typedefs -Wno-unused-private-field -Wno-sign-compare -Wno-unused-result -O2 -fno-ident -fdata-sections -ffunction-sections -std=c++14 -fno-exceptions -fno-rtti -fvisibility-inlines-hidden -D_FORTIFY_SOURCE=2 -march=x86-64 -mtune=generic -O2 -pipe -fstack-protector-strong -fno-plt -c ../../third_party/tcmalloc/gperftools-2.0/chromium/src/base/atomicops-internals-x86.cc -o obj/base/allocator/tcmalloc/atomicops-internals-x86.o
1007  [11/28/2018 03:12PM]: [81/5007] clang++ -MMD -MF obj/base/allocator/tcmalloc/linuxthreads.o.d -DNO_HEAP_CHECK -DV8_DEPRECATION_WARNINGS -DUSE_UDEV -DUSE_AURA=1 -DUSE_GLIB=1 -DUSE_NSS_CERTS=1 -DUSE_X11=1 -DFULL_SAFE_BROWSING -DSAFE_BROWSING_CSD -DSAFE_BROWSING_DB_LOCAL -DCHROMIUM_BUILD -D_FILE_OFFSET_BITS=64 -D_LARGEFILE_SOURCE -D_LARGEFILE64_SOURCE -D_GNU_SOURCE -DCR_CLANG_REVISION=\340925-1\ -DCOMPONENT_BUILD -DNDEBUG -DNVALGRIND -DDYNAMIC_ANNOTATIONS_ENABLED=0 -DTCMALLOC_USE_DOUBLYLINKED_FREELIST -DTCMALLOC_DISABLE_HUGE_ALLOCATIONS -DTCMALLOC_DONT_REPLACE_SYSTEM_ALLOC -I../../base/allocator -I../../third_party/tcmalloc/gperftools-2.0/chromium/src/base -I../../third_party/tcmalloc/gperftools-2.0/chromium/src -I../.. -Igen -fno-strict-aliasing --param=ssp-buffer-size=4 -fstack-protector -Wno-builtin-macro-redefined -D__DATE__= -D__TIME__= -D__TIMESTAMP__= -funwind-tables -fPIC -pthread -fcolor-diagnostics -fmerge-all-constants -Xclang -mllvm -Xclang -instcombine-lower-dbg-declare=0 -no-canonical-prefixes -m64 -march=x86-64 -fno-omit-frame-pointer -g0 -fvisibility=hidden -Wheader-hygiene -Wstring-conversion -Wtautological-overlap-compare -Wall -Wno-unused-variable -Wno-missing-field-initializers -Wno-unused-parameter -Wno-c++11-narrowing -Wno-covered-switch-default -Wno-unneeded-internal-declaration -Wno-undefined-var-template -Wno-nonportable-include-path -Wno-user-defined-warnings -Wno-unused-lambda-capture -Wno-ignored-pragma-optimize -Wno-reorder -Wno-unused-function -Wno-unused-local-typedefs -Wno-unused-private-field -Wno-sign-compare -Wno-unused-result -O2 -fno-ident -fdata-sections -ffunction-sections -std=c++14 -fno-exceptions -fno-rtti -fvisibility-inlines-hidden -D_FORTIFY_SOURCE=2 -march=x86-64 -mtune=generic -O2 -pipe -fstack-protector-strong -fno-plt -c ../../third_party/tcmalloc/gperftools-2.0/chromium/src/base/linuxthreads.cc -o obj/base/allocator/tcmalloc/linuxthreads.o
1008  [11/28/2018 03:12PM]: [82/5007] clang++ -MMD -MF obj/base/allocator/tcmalloc/elf_mem_image.o.d -DNO_HEAP_CHECK -DV8_DEPRECATION_WARNINGS -DUSE_UDEV -DUSE_AURA=1 -DUSE_GLIB=1 -DUSE_NSS_CERTS=1 -DUSE_X11=1 -DFULL_SAFE_BROWSING -DSAFE_BROWSING_CSD -DSAFE_BROWSING_DB_LOCAL -DCHROMIUM_BUILD -D_FILE_OFFSET_BITS=64 -D_LARGEFILE_SOURCE -D_LARGEFILE64_SOURCE -D_GNU_SOURCE -DCR_CLANG_REVISION=\340925-1\ -DCOMPONENT_BUILD -DNDEBUG -DNVALGRIND -DDYNAMIC_ANNOTATIONS_ENABLED=0 -DTCMALLOC_USE_DOUBLYLINKED_FREELIST -DTCMALLOC_DISABLE_HUGE_ALLOCATIONS -DTCMALLOC_DONT_REPLACE_SYSTEM_ALLOC -I../../base/allocator -I../../third_party/tcmalloc/gperftools-2.0/chromium/src/base -I../../third_party/tcmalloc/gperftools-2.0/chromium/src -I../.. -Igen -fno-strict-aliasing --param=ssp-buffer-size=4 -fstack-protector -Wno-builtin-macro-redefined -D__DATE__= -D__TIME__= -D__TIMESTAMP__= -funwind-tables -fPIC -pthread -fcolor-diagnostics -fmerge-all-constants -Xclang -mllvm -Xclang -instcombine-lower-dbg-declare=0 -no-canonical-prefixes -m64 -march=x86-64 -fno-omit-frame-pointer -g0 -fvisibility=hidden -Wheader-hygiene -Wstring-conversion -Wtautological-overlap-compare -Wall -Wno-unused-variable -Wno-missing-field-initializers -Wno-unused-parameter -Wno-c++11-narrowing -Wno-covered-switch-default -Wno-unneeded-internal-declaration -Wno-undefined-var-template -Wno-nonportable-include-path -Wno-user-defined-warnings -Wno-unused-lambda-capture -Wno-ignored-pragma-optimize -Wno-reorder -Wno-unused-function -Wno-unused-local-typedefs -Wno-unused-private-field -Wno-sign-compare -Wno-unused-result -O2 -fno-ident -fdata-sections -ffunction-sections -std=c++14 -fno-exceptions -fno-rtti -fvisibility-inlines-hidden -D_FORTIFY_SOURCE=2 -march=x86-64 -mtune=generic -O2 -pipe -fstack-protector-strong -fno-plt -c ../../third_party/tcmalloc/gperftools-2.0/chromium/src/base/elf_mem_image.cc -o obj/base/allocator/tcmalloc/elf_mem_image.o
1009  [11/28/2018 03:12PM]: [83/5007] clang++ -MMD -MF obj/base/allocator/tcmalloc/logging.o.d -DNO_HEAP_CHECK -DV8_DEPRECATION_WARNINGS -DUSE_UDEV -DUSE_AURA=1 -DUSE_GLIB=1 -DUSE_NSS_CERTS=1 -DUSE_X11=1 -DFULL_SAFE_BROWSING -DSAFE_BROWSING_CSD -DSAFE_BROWSING_DB_LOCAL -DCHROMIUM_BUILD -D_FILE_OFFSET_BITS=64 -D_LARGEFILE_SOURCE -D_LARGEFILE64_SOURCE -D_GNU_SOURCE -DCR_CLANG_REVISION=\340925-1\ -DCOMPONENT_BUILD -DNDEBUG -DNVALGRIND -DDYNAMIC_ANNOTATIONS_ENABLED=0 -DTCMALLOC_USE_DOUBLYLINKED_FREELIST -DTCMALLOC_DISABLE_HUGE_ALLOCATIONS -DTCMALLOC_DONT_REPLACE_SYSTEM_ALLOC -I../../base/allocator -I../../third_party/tcmalloc/gperftools-2.0/chromium/src/base -I../../third_party/tcmalloc/gperftools-2.0/chromium/src -I../.. -Igen -fno-strict-aliasing --param=ssp-buffer-size=4 -fstack-protector -Wno-builtin-macro-redefined -D__DATE__= -D__TIME__= -D__TIMESTAMP__= -funwind-tables -fPIC -pthread -fcolor-diagnostics -fmerge-all-constants -Xclang -mllvm -Xclang -instcombine-lower-dbg-declare=0 -no-canonical-prefixes -m64 -march=x86-64 -fno-omit-frame-pointer -g0 -fvisibility=hidden -Wheader-hygiene -Wstring-conversion -Wtautological-overlap-compare -Wall -Wno-unused-variable -Wno-missing-field-initializers -Wno-unused-parameter -Wno-c++11-narrowing -Wno-covered-switch-default -Wno-unneeded-internal-declaration -Wno-undefined-var-template -Wno-nonportable-include-path -Wno-user-defined-warnings -Wno-unused-lambda-capture -Wno-ignored-pragma-optimize -Wno-reorder -Wno-unused-function -Wno-unused-local-typedefs -Wno-unused-private-field -Wno-sign-compare -Wno-unused-result -O2 -fno-ident -fdata-sections -ffunction-sections -std=c++14 -fno-exceptions -fno-rtti -fvisibility-inlines-hidden -D_FORTIFY_SOURCE=2 -march=x86-64 -mtune=generic -O2 -pipe -fstack-protector-strong -fno-plt -c ../../third_party/tcmalloc/gperftools-2.0/chromium/src/base/logging.cc -o obj/base/allocator/tcmalloc/logging.o
1010  [11/28/2018 03:12PM]: [84/5007] clang++ -MMD -MF obj/base/allocator/tcmalloc/spinlock_internal.o.d -DNO_HEAP_CHECK -DV8_DEPRECATION_WARNINGS -DUSE_UDEV -DUSE_AURA=1 -DUSE_GLIB=1 -DUSE_NSS_CERTS=1 -DUSE_X11=1 -DFULL_SAFE_BROWSING -DSAFE_BROWSING_CSD -DSAFE_BROWSING_DB_LOCAL -DCHROMIUM_BUILD -D_FILE_OFFSET_BITS=64 -D_LARGEFILE_SOURCE -D_LARGEFILE64_SOURCE -D_GNU_SOURCE -DCR_CLANG_REVISION=\340925-1\ -DCOMPONENT_BUILD -DNDEBUG -DNVALGRIND -DDYNAMIC_ANNOTATIONS_ENABLED=0 -DTCMALLOC_USE_DOUBLYLINKED_FREELIST -DTCMALLOC_DISABLE_HUGE_ALLOCATIONS -DTCMALLOC_DONT_REPLACE_SYSTEM_ALLOC -I../../base/allocator -I../../third_party/tcmalloc/gperftools-2.0/chromium/src/base -I../../third_party/tcmalloc/gperftools-2.0/chromium/src -I../.. -Igen -fno-strict-aliasing --param=ssp-buffer-size=4 -fstack-protector -Wno-builtin-macro-redefined -D__DATE__= -D__TIME__= -D__TIMESTAMP__= -funwind-tables -fPIC -pthread -fcolor-diagnostics -fmerge-all-constants -Xclang -mllvm -Xclang -instcombine-lower-dbg-declare=0 -no-canonical-prefixes -m64 -march=x86-64 -fno-omit-frame-pointer -g0 -fvisibility=hidden -Wheader-hygiene -Wstring-conversion -Wtautological-overlap-compare -Wall -Wno-unused-variable -Wno-missing-field-initializers -Wno-unused-parameter -Wno-c++11-narrowing -Wno-covered-switch-default -Wno-unneeded-internal-declaration -Wno-undefined-var-template -Wno-nonportable-include-path -Wno-user-defined-warnings -Wno-unused-lambda-capture -Wno-ignored-pragma-optimize -Wno-reorder -Wno-unused-function -Wno-unused-local-typedefs -Wno-unused-private-field -Wno-sign-compare -Wno-unused-result -O2 -fno-ident -fdata-sections -ffunction-sections -std=c++14 -fno-exceptions -fno-rtti -fvisibility-inlines-hidden -D_FORTIFY_SOURCE=2 -march=x86-64 -mtune=generic -O2 -pipe -fstack-protector-strong -fno-plt -c ../../third_party/tcmalloc/gperftools-2.0/chromium/src/base/spinlock_internal.cc -o obj/base/allocator/tcmalloc/spinlock_internal.o
1011  [11/28/2018 03:12PM]: [85/5007] clang++ -MMD -MF obj/base/allocator/tcmalloc/vdso_support.o.d -DNO_HEAP_CHECK -DV8_DEPRECATION_WARNINGS -DUSE_UDEV -DUSE_AURA=1 -DUSE_GLIB=1 -DUSE_NSS_CERTS=1 -DUSE_X11=1 -DFULL_SAFE_BROWSING -DSAFE_BROWSING_CSD -DSAFE_BROWSING_DB_LOCAL -DCHROMIUM_BUILD -D_FILE_OFFSET_BITS=64 -D_LARGEFILE_SOURCE -D_LARGEFILE64_SOURCE -D_GNU_SOURCE -DCR_CLANG_REVISION=\340925-1\ -DCOMPONENT_BUILD -DNDEBUG -DNVALGRIND -DDYNAMIC_ANNOTATIONS_ENABLED=0 -DTCMALLOC_USE_DOUBLYLINKED_FREELIST -DTCMALLOC_DISABLE_HUGE_ALLOCATIONS -DTCMALLOC_DONT_REPLACE_SYSTEM_ALLOC -I../../base/allocator -I../../third_party/tcmalloc/gperftools-2.0/chromium/src/base -I../../third_party/tcmalloc/gperftools-2.0/chromium/src -I../.. -Igen -fno-strict-aliasing --param=ssp-buffer-size=4 -fstack-protector -Wno-builtin-macro-redefined -D__DATE__= -D__TIME__= -D__TIMESTAMP__= -funwind-tables -fPIC -pthread -fcolor-diagnostics -fmerge-all-constants -Xclang -mllvm -Xclang -instcombine-lower-dbg-declare=0 -no-canonical-prefixes -m64 -march=x86-64 -fno-omit-frame-pointer -g0 -fvisibility=hidden -Wheader-hygiene -Wstring-conversion -Wtautological-overlap-compare -Wall -Wno-unused-variable -Wno-missing-field-initializers -Wno-unused-parameter -Wno-c++11-narrowing -Wno-covered-switch-default -Wno-unneeded-internal-declaration -Wno-undefined-var-template -Wno-nonportable-include-path -Wno-user-defined-warnings -Wno-unused-lambda-capture -Wno-ignored-pragma-optimize -Wno-reorder -Wno-unused-function -Wno-unused-local-typedefs -Wno-unused-private-field -Wno-sign-compare -Wno-unused-result -O2 -fno-ident -fdata-sections -ffunction-sections -std=c++14 -fno-exceptions -fno-rtti -fvisibility-inlines-hidden -D_FORTIFY_SOURCE=2 -march=x86-64 -mtune=generic -O2 -pipe -fstack-protector-strong -fno-plt -c ../../third_party/tcmalloc/gperftools-2.0/chromium/src/base/vdso_support.cc -o obj/base/allocator/tcmalloc/vdso_support.o
1012  [11/28/2018 03:12PM]: [86/5007] clang++ -MMD -MF obj/base/allocator/tcmalloc/spinlock.o.d -DNO_HEAP_CHECK -DV8_DEPRECATION_WARNINGS -DUSE_UDEV -DUSE_AURA=1 -DUSE_GLIB=1 -DUSE_NSS_CERTS=1 -DUSE_X11=1 -DFULL_SAFE_BROWSING -DSAFE_BROWSING_CSD -DSAFE_BROWSING_DB_LOCAL -DCHROMIUM_BUILD -D_FILE_OFFSET_BITS=64 -D_LARGEFILE_SOURCE -D_LARGEFILE64_SOURCE -D_GNU_SOURCE -DCR_CLANG_REVISION=\340925-1\ -DCOMPONENT_BUILD -DNDEBUG -DNVALGRIND -DDYNAMIC_ANNOTATIONS_ENABLED=0 -DTCMALLOC_USE_DOUBLYLINKED_FREELIST -DTCMALLOC_DISABLE_HUGE_ALLOCATIONS -DTCMALLOC_DONT_REPLACE_SYSTEM_ALLOC -I../../base/allocator -I../../third_party/tcmalloc/gperftools-2.0/chromium/src/base -I../../third_party/tcmalloc/gperftools-2.0/chromium/src -I../.. -Igen -fno-strict-aliasing --param=ssp-buffer-size=4 -fstack-protector -Wno-builtin-macro-redefined -D__DATE__= -D__TIME__= -D__TIMESTAMP__= -funwind-tables -fPIC -pthread -fcolor-diagnostics -fmerge-all-constants -Xclang -mllvm -Xclang -instcombine-lower-dbg-declare=0 -no-canonical-prefixes -m64 -march=x86-64 -fno-omit-frame-pointer -g0 -fvisibility=hidden -Wheader-hygiene -Wstring-conversion -Wtautological-overlap-compare -Wall -Wno-unused-variable -Wno-missing-field-initializers -Wno-unused-parameter -Wno-c++11-narrowing -Wno-covered-switch-default -Wno-unneeded-internal-declaration -Wno-undefined-var-template -Wno-nonportable-include-path -Wno-user-defined-warnings -Wno-unused-lambda-capture -Wno-ignored-pragma-optimize -Wno-reorder -Wno-unused-function -Wno-unused-local-typedefs -Wno-unused-private-field -Wno-sign-compare -Wno-unused-result -O2 -fno-ident -fdata-sections -ffunction-sections -std=c++14 -fno-exceptions -fno-rtti -fvisibility-inlines-hidden -D_FORTIFY_SOURCE=2 -march=x86-64 -mtune=generic -O2 -pipe -fstack-protector-strong -fno-plt -c ../../third_party/tcmalloc/gperftools-2.0/chromium/src/base/spinlock.cc -o obj/base/allocator/tcmalloc/spinlock.o
1013  [11/28/2018 03:12PM]: [87/5007] clang++ -MMD -MF obj/base/allocator/tcmalloc/low_level_alloc.o.d -DNO_HEAP_CHECK -DV8_DEPRECATION_WARNINGS -DUSE_UDEV -DUSE_AURA=1 -DUSE_GLIB=1 -DUSE_NSS_CERTS=1 -DUSE_X11=1 -DFULL_SAFE_BROWSING -DSAFE_BROWSING_CSD -DSAFE_BROWSING_DB_LOCAL -DCHROMIUM_BUILD -D_FILE_OFFSET_BITS=64 -D_LARGEFILE_SOURCE -D_LARGEFILE64_SOURCE -D_GNU_SOURCE -DCR_CLANG_REVISION=\340925-1\ -DCOMPONENT_BUILD -DNDEBUG -DNVALGRIND -DDYNAMIC_ANNOTATIONS_ENABLED=0 -DTCMALLOC_USE_DOUBLYLINKED_FREELIST -DTCMALLOC_DISABLE_HUGE_ALLOCATIONS -DTCMALLOC_DONT_REPLACE_SYSTEM_ALLOC -I../../base/allocator -I../../third_party/tcmalloc/gperftools-2.0/chromium/src/base -I../../third_party/tcmalloc/gperftools-2.0/chromium/src -I../.. -Igen -fno-strict-aliasing --param=ssp-buffer-size=4 -fstack-protector -Wno-builtin-macro-redefined -D__DATE__= -D__TIME__= -D__TIMESTAMP__= -funwind-tables -fPIC -pthread -fcolor-diagnostics -fmerge-all-constants -Xclang -mllvm -Xclang -instcombine-lower-dbg-declare=0 -no-canonical-prefixes -m64 -march=x86-64 -fno-omit-frame-pointer -g0 -fvisibility=hidden -Wheader-hygiene -Wstring-conversion -Wtautological-overlap-compare -Wall -Wno-unused-variable -Wno-missing-field-initializers -Wno-unused-parameter -Wno-c++11-narrowing -Wno-covered-switch-default -Wno-unneeded-internal-declaration -Wno-undefined-var-template -Wno-nonportable-include-path -Wno-user-defined-warnings -Wno-unused-lambda-capture -Wno-ignored-pragma-optimize -Wno-reorder -Wno-unused-function -Wno-unused-local-typedefs -Wno-unused-private-field -Wno-sign-compare -Wno-unused-result -O2 -fno-ident -fdata-sections -ffunction-sections -std=c++14 -fno-exceptions -fno-rtti -fvisibility-inlines-hidden -D_FORTIFY_SOURCE=2 -march=x86-64 -mtune=generic -O2 -pipe -fstack-protector-strong -fno-plt -c ../../third_party/tcmalloc/gperftools-2.0/chromium/src/base/low_level_alloc.cc -o obj/base/allocator/tcmalloc/low_level_alloc.o
1014  [11/28/2018 03:12PM]: [88/5007] clang++ -MMD -MF obj/base/allocator/tcmalloc/free_list.o.d -DNO_HEAP_CHECK -DV8_DEPRECATION_WARNINGS -DUSE_UDEV -DUSE_AURA=1 -DUSE_GLIB=1 -DUSE_NSS_CERTS=1 -DUSE_X11=1 -DFULL_SAFE_BROWSING -DSAFE_BROWSING_CSD -DSAFE_BROWSING_DB_LOCAL -DCHROMIUM_BUILD -D_FILE_OFFSET_BITS=64 -D_LARGEFILE_SOURCE -D_LARGEFILE64_SOURCE -D_GNU_SOURCE -DCR_CLANG_REVISION=\340925-1\ -DCOMPONENT_BUILD -DNDEBUG -DNVALGRIND -DDYNAMIC_ANNOTATIONS_ENABLED=0 -DTCMALLOC_USE_DOUBLYLINKED_FREELIST -DTCMALLOC_DISABLE_HUGE_ALLOCATIONS -DTCMALLOC_DONT_REPLACE_SYSTEM_ALLOC -I../../base/allocator -I../../third_party/tcmalloc/gperftools-2.0/chromium/src/base -I../../third_party/tcmalloc/gperftools-2.0/chromium/src -I../.. -Igen -fno-strict-aliasing --param=ssp-buffer-size=4 -fstack-protector -Wno-builtin-macro-redefined -D__DATE__= -D__TIME__= -D__TIMESTAMP__= -funwind-tables -fPIC -pthread -fcolor-diagnostics -fmerge-all-constants -Xclang -mllvm -Xclang -instcombine-lower-dbg-declare=0 -no-canonical-prefixes -m64 -march=x86-64 -fno-omit-frame-pointer -g0 -fvisibility=hidden -Wheader-hygiene -Wstring-conversion -Wtautological-overlap-compare -Wall -Wno-unused-variable -Wno-missing-field-initializers -Wno-unused-parameter -Wno-c++11-narrowing -Wno-covered-switch-default -Wno-unneeded-internal-declaration -Wno-undefined-var-template -Wno-nonportable-include-path -Wno-user-defined-warnings -Wno-unused-lambda-capture -Wno-ignored-pragma-optimize -Wno-reorder -Wno-unused-function -Wno-unused-local-typedefs -Wno-unused-private-field -Wno-sign-compare -Wno-unused-result -O2 -fno-ident -fdata-sections -ffunction-sections -std=c++14 -fno-exceptions -fno-rtti -fvisibility-inlines-hidden -D_FORTIFY_SOURCE=2 -march=x86-64 -mtune=generic -O2 -pipe -fstack-protector-strong -fno-plt -c ../../third_party/tcmalloc/gperftools-2.0/chromium/src/free_list.cc -o obj/base/allocator/tcmalloc/free_list.o
1015  [11/28/2018 03:12PM]: [89/5007] clang++ -MMD -MF obj/third_party/breakpad/client/exception_handler.o.d -DV8_DEPRECATION_WARNINGS -DUSE_UDEV -DUSE_AURA=1 -DUSE_GLIB=1 -DUSE_NSS_CERTS=1 -DUSE_X11=1 -DFULL_SAFE_BROWSING -DSAFE_BROWSING_CSD -DSAFE_BROWSING_DB_LOCAL -DCHROMIUM_BUILD -D_FILE_OFFSET_BITS=64 -D_LARGEFILE_SOURCE -D_LARGEFILE64_SOURCE -D_GNU_SOURCE -DCR_CLANG_REVISION=\340925-1\ -DCOMPONENT_BUILD -DNDEBUG -DNVALGRIND -DDYNAMIC_ANNOTATIONS_ENABLED=0 -I../../third_party/breakpad -I../../third_party/breakpad/breakpad/src -I../../third_party/breakpad/breakpad/src/client -I../../third_party/breakpad/breakpad/src/third_party/linux/include -I../.. -Igen -I../../third_party/breakpad/breakpad/src -fno-strict-aliasing --param=ssp-buffer-size=4 -fstack-protector -Wno-builtin-macro-redefined -D__DATE__= -D__TIME__= -D__TIMESTAMP__= -funwind-tables -fPIC -pthread -fcolor-diagnostics -fmerge-all-constants -Xclang -mllvm -Xclang -instcombine-lower-dbg-declare=0 -no-canonical-prefixes -m64 -march=x86-64 -O2 -fno-ident -fdata-sections -ffunction-sections -fno-omit-frame-pointer -g0 -fvisibility=hidden -Wheader-hygiene -Wstring-conversion -Wtautological-overlap-compare -Wall -Wno-unused-variable -Wno-missing-field-initializers -Wno-unused-parameter -Wno-c++11-narrowing -Wno-covered-switch-default -Wno-unneeded-internal-declaration -Wno-undefined-var-template -Wno-nonportable-include-path -Wno-user-defined-warnings -Wno-unused-lambda-capture -Wno-ignored-pragma-optimize -std=c++14 -fno-exceptions -fno-rtti -fvisibility-inlines-hidden -D_FORTIFY_SOURCE=2 -march=x86-64 -mtune=generic -O2 -pipe -fstack-protector-strong -fno-plt -c ../../third_party/breakpad/breakpad/src/client/linux/handler/exception_handler.cc -o obj/third_party/breakpad/client/exception_handler.o
1016  [11/28/2018 03:12PM]: [90/5007] clang++ -MMD -MF obj/base/allocator/tcmalloc/common.o.d -DNO_HEAP_CHECK -DV8_DEPRECATION_WARNINGS -DUSE_UDEV -DUSE_AURA=1 -DUSE_GLIB=1 -DUSE_NSS_CERTS=1 -DUSE_X11=1 -DFULL_SAFE_BROWSING -DSAFE_BROWSING_CSD -DSAFE_BROWSING_DB_LOCAL -DCHROMIUM_BUILD -D_FILE_OFFSET_BITS=64 -D_LARGEFILE_SOURCE -D_LARGEFILE64_SOURCE -D_GNU_SOURCE -DCR_CLANG_REVISION=\340925-1\ -DCOMPONENT_BUILD -DNDEBUG -DNVALGRIND -DDYNAMIC_ANNOTATIONS_ENABLED=0 -DTCMALLOC_USE_DOUBLYLINKED_FREELIST -DTCMALLOC_DISABLE_HUGE_ALLOCATIONS -DTCMALLOC_DONT_REPLACE_SYSTEM_ALLOC -I../../base/allocator -I../../third_party/tcmalloc/gperftools-2.0/chromium/src/base -I../../third_party/tcmalloc/gperftools-2.0/chromium/src -I../.. -Igen -fno-strict-aliasing --param=ssp-buffer-size=4 -fstack-protector -Wno-builtin-macro-redefined -D__DATE__= -D__TIME__= -D__TIMESTAMP__= -funwind-tables -fPIC -pthread -fcolor-diagnostics -fmerge-all-constants -Xclang -mllvm -Xclang -instcombine-lower-dbg-declare=0 -no-canonical-prefixes -m64 -march=x86-64 -fno-omit-frame-pointer -g0 -fvisibility=hidden -Wheader-hygiene -Wstring-conversion -Wtautological-overlap-compare -Wall -Wno-unused-variable -Wno-missing-field-initializers -Wno-unused-parameter -Wno-c++11-narrowing -Wno-covered-switch-default -Wno-unneeded-internal-declaration -Wno-undefined-var-template -Wno-nonportable-include-path -Wno-user-defined-warnings -Wno-unused-lambda-capture -Wno-ignored-pragma-optimize -Wno-reorder -Wno-unused-function -Wno-unused-local-typedefs -Wno-unused-private-field -Wno-sign-compare -Wno-unused-result -O2 -fno-ident -fdata-sections -ffunction-sections -std=c++14 -fno-exceptions -fno-rtti -fvisibility-inlines-hidden -D_FORTIFY_SOURCE=2 -march=x86-64 -mtune=generic -O2 -pipe -fstack-protector-strong -fno-plt -c ../../third_party/tcmalloc/gperftools-2.0/chromium/src/common.cc -o obj/base/allocator/tcmalloc/common.o
1017  [11/28/2018 03:12PM]: [91/5007] clang++ -MMD -MF obj/base/allocator/tcmalloc/sysinfo.o.d -DNO_HEAP_CHECK -DV8_DEPRECATION_WARNINGS -DUSE_UDEV -DUSE_AURA=1 -DUSE_GLIB=1 -DUSE_NSS_CERTS=1 -DUSE_X11=1 -DFULL_SAFE_BROWSING -DSAFE_BROWSING_CSD -DSAFE_BROWSING_DB_LOCAL -DCHROMIUM_BUILD -D_FILE_OFFSET_BITS=64 -D_LARGEFILE_SOURCE -D_LARGEFILE64_SOURCE -D_GNU_SOURCE -DCR_CLANG_REVISION=\340925-1\ -DCOMPONENT_BUILD -DNDEBUG -DNVALGRIND -DDYNAMIC_ANNOTATIONS_ENABLED=0 -DTCMALLOC_USE_DOUBLYLINKED_FREELIST -DTCMALLOC_DISABLE_HUGE_ALLOCATIONS -DTCMALLOC_DONT_REPLACE_SYSTEM_ALLOC -I../../base/allocator -I../../third_party/tcmalloc/gperftools-2.0/chromium/src/base -I../../third_party/tcmalloc/gperftools-2.0/chromium/src -I../.. -Igen -fno-strict-aliasing --param=ssp-buffer-size=4 -fstack-protector -Wno-builtin-macro-redefined -D__DATE__= -D__TIME__= -D__TIMESTAMP__= -funwind-tables -fPIC -pthread -fcolor-diagnostics -fmerge-all-constants -Xclang -mllvm -Xclang -instcombine-lower-dbg-declare=0 -no-canonical-prefixes -m64 -march=x86-64 -fno-omit-frame-pointer -g0 -fvisibility=hidden -Wheader-hygiene -Wstring-conversion -Wtautological-overlap-compare -Wall -Wno-unused-variable -Wno-missing-field-initializers -Wno-unused-parameter -Wno-c++11-narrowing -Wno-covered-switch-default -Wno-unneeded-internal-declaration -Wno-undefined-var-template -Wno-nonportable-include-path -Wno-user-defined-warnings -Wno-unused-lambda-capture -Wno-ignored-pragma-optimize -Wno-reorder -Wno-unused-function -Wno-unused-local-typedefs -Wno-unused-private-field -Wno-sign-compare -Wno-unused-result -O2 -fno-ident -fdata-sections -ffunction-sections -std=c++14 -fno-exceptions -fno-rtti -fvisibility-inlines-hidden -D_FORTIFY_SOURCE=2 -march=x86-64 -mtune=generic -O2 -pipe -fstack-protector-strong -fno-plt -c ../../third_party/tcmalloc/gperftools-2.0/chromium/src/base/sysinfo.cc -o obj/base/allocator/tcmalloc/sysinfo.o
1018  [11/28/2018 03:13PM]: [92/5007] clang++ -MMD -MF obj/base/allocator/tcmalloc/internal_logging.o.d -DNO_HEAP_CHECK -DV8_DEPRECATION_WARNINGS -DUSE_UDEV -DUSE_AURA=1 -DUSE_GLIB=1 -DUSE_NSS_CERTS=1 -DUSE_X11=1 -DFULL_SAFE_BROWSING -DSAFE_BROWSING_CSD -DSAFE_BROWSING_DB_LOCAL -DCHROMIUM_BUILD -D_FILE_OFFSET_BITS=64 -D_LARGEFILE_SOURCE -D_LARGEFILE64_SOURCE -D_GNU_SOURCE -DCR_CLANG_REVISION=\340925-1\ -DCOMPONENT_BUILD -DNDEBUG -DNVALGRIND -DDYNAMIC_ANNOTATIONS_ENABLED=0 -DTCMALLOC_USE_DOUBLYLINKED_FREELIST -DTCMALLOC_DISABLE_HUGE_ALLOCATIONS -DTCMALLOC_DONT_REPLACE_SYSTEM_ALLOC -I../../base/allocator -I../../third_party/tcmalloc/gperftools-2.0/chromium/src/base -I../../third_party/tcmalloc/gperftools-2.0/chromium/src -I../.. -Igen -fno-strict-aliasing --param=ssp-buffer-size=4 -fstack-protector -Wno-builtin-macro-redefined -D__DATE__= -D__TIME__= -D__TIMESTAMP__= -funwind-tables -fPIC -pthread -fcolor-diagnostics -fmerge-all-constants -Xclang -mllvm -Xclang -instcombine-lower-dbg-declare=0 -no-canonical-prefixes -m64 -march=x86-64 -fno-omit-frame-pointer -g0 -fvisibility=hidden -Wheader-hygiene -Wstring-conversion -Wtautological-overlap-compare -Wall -Wno-unused-variable -Wno-missing-field-initializers -Wno-unused-parameter -Wno-c++11-narrowing -Wno-covered-switch-default -Wno-unneeded-internal-declaration -Wno-undefined-var-template -Wno-nonportable-include-path -Wno-user-defined-warnings -Wno-unused-lambda-capture -Wno-ignored-pragma-optimize -Wno-reorder -Wno-unused-function -Wno-unused-local-typedefs -Wno-unused-private-field -Wno-sign-compare -Wno-unused-result -O2 -fno-ident -fdata-sections -ffunction-sections -std=c++14 -fno-exceptions -fno-rtti -fvisibility-inlines-hidden -D_FORTIFY_SOURCE=2 -march=x86-64 -mtune=generic -O2 -pipe -fstack-protector-strong -fno-plt -c ../../third_party/tcmalloc/gperftools-2.0/chromium/src/internal_logging.cc -o obj/base/allocator/tcmalloc/internal_logging.o
1019  [11/28/2018 03:13PM]: [93/5007] clang++ -MMD -MF obj/base/allocator/tcmalloc/central_freelist.o.d -DNO_HEAP_CHECK -DV8_DEPRECATION_WARNINGS -DUSE_UDEV -DUSE_AURA=1 -DUSE_GLIB=1 -DUSE_NSS_CERTS=1 -DUSE_X11=1 -DFULL_SAFE_BROWSING -DSAFE_BROWSING_CSD -DSAFE_BROWSING_DB_LOCAL -DCHROMIUM_BUILD -D_FILE_OFFSET_BITS=64 -D_LARGEFILE_SOURCE -D_LARGEFILE64_SOURCE -D_GNU_SOURCE -DCR_CLANG_REVISION=\340925-1\ -DCOMPONENT_BUILD -DNDEBUG -DNVALGRIND -DDYNAMIC_ANNOTATIONS_ENABLED=0 -DTCMALLOC_USE_DOUBLYLINKED_FREELIST -DTCMALLOC_DISABLE_HUGE_ALLOCATIONS -DTCMALLOC_DONT_REPLACE_SYSTEM_ALLOC -I../../base/allocator -I../../third_party/tcmalloc/gperftools-2.0/chromium/src/base -I../../third_party/tcmalloc/gperftools-2.0/chromium/src -I../.. -Igen -fno-strict-aliasing --param=ssp-buffer-size=4 -fstack-protector -Wno-builtin-macro-redefined -D__DATE__= -D__TIME__= -D__TIMESTAMP__= -funwind-tables -fPIC -pthread -fcolor-diagnostics -fmerge-all-constants -Xclang -mllvm -Xclang -instcombine-lower-dbg-declare=0 -no-canonical-prefixes -m64 -march=x86-64 -fno-omit-frame-pointer -g0 -fvisibility=hidden -Wheader-hygiene -Wstring-conversion -Wtautological-overlap-compare -Wall -Wno-unused-variable -Wno-missing-field-initializers -Wno-unused-parameter -Wno-c++11-narrowing -Wno-covered-switch-default -Wno-unneeded-internal-declaration -Wno-undefined-var-template -Wno-nonportable-include-path -Wno-user-defined-warnings -Wno-unused-lambda-capture -Wno-ignored-pragma-optimize -Wno-reorder -Wno-unused-function -Wno-unused-local-typedefs -Wno-unused-private-field -Wno-sign-compare -Wno-unused-result -O2 -fno-ident -fdata-sections -ffunction-sections -std=c++14 -fno-exceptions -fno-rtti -fvisibility-inlines-hidden -D_FORTIFY_SOURCE=2 -march=x86-64 -mtune=generic -O2 -pipe -fstack-protector-strong -fno-plt -c ../../third_party/tcmalloc/gperftools-2.0/chromium/src/central_freelist.cc -o obj/base/allocator/tcmalloc/central_freelist.o
1020  [11/28/2018 03:13PM]: [94/5007] clang++ -MMD -MF obj/base/allocator/tcmalloc/malloc_extension.o.d -DNO_HEAP_CHECK -DV8_DEPRECATION_WARNINGS -DUSE_UDEV -DUSE_AURA=1 -DUSE_GLIB=1 -DUSE_NSS_CERTS=1 -DUSE_X11=1 -DFULL_SAFE_BROWSING -DSAFE_BROWSING_CSD -DSAFE_BROWSING_DB_LOCAL -DCHROMIUM_BUILD -D_FILE_OFFSET_BITS=64 -D_LARGEFILE_SOURCE -D_LARGEFILE64_SOURCE -D_GNU_SOURCE -DCR_CLANG_REVISION=\340925-1\ -DCOMPONENT_BUILD -DNDEBUG -DNVALGRIND -DDYNAMIC_ANNOTATIONS_ENABLED=0 -DTCMALLOC_USE_DOUBLYLINKED_FREELIST -DTCMALLOC_DISABLE_HUGE_ALLOCATIONS -DTCMALLOC_DONT_REPLACE_SYSTEM_ALLOC -I../../base/allocator -I../../third_party/tcmalloc/gperftools-2.0/chromium/src/base -I../../third_party/tcmalloc/gperftools-2.0/chromium/src -I../.. -Igen -fno-strict-aliasing --param=ssp-buffer-size=4 -fstack-protector -Wno-builtin-macro-redefined -D__DATE__= -D__TIME__= -D__TIMESTAMP__= -funwind-tables -fPIC -pthread -fcolor-diagnostics -fmerge-all-constants -Xclang -mllvm -Xclang -instcombine-lower-dbg-declare=0 -no-canonical-prefixes -m64 -march=x86-64 -fno-omit-frame-pointer -g0 -fvisibility=hidden -Wheader-hygiene -Wstring-conversion -Wtautological-overlap-compare -Wall -Wno-unused-variable -Wno-missing-field-initializers -Wno-unused-parameter -Wno-c++11-narrowing -Wno-covered-switch-default -Wno-unneeded-internal-declaration -Wno-undefined-var-template -Wno-nonportable-include-path -Wno-user-defined-warnings -Wno-unused-lambda-capture -Wno-ignored-pragma-optimize -Wno-reorder -Wno-unused-function -Wno-unused-local-typedefs -Wno-unused-private-field -Wno-sign-compare -Wno-unused-result -O2 -fno-ident -fdata-sections -ffunction-sections -std=c++14 -fno-exceptions -fno-rtti -fvisibility-inlines-hidden -D_FORTIFY_SOURCE=2 -march=x86-64 -mtune=generic -O2 -pipe -fstack-protector-strong -fno-plt -c ../../third_party/tcmalloc/gperftools-2.0/chromium/src/malloc_extension.cc -o obj/base/allocator/tcmalloc/malloc_extension.o
1021  [11/28/2018 03:13PM]: [95/5007] clang++ -MMD -MF obj/base/allocator/tcmalloc/heap-profiler.o.d -DNO_HEAP_CHECK -DV8_DEPRECATION_WARNINGS -DUSE_UDEV -DUSE_AURA=1 -DUSE_GLIB=1 -DUSE_NSS_CERTS=1 -DUSE_X11=1 -DFULL_SAFE_BROWSING -DSAFE_BROWSING_CSD -DSAFE_BROWSING_DB_LOCAL -DCHROMIUM_BUILD -D_FILE_OFFSET_BITS=64 -D_LARGEFILE_SOURCE -D_LARGEFILE64_SOURCE -D_GNU_SOURCE -DCR_CLANG_REVISION=\340925-1\ -DCOMPONENT_BUILD -DNDEBUG -DNVALGRIND -DDYNAMIC_ANNOTATIONS_ENABLED=0 -DTCMALLOC_USE_DOUBLYLINKED_FREELIST -DTCMALLOC_DISABLE_HUGE_ALLOCATIONS -DTCMALLOC_DONT_REPLACE_SYSTEM_ALLOC -I../../base/allocator -I../../third_party/tcmalloc/gperftools-2.0/chromium/src/base -I../../third_party/tcmalloc/gperftools-2.0/chromium/src -I../.. -Igen -fno-strict-aliasing --param=ssp-buffer-size=4 -fstack-protector -Wno-builtin-macro-redefined -D__DATE__= -D__TIME__= -D__TIMESTAMP__= -funwind-tables -fPIC -pthread -fcolor-diagnostics -fmerge-all-constants -Xclang -mllvm -Xclang -instcombine-lower-dbg-declare=0 -no-canonical-prefixes -m64 -march=x86-64 -fno-omit-frame-pointer -g0 -fvisibility=hidden -Wheader-hygiene -Wstring-conversion -Wtautological-overlap-compare -Wall -Wno-unused-variable -Wno-missing-field-initializers -Wno-unused-parameter -Wno-c++11-narrowing -Wno-covered-switch-default -Wno-unneeded-internal-declaration -Wno-undefined-var-template -Wno-nonportable-include-path -Wno-user-defined-warnings -Wno-unused-lambda-capture -Wno-ignored-pragma-optimize -Wno-reorder -Wno-unused-function -Wno-unused-local-typedefs -Wno-unused-private-field -Wno-sign-compare -Wno-unused-result -O2 -fno-ident -fdata-sections -ffunction-sections -std=c++14 -fno-exceptions -fno-rtti -fvisibility-inlines-hidden -D_FORTIFY_SOURCE=2 -march=x86-64 -mtune=generic -O2 -pipe -fstack-protector-strong -fno-plt -c ../../third_party/tcmalloc/gperftools-2.0/chromium/src/heap-profiler.cc -o obj/base/allocator/tcmalloc/heap-profiler.o
1022  [11/28/2018 03:13PM]: [96/5007] clang++ -MMD -MF obj/base/allocator/tcmalloc/maybe_threads.o.d -DNO_HEAP_CHECK -DV8_DEPRECATION_WARNINGS -DUSE_UDEV -DUSE_AURA=1 -DUSE_GLIB=1 -DUSE_NSS_CERTS=1 -DUSE_X11=1 -DFULL_SAFE_BROWSING -DSAFE_BROWSING_CSD -DSAFE_BROWSING_DB_LOCAL -DCHROMIUM_BUILD -D_FILE_OFFSET_BITS=64 -D_LARGEFILE_SOURCE -D_LARGEFILE64_SOURCE -D_GNU_SOURCE -DCR_CLANG_REVISION=\340925-1\ -DCOMPONENT_BUILD -DNDEBUG -DNVALGRIND -DDYNAMIC_ANNOTATIONS_ENABLED=0 -DTCMALLOC_USE_DOUBLYLINKED_FREELIST -DTCMALLOC_DISABLE_HUGE_ALLOCATIONS -DTCMALLOC_DONT_REPLACE_SYSTEM_ALLOC -I../../base/allocator -I../../third_party/tcmalloc/gperftools-2.0/chromium/src/base -I../../third_party/tcmalloc/gperftools-2.0/chromium/src -I../.. -Igen -fno-strict-aliasing --param=ssp-buffer-size=4 -fstack-protector -Wno-builtin-macro-redefined -D__DATE__= -D__TIME__= -D__TIMESTAMP__= -funwind-tables -fPIC -pthread -fcolor-diagnostics -fmerge-all-constants -Xclang -mllvm -Xclang -instcombine-lower-dbg-declare=0 -no-canonical-prefixes -m64 -march=x86-64 -fno-omit-frame-pointer -g0 -fvisibility=hidden -Wheader-hygiene -Wstring-conversion -Wtautological-overlap-compare -Wall -Wno-unused-variable -Wno-missing-field-initializers -Wno-unused-parameter -Wno-c++11-narrowing -Wno-covered-switch-default -Wno-unneeded-internal-declaration -Wno-undefined-var-template -Wno-nonportable-include-path -Wno-user-defined-warnings -Wno-unused-lambda-capture -Wno-ignored-pragma-optimize -Wno-reorder -Wno-unused-function -Wno-unused-local-typedefs -Wno-unused-private-field -Wno-sign-compare -Wno-unused-result -O2 -fno-ident -fdata-sections -ffunction-sections -std=c++14 -fno-exceptions -fno-rtti -fvisibility-inlines-hidden -D_FORTIFY_SOURCE=2 -march=x86-64 -mtune=generic -O2 -pipe -fstack-protector-strong -fno-plt -c ../../third_party/tcmalloc/gperftools-2.0/chromium/src/maybe_threads.cc -o obj/base/allocator/tcmalloc/maybe_threads.o
1023  [11/28/2018 03:13PM]: [97/5007] clang++ -MMD -MF obj/base/allocator/tcmalloc/raw_printer.o.d -DNO_HEAP_CHECK -DV8_DEPRECATION_WARNINGS -DUSE_UDEV -DUSE_AURA=1 -DUSE_GLIB=1 -DUSE_NSS_CERTS=1 -DUSE_X11=1 -DFULL_SAFE_BROWSING -DSAFE_BROWSING_CSD -DSAFE_BROWSING_DB_LOCAL -DCHROMIUM_BUILD -D_FILE_OFFSET_BITS=64 -D_LARGEFILE_SOURCE -D_LARGEFILE64_SOURCE -D_GNU_SOURCE -DCR_CLANG_REVISION=\340925-1\ -DCOMPONENT_BUILD -DNDEBUG -DNVALGRIND -DDYNAMIC_ANNOTATIONS_ENABLED=0 -DTCMALLOC_USE_DOUBLYLINKED_FREELIST -DTCMALLOC_DISABLE_HUGE_ALLOCATIONS -DTCMALLOC_DONT_REPLACE_SYSTEM_ALLOC -I../../base/allocator -I../../third_party/tcmalloc/gperftools-2.0/chromium/src/base -I../../third_party/tcmalloc/gperftools-2.0/chromium/src -I../.. -Igen -fno-strict-aliasing --param=ssp-buffer-size=4 -fstack-protector -Wno-builtin-macro-redefined -D__DATE__= -D__TIME__= -D__TIMESTAMP__= -funwind-tables -fPIC -pthread -fcolor-diagnostics -fmerge-all-constants -Xclang -mllvm -Xclang -instcombine-lower-dbg-declare=0 -no-canonical-prefixes -m64 -march=x86-64 -fno-omit-frame-pointer -g0 -fvisibility=hidden -Wheader-hygiene -Wstring-conversion -Wtautological-overlap-compare -Wall -Wno-unused-variable -Wno-missing-field-initializers -Wno-unused-parameter -Wno-c++11-narrowing -Wno-covered-switch-default -Wno-unneeded-internal-declaration -Wno-undefined-var-template -Wno-nonportable-include-path -Wno-user-defined-warnings -Wno-unused-lambda-capture -Wno-ignored-pragma-optimize -Wno-reorder -Wno-unused-function -Wno-unused-local-typedefs -Wno-unused-private-field -Wno-sign-compare -Wno-unused-result -O2 -fno-ident -fdata-sections -ffunction-sections -std=c++14 -fno-exceptions -fno-rtti -fvisibility-inlines-hidden -D_FORTIFY_SOURCE=2 -march=x86-64 -mtune=generic -O2 -pipe -fstack-protector-strong -fno-plt -c ../../third_party/tcmalloc/gperftools-2.0/chromium/src/raw_printer.cc -o obj/base/allocator/tcmalloc/raw_printer.o
1024  [11/28/2018 03:13PM]: [98/5007] clang++ -MMD -MF obj/base/allocator/tcmalloc/page_heap.o.d -DNO_HEAP_CHECK -DV8_DEPRECATION_WARNINGS -DUSE_UDEV -DUSE_AURA=1 -DUSE_GLIB=1 -DUSE_NSS_CERTS=1 -DUSE_X11=1 -DFULL_SAFE_BROWSING -DSAFE_BROWSING_CSD -DSAFE_BROWSING_DB_LOCAL -DCHROMIUM_BUILD -D_FILE_OFFSET_BITS=64 -D_LARGEFILE_SOURCE -D_LARGEFILE64_SOURCE -D_GNU_SOURCE -DCR_CLANG_REVISION=\340925-1\ -DCOMPONENT_BUILD -DNDEBUG -DNVALGRIND -DDYNAMIC_ANNOTATIONS_ENABLED=0 -DTCMALLOC_USE_DOUBLYLINKED_FREELIST -DTCMALLOC_DISABLE_HUGE_ALLOCATIONS -DTCMALLOC_DONT_REPLACE_SYSTEM_ALLOC -I../../base/allocator -I../../third_party/tcmalloc/gperftools-2.0/chromium/src/base -I../../third_party/tcmalloc/gperftools-2.0/chromium/src -I../.. -Igen -fno-strict-aliasing --param=ssp-buffer-size=4 -fstack-protector -Wno-builtin-macro-redefined -D__DATE__= -D__TIME__= -D__TIMESTAMP__= -funwind-tables -fPIC -pthread -fcolor-diagnostics -fmerge-all-constants -Xclang -mllvm -Xclang -instcombine-lower-dbg-declare=0 -no-canonical-prefixes -m64 -march=x86-64 -fno-omit-frame-pointer -g0 -fvisibility=hidden -Wheader-hygiene -Wstring-conversion -Wtautological-overlap-compare -Wall -Wno-unused-variable -Wno-missing-field-initializers -Wno-unused-parameter -Wno-c++11-narrowing -Wno-covered-switch-default -Wno-unneeded-internal-declaration -Wno-undefined-var-template -Wno-nonportable-include-path -Wno-user-defined-warnings -Wno-unused-lambda-capture -Wno-ignored-pragma-optimize -Wno-reorder -Wno-unused-function -Wno-unused-local-typedefs -Wno-unused-private-field -Wno-sign-compare -Wno-unused-result -O2 -fno-ident -fdata-sections -ffunction-sections -std=c++14 -fno-exceptions -fno-rtti -fvisibility-inlines-hidden -D_FORTIFY_SOURCE=2 -march=x86-64 -mtune=generic -O2 -pipe -fstack-protector-strong -fno-plt -c ../../third_party/tcmalloc/gperftools-2.0/chromium/src/page_heap.cc -o obj/base/allocator/tcmalloc/page_heap.o
1025  [11/28/2018 03:13PM]: [99/5007] clang++ -MMD -MF obj/base/allocator/tcmalloc/malloc_hook.o.d -DNO_HEAP_CHECK -DV8_DEPRECATION_WARNINGS -DUSE_UDEV -DUSE_AURA=1 -DUSE_GLIB=1 -DUSE_NSS_CERTS=1 -DUSE_X11=1 -DFULL_SAFE_BROWSING -DSAFE_BROWSING_CSD -DSAFE_BROWSING_DB_LOCAL -DCHROMIUM_BUILD -D_FILE_OFFSET_BITS=64 -D_LARGEFILE_SOURCE -D_LARGEFILE64_SOURCE -D_GNU_SOURCE -DCR_CLANG_REVISION=\340925-1\ -DCOMPONENT_BUILD -DNDEBUG -DNVALGRIND -DDYNAMIC_ANNOTATIONS_ENABLED=0 -DTCMALLOC_USE_DOUBLYLINKED_FREELIST -DTCMALLOC_DISABLE_HUGE_ALLOCATIONS -DTCMALLOC_DONT_REPLACE_SYSTEM_ALLOC -I../../base/allocator -I../../third_party/tcmalloc/gperftools-2.0/chromium/src/base -I../../third_party/tcmalloc/gperftools-2.0/chromium/src -I../.. -Igen -fno-strict-aliasing --param=ssp-buffer-size=4 -fstack-protector -Wno-builtin-macro-redefined -D__DATE__= -D__TIME__= -D__TIMESTAMP__= -funwind-tables -fPIC -pthread -fcolor-diagnostics -fmerge-all-constants -Xclang -mllvm -Xclang -instcombine-lower-dbg-declare=0 -no-canonical-prefixes -m64 -march=x86-64 -fno-omit-frame-pointer -g0 -fvisibility=hidden -Wheader-hygiene -Wstring-conversion -Wtautological-overlap-compare -Wall -Wno-unused-variable -Wno-missing-field-initializers -Wno-unused-parameter -Wno-c++11-narrowing -Wno-covered-switch-default -Wno-unneeded-internal-declaration -Wno-undefined-var-template -Wno-nonportable-include-path -Wno-user-defined-warnings -Wno-unused-lambda-capture -Wno-ignored-pragma-optimize -Wno-reorder -Wno-unused-function -Wno-unused-local-typedefs -Wno-unused-private-field -Wno-sign-compare -Wno-unused-result -O2 -fno-ident -fdata-sections -ffunction-sections -std=c++14 -fno-exceptions -fno-rtti -fvisibility-inlines-hidden -D_FORTIFY_SOURCE=2 -march=x86-64 -mtune=generic -O2 -pipe -fstack-protector-strong -fno-plt -c ../../third_party/tcmalloc/gperftools-2.0/chromium/src/malloc_hook.cc -o obj/base/allocator/tcmalloc/malloc_hook.o
1026  [11/28/2018 03:13PM]: [100/5007] clang++ -MMD -MF obj/base/allocator/tcmalloc/heap-profile-table.o.d -DNO_HEAP_CHECK -DV8_DEPRECATION_WARNINGS -DUSE_UDEV -DUSE_AURA=1 -DUSE_GLIB=1 -DUSE_NSS_CERTS=1 -DUSE_X11=1 -DFULL_SAFE_BROWSING -DSAFE_BROWSING_CSD -DSAFE_BROWSING_DB_LOCAL -DCHROMIUM_BUILD -D_FILE_OFFSET_BITS=64 -D_LARGEFILE_SOURCE -D_LARGEFILE64_SOURCE -D_GNU_SOURCE -DCR_CLANG_REVISION=\340925-1\ -DCOMPONENT_BUILD -DNDEBUG -DNVALGRIND -DDYNAMIC_ANNOTATIONS_ENABLED=0 -DTCMALLOC_USE_DOUBLYLINKED_FREELIST -DTCMALLOC_DISABLE_HUGE_ALLOCATIONS -DTCMALLOC_DONT_REPLACE_SYSTEM_ALLOC -I../../base/allocator -I../../third_party/tcmalloc/gperftools-2.0/chromium/src/base -I../../third_party/tcmalloc/gperftools-2.0/chromium/src -I../.. -Igen -fno-strict-aliasing --param=ssp-buffer-size=4 -fstack-protector -Wno-builtin-macro-redefined -D__DATE__= -D__TIME__= -D__TIMESTAMP__= -funwind-tables -fPIC -pthread -fcolor-diagnostics -fmerge-all-constants -Xclang -mllvm -Xclang -instcombine-lower-dbg-declare=0 -no-canonical-prefixes -m64 -march=x86-64 -fno-omit-frame-pointer -g0 -fvisibility=hidden -Wheader-hygiene -Wstring-conversion -Wtautological-overlap-compare -Wall -Wno-unused-variable -Wno-missing-field-initializers -Wno-unused-parameter -Wno-c++11-narrowing -Wno-covered-switch-default -Wno-unneeded-internal-declaration -Wno-undefined-var-template -Wno-nonportable-include-path -Wno-user-defined-warnings -Wno-unused-lambda-capture -Wno-ignored-pragma-optimize -Wno-reorder -Wno-unused-function -Wno-unused-local-typedefs -Wno-unused-private-field -Wno-sign-compare -Wno-unused-result -O2 -fno-ident -fdata-sections -ffunction-sections -std=c++14 -fno-exceptions -fno-rtti -fvisibility-inlines-hidden -D_FORTIFY_SOURCE=2 -march=x86-64 -mtune=generic -O2 -pipe -fstack-protector-strong -fno-plt -c ../../third_party/tcmalloc/gperftools-2.0/chromium/src/heap-profile-table.cc -o obj/base/allocator/tcmalloc/heap-profile-table.o
1027  [11/28/2018 03:13PM]: [101/5007] clang++ -MMD -MF obj/base/allocator/tcmalloc/sampler.o.d -DNO_HEAP_CHECK -DV8_DEPRECATION_WARNINGS -DUSE_UDEV -DUSE_AURA=1 -DUSE_GLIB=1 -DUSE_NSS_CERTS=1 -DUSE_X11=1 -DFULL_SAFE_BROWSING -DSAFE_BROWSING_CSD -DSAFE_BROWSING_DB_LOCAL -DCHROMIUM_BUILD -D_FILE_OFFSET_BITS=64 -D_LARGEFILE_SOURCE -D_LARGEFILE64_SOURCE -D_GNU_SOURCE -DCR_CLANG_REVISION=\340925-1\ -DCOMPONENT_BUILD -DNDEBUG -DNVALGRIND -DDYNAMIC_ANNOTATIONS_ENABLED=0 -DTCMALLOC_USE_DOUBLYLINKED_FREELIST -DTCMALLOC_DISABLE_HUGE_ALLOCATIONS -DTCMALLOC_DONT_REPLACE_SYSTEM_ALLOC -I../../base/allocator -I../../third_party/tcmalloc/gperftools-2.0/chromium/src/base -I../../third_party/tcmalloc/gperftools-2.0/chromium/src -I../.. -Igen -fno-strict-aliasing --param=ssp-buffer-size=4 -fstack-protector -Wno-builtin-macro-redefined -D__DATE__= -D__TIME__= -D__TIMESTAMP__= -funwind-tables -fPIC -pthread -fcolor-diagnostics -fmerge-all-constants -Xclang -mllvm -Xclang -instcombine-lower-dbg-declare=0 -no-canonical-prefixes -m64 -march=x86-64 -fno-omit-frame-pointer -g0 -fvisibility=hidden -Wheader-hygiene -Wstring-conversion -Wtautological-overlap-compare -Wall -Wno-unused-variable -Wno-missing-field-initializers -Wno-unused-parameter -Wno-c++11-narrowing -Wno-covered-switch-default -Wno-unneeded-internal-declaration -Wno-undefined-var-template -Wno-nonportable-include-path -Wno-user-defined-warnings -Wno-unused-lambda-capture -Wno-ignored-pragma-optimize -Wno-reorder -Wno-unused-function -Wno-unused-local-typedefs -Wno-unused-private-field -Wno-sign-compare -Wno-unused-result -O2 -fno-ident -fdata-sections -ffunction-sections -std=c++14 -fno-exceptions -fno-rtti -fvisibility-inlines-hidden -D_FORTIFY_SOURCE=2 -march=x86-64 -mtune=generic -O2 -pipe -fstack-protector-strong -fno-plt -c ../../third_party/tcmalloc/gperftools-2.0/chromium/src/sampler.cc -o obj/base/allocator/tcmalloc/sampler.o
1028  [11/28/2018 03:13PM]: [102/5007] clang++ -MMD -MF obj/base/allocator/tcmalloc/memory_region_map.o.d -DNO_HEAP_CHECK -DV8_DEPRECATION_WARNINGS -DUSE_UDEV -DUSE_AURA=1 -DUSE_GLIB=1 -DUSE_NSS_CERTS=1 -DUSE_X11=1 -DFULL_SAFE_BROWSING -DSAFE_BROWSING_CSD -DSAFE_BROWSING_DB_LOCAL -DCHROMIUM_BUILD -D_FILE_OFFSET_BITS=64 -D_LARGEFILE_SOURCE -D_LARGEFILE64_SOURCE -D_GNU_SOURCE -DCR_CLANG_REVISION=\340925-1\ -DCOMPONENT_BUILD -DNDEBUG -DNVALGRIND -DDYNAMIC_ANNOTATIONS_ENABLED=0 -DTCMALLOC_USE_DOUBLYLINKED_FREELIST -DTCMALLOC_DISABLE_HUGE_ALLOCATIONS -DTCMALLOC_DONT_REPLACE_SYSTEM_ALLOC -I../../base/allocator -I../../third_party/tcmalloc/gperftools-2.0/chromium/src/base -I../../third_party/tcmalloc/gperftools-2.0/chromium/src -I../.. -Igen -fno-strict-aliasing --param=ssp-buffer-size=4 -fstack-protector -Wno-builtin-macro-redefined -D__DATE__= -D__TIME__= -D__TIMESTAMP__= -funwind-tables -fPIC -pthread -fcolor-diagnostics -fmerge-all-constants -Xclang -mllvm -Xclang -instcombine-lower-dbg-declare=0 -no-canonical-prefixes -m64 -march=x86-64 -fno-omit-frame-pointer -g0 -fvisibility=hidden -Wheader-hygiene -Wstring-conversion -Wtautological-overlap-compare -Wall -Wno-unused-variable -Wno-missing-field-initializers -Wno-unused-parameter -Wno-c++11-narrowing -Wno-covered-switch-default -Wno-unneeded-internal-declaration -Wno-undefined-var-template -Wno-nonportable-include-path -Wno-user-defined-warnings -Wno-unused-lambda-capture -Wno-ignored-pragma-optimize -Wno-reorder -Wno-unused-function -Wno-unused-local-typedefs -Wno-unused-private-field -Wno-sign-compare -Wno-unused-result -O2 -fno-ident -fdata-sections -ffunction-sections -std=c++14 -fno-exceptions -fno-rtti -fvisibility-inlines-hidden -D_FORTIFY_SOURCE=2 -march=x86-64 -mtune=generic -O2 -pipe -fstack-protector-strong -fno-plt -c ../../third_party/tcmalloc/gperftools-2.0/chromium/src/memory_region_map.cc -o obj/base/allocator/tcmalloc/memory_region_map.o
1029  [11/28/2018 03:13PM]: [103/5007] clang++ -MMD -MF obj/base/allocator/tcmalloc/span.o.d -DNO_HEAP_CHECK -DV8_DEPRECATION_WARNINGS -DUSE_UDEV -DUSE_AURA=1 -DUSE_GLIB=1 -DUSE_NSS_CERTS=1 -DUSE_X11=1 -DFULL_SAFE_BROWSING -DSAFE_BROWSING_CSD -DSAFE_BROWSING_DB_LOCAL -DCHROMIUM_BUILD -D_FILE_OFFSET_BITS=64 -D_LARGEFILE_SOURCE -D_LARGEFILE64_SOURCE -D_GNU_SOURCE -DCR_CLANG_REVISION=\340925-1\ -DCOMPONENT_BUILD -DNDEBUG -DNVALGRIND -DDYNAMIC_ANNOTATIONS_ENABLED=0 -DTCMALLOC_USE_DOUBLYLINKED_FREELIST -DTCMALLOC_DISABLE_HUGE_ALLOCATIONS -DTCMALLOC_DONT_REPLACE_SYSTEM_ALLOC -I../../base/allocator -I../../third_party/tcmalloc/gperftools-2.0/chromium/src/base -I../../third_party/tcmalloc/gperftools-2.0/chromium/src -I../.. -Igen -fno-strict-aliasing --param=ssp-buffer-size=4 -fstack-protector -Wno-builtin-macro-redefined -D__DATE__= -D__TIME__= -D__TIMESTAMP__= -funwind-tables -fPIC -pthread -fcolor-diagnostics -fmerge-all-constants -Xclang -mllvm -Xclang -instcombine-lower-dbg-declare=0 -no-canonical-prefixes -m64 -march=x86-64 -fno-omit-frame-pointer -g0 -fvisibility=hidden -Wheader-hygiene -Wstring-conversion -Wtautological-overlap-compare -Wall -Wno-unused-variable -Wno-missing-field-initializers -Wno-unused-parameter -Wno-c++11-narrowing -Wno-covered-switch-default -Wno-unneeded-internal-declaration -Wno-undefined-var-template -Wno-nonportable-include-path -Wno-user-defined-warnings -Wno-unused-lambda-capture -Wno-ignored-pragma-optimize -Wno-reorder -Wno-unused-function -Wno-unused-local-typedefs -Wno-unused-private-field -Wno-sign-compare -Wno-unused-result -O2 -fno-ident -fdata-sections -ffunction-sections -std=c++14 -fno-exceptions -fno-rtti -fvisibility-inlines-hidden -D_FORTIFY_SOURCE=2 -march=x86-64 -mtune=generic -O2 -pipe -fstack-protector-strong -fno-plt -c ../../third_party/tcmalloc/gperftools-2.0/chromium/src/span.cc -o obj/base/allocator/tcmalloc/span.o
1030  [11/28/2018 03:13PM]: [104/5007] clang++ -MMD -MF obj/base/allocator/tcmalloc/stacktrace.o.d -DNO_HEAP_CHECK -DV8_DEPRECATION_WARNINGS -DUSE_UDEV -DUSE_AURA=1 -DUSE_GLIB=1 -DUSE_NSS_CERTS=1 -DUSE_X11=1 -DFULL_SAFE_BROWSING -DSAFE_BROWSING_CSD -DSAFE_BROWSING_DB_LOCAL -DCHROMIUM_BUILD -D_FILE_OFFSET_BITS=64 -D_LARGEFILE_SOURCE -D_LARGEFILE64_SOURCE -D_GNU_SOURCE -DCR_CLANG_REVISION=\340925-1\ -DCOMPONENT_BUILD -DNDEBUG -DNVALGRIND -DDYNAMIC_ANNOTATIONS_ENABLED=0 -DTCMALLOC_USE_DOUBLYLINKED_FREELIST -DTCMALLOC_DISABLE_HUGE_ALLOCATIONS -DTCMALLOC_DONT_REPLACE_SYSTEM_ALLOC -I../../base/allocator -I../../third_party/tcmalloc/gperftools-2.0/chromium/src/base -I../../third_party/tcmalloc/gperftools-2.0/chromium/src -I../.. -Igen -fno-strict-aliasing --param=ssp-buffer-size=4 -fstack-protector -Wno-builtin-macro-redefined -D__DATE__= -D__TIME__= -D__TIMESTAMP__= -funwind-tables -fPIC -pthread -fcolor-diagnostics -fmerge-all-constants -Xclang -mllvm -Xclang -instcombine-lower-dbg-declare=0 -no-canonical-prefixes -m64 -march=x86-64 -fno-omit-frame-pointer -g0 -fvisibility=hidden -Wheader-hygiene -Wstring-conversion -Wtautological-overlap-compare -Wall -Wno-unused-variable -Wno-missing-field-initializers -Wno-unused-parameter -Wno-c++11-narrowing -Wno-covered-switch-default -Wno-unneeded-internal-declaration -Wno-undefined-var-template -Wno-nonportable-include-path -Wno-user-defined-warnings -Wno-unused-lambda-capture -Wno-ignored-pragma-optimize -Wno-reorder -Wno-unused-function -Wno-unused-local-typedefs -Wno-unused-private-field -Wno-sign-compare -Wno-unused-result -O2 -fno-ident -fdata-sections -ffunction-sections -std=c++14 -fno-exceptions -fno-rtti -fvisibility-inlines-hidden -D_FORTIFY_SOURCE=2 -march=x86-64 -mtune=generic -O2 -pipe -fstack-protector-strong -fno-plt -c ../../third_party/tcmalloc/gperftools-2.0/chromium/src/stacktrace.cc -o obj/base/allocator/tcmalloc/stacktrace.o
1031  [11/28/2018 03:13PM]: [105/5007] clang++ -MMD -MF obj/base/allocator/tcmalloc/stack_trace_table.o.d -DNO_HEAP_CHECK -DV8_DEPRECATION_WARNINGS -DUSE_UDEV -DUSE_AURA=1 -DUSE_GLIB=1 -DUSE_NSS_CERTS=1 -DUSE_X11=1 -DFULL_SAFE_BROWSING -DSAFE_BROWSING_CSD -DSAFE_BROWSING_DB_LOCAL -DCHROMIUM_BUILD -D_FILE_OFFSET_BITS=64 -D_LARGEFILE_SOURCE -D_LARGEFILE64_SOURCE -D_GNU_SOURCE -DCR_CLANG_REVISION=\340925-1\ -DCOMPONENT_BUILD -DNDEBUG -DNVALGRIND -DDYNAMIC_ANNOTATIONS_ENABLED=0 -DTCMALLOC_USE_DOUBLYLINKED_FREELIST -DTCMALLOC_DISABLE_HUGE_ALLOCATIONS -DTCMALLOC_DONT_REPLACE_SYSTEM_ALLOC -I../../base/allocator -I../../third_party/tcmalloc/gperftools-2.0/chromium/src/base -I../../third_party/tcmalloc/gperftools-2.0/chromium/src -I../.. -Igen -fno-strict-aliasing --param=ssp-buffer-size=4 -fstack-protector -Wno-builtin-macro-redefined -D__DATE__= -D__TIME__= -D__TIMESTAMP__= -funwind-tables -fPIC -pthread -fcolor-diagnostics -fmerge-all-constants -Xclang -mllvm -Xclang -instcombine-lower-dbg-declare=0 -no-canonical-prefixes -m64 -march=x86-64 -fno-omit-frame-pointer -g0 -fvisibility=hidden -Wheader-hygiene -Wstring-conversion -Wtautological-overlap-compare -Wall -Wno-unused-variable -Wno-missing-field-initializers -Wno-unused-parameter -Wno-c++11-narrowing -Wno-covered-switch-default -Wno-unneeded-internal-declaration -Wno-undefined-var-template -Wno-nonportable-include-path -Wno-user-defined-warnings -Wno-unused-lambda-capture -Wno-ignored-pragma-optimize -Wno-reorder -Wno-unused-function -Wno-unused-local-typedefs -Wno-unused-private-field -Wno-sign-compare -Wno-unused-result -O2 -fno-ident -fdata-sections -ffunction-sections -std=c++14 -fno-exceptions -fno-rtti -fvisibility-inlines-hidden -D_FORTIFY_SOURCE=2 -march=x86-64 -mtune=generic -O2 -pipe -fstack-protector-strong -fno-plt -c ../../third_party/tcmalloc/gperftools-2.0/chromium/src/stack_trace_table.cc -o obj/base/allocator/tcmalloc/stack_trace_table.o
1032  [11/28/2018 03:13PM]: [106/5007] touch obj/base/cfi_buildflags.stamp
1033  [11/28/2018 03:13PM]: [107/5007] touch obj/base/base.inputdeps.stamp
1034  [11/28/2018 03:13PM]: [108/5007] clang++ -MMD -MF obj/base/allocator/tcmalloc/static_vars.o.d -DNO_HEAP_CHECK -DV8_DEPRECATION_WARNINGS -DUSE_UDEV -DUSE_AURA=1 -DUSE_GLIB=1 -DUSE_NSS_CERTS=1 -DUSE_X11=1 -DFULL_SAFE_BROWSING -DSAFE_BROWSING_CSD -DSAFE_BROWSING_DB_LOCAL -DCHROMIUM_BUILD -D_FILE_OFFSET_BITS=64 -D_LARGEFILE_SOURCE -D_LARGEFILE64_SOURCE -D_GNU_SOURCE -DCR_CLANG_REVISION=\340925-1\ -DCOMPONENT_BUILD -DNDEBUG -DNVALGRIND -DDYNAMIC_ANNOTATIONS_ENABLED=0 -DTCMALLOC_USE_DOUBLYLINKED_FREELIST -DTCMALLOC_DISABLE_HUGE_ALLOCATIONS -DTCMALLOC_DONT_REPLACE_SYSTEM_ALLOC -I../../base/allocator -I../../third_party/tcmalloc/gperftools-2.0/chromium/src/base -I../../third_party/tcmalloc/gperftools-2.0/chromium/src -I../.. -Igen -fno-strict-aliasing --param=ssp-buffer-size=4 -fstack-protector -Wno-builtin-macro-redefined -D__DATE__= -D__TIME__= -D__TIMESTAMP__= -funwind-tables -fPIC -pthread -fcolor-diagnostics -fmerge-all-constants -Xclang -mllvm -Xclang -instcombine-lower-dbg-declare=0 -no-canonical-prefixes -m64 -march=x86-64 -fno-omit-frame-pointer -g0 -fvisibility=hidden -Wheader-hygiene -Wstring-conversion -Wtautological-overlap-compare -Wall -Wno-unused-variable -Wno-missing-field-initializers -Wno-unused-parameter -Wno-c++11-narrowing -Wno-covered-switch-default -Wno-unneeded-internal-declaration -Wno-undefined-var-template -Wno-nonportable-include-path -Wno-user-defined-warnings -Wno-unused-lambda-capture -Wno-ignored-pragma-optimize -Wno-reorder -Wno-unused-function -Wno-unused-local-typedefs -Wno-unused-private-field -Wno-sign-compare -Wno-unused-result -O2 -fno-ident -fdata-sections -ffunction-sections -std=c++14 -fno-exceptions -fno-rtti -fvisibility-inlines-hidden -D_FORTIFY_SOURCE=2 -march=x86-64 -mtune=generic -O2 -pipe -fstack-protector-strong -fno-plt -c ../../third_party/tcmalloc/gperftools-2.0/chromium/src/static_vars.cc -o obj/base/allocator/tcmalloc/static_vars.o
1035  [11/28/2018 03:13PM]: [109/5007] clang++ -MMD -MF obj/base/allocator/tcmalloc/system-alloc.o.d -DNO_HEAP_CHECK -DV8_DEPRECATION_WARNINGS -DUSE_UDEV -DUSE_AURA=1 -DUSE_GLIB=1 -DUSE_NSS_CERTS=1 -DUSE_X11=1 -DFULL_SAFE_BROWSING -DSAFE_BROWSING_CSD -DSAFE_BROWSING_DB_LOCAL -DCHROMIUM_BUILD -D_FILE_OFFSET_BITS=64 -D_LARGEFILE_SOURCE -D_LARGEFILE64_SOURCE -D_GNU_SOURCE -DCR_CLANG_REVISION=\340925-1\ -DCOMPONENT_BUILD -DNDEBUG -DNVALGRIND -DDYNAMIC_ANNOTATIONS_ENABLED=0 -DTCMALLOC_USE_DOUBLYLINKED_FREELIST -DTCMALLOC_DISABLE_HUGE_ALLOCATIONS -DTCMALLOC_DONT_REPLACE_SYSTEM_ALLOC -I../../base/allocator -I../../third_party/tcmalloc/gperftools-2.0/chromium/src/base -I../../third_party/tcmalloc/gperftools-2.0/chromium/src -I../.. -Igen -fno-strict-aliasing --param=ssp-buffer-size=4 -fstack-protector -Wno-builtin-macro-redefined -D__DATE__= -D__TIME__= -D__TIMESTAMP__= -funwind-tables -fPIC -pthread -fcolor-diagnostics -fmerge-all-constants -Xclang -mllvm -Xclang -instcombine-lower-dbg-declare=0 -no-canonical-prefixes -m64 -march=x86-64 -fno-omit-frame-pointer -g0 -fvisibility=hidden -Wheader-hygiene -Wstring-conversion -Wtautological-overlap-compare -Wall -Wno-unused-variable -Wno-missing-field-initializers -Wno-unused-parameter -Wno-c++11-narrowing -Wno-covered-switch-default -Wno-unneeded-internal-declaration -Wno-undefined-var-template -Wno-nonportable-include-path -Wno-user-defined-warnings -Wno-unused-lambda-capture -Wno-ignored-pragma-optimize -Wno-reorder -Wno-unused-function -Wno-unused-local-typedefs -Wno-unused-private-field -Wno-sign-compare -Wno-unused-result -O2 -fno-ident -fdata-sections -ffunction-sections -std=c++14 -fno-exceptions -fno-rtti -fvisibility-inlines-hidden -D_FORTIFY_SOURCE=2 -march=x86-64 -mtune=generic -O2 -pipe -fstack-protector-strong -fno-plt -c ../../third_party/tcmalloc/gperftools-2.0/chromium/src/system-alloc.cc -o obj/base/allocator/tcmalloc/system-alloc.o
1036  [11/28/2018 03:13PM]: [110/5007] clang++ -MMD -MF obj/base/allocator/tcmalloc/symbolize.o.d -DNO_HEAP_CHECK -DV8_DEPRECATION_WARNINGS -DUSE_UDEV -DUSE_AURA=1 -DUSE_GLIB=1 -DUSE_NSS_CERTS=1 -DUSE_X11=1 -DFULL_SAFE_BROWSING -DSAFE_BROWSING_CSD -DSAFE_BROWSING_DB_LOCAL -DCHROMIUM_BUILD -D_FILE_OFFSET_BITS=64 -D_LARGEFILE_SOURCE -D_LARGEFILE64_SOURCE -D_GNU_SOURCE -DCR_CLANG_REVISION=\340925-1\ -DCOMPONENT_BUILD -DNDEBUG -DNVALGRIND -DDYNAMIC_ANNOTATIONS_ENABLED=0 -DTCMALLOC_USE_DOUBLYLINKED_FREELIST -DTCMALLOC_DISABLE_HUGE_ALLOCATIONS -DTCMALLOC_DONT_REPLACE_SYSTEM_ALLOC -I../../base/allocator -I../../third_party/tcmalloc/gperftools-2.0/chromium/src/base -I../../third_party/tcmalloc/gperftools-2.0/chromium/src -I../.. -Igen -fno-strict-aliasing --param=ssp-buffer-size=4 -fstack-protector -Wno-builtin-macro-redefined -D__DATE__= -D__TIME__= -D__TIMESTAMP__= -funwind-tables -fPIC -pthread -fcolor-diagnostics -fmerge-all-constants -Xclang -mllvm -Xclang -instcombine-lower-dbg-declare=0 -no-canonical-prefixes -m64 -march=x86-64 -fno-omit-frame-pointer -g0 -fvisibility=hidden -Wheader-hygiene -Wstring-conversion -Wtautological-overlap-compare -Wall -Wno-unused-variable -Wno-missing-field-initializers -Wno-unused-parameter -Wno-c++11-narrowing -Wno-covered-switch-default -Wno-unneeded-internal-declaration -Wno-undefined-var-template -Wno-nonportable-include-path -Wno-user-defined-warnings -Wno-unused-lambda-capture -Wno-ignored-pragma-optimize -Wno-reorder -Wno-unused-function -Wno-unused-local-typedefs -Wno-unused-private-field -Wno-sign-compare -Wno-unused-result -O2 -fno-ident -fdata-sections -ffunction-sections -std=c++14 -fno-exceptions -fno-rtti -fvisibility-inlines-hidden -D_FORTIFY_SOURCE=2 -march=x86-64 -mtune=generic -O2 -pipe -fstack-protector-strong -fno-plt -c ../../third_party/tcmalloc/gperftools-2.0/chromium/src/symbolize.cc -o obj/base/allocator/tcmalloc/symbolize.o
1037  [11/28/2018 03:13PM]: [111/5007] clang++ -MMD -MF obj/base/base/allocator_check.o.d -DUSE_SYMBOLIZE -DV8_DEPRECATION_WARNINGS -DUSE_UDEV -DUSE_AURA=1 -DUSE_GLIB=1 -DUSE_NSS_CERTS=1 -DUSE_X11=1 -DFULL_SAFE_BROWSING -DSAFE_BROWSING_CSD -DSAFE_BROWSING_DB_LOCAL -DCHROMIUM_BUILD -D_FILE_OFFSET_BITS=64 -D_LARGEFILE_SOURCE -D_LARGEFILE64_SOURCE -D_GNU_SOURCE -DCR_CLANG_REVISION=\340925-1\ -D__STDC_CONSTANT_MACROS -D__STDC_FORMAT_MACROS -DCOMPONENT_BUILD -DNDEBUG -DNVALGRIND -DDYNAMIC_ANNOTATIONS_ENABLED=0 -DBASE_IMPLEMENTATION -DGLIB_VERSION_MAX_ALLOWED=GLIB_VERSION_2_32 -DGLIB_VERSION_MIN_REQUIRED=GLIB_VERSION_2_26 -I../.. -Igen -fno-strict-aliasing --param=ssp-buffer-size=4 -fstack-protector -Wno-builtin-macro-redefined -D__DATE__= -D__TIME__= -D__TIMESTAMP__= -funwind-tables -fPIC -pthread -fcolor-diagnostics -fmerge-all-constants -Xclang -mllvm -Xclang -instcombine-lower-dbg-declare=0 -no-canonical-prefixes -m64 -march=x86-64 -Wall -Wextra -Wimplicit-fallthrough -Wthread-safety -Wno-missing-field-initializers -Wno-unused-parameter -Wno-c++11-narrowing -Wno-covered-switch-default -Wno-unneeded-internal-declaration -Wno-undefined-var-template -Wno-nonportable-include-path -Wno-user-defined-warnings -Wno-unused-lambda-capture -Wno-ignored-pragma-optimize -fno-omit-frame-pointer -g0 -fvisibility=hidden -Wheader-hygiene -Wstring-conversion -Wtautological-overlap-compare -Wno-char-subscripts -Wglobal-constructors -Wexit-time-destructors -Wexit-time-destructors -Wshadow -I/usr/include/glib-2.0 -I/usr/lib/glib-2.0/include -I/usr/lib/libffi-3.2.1/include -Wexit-time-destructors -O2 -fno-ident -fdata-sections -ffunction-sections -std=c++14 -fno-exceptions -fno-rtti -fvisibility-inlines-hidden -D_FORTIFY_SOURCE=2 -march=x86-64 -mtune=generic -O2 -pipe -fstack-protector-strong -fno-plt -c ../../base/allocator/allocator_check.cc -o obj/base/base/allocator_check.o
1038  [11/28/2018 03:13PM]: [112/5007] clang++ -MMD -MF obj/base/allocator/tcmalloc/thread_cache.o.d -DNO_HEAP_CHECK -DV8_DEPRECATION_WARNINGS -DUSE_UDEV -DUSE_AURA=1 -DUSE_GLIB=1 -DUSE_NSS_CERTS=1 -DUSE_X11=1 -DFULL_SAFE_BROWSING -DSAFE_BROWSING_CSD -DSAFE_BROWSING_DB_LOCAL -DCHROMIUM_BUILD -D_FILE_OFFSET_BITS=64 -D_LARGEFILE_SOURCE -D_LARGEFILE64_SOURCE -D_GNU_SOURCE -DCR_CLANG_REVISION=\340925-1\ -DCOMPONENT_BUILD -DNDEBUG -DNVALGRIND -DDYNAMIC_ANNOTATIONS_ENABLED=0 -DTCMALLOC_USE_DOUBLYLINKED_FREELIST -DTCMALLOC_DISABLE_HUGE_ALLOCATIONS -DTCMALLOC_DONT_REPLACE_SYSTEM_ALLOC -I../../base/allocator -I../../third_party/tcmalloc/gperftools-2.0/chromium/src/base -I../../third_party/tcmalloc/gperftools-2.0/chromium/src -I../.. -Igen -fno-strict-aliasing --param=ssp-buffer-size=4 -fstack-protector -Wno-builtin-macro-redefined -D__DATE__= -D__TIME__= -D__TIMESTAMP__= -funwind-tables -fPIC -pthread -fcolor-diagnostics -fmerge-all-constants -Xclang -mllvm -Xclang -instcombine-lower-dbg-declare=0 -no-canonical-prefixes -m64 -march=x86-64 -fno-omit-frame-pointer -g0 -fvisibility=hidden -Wheader-hygiene -Wstring-conversion -Wtautological-overlap-compare -Wall -Wno-unused-variable -Wno-missing-field-initializers -Wno-unused-parameter -Wno-c++11-narrowing -Wno-covered-switch-default -Wno-unneeded-internal-declaration -Wno-undefined-var-template -Wno-nonportable-include-path -Wno-user-defined-warnings -Wno-unused-lambda-capture -Wno-ignored-pragma-optimize -Wno-reorder -Wno-unused-function -Wno-unused-local-typedefs -Wno-unused-private-field -Wno-sign-compare -Wno-unused-result -O2 -fno-ident -fdata-sections -ffunction-sections -std=c++14 -fno-exceptions -fno-rtti -fvisibility-inlines-hidden -D_FORTIFY_SOURCE=2 -march=x86-64 -mtune=generic -O2 -pipe -fstack-protector-strong -fno-plt -c ../../third_party/tcmalloc/gperftools-2.0/chromium/src/thread_cache.cc -o obj/base/allocator/tcmalloc/thread_cache.o
1039  [11/28/2018 03:13PM]: [113/5007] clang++ -MMD -MF obj/base/base/base64.o.d -DUSE_SYMBOLIZE -DV8_DEPRECATION_WARNINGS -DUSE_UDEV -DUSE_AURA=1 -DUSE_GLIB=1 -DUSE_NSS_CERTS=1 -DUSE_X11=1 -DFULL_SAFE_BROWSING -DSAFE_BROWSING_CSD -DSAFE_BROWSING_DB_LOCAL -DCHROMIUM_BUILD -D_FILE_OFFSET_BITS=64 -D_LARGEFILE_SOURCE -D_LARGEFILE64_SOURCE -D_GNU_SOURCE -DCR_CLANG_REVISION=\340925-1\ -D__STDC_CONSTANT_MACROS -D__STDC_FORMAT_MACROS -DCOMPONENT_BUILD -DNDEBUG -DNVALGRIND -DDYNAMIC_ANNOTATIONS_ENABLED=0 -DBASE_IMPLEMENTATION -DGLIB_VERSION_MAX_ALLOWED=GLIB_VERSION_2_32 -DGLIB_VERSION_MIN_REQUIRED=GLIB_VERSION_2_26 -I../.. -Igen -fno-strict-aliasing --param=ssp-buffer-size=4 -fstack-protector -Wno-builtin-macro-redefined -D__DATE__= -D__TIME__= -D__TIMESTAMP__= -funwind-tables -fPIC -pthread -fcolor-diagnostics -fmerge-all-constants -Xclang -mllvm -Xclang -instcombine-lower-dbg-declare=0 -no-canonical-prefixes -m64 -march=x86-64 -Wall -Wextra -Wimplicit-fallthrough -Wthread-safety -Wno-missing-field-initializers -Wno-unused-parameter -Wno-c++11-narrowing -Wno-covered-switch-default -Wno-unneeded-internal-declaration -Wno-undefined-var-template -Wno-nonportable-include-path -Wno-user-defined-warnings -Wno-unused-lambda-capture -Wno-ignored-pragma-optimize -fno-omit-frame-pointer -g0 -fvisibility=hidden -Wheader-hygiene -Wstring-conversion -Wtautological-overlap-compare -Wno-char-subscripts -Wglobal-constructors -Wexit-time-destructors -Wexit-time-destructors -Wshadow -I/usr/include/glib-2.0 -I/usr/lib/glib-2.0/include -I/usr/lib/libffi-3.2.1/include -Wexit-time-destructors -O2 -fno-ident -fdata-sections -ffunction-sections -std=c++14 -fno-exceptions -fno-rtti -fvisibility-inlines-hidden -D_FORTIFY_SOURCE=2 -march=x86-64 -mtune=generic -O2 -pipe -fstack-protector-strong -fno-plt -c ../../base/base64.cc -o obj/base/base/base64.o
1040  [11/28/2018 03:13PM]: [114/5007] clang++ -MMD -MF obj/base/allocator/tcmalloc/debugallocation_shim.o.d -DNO_HEAP_CHECK -DV8_DEPRECATION_WARNINGS -DUSE_UDEV -DUSE_AURA=1 -DUSE_GLIB=1 -DUSE_NSS_CERTS=1 -DUSE_X11=1 -DFULL_SAFE_BROWSING -DSAFE_BROWSING_CSD -DSAFE_BROWSING_DB_LOCAL -DCHROMIUM_BUILD -D_FILE_OFFSET_BITS=64 -D_LARGEFILE_SOURCE -D_LARGEFILE64_SOURCE -D_GNU_SOURCE -DCR_CLANG_REVISION=\340925-1\ -DCOMPONENT_BUILD -DNDEBUG -DNVALGRIND -DDYNAMIC_ANNOTATIONS_ENABLED=0 -DTCMALLOC_USE_DOUBLYLINKED_FREELIST -DTCMALLOC_DISABLE_HUGE_ALLOCATIONS -DTCMALLOC_DONT_REPLACE_SYSTEM_ALLOC -I../../base/allocator -I../../third_party/tcmalloc/gperftools-2.0/chromium/src/base -I../../third_party/tcmalloc/gperftools-2.0/chromium/src -I../.. -Igen -fno-strict-aliasing --param=ssp-buffer-size=4 -fstack-protector -Wno-builtin-macro-redefined -D__DATE__= -D__TIME__= -D__TIMESTAMP__= -funwind-tables -fPIC -pthread -fcolor-diagnostics -fmerge-all-constants -Xclang -mllvm -Xclang -instcombine-lower-dbg-declare=0 -no-canonical-prefixes -m64 -march=x86-64 -fno-omit-frame-pointer -g0 -fvisibility=hidden -Wheader-hygiene -Wstring-conversion -Wtautological-overlap-compare -Wall -Wno-unused-variable -Wno-missing-field-initializers -Wno-unused-parameter -Wno-c++11-narrowing -Wno-covered-switch-default -Wno-unneeded-internal-declaration -Wno-undefined-var-template -Wno-nonportable-include-path -Wno-user-defined-warnings -Wno-unused-lambda-capture -Wno-ignored-pragma-optimize -Wno-reorder -Wno-unused-function -Wno-unused-local-typedefs -Wno-unused-private-field -Wno-sign-compare -Wno-unused-result -O2 -fno-ident -fdata-sections -ffunction-sections -std=c++14 -fno-exceptions -fno-rtti -fvisibility-inlines-hidden -D_FORTIFY_SOURCE=2 -march=x86-64 -mtune=generic -O2 -pipe -fstack-protector-strong -fno-plt -c ../../base/allocator/debugallocation_shim.cc -o obj/base/allocator/tcmalloc/debugallocation_shim.o
1041  [11/28/2018 03:13PM]: [115/5007] clang++ -MMD -MF obj/base/base/barrier_closure.o.d -DUSE_SYMBOLIZE -DV8_DEPRECATION_WARNINGS -DUSE_UDEV -DUSE_AURA=1 -DUSE_GLIB=1 -DUSE_NSS_CERTS=1 -DUSE_X11=1 -DFULL_SAFE_BROWSING -DSAFE_BROWSING_CSD -DSAFE_BROWSING_DB_LOCAL -DCHROMIUM_BUILD -D_FILE_OFFSET_BITS=64 -D_LARGEFILE_SOURCE -D_LARGEFILE64_SOURCE -D_GNU_SOURCE -DCR_CLANG_REVISION=\340925-1\ -D__STDC_CONSTANT_MACROS -D__STDC_FORMAT_MACROS -DCOMPONENT_BUILD -DNDEBUG -DNVALGRIND -DDYNAMIC_ANNOTATIONS_ENABLED=0 -DBASE_IMPLEMENTATION -DGLIB_VERSION_MAX_ALLOWED=GLIB_VERSION_2_32 -DGLIB_VERSION_MIN_REQUIRED=GLIB_VERSION_2_26 -I../.. -Igen -fno-strict-aliasing --param=ssp-buffer-size=4 -fstack-protector -Wno-builtin-macro-redefined -D__DATE__= -D__TIME__= -D__TIMESTAMP__= -funwind-tables -fPIC -pthread -fcolor-diagnostics -fmerge-all-constants -Xclang -mllvm -Xclang -instcombine-lower-dbg-declare=0 -no-canonical-prefixes -m64 -march=x86-64 -Wall -Wextra -Wimplicit-fallthrough -Wthread-safety -Wno-missing-field-initializers -Wno-unused-parameter -Wno-c++11-narrowing -Wno-covered-switch-default -Wno-unneeded-internal-declaration -Wno-undefined-var-template -Wno-nonportable-include-path -Wno-user-defined-warnings -Wno-unused-lambda-capture -Wno-ignored-pragma-optimize -fno-omit-frame-pointer -g0 -fvisibility=hidden -Wheader-hygiene -Wstring-conversion -Wtautological-overlap-compare -Wno-char-subscripts -Wglobal-constructors -Wexit-time-destructors -Wexit-time-destructors -Wshadow -I/usr/include/glib-2.0 -I/usr/lib/glib-2.0/include -I/usr/lib/libffi-3.2.1/include -Wexit-time-destructors -O2 -fno-ident -fdata-sections -ffunction-sections -std=c++14 -fno-exceptions -fno-rtti -fvisibility-inlines-hidden -D_FORTIFY_SOURCE=2 -march=x86-64 -mtune=generic -O2 -pipe -fstack-protector-strong -fno-plt -c ../../base/barrier_closure.cc -o obj/base/base/barrier_closure.o
1042  [11/28/2018 03:13PM]: [116/5007] clang++ -MMD -MF obj/base/base/base64url.o.d -DUSE_SYMBOLIZE -DV8_DEPRECATION_WARNINGS -DUSE_UDEV -DUSE_AURA=1 -DUSE_GLIB=1 -DUSE_NSS_CERTS=1 -DUSE_X11=1 -DFULL_SAFE_BROWSING -DSAFE_BROWSING_CSD -DSAFE_BROWSING_DB_LOCAL -DCHROMIUM_BUILD -D_FILE_OFFSET_BITS=64 -D_LARGEFILE_SOURCE -D_LARGEFILE64_SOURCE -D_GNU_SOURCE -DCR_CLANG_REVISION=\340925-1\ -D__STDC_CONSTANT_MACROS -D__STDC_FORMAT_MACROS -DCOMPONENT_BUILD -DNDEBUG -DNVALGRIND -DDYNAMIC_ANNOTATIONS_ENABLED=0 -DBASE_IMPLEMENTATION -DGLIB_VERSION_MAX_ALLOWED=GLIB_VERSION_2_32 -DGLIB_VERSION_MIN_REQUIRED=GLIB_VERSION_2_26 -I../.. -Igen -fno-strict-aliasing --param=ssp-buffer-size=4 -fstack-protector -Wno-builtin-macro-redefined -D__DATE__= -D__TIME__= -D__TIMESTAMP__= -funwind-tables -fPIC -pthread -fcolor-diagnostics -fmerge-all-constants -Xclang -mllvm -Xclang -instcombine-lower-dbg-declare=0 -no-canonical-prefixes -m64 -march=x86-64 -Wall -Wextra -Wimplicit-fallthrough -Wthread-safety -Wno-missing-field-initializers -Wno-unused-parameter -Wno-c++11-narrowing -Wno-covered-switch-default -Wno-unneeded-internal-declaration -Wno-undefined-var-template -Wno-nonportable-include-path -Wno-user-defined-warnings -Wno-unused-lambda-capture -Wno-ignored-pragma-optimize -fno-omit-frame-pointer -g0 -fvisibility=hidden -Wheader-hygiene -Wstring-conversion -Wtautological-overlap-compare -Wno-char-subscripts -Wglobal-constructors -Wexit-time-destructors -Wexit-time-destructors -Wshadow -I/usr/include/glib-2.0 -I/usr/lib/glib-2.0/include -I/usr/lib/libffi-3.2.1/include -Wexit-time-destructors -O2 -fno-ident -fdata-sections -ffunction-sections -std=c++14 -fno-exceptions -fno-rtti -fvisibility-inlines-hidden -D_FORTIFY_SOURCE=2 -march=x86-64 -mtune=generic -O2 -pipe -fstack-protector-strong -fno-plt -c ../../base/base64url.cc -o obj/base/base/base64url.o
1043  [11/28/2018 03:13PM]: [117/5007] clang++ -MMD -MF obj/base/base/cpu.o.d -DUSE_SYMBOLIZE -DV8_DEPRECATION_WARNINGS -DUSE_UDEV -DUSE_AURA=1 -DUSE_GLIB=1 -DUSE_NSS_CERTS=1 -DUSE_X11=1 -DFULL_SAFE_BROWSING -DSAFE_BROWSING_CSD -DSAFE_BROWSING_DB_LOCAL -DCHROMIUM_BUILD -D_FILE_OFFSET_BITS=64 -D_LARGEFILE_SOURCE -D_LARGEFILE64_SOURCE -D_GNU_SOURCE -DCR_CLANG_REVISION=\340925-1\ -D__STDC_CONSTANT_MACROS -D__STDC_FORMAT_MACROS -DCOMPONENT_BUILD -DNDEBUG -DNVALGRIND -DDYNAMIC_ANNOTATIONS_ENABLED=0 -DBASE_IMPLEMENTATION -DGLIB_VERSION_MAX_ALLOWED=GLIB_VERSION_2_32 -DGLIB_VERSION_MIN_REQUIRED=GLIB_VERSION_2_26 -I../.. -Igen -fno-strict-aliasing --param=ssp-buffer-size=4 -fstack-protector -Wno-builtin-macro-redefined -D__DATE__= -D__TIME__= -D__TIMESTAMP__= -funwind-tables -fPIC -pthread -fcolor-diagnostics -fmerge-all-constants -Xclang -mllvm -Xclang -instcombine-lower-dbg-declare=0 -no-canonical-prefixes -m64 -march=x86-64 -Wall -Wextra -Wimplicit-fallthrough -Wthread-safety -Wno-missing-field-initializers -Wno-unused-parameter -Wno-c++11-narrowing -Wno-covered-switch-default -Wno-unneeded-internal-declaration -Wno-undefined-var-template -Wno-nonportable-include-path -Wno-user-defined-warnings -Wno-unused-lambda-capture -Wno-ignored-pragma-optimize -fno-omit-frame-pointer -g0 -fvisibility=hidden -Wheader-hygiene -Wstring-conversion -Wtautological-overlap-compare -Wno-char-subscripts -Wglobal-constructors -Wexit-time-destructors -Wexit-time-destructors -Wshadow -I/usr/include/glib-2.0 -I/usr/lib/glib-2.0/include -I/usr/lib/libffi-3.2.1/include -Wexit-time-destructors -O2 -fno-ident -fdata-sections -ffunction-sections -std=c++14 -fno-exceptions -fno-rtti -fvisibility-inlines-hidden -D_FORTIFY_SOURCE=2 -march=x86-64 -mtune=generic -O2 -pipe -fstack-protector-strong -fno-plt -c ../../base/cpu.cc -o obj/base/base/cpu.o
1044  [11/28/2018 03:13PM]: [118/5007] clang++ -MMD -MF obj/base/base/callback_internal.o.d -DUSE_SYMBOLIZE -DV8_DEPRECATION_WARNINGS -DUSE_UDEV -DUSE_AURA=1 -DUSE_GLIB=1 -DUSE_NSS_CERTS=1 -DUSE_X11=1 -DFULL_SAFE_BROWSING -DSAFE_BROWSING_CSD -DSAFE_BROWSING_DB_LOCAL -DCHROMIUM_BUILD -D_FILE_OFFSET_BITS=64 -D_LARGEFILE_SOURCE -D_LARGEFILE64_SOURCE -D_GNU_SOURCE -DCR_CLANG_REVISION=\340925-1\ -D__STDC_CONSTANT_MACROS -D__STDC_FORMAT_MACROS -DCOMPONENT_BUILD -DNDEBUG -DNVALGRIND -DDYNAMIC_ANNOTATIONS_ENABLED=0 -DBASE_IMPLEMENTATION -DGLIB_VERSION_MAX_ALLOWED=GLIB_VERSION_2_32 -DGLIB_VERSION_MIN_REQUIRED=GLIB_VERSION_2_26 -I../.. -Igen -fno-strict-aliasing --param=ssp-buffer-size=4 -fstack-protector -Wno-builtin-macro-redefined -D__DATE__= -D__TIME__= -D__TIMESTAMP__= -funwind-tables -fPIC -pthread -fcolor-diagnostics -fmerge-all-constants -Xclang -mllvm -Xclang -instcombine-lower-dbg-declare=0 -no-canonical-prefixes -m64 -march=x86-64 -Wall -Wextra -Wimplicit-fallthrough -Wthread-safety -Wno-missing-field-initializers -Wno-unused-parameter -Wno-c++11-narrowing -Wno-covered-switch-default -Wno-unneeded-internal-declaration -Wno-undefined-var-template -Wno-nonportable-include-path -Wno-user-defined-warnings -Wno-unused-lambda-capture -Wno-ignored-pragma-optimize -fno-omit-frame-pointer -g0 -fvisibility=hidden -Wheader-hygiene -Wstring-conversion -Wtautological-overlap-compare -Wno-char-subscripts -Wglobal-constructors -Wexit-time-destructors -Wexit-time-destructors -Wshadow -I/usr/include/glib-2.0 -I/usr/lib/glib-2.0/include -I/usr/lib/libffi-3.2.1/include -Wexit-time-destructors -O2 -fno-ident -fdata-sections -ffunction-sections -std=c++14 -fno-exceptions -fno-rtti -fvisibility-inlines-hidden -D_FORTIFY_SOURCE=2 -march=x86-64 -mtune=generic -O2 -pipe -fstack-protector-strong -fno-plt -c ../../base/callback_internal.cc -o obj/base/base/callback_internal.o
1045  [11/28/2018 03:13PM]: [119/5007] clang++ -MMD -MF obj/base/base/observer_list_internal.o.d -DUSE_SYMBOLIZE -DV8_DEPRECATION_WARNINGS -DUSE_UDEV -DUSE_AURA=1 -DUSE_GLIB=1 -DUSE_NSS_CERTS=1 -DUSE_X11=1 -DFULL_SAFE_BROWSING -DSAFE_BROWSING_CSD -DSAFE_BROWSING_DB_LOCAL -DCHROMIUM_BUILD -D_FILE_OFFSET_BITS=64 -D_LARGEFILE_SOURCE -D_LARGEFILE64_SOURCE -D_GNU_SOURCE -DCR_CLANG_REVISION=\340925-1\ -D__STDC_CONSTANT_MACROS -D__STDC_FORMAT_MACROS -DCOMPONENT_BUILD -DNDEBUG -DNVALGRIND -DDYNAMIC_ANNOTATIONS_ENABLED=0 -DBASE_IMPLEMENTATION -DGLIB_VERSION_MAX_ALLOWED=GLIB_VERSION_2_32 -DGLIB_VERSION_MIN_REQUIRED=GLIB_VERSION_2_26 -I../.. -Igen -fno-strict-aliasing --param=ssp-buffer-size=4 -fstack-protector -Wno-builtin-macro-redefined -D__DATE__= -D__TIME__= -D__TIMESTAMP__= -funwind-tables -fPIC -pthread -fcolor-diagnostics -fmerge-all-constants -Xclang -mllvm -Xclang -instcombine-lower-dbg-declare=0 -no-canonical-prefixes -m64 -march=x86-64 -Wall -Wextra -Wimplicit-fallthrough -Wthread-safety -Wno-missing-field-initializers -Wno-unused-parameter -Wno-c++11-narrowing -Wno-covered-switch-default -Wno-unneeded-internal-declaration -Wno-undefined-var-template -Wno-nonportable-include-path -Wno-user-defined-warnings -Wno-unused-lambda-capture -Wno-ignored-pragma-optimize -fno-omit-frame-pointer -g0 -fvisibility=hidden -Wheader-hygiene -Wstring-conversion -Wtautological-overlap-compare -Wno-char-subscripts -Wglobal-constructors -Wexit-time-destructors -Wexit-time-destructors -Wshadow -I/usr/include/glib-2.0 -I/usr/lib/glib-2.0/include -I/usr/lib/libffi-3.2.1/include -Wexit-time-destructors -O2 -fno-ident -fdata-sections -ffunction-sections -std=c++14 -fno-exceptions -fno-rtti -fvisibility-inlines-hidden -D_FORTIFY_SOURCE=2 -march=x86-64 -mtune=generic -O2 -pipe -fstack-protector-strong -fno-plt -c ../../base/observer_list_internal.cc -o obj/base/base/observer_list_internal.o
1046  [11/28/2018 03:13PM]: [120/5007] clang++ -MMD -MF obj/base/base/observer_list_types.o.d -DUSE_SYMBOLIZE -DV8_DEPRECATION_WARNINGS -DUSE_UDEV -DUSE_AURA=1 -DUSE_GLIB=1 -DUSE_NSS_CERTS=1 -DUSE_X11=1 -DFULL_SAFE_BROWSING -DSAFE_BROWSING_CSD -DSAFE_BROWSING_DB_LOCAL -DCHROMIUM_BUILD -D_FILE_OFFSET_BITS=64 -D_LARGEFILE_SOURCE -D_LARGEFILE64_SOURCE -D_GNU_SOURCE -DCR_CLANG_REVISION=\340925-1\ -D__STDC_CONSTANT_MACROS -D__STDC_FORMAT_MACROS -DCOMPONENT_BUILD -DNDEBUG -DNVALGRIND -DDYNAMIC_ANNOTATIONS_ENABLED=0 -DBASE_IMPLEMENTATION -DGLIB_VERSION_MAX_ALLOWED=GLIB_VERSION_2_32 -DGLIB_VERSION_MIN_REQUIRED=GLIB_VERSION_2_26 -I../.. -Igen -fno-strict-aliasing --param=ssp-buffer-size=4 -fstack-protector -Wno-builtin-macro-redefined -D__DATE__= -D__TIME__= -D__TIMESTAMP__= -funwind-tables -fPIC -pthread -fcolor-diagnostics -fmerge-all-constants -Xclang -mllvm -Xclang -instcombine-lower-dbg-declare=0 -no-canonical-prefixes -m64 -march=x86-64 -Wall -Wextra -Wimplicit-fallthrough -Wthread-safety -Wno-missing-field-initializers -Wno-unused-parameter -Wno-c++11-narrowing -Wno-covered-switch-default -Wno-unneeded-internal-declaration -Wno-undefined-var-template -Wno-nonportable-include-path -Wno-user-defined-warnings -Wno-unused-lambda-capture -Wno-ignored-pragma-optimize -fno-omit-frame-pointer -g0 -fvisibility=hidden -Wheader-hygiene -Wstring-conversion -Wtautological-overlap-compare -Wno-char-subscripts -Wglobal-constructors -Wexit-time-destructors -Wexit-time-destructors -Wshadow -I/usr/include/glib-2.0 -I/usr/lib/glib-2.0/include -I/usr/lib/libffi-3.2.1/include -Wexit-time-destructors -O2 -fno-ident -fdata-sections -ffunction-sections -std=c++14 -fno-exceptions -fno-rtti -fvisibility-inlines-hidden -D_FORTIFY_SOURCE=2 -march=x86-64 -mtune=generic -O2 -pipe -fstack-protector-strong -fno-plt -c ../../base/observer_list_types.cc -o obj/base/base/observer_list_types.o
1047  [11/28/2018 03:13PM]: [121/5007] clang++ -MMD -MF obj/base/base/alias.o.d -DUSE_SYMBOLIZE -DV8_DEPRECATION_WARNINGS -DUSE_UDEV -DUSE_AURA=1 -DUSE_GLIB=1 -DUSE_NSS_CERTS=1 -DUSE_X11=1 -DFULL_SAFE_BROWSING -DSAFE_BROWSING_CSD -DSAFE_BROWSING_DB_LOCAL -DCHROMIUM_BUILD -D_FILE_OFFSET_BITS=64 -D_LARGEFILE_SOURCE -D_LARGEFILE64_SOURCE -D_GNU_SOURCE -DCR_CLANG_REVISION=\340925-1\ -D__STDC_CONSTANT_MACROS -D__STDC_FORMAT_MACROS -DCOMPONENT_BUILD -DNDEBUG -DNVALGRIND -DDYNAMIC_ANNOTATIONS_ENABLED=0 -DBASE_IMPLEMENTATION -DGLIB_VERSION_MAX_ALLOWED=GLIB_VERSION_2_32 -DGLIB_VERSION_MIN_REQUIRED=GLIB_VERSION_2_26 -I../.. -Igen -fno-strict-aliasing --param=ssp-buffer-size=4 -fstack-protector -Wno-builtin-macro-redefined -D__DATE__= -D__TIME__= -D__TIMESTAMP__= -funwind-tables -fPIC -pthread -fcolor-diagnostics -fmerge-all-constants -Xclang -mllvm -Xclang -instcombine-lower-dbg-declare=0 -no-canonical-prefixes -m64 -march=x86-64 -Wall -Wextra -Wimplicit-fallthrough -Wthread-safety -Wno-missing-field-initializers -Wno-unused-parameter -Wno-c++11-narrowing -Wno-covered-switch-default -Wno-unneeded-internal-declaration -Wno-undefined-var-template -Wno-nonportable-include-path -Wno-user-defined-warnings -Wno-unused-lambda-capture -Wno-ignored-pragma-optimize -fno-omit-frame-pointer -g0 -fvisibility=hidden -Wheader-hygiene -Wstring-conversion -Wtautological-overlap-compare -Wno-char-subscripts -Wglobal-constructors -Wexit-time-destructors -Wexit-time-destructors -Wshadow -I/usr/include/glib-2.0 -I/usr/lib/glib-2.0/include -I/usr/lib/libffi-3.2.1/include -Wexit-time-destructors -O2 -fno-ident -fdata-sections -ffunction-sections -std=c++14 -fno-exceptions -fno-rtti -fvisibility-inlines-hidden -D_FORTIFY_SOURCE=2 -march=x86-64 -mtune=generic -O2 -pipe -fstack-protector-strong -fno-plt -c ../../base/debug/alias.cc -o obj/base/base/alias.o
1048  [11/28/2018 03:13PM]: [122/5007] clang++ -MMD -MF obj/base/base/command_line.o.d -DUSE_SYMBOLIZE -DV8_DEPRECATION_WARNINGS -DUSE_UDEV -DUSE_AURA=1 -DUSE_GLIB=1 -DUSE_NSS_CERTS=1 -DUSE_X11=1 -DFULL_SAFE_BROWSING -DSAFE_BROWSING_CSD -DSAFE_BROWSING_DB_LOCAL -DCHROMIUM_BUILD -D_FILE_OFFSET_BITS=64 -D_LARGEFILE_SOURCE -D_LARGEFILE64_SOURCE -D_GNU_SOURCE -DCR_CLANG_REVISION=\340925-1\ -D__STDC_CONSTANT_MACROS -D__STDC_FORMAT_MACROS -DCOMPONENT_BUILD -DNDEBUG -DNVALGRIND -DDYNAMIC_ANNOTATIONS_ENABLED=0 -DBASE_IMPLEMENTATION -DGLIB_VERSION_MAX_ALLOWED=GLIB_VERSION_2_32 -DGLIB_VERSION_MIN_REQUIRED=GLIB_VERSION_2_26 -I../.. -Igen -fno-strict-aliasing --param=ssp-buffer-size=4 -fstack-protector -Wno-builtin-macro-redefined -D__DATE__= -D__TIME__= -D__TIMESTAMP__= -funwind-tables -fPIC -pthread -fcolor-diagnostics -fmerge-all-constants -Xclang -mllvm -Xclang -instcombine-lower-dbg-declare=0 -no-canonical-prefixes -m64 -march=x86-64 -Wall -Wextra -Wimplicit-fallthrough -Wthread-safety -Wno-missing-field-initializers -Wno-unused-parameter -Wno-c++11-narrowing -Wno-covered-switch-default -Wno-unneeded-internal-declaration -Wno-undefined-var-template -Wno-nonportable-include-path -Wno-user-defined-warnings -Wno-unused-lambda-capture -Wno-ignored-pragma-optimize -fno-omit-frame-pointer -g0 -fvisibility=hidden -Wheader-hygiene -Wstring-conversion -Wtautological-overlap-compare -Wno-char-subscripts -Wglobal-constructors -Wexit-time-destructors -Wexit-time-destructors -Wshadow -I/usr/include/glib-2.0 -I/usr/lib/glib-2.0/include -I/usr/lib/libffi-3.2.1/include -Wexit-time-destructors -O2 -fno-ident -fdata-sections -ffunction-sections -std=c++14 -fno-exceptions -fno-rtti -fvisibility-inlines-hidden -D_FORTIFY_SOURCE=2 -march=x86-64 -mtune=generic -O2 -pipe -fstack-protector-strong -fno-plt -c ../../base/command_line.cc -o obj/base/base/command_line.o
1049  [11/28/2018 03:13PM]: [123/5007] clang++ -MMD -MF obj/base/base/asan_invalid_access.o.d -DUSE_SYMBOLIZE -DV8_DEPRECATION_WARNINGS -DUSE_UDEV -DUSE_AURA=1 -DUSE_GLIB=1 -DUSE_NSS_CERTS=1 -DUSE_X11=1 -DFULL_SAFE_BROWSING -DSAFE_BROWSING_CSD -DSAFE_BROWSING_DB_LOCAL -DCHROMIUM_BUILD -D_FILE_OFFSET_BITS=64 -D_LARGEFILE_SOURCE -D_LARGEFILE64_SOURCE -D_GNU_SOURCE -DCR_CLANG_REVISION=\340925-1\ -D__STDC_CONSTANT_MACROS -D__STDC_FORMAT_MACROS -DCOMPONENT_BUILD -DNDEBUG -DNVALGRIND -DDYNAMIC_ANNOTATIONS_ENABLED=0 -DBASE_IMPLEMENTATION -DGLIB_VERSION_MAX_ALLOWED=GLIB_VERSION_2_32 -DGLIB_VERSION_MIN_REQUIRED=GLIB_VERSION_2_26 -I../.. -Igen -fno-strict-aliasing --param=ssp-buffer-size=4 -fstack-protector -Wno-builtin-macro-redefined -D__DATE__= -D__TIME__= -D__TIMESTAMP__= -funwind-tables -fPIC -pthread -fcolor-diagnostics -fmerge-all-constants -Xclang -mllvm -Xclang -instcombine-lower-dbg-declare=0 -no-canonical-prefixes -m64 -march=x86-64 -Wall -Wextra -Wimplicit-fallthrough -Wthread-safety -Wno-missing-field-initializers -Wno-unused-parameter -Wno-c++11-narrowing -Wno-covered-switch-default -Wno-unneeded-internal-declaration -Wno-undefined-var-template -Wno-nonportable-include-path -Wno-user-defined-warnings -Wno-unused-lambda-capture -Wno-ignored-pragma-optimize -fno-omit-frame-pointer -g0 -fvisibility=hidden -Wheader-hygiene -Wstring-conversion -Wtautological-overlap-compare -Wno-char-subscripts -Wglobal-constructors -Wexit-time-destructors -Wexit-time-destructors -Wshadow -I/usr/include/glib-2.0 -I/usr/lib/glib-2.0/include -I/usr/lib/libffi-3.2.1/include -Wexit-time-destructors -O2 -fno-ident -fdata-sections -ffunction-sections -std=c++14 -fno-exceptions -fno-rtti -fvisibility-inlines-hidden -D_FORTIFY_SOURCE=2 -march=x86-64 -mtune=generic -O2 -pipe -fstack-protector-strong -fno-plt -c ../../base/debug/asan_invalid_access.cc -o obj/base/base/asan_invalid_access.o
1050  [11/28/2018 03:13PM]: [124/5007] clang++ -MMD -MF obj/base/base/crash_logging.o.d -DUSE_SYMBOLIZE -DV8_DEPRECATION_WARNINGS -DUSE_UDEV -DUSE_AURA=1 -DUSE_GLIB=1 -DUSE_NSS_CERTS=1 -DUSE_X11=1 -DFULL_SAFE_BROWSING -DSAFE_BROWSING_CSD -DSAFE_BROWSING_DB_LOCAL -DCHROMIUM_BUILD -D_FILE_OFFSET_BITS=64 -D_LARGEFILE_SOURCE -D_LARGEFILE64_SOURCE -D_GNU_SOURCE -DCR_CLANG_REVISION=\340925-1\ -D__STDC_CONSTANT_MACROS -D__STDC_FORMAT_MACROS -DCOMPONENT_BUILD -DNDEBUG -DNVALGRIND -DDYNAMIC_ANNOTATIONS_ENABLED=0 -DBASE_IMPLEMENTATION -DGLIB_VERSION_MAX_ALLOWED=GLIB_VERSION_2_32 -DGLIB_VERSION_MIN_REQUIRED=GLIB_VERSION_2_26 -I../.. -Igen -fno-strict-aliasing --param=ssp-buffer-size=4 -fstack-protector -Wno-builtin-macro-redefined -D__DATE__= -D__TIME__= -D__TIMESTAMP__= -funwind-tables -fPIC -pthread -fcolor-diagnostics -fmerge-all-constants -Xclang -mllvm -Xclang -instcombine-lower-dbg-declare=0 -no-canonical-prefixes -m64 -march=x86-64 -Wall -Wextra -Wimplicit-fallthrough -Wthread-safety -Wno-missing-field-initializers -Wno-unused-parameter -Wno-c++11-narrowing -Wno-covered-switch-default -Wno-unneeded-internal-declaration -Wno-undefined-var-template -Wno-nonportable-include-path -Wno-user-defined-warnings -Wno-unused-lambda-capture -Wno-ignored-pragma-optimize -fno-omit-frame-pointer -g0 -fvisibility=hidden -Wheader-hygiene -Wstring-conversion -Wtautological-overlap-compare -Wno-char-subscripts -Wglobal-constructors -Wexit-time-destructors -Wexit-time-destructors -Wshadow -I/usr/include/glib-2.0 -I/usr/lib/glib-2.0/include -I/usr/lib/libffi-3.2.1/include -Wexit-time-destructors -O2 -fno-ident -fdata-sections -ffunction-sections -std=c++14 -fno-exceptions -fno-rtti -fvisibility-inlines-hidden -D_FORTIFY_SOURCE=2 -march=x86-64 -mtune=generic -O2 -pipe -fstack-protector-strong -fno-plt -c ../../base/debug/crash_logging.cc -o obj/base/base/crash_logging.o
1051  [11/28/2018 03:13PM]: [125/5007] clang++ -MMD -MF obj/base/base/debugger.o.d -DUSE_SYMBOLIZE -DV8_DEPRECATION_WARNINGS -DUSE_UDEV -DUSE_AURA=1 -DUSE_GLIB=1 -DUSE_NSS_CERTS=1 -DUSE_X11=1 -DFULL_SAFE_BROWSING -DSAFE_BROWSING_CSD -DSAFE_BROWSING_DB_LOCAL -DCHROMIUM_BUILD -D_FILE_OFFSET_BITS=64 -D_LARGEFILE_SOURCE -D_LARGEFILE64_SOURCE -D_GNU_SOURCE -DCR_CLANG_REVISION=\340925-1\ -D__STDC_CONSTANT_MACROS -D__STDC_FORMAT_MACROS -DCOMPONENT_BUILD -DNDEBUG -DNVALGRIND -DDYNAMIC_ANNOTATIONS_ENABLED=0 -DBASE_IMPLEMENTATION -DGLIB_VERSION_MAX_ALLOWED=GLIB_VERSION_2_32 -DGLIB_VERSION_MIN_REQUIRED=GLIB_VERSION_2_26 -I../.. -Igen -fno-strict-aliasing --param=ssp-buffer-size=4 -fstack-protector -Wno-builtin-macro-redefined -D__DATE__= -D__TIME__= -D__TIMESTAMP__= -funwind-tables -fPIC -pthread -fcolor-diagnostics -fmerge-all-constants -Xclang -mllvm -Xclang -instcombine-lower-dbg-declare=0 -no-canonical-prefixes -m64 -march=x86-64 -Wall -Wextra -Wimplicit-fallthrough -Wthread-safety -Wno-missing-field-initializers -Wno-unused-parameter -Wno-c++11-narrowing -Wno-covered-switch-default -Wno-unneeded-internal-declaration -Wno-undefined-var-template -Wno-nonportable-include-path -Wno-user-defined-warnings -Wno-unused-lambda-capture -Wno-ignored-pragma-optimize -fno-omit-frame-pointer -g0 -fvisibility=hidden -Wheader-hygiene -Wstring-conversion -Wtautological-overlap-compare -Wno-char-subscripts -Wglobal-constructors -Wexit-time-destructors -Wexit-time-destructors -Wshadow -I/usr/include/glib-2.0 -I/usr/lib/glib-2.0/include -I/usr/lib/libffi-3.2.1/include -Wexit-time-destructors -O2 -fno-ident -fdata-sections -ffunction-sections -std=c++14 -fno-exceptions -fno-rtti -fvisibility-inlines-hidden -D_FORTIFY_SOURCE=2 -march=x86-64 -mtune=generic -O2 -pipe -fstack-protector-strong -fno-plt -c ../../base/debug/debugger.cc -o obj/base/base/debugger.o
1052  [11/28/2018 03:13PM]: [126/5007] clang++ -MMD -MF obj/base/base/dump_without_crashing.o.d -DUSE_SYMBOLIZE -DV8_DEPRECATION_WARNINGS -DUSE_UDEV -DUSE_AURA=1 -DUSE_GLIB=1 -DUSE_NSS_CERTS=1 -DUSE_X11=1 -DFULL_SAFE_BROWSING -DSAFE_BROWSING_CSD -DSAFE_BROWSING_DB_LOCAL -DCHROMIUM_BUILD -D_FILE_OFFSET_BITS=64 -D_LARGEFILE_SOURCE -D_LARGEFILE64_SOURCE -D_GNU_SOURCE -DCR_CLANG_REVISION=\340925-1\ -D__STDC_CONSTANT_MACROS -D__STDC_FORMAT_MACROS -DCOMPONENT_BUILD -DNDEBUG -DNVALGRIND -DDYNAMIC_ANNOTATIONS_ENABLED=0 -DBASE_IMPLEMENTATION -DGLIB_VERSION_MAX_ALLOWED=GLIB_VERSION_2_32 -DGLIB_VERSION_MIN_REQUIRED=GLIB_VERSION_2_26 -I../.. -Igen -fno-strict-aliasing --param=ssp-buffer-size=4 -fstack-protector -Wno-builtin-macro-redefined -D__DATE__= -D__TIME__= -D__TIMESTAMP__= -funwind-tables -fPIC -pthread -fcolor-diagnostics -fmerge-all-constants -Xclang -mllvm -Xclang -instcombine-lower-dbg-declare=0 -no-canonical-prefixes -m64 -march=x86-64 -Wall -Wextra -Wimplicit-fallthrough -Wthread-safety -Wno-missing-field-initializers -Wno-unused-parameter -Wno-c++11-narrowing -Wno-covered-switch-default -Wno-unneeded-internal-declaration -Wno-undefined-var-template -Wno-nonportable-include-path -Wno-user-defined-warnings -Wno-unused-lambda-capture -Wno-ignored-pragma-optimize -fno-omit-frame-pointer -g0 -fvisibility=hidden -Wheader-hygiene -Wstring-conversion -Wtautological-overlap-compare -Wno-char-subscripts -Wglobal-constructors -Wexit-time-destructors -Wexit-time-destructors -Wshadow -I/usr/include/glib-2.0 -I/usr/lib/glib-2.0/include -I/usr/lib/libffi-3.2.1/include -Wexit-time-destructors -O2 -fno-ident -fdata-sections -ffunction-sections -std=c++14 -fno-exceptions -fno-rtti -fvisibility-inlines-hidden -D_FORTIFY_SOURCE=2 -march=x86-64 -mtune=generic -O2 -pipe -fstack-protector-strong -fno-plt -c ../../base/debug/dump_without_crashing.cc -o obj/base/base/dump_without_crashing.o
1053  [11/28/2018 03:13PM]: [127/5007] clang++ -MMD -MF obj/base/base/big_endian.o.d -DUSE_SYMBOLIZE -DV8_DEPRECATION_WARNINGS -DUSE_UDEV -DUSE_AURA=1 -DUSE_GLIB=1 -DUSE_NSS_CERTS=1 -DUSE_X11=1 -DFULL_SAFE_BROWSING -DSAFE_BROWSING_CSD -DSAFE_BROWSING_DB_LOCAL -DCHROMIUM_BUILD -D_FILE_OFFSET_BITS=64 -D_LARGEFILE_SOURCE -D_LARGEFILE64_SOURCE -D_GNU_SOURCE -DCR_CLANG_REVISION=\340925-1\ -D__STDC_CONSTANT_MACROS -D__STDC_FORMAT_MACROS -DCOMPONENT_BUILD -DNDEBUG -DNVALGRIND -DDYNAMIC_ANNOTATIONS_ENABLED=0 -DBASE_IMPLEMENTATION -DGLIB_VERSION_MAX_ALLOWED=GLIB_VERSION_2_32 -DGLIB_VERSION_MIN_REQUIRED=GLIB_VERSION_2_26 -I../.. -Igen -fno-strict-aliasing --param=ssp-buffer-size=4 -fstack-protector -Wno-builtin-macro-redefined -D__DATE__= -D__TIME__= -D__TIMESTAMP__= -funwind-tables -fPIC -pthread -fcolor-diagnostics -fmerge-all-constants -Xclang -mllvm -Xclang -instcombine-lower-dbg-declare=0 -no-canonical-prefixes -m64 -march=x86-64 -Wall -Wextra -Wimplicit-fallthrough -Wthread-safety -Wno-missing-field-initializers -Wno-unused-parameter -Wno-c++11-narrowing -Wno-covered-switch-default -Wno-unneeded-internal-declaration -Wno-undefined-var-template -Wno-nonportable-include-path -Wno-user-defined-warnings -Wno-unused-lambda-capture -Wno-ignored-pragma-optimize -fno-omit-frame-pointer -g0 -fvisibility=hidden -Wheader-hygiene -Wstring-conversion -Wtautological-overlap-compare -Wno-char-subscripts -Wglobal-constructors -Wexit-time-destructors -Wexit-time-destructors -Wshadow -I/usr/include/glib-2.0 -I/usr/lib/glib-2.0/include -I/usr/lib/libffi-3.2.1/include -Wexit-time-destructors -O2 -fno-ident -fdata-sections -ffunction-sections -std=c++14 -fno-exceptions -fno-rtti -fvisibility-inlines-hidden -D_FORTIFY_SOURCE=2 -march=x86-64 -mtune=generic -O2 -pipe -fstack-protector-strong -fno-plt -c ../../base/big_endian.cc -o obj/base/base/big_endian.o
1054  [11/28/2018 03:13PM]: [128/5007] clang++ -MMD -MF obj/base/base/build_time.o.d -DUSE_SYMBOLIZE -DV8_DEPRECATION_WARNINGS -DUSE_UDEV -DUSE_AURA=1 -DUSE_GLIB=1 -DUSE_NSS_CERTS=1 -DUSE_X11=1 -DFULL_SAFE_BROWSING -DSAFE_BROWSING_CSD -DSAFE_BROWSING_DB_LOCAL -DCHROMIUM_BUILD -D_FILE_OFFSET_BITS=64 -D_LARGEFILE_SOURCE -D_LARGEFILE64_SOURCE -D_GNU_SOURCE -DCR_CLANG_REVISION=\340925-1\ -D__STDC_CONSTANT_MACROS -D__STDC_FORMAT_MACROS -DCOMPONENT_BUILD -DNDEBUG -DNVALGRIND -DDYNAMIC_ANNOTATIONS_ENABLED=0 -DBASE_IMPLEMENTATION -DGLIB_VERSION_MAX_ALLOWED=GLIB_VERSION_2_32 -DGLIB_VERSION_MIN_REQUIRED=GLIB_VERSION_2_26 -I../.. -Igen -fno-strict-aliasing --param=ssp-buffer-size=4 -fstack-protector -Wno-builtin-macro-redefined -D__DATE__= -D__TIME__= -D__TIMESTAMP__= -funwind-tables -fPIC -pthread -fcolor-diagnostics -fmerge-all-constants -Xclang -mllvm -Xclang -instcombine-lower-dbg-declare=0 -no-canonical-prefixes -m64 -march=x86-64 -Wall -Wextra -Wimplicit-fallthrough -Wthread-safety -Wno-missing-field-initializers -Wno-unused-parameter -Wno-c++11-narrowing -Wno-covered-switch-default -Wno-unneeded-internal-declaration -Wno-undefined-var-template -Wno-nonportable-include-path -Wno-user-defined-warnings -Wno-unused-lambda-capture -Wno-ignored-pragma-optimize -fno-omit-frame-pointer -g0 -fvisibility=hidden -Wheader-hygiene -Wstring-conversion -Wtautological-overlap-compare -Wno-char-subscripts -Wglobal-constructors -Wexit-time-destructors -Wexit-time-destructors -Wshadow -I/usr/include/glib-2.0 -I/usr/lib/glib-2.0/include -I/usr/lib/libffi-3.2.1/include -Wexit-time-destructors -O2 -fno-ident -fdata-sections -ffunction-sections -std=c++14 -fno-exceptions -fno-rtti -fvisibility-inlines-hidden -D_FORTIFY_SOURCE=2 -march=x86-64 -mtune=generic -O2 -pipe -fstack-protector-strong -fno-plt -c ../../base/build_time.cc -o obj/base/base/build_time.o
1055  [11/28/2018 03:13PM]: [129/5007] clang++ -MMD -MF obj/base/base/allocator_extension.o.d -DUSE_SYMBOLIZE -DV8_DEPRECATION_WARNINGS -DUSE_UDEV -DUSE_AURA=1 -DUSE_GLIB=1 -DUSE_NSS_CERTS=1 -DUSE_X11=1 -DFULL_SAFE_BROWSING -DSAFE_BROWSING_CSD -DSAFE_BROWSING_DB_LOCAL -DCHROMIUM_BUILD -D_FILE_OFFSET_BITS=64 -D_LARGEFILE_SOURCE -D_LARGEFILE64_SOURCE -D_GNU_SOURCE -DCR_CLANG_REVISION=\340925-1\ -D__STDC_CONSTANT_MACROS -D__STDC_FORMAT_MACROS -DCOMPONENT_BUILD -DNDEBUG -DNVALGRIND -DDYNAMIC_ANNOTATIONS_ENABLED=0 -DBASE_IMPLEMENTATION -DGLIB_VERSION_MAX_ALLOWED=GLIB_VERSION_2_32 -DGLIB_VERSION_MIN_REQUIRED=GLIB_VERSION_2_26 -I../.. -Igen -fno-strict-aliasing --param=ssp-buffer-size=4 -fstack-protector -Wno-builtin-macro-redefined -D__DATE__= -D__TIME__= -D__TIMESTAMP__= -funwind-tables -fPIC -pthread -fcolor-diagnostics -fmerge-all-constants -Xclang -mllvm -Xclang -instcombine-lower-dbg-declare=0 -no-canonical-prefixes -m64 -march=x86-64 -Wall -Wextra -Wimplicit-fallthrough -Wthread-safety -Wno-missing-field-initializers -Wno-unused-parameter -Wno-c++11-narrowing -Wno-covered-switch-default -Wno-unneeded-internal-declaration -Wno-undefined-var-template -Wno-nonportable-include-path -Wno-user-defined-warnings -Wno-unused-lambda-capture -Wno-ignored-pragma-optimize -fno-omit-frame-pointer -g0 -fvisibility=hidden -Wheader-hygiene -Wstring-conversion -Wtautological-overlap-compare -Wno-char-subscripts -Wglobal-constructors -Wexit-time-destructors -Wexit-time-destructors -Wshadow -I/usr/include/glib-2.0 -I/usr/lib/glib-2.0/include -I/usr/lib/libffi-3.2.1/include -Wexit-time-destructors -O2 -fno-ident -fdata-sections -ffunction-sections -std=c++14 -fno-exceptions -fno-rtti -fvisibility-inlines-hidden -D_FORTIFY_SOURCE=2 -march=x86-64 -mtune=generic -O2 -pipe -fstack-protector-strong -fno-plt -c ../../base/allocator/allocator_extension.cc -o obj/base/base/allocator_extension.o
1056  [11/28/2018 03:13PM]: [130/5007] clang++ -MMD -MF obj/base/base/callback_helpers.o.d -DUSE_SYMBOLIZE -DV8_DEPRECATION_WARNINGS -DUSE_UDEV -DUSE_AURA=1 -DUSE_GLIB=1 -DUSE_NSS_CERTS=1 -DUSE_X11=1 -DFULL_SAFE_BROWSING -DSAFE_BROWSING_CSD -DSAFE_BROWSING_DB_LOCAL -DCHROMIUM_BUILD -D_FILE_OFFSET_BITS=64 -D_LARGEFILE_SOURCE -D_LARGEFILE64_SOURCE -D_GNU_SOURCE -DCR_CLANG_REVISION=\340925-1\ -D__STDC_CONSTANT_MACROS -D__STDC_FORMAT_MACROS -DCOMPONENT_BUILD -DNDEBUG -DNVALGRIND -DDYNAMIC_ANNOTATIONS_ENABLED=0 -DBASE_IMPLEMENTATION -DGLIB_VERSION_MAX_ALLOWED=GLIB_VERSION_2_32 -DGLIB_VERSION_MIN_REQUIRED=GLIB_VERSION_2_26 -I../.. -Igen -fno-strict-aliasing --param=ssp-buffer-size=4 -fstack-protector -Wno-builtin-macro-redefined -D__DATE__= -D__TIME__= -D__TIMESTAMP__= -funwind-tables -fPIC -pthread -fcolor-diagnostics -fmerge-all-constants -Xclang -mllvm -Xclang -instcombine-lower-dbg-declare=0 -no-canonical-prefixes -m64 -march=x86-64 -Wall -Wextra -Wimplicit-fallthrough -Wthread-safety -Wno-missing-field-initializers -Wno-unused-parameter -Wno-c++11-narrowing -Wno-covered-switch-default -Wno-unneeded-internal-declaration -Wno-undefined-var-template -Wno-nonportable-include-path -Wno-user-defined-warnings -Wno-unused-lambda-capture -Wno-ignored-pragma-optimize -fno-omit-frame-pointer -g0 -fvisibility=hidden -Wheader-hygiene -Wstring-conversion -Wtautological-overlap-compare -Wno-char-subscripts -Wglobal-constructors -Wexit-time-destructors -Wexit-time-destructors -Wshadow -I/usr/include/glib-2.0 -I/usr/lib/glib-2.0/include -I/usr/lib/libffi-3.2.1/include -Wexit-time-destructors -O2 -fno-ident -fdata-sections -ffunction-sections -std=c++14 -fno-exceptions -fno-rtti -fvisibility-inlines-hidden -D_FORTIFY_SOURCE=2 -march=x86-64 -mtune=generic -O2 -pipe -fstack-protector-strong -fno-plt -c ../../base/callback_helpers.cc -o obj/base/base/callback_helpers.o
1057  [11/28/2018 03:13PM]: [131/5007] clang++ -MMD -MF obj/base/base/activity_analyzer.o.d -DUSE_SYMBOLIZE -DV8_DEPRECATION_WARNINGS -DUSE_UDEV -DUSE_AURA=1 -DUSE_GLIB=1 -DUSE_NSS_CERTS=1 -DUSE_X11=1 -DFULL_SAFE_BROWSING -DSAFE_BROWSING_CSD -DSAFE_BROWSING_DB_LOCAL -DCHROMIUM_BUILD -D_FILE_OFFSET_BITS=64 -D_LARGEFILE_SOURCE -D_LARGEFILE64_SOURCE -D_GNU_SOURCE -DCR_CLANG_REVISION=\340925-1\ -D__STDC_CONSTANT_MACROS -D__STDC_FORMAT_MACROS -DCOMPONENT_BUILD -DNDEBUG -DNVALGRIND -DDYNAMIC_ANNOTATIONS_ENABLED=0 -DBASE_IMPLEMENTATION -DGLIB_VERSION_MAX_ALLOWED=GLIB_VERSION_2_32 -DGLIB_VERSION_MIN_REQUIRED=GLIB_VERSION_2_26 -I../.. -Igen -fno-strict-aliasing --param=ssp-buffer-size=4 -fstack-protector -Wno-builtin-macro-redefined -D__DATE__= -D__TIME__= -D__TIMESTAMP__= -funwind-tables -fPIC -pthread -fcolor-diagnostics -fmerge-all-constants -Xclang -mllvm -Xclang -instcombine-lower-dbg-declare=0 -no-canonical-prefixes -m64 -march=x86-64 -Wall -Wextra -Wimplicit-fallthrough -Wthread-safety -Wno-missing-field-initializers -Wno-unused-parameter -Wno-c++11-narrowing -Wno-covered-switch-default -Wno-unneeded-internal-declaration -Wno-undefined-var-template -Wno-nonportable-include-path -Wno-user-defined-warnings -Wno-unused-lambda-capture -Wno-ignored-pragma-optimize -fno-omit-frame-pointer -g0 -fvisibility=hidden -Wheader-hygiene -Wstring-conversion -Wtautological-overlap-compare -Wno-char-subscripts -Wglobal-constructors -Wexit-time-destructors -Wexit-time-destructors -Wshadow -I/usr/include/glib-2.0 -I/usr/lib/glib-2.0/include -I/usr/lib/libffi-3.2.1/include -Wexit-time-destructors -O2 -fno-ident -fdata-sections -ffunction-sections -std=c++14 -fno-exceptions -fno-rtti -fvisibility-inlines-hidden -D_FORTIFY_SOURCE=2 -march=x86-64 -mtune=generic -O2 -pipe -fstack-protector-strong -fno-plt -c ../../base/debug/activity_analyzer.cc -o obj/base/base/activity_analyzer.o
1058  [11/28/2018 03:13PM]: [132/5007] clang++ -MMD -MF obj/base/base/environment.o.d -DUSE_SYMBOLIZE -DV8_DEPRECATION_WARNINGS -DUSE_UDEV -DUSE_AURA=1 -DUSE_GLIB=1 -DUSE_NSS_CERTS=1 -DUSE_X11=1 -DFULL_SAFE_BROWSING -DSAFE_BROWSING_CSD -DSAFE_BROWSING_DB_LOCAL -DCHROMIUM_BUILD -D_FILE_OFFSET_BITS=64 -D_LARGEFILE_SOURCE -D_LARGEFILE64_SOURCE -D_GNU_SOURCE -DCR_CLANG_REVISION=\340925-1\ -D__STDC_CONSTANT_MACROS -D__STDC_FORMAT_MACROS -DCOMPONENT_BUILD -DNDEBUG -DNVALGRIND -DDYNAMIC_ANNOTATIONS_ENABLED=0 -DBASE_IMPLEMENTATION -DGLIB_VERSION_MAX_ALLOWED=GLIB_VERSION_2_32 -DGLIB_VERSION_MIN_REQUIRED=GLIB_VERSION_2_26 -I../.. -Igen -fno-strict-aliasing --param=ssp-buffer-size=4 -fstack-protector -Wno-builtin-macro-redefined -D__DATE__= -D__TIME__= -D__TIMESTAMP__= -funwind-tables -fPIC -pthread -fcolor-diagnostics -fmerge-all-constants -Xclang -mllvm -Xclang -instcombine-lower-dbg-declare=0 -no-canonical-prefixes -m64 -march=x86-64 -Wall -Wextra -Wimplicit-fallthrough -Wthread-safety -Wno-missing-field-initializers -Wno-unused-parameter -Wno-c++11-narrowing -Wno-covered-switch-default -Wno-unneeded-internal-declaration -Wno-undefined-var-template -Wno-nonportable-include-path -Wno-user-defined-warnings -Wno-unused-lambda-capture -Wno-ignored-pragma-optimize -fno-omit-frame-pointer -g0 -fvisibility=hidden -Wheader-hygiene -Wstring-conversion -Wtautological-overlap-compare -Wno-char-subscripts -Wglobal-constructors -Wexit-time-destructors -Wexit-time-destructors -Wshadow -I/usr/include/glib-2.0 -I/usr/lib/glib-2.0/include -I/usr/lib/libffi-3.2.1/include -Wexit-time-destructors -O2 -fno-ident -fdata-sections -ffunction-sections -std=c++14 -fno-exceptions -fno-rtti -fvisibility-inlines-hidden -D_FORTIFY_SOURCE=2 -march=x86-64 -mtune=generic -O2 -pipe -fstack-protector-strong -fno-plt -c ../../base/environment.cc -o obj/base/base/environment.o
1059  [11/28/2018 03:13PM]: [133/5007] clang++ -MMD -MF obj/base/base/at_exit.o.d -DUSE_SYMBOLIZE -DV8_DEPRECATION_WARNINGS -DUSE_UDEV -DUSE_AURA=1 -DUSE_GLIB=1 -DUSE_NSS_CERTS=1 -DUSE_X11=1 -DFULL_SAFE_BROWSING -DSAFE_BROWSING_CSD -DSAFE_BROWSING_DB_LOCAL -DCHROMIUM_BUILD -D_FILE_OFFSET_BITS=64 -D_LARGEFILE_SOURCE -D_LARGEFILE64_SOURCE -D_GNU_SOURCE -DCR_CLANG_REVISION=\340925-1\ -D__STDC_CONSTANT_MACROS -D__STDC_FORMAT_MACROS -DCOMPONENT_BUILD -DNDEBUG -DNVALGRIND -DDYNAMIC_ANNOTATIONS_ENABLED=0 -DBASE_IMPLEMENTATION -DGLIB_VERSION_MAX_ALLOWED=GLIB_VERSION_2_32 -DGLIB_VERSION_MIN_REQUIRED=GLIB_VERSION_2_26 -I../.. -Igen -fno-strict-aliasing --param=ssp-buffer-size=4 -fstack-protector -Wno-builtin-macro-redefined -D__DATE__= -D__TIME__= -D__TIMESTAMP__= -funwind-tables -fPIC -pthread -fcolor-diagnostics -fmerge-all-constants -Xclang -mllvm -Xclang -instcombine-lower-dbg-declare=0 -no-canonical-prefixes -m64 -march=x86-64 -Wall -Wextra -Wimplicit-fallthrough -Wthread-safety -Wno-missing-field-initializers -Wno-unused-parameter -Wno-c++11-narrowing -Wno-covered-switch-default -Wno-unneeded-internal-declaration -Wno-undefined-var-template -Wno-nonportable-include-path -Wno-user-defined-warnings -Wno-unused-lambda-capture -Wno-ignored-pragma-optimize -fno-omit-frame-pointer -g0 -fvisibility=hidden -Wheader-hygiene -Wstring-conversion -Wtautological-overlap-compare -Wno-char-subscripts -Wglobal-constructors -Wexit-time-destructors -Wexit-time-destructors -Wshadow -I/usr/include/glib-2.0 -I/usr/lib/glib-2.0/include -I/usr/lib/libffi-3.2.1/include -Wexit-time-destructors -O2 -fno-ident -fdata-sections -ffunction-sections -std=c++14 -fno-exceptions -fno-rtti -fvisibility-inlines-hidden -D_FORTIFY_SOURCE=2 -march=x86-64 -mtune=generic -O2 -pipe -fstack-protector-strong -fno-plt -c ../../base/at_exit.cc -o obj/base/base/at_exit.o
1060  [11/28/2018 03:13PM]: [134/5007] clang++ -MMD -MF obj/base/base/activity_tracker.o.d -DUSE_SYMBOLIZE -DV8_DEPRECATION_WARNINGS -DUSE_UDEV -DUSE_AURA=1 -DUSE_GLIB=1 -DUSE_NSS_CERTS=1 -DUSE_X11=1 -DFULL_SAFE_BROWSING -DSAFE_BROWSING_CSD -DSAFE_BROWSING_DB_LOCAL -DCHROMIUM_BUILD -D_FILE_OFFSET_BITS=64 -D_LARGEFILE_SOURCE -D_LARGEFILE64_SOURCE -D_GNU_SOURCE -DCR_CLANG_REVISION=\340925-1\ -D__STDC_CONSTANT_MACROS -D__STDC_FORMAT_MACROS -DCOMPONENT_BUILD -DNDEBUG -DNVALGRIND -DDYNAMIC_ANNOTATIONS_ENABLED=0 -DBASE_IMPLEMENTATION -DGLIB_VERSION_MAX_ALLOWED=GLIB_VERSION_2_32 -DGLIB_VERSION_MIN_REQUIRED=GLIB_VERSION_2_26 -I../.. -Igen -fno-strict-aliasing --param=ssp-buffer-size=4 -fstack-protector -Wno-builtin-macro-redefined -D__DATE__= -D__TIME__= -D__TIMESTAMP__= -funwind-tables -fPIC -pthread -fcolor-diagnostics -fmerge-all-constants -Xclang -mllvm -Xclang -instcombine-lower-dbg-declare=0 -no-canonical-prefixes -m64 -march=x86-64 -Wall -Wextra -Wimplicit-fallthrough -Wthread-safety -Wno-missing-field-initializers -Wno-unused-parameter -Wno-c++11-narrowing -Wno-covered-switch-default -Wno-unneeded-internal-declaration -Wno-undefined-var-template -Wno-nonportable-include-path -Wno-user-defined-warnings -Wno-unused-lambda-capture -Wno-ignored-pragma-optimize -fno-omit-frame-pointer -g0 -fvisibility=hidden -Wheader-hygiene -Wstring-conversion -Wtautological-overlap-compare -Wno-char-subscripts -Wglobal-constructors -Wexit-time-destructors -Wexit-time-destructors -Wshadow -I/usr/include/glib-2.0 -I/usr/lib/glib-2.0/include -I/usr/lib/libffi-3.2.1/include -Wexit-time-destructors -O2 -fno-ident -fdata-sections -ffunction-sections -std=c++14 -fno-exceptions -fno-rtti -fvisibility-inlines-hidden -D_FORTIFY_SOURCE=2 -march=x86-64 -mtune=generic -O2 -pipe -fstack-protector-strong -fno-plt -c ../../base/debug/activity_tracker.cc -o obj/base/base/activity_tracker.o
1061  [11/28/2018 03:13PM]: [135/5007] clang++ -MMD -MF obj/base/base/file_descriptor_store.o.d -DUSE_SYMBOLIZE -DV8_DEPRECATION_WARNINGS -DUSE_UDEV -DUSE_AURA=1 -DUSE_GLIB=1 -DUSE_NSS_CERTS=1 -DUSE_X11=1 -DFULL_SAFE_BROWSING -DSAFE_BROWSING_CSD -DSAFE_BROWSING_DB_LOCAL -DCHROMIUM_BUILD -D_FILE_OFFSET_BITS=64 -D_LARGEFILE_SOURCE -D_LARGEFILE64_SOURCE -D_GNU_SOURCE -DCR_CLANG_REVISION=\340925-1\ -D__STDC_CONSTANT_MACROS -D__STDC_FORMAT_MACROS -DCOMPONENT_BUILD -DNDEBUG -DNVALGRIND -DDYNAMIC_ANNOTATIONS_ENABLED=0 -DBASE_IMPLEMENTATION -DGLIB_VERSION_MAX_ALLOWED=GLIB_VERSION_2_32 -DGLIB_VERSION_MIN_REQUIRED=GLIB_VERSION_2_26 -I../.. -Igen -fno-strict-aliasing --param=ssp-buffer-size=4 -fstack-protector -Wno-builtin-macro-redefined -D__DATE__= -D__TIME__= -D__TIMESTAMP__= -funwind-tables -fPIC -pthread -fcolor-diagnostics -fmerge-all-constants -Xclang -mllvm -Xclang -instcombine-lower-dbg-declare=0 -no-canonical-prefixes -m64 -march=x86-64 -Wall -Wextra -Wimplicit-fallthrough -Wthread-safety -Wno-missing-field-initializers -Wno-unused-parameter -Wno-c++11-narrowing -Wno-covered-switch-default -Wno-unneeded-internal-declaration -Wno-undefined-var-template -Wno-nonportable-include-path -Wno-user-defined-warnings -Wno-unused-lambda-capture -Wno-ignored-pragma-optimize -fno-omit-frame-pointer -g0 -fvisibility=hidden -Wheader-hygiene -Wstring-conversion -Wtautological-overlap-compare -Wno-char-subscripts -Wglobal-constructors -Wexit-time-destructors -Wexit-time-destructors -Wshadow -I/usr/include/glib-2.0 -I/usr/lib/glib-2.0/include -I/usr/lib/libffi-3.2.1/include -Wexit-time-destructors -O2 -fno-ident -fdata-sections -ffunction-sections -std=c++14 -fno-exceptions -fno-rtti -fvisibility-inlines-hidden -D_FORTIFY_SOURCE=2 -march=x86-64 -mtune=generic -O2 -pipe -fstack-protector-strong -fno-plt -c ../../base/file_descriptor_store.cc -o obj/base/base/file_descriptor_store.o
1062  [11/28/2018 03:13PM]: [136/5007] clang++ -MMD -MF obj/base/base/file.o.d -DUSE_SYMBOLIZE -DV8_DEPRECATION_WARNINGS -DUSE_UDEV -DUSE_AURA=1 -DUSE_GLIB=1 -DUSE_NSS_CERTS=1 -DUSE_X11=1 -DFULL_SAFE_BROWSING -DSAFE_BROWSING_CSD -DSAFE_BROWSING_DB_LOCAL -DCHROMIUM_BUILD -D_FILE_OFFSET_BITS=64 -D_LARGEFILE_SOURCE -D_LARGEFILE64_SOURCE -D_GNU_SOURCE -DCR_CLANG_REVISION=\340925-1\ -D__STDC_CONSTANT_MACROS -D__STDC_FORMAT_MACROS -DCOMPONENT_BUILD -DNDEBUG -DNVALGRIND -DDYNAMIC_ANNOTATIONS_ENABLED=0 -DBASE_IMPLEMENTATION -DGLIB_VERSION_MAX_ALLOWED=GLIB_VERSION_2_32 -DGLIB_VERSION_MIN_REQUIRED=GLIB_VERSION_2_26 -I../.. -Igen -fno-strict-aliasing --param=ssp-buffer-size=4 -fstack-protector -Wno-builtin-macro-redefined -D__DATE__= -D__TIME__= -D__TIMESTAMP__= -funwind-tables -fPIC -pthread -fcolor-diagnostics -fmerge-all-constants -Xclang -mllvm -Xclang -instcombine-lower-dbg-declare=0 -no-canonical-prefixes -m64 -march=x86-64 -Wall -Wextra -Wimplicit-fallthrough -Wthread-safety -Wno-missing-field-initializers -Wno-unused-parameter -Wno-c++11-narrowing -Wno-covered-switch-default -Wno-unneeded-internal-declaration -Wno-undefined-var-template -Wno-nonportable-include-path -Wno-user-defined-warnings -Wno-unused-lambda-capture -Wno-ignored-pragma-optimize -fno-omit-frame-pointer -g0 -fvisibility=hidden -Wheader-hygiene -Wstring-conversion -Wtautological-overlap-compare -Wno-char-subscripts -Wglobal-constructors -Wexit-time-destructors -Wexit-time-destructors -Wshadow -I/usr/include/glib-2.0 -I/usr/lib/glib-2.0/include -I/usr/lib/libffi-3.2.1/include -Wexit-time-destructors -O2 -fno-ident -fdata-sections -ffunction-sections -std=c++14 -fno-exceptions -fno-rtti -fvisibility-inlines-hidden -D_FORTIFY_SOURCE=2 -march=x86-64 -mtune=generic -O2 -pipe -fstack-protector-strong -fno-plt -c ../../base/files/file.cc -o obj/base/base/file.o
1063  [11/28/2018 03:13PM]: [137/5007] clang++ -MMD -MF obj/base/base/file_path_constants.o.d -DUSE_SYMBOLIZE -DV8_DEPRECATION_WARNINGS -DUSE_UDEV -DUSE_AURA=1 -DUSE_GLIB=1 -DUSE_NSS_CERTS=1 -DUSE_X11=1 -DFULL_SAFE_BROWSING -DSAFE_BROWSING_CSD -DSAFE_BROWSING_DB_LOCAL -DCHROMIUM_BUILD -D_FILE_OFFSET_BITS=64 -D_LARGEFILE_SOURCE -D_LARGEFILE64_SOURCE -D_GNU_SOURCE -DCR_CLANG_REVISION=\340925-1\ -D__STDC_CONSTANT_MACROS -D__STDC_FORMAT_MACROS -DCOMPONENT_BUILD -DNDEBUG -DNVALGRIND -DDYNAMIC_ANNOTATIONS_ENABLED=0 -DBASE_IMPLEMENTATION -DGLIB_VERSION_MAX_ALLOWED=GLIB_VERSION_2_32 -DGLIB_VERSION_MIN_REQUIRED=GLIB_VERSION_2_26 -I../.. -Igen -fno-strict-aliasing --param=ssp-buffer-size=4 -fstack-protector -Wno-builtin-macro-redefined -D__DATE__= -D__TIME__= -D__TIMESTAMP__= -funwind-tables -fPIC -pthread -fcolor-diagnostics -fmerge-all-constants -Xclang -mllvm -Xclang -instcombine-lower-dbg-declare=0 -no-canonical-prefixes -m64 -march=x86-64 -Wall -Wextra -Wimplicit-fallthrough -Wthread-safety -Wno-missing-field-initializers -Wno-unused-parameter -Wno-c++11-narrowing -Wno-covered-switch-default -Wno-unneeded-internal-declaration -Wno-undefined-var-template -Wno-nonportable-include-path -Wno-user-defined-warnings -Wno-unused-lambda-capture -Wno-ignored-pragma-optimize -fno-omit-frame-pointer -g0 -fvisibility=hidden -Wheader-hygiene -Wstring-conversion -Wtautological-overlap-compare -Wno-char-subscripts -Wglobal-constructors -Wexit-time-destructors -Wexit-time-destructors -Wshadow -I/usr/include/glib-2.0 -I/usr/lib/glib-2.0/include -I/usr/lib/libffi-3.2.1/include -Wexit-time-destructors -O2 -fno-ident -fdata-sections -ffunction-sections -std=c++14 -fno-exceptions -fno-rtti -fvisibility-inlines-hidden -D_FORTIFY_SOURCE=2 -march=x86-64 -mtune=generic -O2 -pipe -fstack-protector-strong -fno-plt -c ../../base/files/file_path_constants.cc -o obj/base/base/file_path_constants.o
1064  [11/28/2018 03:13PM]: [138/5007] clang++ -MMD -MF obj/base/base/file_enumerator.o.d -DUSE_SYMBOLIZE -DV8_DEPRECATION_WARNINGS -DUSE_UDEV -DUSE_AURA=1 -DUSE_GLIB=1 -DUSE_NSS_CERTS=1 -DUSE_X11=1 -DFULL_SAFE_BROWSING -DSAFE_BROWSING_CSD -DSAFE_BROWSING_DB_LOCAL -DCHROMIUM_BUILD -D_FILE_OFFSET_BITS=64 -D_LARGEFILE_SOURCE -D_LARGEFILE64_SOURCE -D_GNU_SOURCE -DCR_CLANG_REVISION=\340925-1\ -D__STDC_CONSTANT_MACROS -D__STDC_FORMAT_MACROS -DCOMPONENT_BUILD -DNDEBUG -DNVALGRIND -DDYNAMIC_ANNOTATIONS_ENABLED=0 -DBASE_IMPLEMENTATION -DGLIB_VERSION_MAX_ALLOWED=GLIB_VERSION_2_32 -DGLIB_VERSION_MIN_REQUIRED=GLIB_VERSION_2_26 -I../.. -Igen -fno-strict-aliasing --param=ssp-buffer-size=4 -fstack-protector -Wno-builtin-macro-redefined -D__DATE__= -D__TIME__= -D__TIMESTAMP__= -funwind-tables -fPIC -pthread -fcolor-diagnostics -fmerge-all-constants -Xclang -mllvm -Xclang -instcombine-lower-dbg-declare=0 -no-canonical-prefixes -m64 -march=x86-64 -Wall -Wextra -Wimplicit-fallthrough -Wthread-safety -Wno-missing-field-initializers -Wno-unused-parameter -Wno-c++11-narrowing -Wno-covered-switch-default -Wno-unneeded-internal-declaration -Wno-undefined-var-template -Wno-nonportable-include-path -Wno-user-defined-warnings -Wno-unused-lambda-capture -Wno-ignored-pragma-optimize -fno-omit-frame-pointer -g0 -fvisibility=hidden -Wheader-hygiene -Wstring-conversion -Wtautological-overlap-compare -Wno-char-subscripts -Wglobal-constructors -Wexit-time-destructors -Wexit-time-destructors -Wshadow -I/usr/include/glib-2.0 -I/usr/lib/glib-2.0/include -I/usr/lib/libffi-3.2.1/include -Wexit-time-destructors -O2 -fno-ident -fdata-sections -ffunction-sections -std=c++14 -fno-exceptions -fno-rtti -fvisibility-inlines-hidden -D_FORTIFY_SOURCE=2 -march=x86-64 -mtune=generic -O2 -pipe -fstack-protector-strong -fno-plt -c ../../base/files/file_enumerator.cc -o obj/base/base/file_enumerator.o
1065  [11/28/2018 03:13PM]: [139/5007] clang++ -MMD -MF obj/base/base/feature_list.o.d -DUSE_SYMBOLIZE -DV8_DEPRECATION_WARNINGS -DUSE_UDEV -DUSE_AURA=1 -DUSE_GLIB=1 -DUSE_NSS_CERTS=1 -DUSE_X11=1 -DFULL_SAFE_BROWSING -DSAFE_BROWSING_CSD -DSAFE_BROWSING_DB_LOCAL -DCHROMIUM_BUILD -D_FILE_OFFSET_BITS=64 -D_LARGEFILE_SOURCE -D_LARGEFILE64_SOURCE -D_GNU_SOURCE -DCR_CLANG_REVISION=\340925-1\ -D__STDC_CONSTANT_MACROS -D__STDC_FORMAT_MACROS -DCOMPONENT_BUILD -DNDEBUG -DNVALGRIND -DDYNAMIC_ANNOTATIONS_ENABLED=0 -DBASE_IMPLEMENTATION -DGLIB_VERSION_MAX_ALLOWED=GLIB_VERSION_2_32 -DGLIB_VERSION_MIN_REQUIRED=GLIB_VERSION_2_26 -I../.. -Igen -fno-strict-aliasing --param=ssp-buffer-size=4 -fstack-protector -Wno-builtin-macro-redefined -D__DATE__= -D__TIME__= -D__TIMESTAMP__= -funwind-tables -fPIC -pthread -fcolor-diagnostics -fmerge-all-constants -Xclang -mllvm -Xclang -instcombine-lower-dbg-declare=0 -no-canonical-prefixes -m64 -march=x86-64 -Wall -Wextra -Wimplicit-fallthrough -Wthread-safety -Wno-missing-field-initializers -Wno-unused-parameter -Wno-c++11-narrowing -Wno-covered-switch-default -Wno-unneeded-internal-declaration -Wno-undefined-var-template -Wno-nonportable-include-path -Wno-user-defined-warnings -Wno-unused-lambda-capture -Wno-ignored-pragma-optimize -fno-omit-frame-pointer -g0 -fvisibility=hidden -Wheader-hygiene -Wstring-conversion -Wtautological-overlap-compare -Wno-char-subscripts -Wglobal-constructors -Wexit-time-destructors -Wexit-time-destructors -Wshadow -I/usr/include/glib-2.0 -I/usr/lib/glib-2.0/include -I/usr/lib/libffi-3.2.1/include -Wexit-time-destructors -O2 -fno-ident -fdata-sections -ffunction-sections -std=c++14 -fno-exceptions -fno-rtti -fvisibility-inlines-hidden -D_FORTIFY_SOURCE=2 -march=x86-64 -mtune=generic -O2 -pipe -fstack-protector-strong -fno-plt -c ../../base/feature_list.cc -o obj/base/base/feature_list.o
1066  [11/28/2018 03:13PM]: [140/5007] clang++ -MMD -MF obj/base/base/guid.o.d -DUSE_SYMBOLIZE -DV8_DEPRECATION_WARNINGS -DUSE_UDEV -DUSE_AURA=1 -DUSE_GLIB=1 -DUSE_NSS_CERTS=1 -DUSE_X11=1 -DFULL_SAFE_BROWSING -DSAFE_BROWSING_CSD -DSAFE_BROWSING_DB_LOCAL -DCHROMIUM_BUILD -D_FILE_OFFSET_BITS=64 -D_LARGEFILE_SOURCE -D_LARGEFILE64_SOURCE -D_GNU_SOURCE -DCR_CLANG_REVISION=\340925-1\ -D__STDC_CONSTANT_MACROS -D__STDC_FORMAT_MACROS -DCOMPONENT_BUILD -DNDEBUG -DNVALGRIND -DDYNAMIC_ANNOTATIONS_ENABLED=0 -DBASE_IMPLEMENTATION -DGLIB_VERSION_MAX_ALLOWED=GLIB_VERSION_2_32 -DGLIB_VERSION_MIN_REQUIRED=GLIB_VERSION_2_26 -I../.. -Igen -fno-strict-aliasing --param=ssp-buffer-size=4 -fstack-protector -Wno-builtin-macro-redefined -D__DATE__= -D__TIME__= -D__TIMESTAMP__= -funwind-tables -fPIC -pthread -fcolor-diagnostics -fmerge-all-constants -Xclang -mllvm -Xclang -instcombine-lower-dbg-declare=0 -no-canonical-prefixes -m64 -march=x86-64 -Wall -Wextra -Wimplicit-fallthrough -Wthread-safety -Wno-missing-field-initializers -Wno-unused-parameter -Wno-c++11-narrowing -Wno-covered-switch-default -Wno-unneeded-internal-declaration -Wno-undefined-var-template -Wno-nonportable-include-path -Wno-user-defined-warnings -Wno-unused-lambda-capture -Wno-ignored-pragma-optimize -fno-omit-frame-pointer -g0 -fvisibility=hidden -Wheader-hygiene -Wstring-conversion -Wtautological-overlap-compare -Wno-char-subscripts -Wglobal-constructors -Wexit-time-destructors -Wexit-time-destructors -Wshadow -I/usr/include/glib-2.0 -I/usr/lib/glib-2.0/include -I/usr/lib/libffi-3.2.1/include -Wexit-time-destructors -O2 -fno-ident -fdata-sections -ffunction-sections -std=c++14 -fno-exceptions -fno-rtti -fvisibility-inlines-hidden -D_FORTIFY_SOURCE=2 -march=x86-64 -mtune=generic -O2 -pipe -fstack-protector-strong -fno-plt -c ../../base/guid.cc -o obj/base/base/guid.o
1067  [11/28/2018 03:13PM]: [141/5007] clang++ -MMD -MF obj/base/base/file_path_watcher.o.d -DUSE_SYMBOLIZE -DV8_DEPRECATION_WARNINGS -DUSE_UDEV -DUSE_AURA=1 -DUSE_GLIB=1 -DUSE_NSS_CERTS=1 -DUSE_X11=1 -DFULL_SAFE_BROWSING -DSAFE_BROWSING_CSD -DSAFE_BROWSING_DB_LOCAL -DCHROMIUM_BUILD -D_FILE_OFFSET_BITS=64 -D_LARGEFILE_SOURCE -D_LARGEFILE64_SOURCE -D_GNU_SOURCE -DCR_CLANG_REVISION=\340925-1\ -D__STDC_CONSTANT_MACROS -D__STDC_FORMAT_MACROS -DCOMPONENT_BUILD -DNDEBUG -DNVALGRIND -DDYNAMIC_ANNOTATIONS_ENABLED=0 -DBASE_IMPLEMENTATION -DGLIB_VERSION_MAX_ALLOWED=GLIB_VERSION_2_32 -DGLIB_VERSION_MIN_REQUIRED=GLIB_VERSION_2_26 -I../.. -Igen -fno-strict-aliasing --param=ssp-buffer-size=4 -fstack-protector -Wno-builtin-macro-redefined -D__DATE__= -D__TIME__= -D__TIMESTAMP__= -funwind-tables -fPIC -pthread -fcolor-diagnostics -fmerge-all-constants -Xclang -mllvm -Xclang -instcombine-lower-dbg-declare=0 -no-canonical-prefixes -m64 -march=x86-64 -Wall -Wextra -Wimplicit-fallthrough -Wthread-safety -Wno-missing-field-initializers -Wno-unused-parameter -Wno-c++11-narrowing -Wno-covered-switch-default -Wno-unneeded-internal-declaration -Wno-undefined-var-template -Wno-nonportable-include-path -Wno-user-defined-warnings -Wno-unused-lambda-capture -Wno-ignored-pragma-optimize -fno-omit-frame-pointer -g0 -fvisibility=hidden -Wheader-hygiene -Wstring-conversion -Wtautological-overlap-compare -Wno-char-subscripts -Wglobal-constructors -Wexit-time-destructors -Wexit-time-destructors -Wshadow -I/usr/include/glib-2.0 -I/usr/lib/glib-2.0/include -I/usr/lib/libffi-3.2.1/include -Wexit-time-destructors -O2 -fno-ident -fdata-sections -ffunction-sections -std=c++14 -fno-exceptions -fno-rtti -fvisibility-inlines-hidden -D_FORTIFY_SOURCE=2 -march=x86-64 -mtune=generic -O2 -pipe -fstack-protector-strong -fno-plt -c ../../base/files/file_path_watcher.cc -o obj/base/base/file_path_watcher.o
1068  [11/28/2018 03:13PM]: [142/5007] clang++ -MMD -MF obj/base/base/hash.o.d -DUSE_SYMBOLIZE -DV8_DEPRECATION_WARNINGS -DUSE_UDEV -DUSE_AURA=1 -DUSE_GLIB=1 -DUSE_NSS_CERTS=1 -DUSE_X11=1 -DFULL_SAFE_BROWSING -DSAFE_BROWSING_CSD -DSAFE_BROWSING_DB_LOCAL -DCHROMIUM_BUILD -D_FILE_OFFSET_BITS=64 -D_LARGEFILE_SOURCE -D_LARGEFILE64_SOURCE -D_GNU_SOURCE -DCR_CLANG_REVISION=\340925-1\ -D__STDC_CONSTANT_MACROS -D__STDC_FORMAT_MACROS -DCOMPONENT_BUILD -DNDEBUG -DNVALGRIND -DDYNAMIC_ANNOTATIONS_ENABLED=0 -DBASE_IMPLEMENTATION -DGLIB_VERSION_MAX_ALLOWED=GLIB_VERSION_2_32 -DGLIB_VERSION_MIN_REQUIRED=GLIB_VERSION_2_26 -I../.. -Igen -fno-strict-aliasing --param=ssp-buffer-size=4 -fstack-protector -Wno-builtin-macro-redefined -D__DATE__= -D__TIME__= -D__TIMESTAMP__= -funwind-tables -fPIC -pthread -fcolor-diagnostics -fmerge-all-constants -Xclang -mllvm -Xclang -instcombine-lower-dbg-declare=0 -no-canonical-prefixes -m64 -march=x86-64 -Wall -Wextra -Wimplicit-fallthrough -Wthread-safety -Wno-missing-field-initializers -Wno-unused-parameter -Wno-c++11-narrowing -Wno-covered-switch-default -Wno-unneeded-internal-declaration -Wno-undefined-var-template -Wno-nonportable-include-path -Wno-user-defined-warnings -Wno-unused-lambda-capture -Wno-ignored-pragma-optimize -fno-omit-frame-pointer -g0 -fvisibility=hidden -Wheader-hygiene -Wstring-conversion -Wtautological-overlap-compare -Wno-char-subscripts -Wglobal-constructors -Wexit-time-destructors -Wexit-time-destructors -Wshadow -I/usr/include/glib-2.0 -I/usr/lib/glib-2.0/include -I/usr/lib/libffi-3.2.1/include -Wexit-time-destructors -O2 -fno-ident -fdata-sections -ffunction-sections -std=c++14 -fno-exceptions -fno-rtti -fvisibility-inlines-hidden -D_FORTIFY_SOURCE=2 -march=x86-64 -mtune=generic -O2 -pipe -fstack-protector-strong -fno-plt -c ../../base/hash.cc -o obj/base/base/hash.o
1069  [11/28/2018 03:13PM]: [143/5007] clang++ -MMD -MF obj/base/base/file_path.o.d -DUSE_SYMBOLIZE -DV8_DEPRECATION_WARNINGS -DUSE_UDEV -DUSE_AURA=1 -DUSE_GLIB=1 -DUSE_NSS_CERTS=1 -DUSE_X11=1 -DFULL_SAFE_BROWSING -DSAFE_BROWSING_CSD -DSAFE_BROWSING_DB_LOCAL -DCHROMIUM_BUILD -D_FILE_OFFSET_BITS=64 -D_LARGEFILE_SOURCE -D_LARGEFILE64_SOURCE -D_GNU_SOURCE -DCR_CLANG_REVISION=\340925-1\ -D__STDC_CONSTANT_MACROS -D__STDC_FORMAT_MACROS -DCOMPONENT_BUILD -DNDEBUG -DNVALGRIND -DDYNAMIC_ANNOTATIONS_ENABLED=0 -DBASE_IMPLEMENTATION -DGLIB_VERSION_MAX_ALLOWED=GLIB_VERSION_2_32 -DGLIB_VERSION_MIN_REQUIRED=GLIB_VERSION_2_26 -I../.. -Igen -fno-strict-aliasing --param=ssp-buffer-size=4 -fstack-protector -Wno-builtin-macro-redefined -D__DATE__= -D__TIME__= -D__TIMESTAMP__= -funwind-tables -fPIC -pthread -fcolor-diagnostics -fmerge-all-constants -Xclang -mllvm -Xclang -instcombine-lower-dbg-declare=0 -no-canonical-prefixes -m64 -march=x86-64 -Wall -Wextra -Wimplicit-fallthrough -Wthread-safety -Wno-missing-field-initializers -Wno-unused-parameter -Wno-c++11-narrowing -Wno-covered-switch-default -Wno-unneeded-internal-declaration -Wno-undefined-var-template -Wno-nonportable-include-path -Wno-user-defined-warnings -Wno-unused-lambda-capture -Wno-ignored-pragma-optimize -fno-omit-frame-pointer -g0 -fvisibility=hidden -Wheader-hygiene -Wstring-conversion -Wtautological-overlap-compare -Wno-char-subscripts -Wglobal-constructors -Wexit-time-destructors -Wexit-time-destructors -Wshadow -I/usr/include/glib-2.0 -I/usr/lib/glib-2.0/include -I/usr/lib/libffi-3.2.1/include -Wexit-time-destructors -O2 -fno-ident -fdata-sections -ffunction-sections -std=c++14 -fno-exceptions -fno-rtti -fvisibility-inlines-hidden -D_FORTIFY_SOURCE=2 -march=x86-64 -mtune=generic -O2 -pipe -fstack-protector-strong -fno-plt -c ../../base/files/file_path.cc -o obj/base/base/file_path.o
1070  [11/28/2018 03:13PM]: [144/5007] clang++ -MMD -MF obj/base/base/json_reader.o.d -DUSE_SYMBOLIZE -DV8_DEPRECATION_WARNINGS -DUSE_UDEV -DUSE_AURA=1 -DUSE_GLIB=1 -DUSE_NSS_CERTS=1 -DUSE_X11=1 -DFULL_SAFE_BROWSING -DSAFE_BROWSING_CSD -DSAFE_BROWSING_DB_LOCAL -DCHROMIUM_BUILD -D_FILE_OFFSET_BITS=64 -D_LARGEFILE_SOURCE -D_LARGEFILE64_SOURCE -D_GNU_SOURCE -DCR_CLANG_REVISION=\340925-1\ -D__STDC_CONSTANT_MACROS -D__STDC_FORMAT_MACROS -DCOMPONENT_BUILD -DNDEBUG -DNVALGRIND -DDYNAMIC_ANNOTATIONS_ENABLED=0 -DBASE_IMPLEMENTATION -DGLIB_VERSION_MAX_ALLOWED=GLIB_VERSION_2_32 -DGLIB_VERSION_MIN_REQUIRED=GLIB_VERSION_2_26 -I../.. -Igen -fno-strict-aliasing --param=ssp-buffer-size=4 -fstack-protector -Wno-builtin-macro-redefined -D__DATE__= -D__TIME__= -D__TIMESTAMP__= -funwind-tables -fPIC -pthread -fcolor-diagnostics -fmerge-all-constants -Xclang -mllvm -Xclang -instcombine-lower-dbg-declare=0 -no-canonical-prefixes -m64 -march=x86-64 -Wall -Wextra -Wimplicit-fallthrough -Wthread-safety -Wno-missing-field-initializers -Wno-unused-parameter -Wno-c++11-narrowing -Wno-covered-switch-default -Wno-unneeded-internal-declaration -Wno-undefined-var-template -Wno-nonportable-include-path -Wno-user-defined-warnings -Wno-unused-lambda-capture -Wno-ignored-pragma-optimize -fno-omit-frame-pointer -g0 -fvisibility=hidden -Wheader-hygiene -Wstring-conversion -Wtautological-overlap-compare -Wno-char-subscripts -Wglobal-constructors -Wexit-time-destructors -Wexit-time-destructors -Wshadow -I/usr/include/glib-2.0 -I/usr/lib/glib-2.0/include -I/usr/lib/libffi-3.2.1/include -Wexit-time-destructors -O2 -fno-ident -fdata-sections -ffunction-sections -std=c++14 -fno-exceptions -fno-rtti -fvisibility-inlines-hidden -D_FORTIFY_SOURCE=2 -march=x86-64 -mtune=generic -O2 -pipe -fstack-protector-strong -fno-plt -c ../../base/json/json_reader.cc -o obj/base/base/json_reader.o
1071  [11/28/2018 03:13PM]: [145/5007] clang++ -MMD -MF obj/base/base/json_file_value_serializer.o.d -DUSE_SYMBOLIZE -DV8_DEPRECATION_WARNINGS -DUSE_UDEV -DUSE_AURA=1 -DUSE_GLIB=1 -DUSE_NSS_CERTS=1 -DUSE_X11=1 -DFULL_SAFE_BROWSING -DSAFE_BROWSING_CSD -DSAFE_BROWSING_DB_LOCAL -DCHROMIUM_BUILD -D_FILE_OFFSET_BITS=64 -D_LARGEFILE_SOURCE -D_LARGEFILE64_SOURCE -D_GNU_SOURCE -DCR_CLANG_REVISION=\340925-1\ -D__STDC_CONSTANT_MACROS -D__STDC_FORMAT_MACROS -DCOMPONENT_BUILD -DNDEBUG -DNVALGRIND -DDYNAMIC_ANNOTATIONS_ENABLED=0 -DBASE_IMPLEMENTATION -DGLIB_VERSION_MAX_ALLOWED=GLIB_VERSION_2_32 -DGLIB_VERSION_MIN_REQUIRED=GLIB_VERSION_2_26 -I../.. -Igen -fno-strict-aliasing --param=ssp-buffer-size=4 -fstack-protector -Wno-builtin-macro-redefined -D__DATE__= -D__TIME__= -D__TIMESTAMP__= -funwind-tables -fPIC -pthread -fcolor-diagnostics -fmerge-all-constants -Xclang -mllvm -Xclang -instcombine-lower-dbg-declare=0 -no-canonical-prefixes -m64 -march=x86-64 -Wall -Wextra -Wimplicit-fallthrough -Wthread-safety -Wno-missing-field-initializers -Wno-unused-parameter -Wno-c++11-narrowing -Wno-covered-switch-default -Wno-unneeded-internal-declaration -Wno-undefined-var-template -Wno-nonportable-include-path -Wno-user-defined-warnings -Wno-unused-lambda-capture -Wno-ignored-pragma-optimize -fno-omit-frame-pointer -g0 -fvisibility=hidden -Wheader-hygiene -Wstring-conversion -Wtautological-overlap-compare -Wno-char-subscripts -Wglobal-constructors -Wexit-time-destructors -Wexit-time-destructors -Wshadow -I/usr/include/glib-2.0 -I/usr/lib/glib-2.0/include -I/usr/lib/libffi-3.2.1/include -Wexit-time-destructors -O2 -fno-ident -fdata-sections -ffunction-sections -std=c++14 -fno-exceptions -fno-rtti -fvisibility-inlines-hidden -D_FORTIFY_SOURCE=2 -march=x86-64 -mtune=generic -O2 -pipe -fstack-protector-strong -fno-plt -c ../../base/json/json_file_value_serializer.cc -o obj/base/base/json_file_value_serializer.o
1072  [11/28/2018 03:13PM]: [146/5007] clang++ -MMD -MF obj/base/base/json_string_value_serializer.o.d -DUSE_SYMBOLIZE -DV8_DEPRECATION_WARNINGS -DUSE_UDEV -DUSE_AURA=1 -DUSE_GLIB=1 -DUSE_NSS_CERTS=1 -DUSE_X11=1 -DFULL_SAFE_BROWSING -DSAFE_BROWSING_CSD -DSAFE_BROWSING_DB_LOCAL -DCHROMIUM_BUILD -D_FILE_OFFSET_BITS=64 -D_LARGEFILE_SOURCE -D_LARGEFILE64_SOURCE -D_GNU_SOURCE -DCR_CLANG_REVISION=\340925-1\ -D__STDC_CONSTANT_MACROS -D__STDC_FORMAT_MACROS -DCOMPONENT_BUILD -DNDEBUG -DNVALGRIND -DDYNAMIC_ANNOTATIONS_ENABLED=0 -DBASE_IMPLEMENTATION -DGLIB_VERSION_MAX_ALLOWED=GLIB_VERSION_2_32 -DGLIB_VERSION_MIN_REQUIRED=GLIB_VERSION_2_26 -I../.. -Igen -fno-strict-aliasing --param=ssp-buffer-size=4 -fstack-protector -Wno-builtin-macro-redefined -D__DATE__= -D__TIME__= -D__TIMESTAMP__= -funwind-tables -fPIC -pthread -fcolor-diagnostics -fmerge-all-constants -Xclang -mllvm -Xclang -instcombine-lower-dbg-declare=0 -no-canonical-prefixes -m64 -march=x86-64 -Wall -Wextra -Wimplicit-fallthrough -Wthread-safety -Wno-missing-field-initializers -Wno-unused-parameter -Wno-c++11-narrowing -Wno-covered-switch-default -Wno-unneeded-internal-declaration -Wno-undefined-var-template -Wno-nonportable-include-path -Wno-user-defined-warnings -Wno-unused-lambda-capture -Wno-ignored-pragma-optimize -fno-omit-frame-pointer -g0 -fvisibility=hidden -Wheader-hygiene -Wstring-conversion -Wtautological-overlap-compare -Wno-char-subscripts -Wglobal-constructors -Wexit-time-destructors -Wexit-time-destructors -Wshadow -I/usr/include/glib-2.0 -I/usr/lib/glib-2.0/include -I/usr/lib/libffi-3.2.1/include -Wexit-time-destructors -O2 -fno-ident -fdata-sections -ffunction-sections -std=c++14 -fno-exceptions -fno-rtti -fvisibility-inlines-hidden -D_FORTIFY_SOURCE=2 -march=x86-64 -mtune=generic -O2 -pipe -fstack-protector-strong -fno-plt -c ../../base/json/json_string_value_serializer.cc -o obj/base/base/json_string_value_serializer.o
1073  [11/28/2018 03:13PM]: [147/5007] clang++ -MMD -MF obj/base/base/json_value_converter.o.d -DUSE_SYMBOLIZE -DV8_DEPRECATION_WARNINGS -DUSE_UDEV -DUSE_AURA=1 -DUSE_GLIB=1 -DUSE_NSS_CERTS=1 -DUSE_X11=1 -DFULL_SAFE_BROWSING -DSAFE_BROWSING_CSD -DSAFE_BROWSING_DB_LOCAL -DCHROMIUM_BUILD -D_FILE_OFFSET_BITS=64 -D_LARGEFILE_SOURCE -D_LARGEFILE64_SOURCE -D_GNU_SOURCE -DCR_CLANG_REVISION=\340925-1\ -D__STDC_CONSTANT_MACROS -D__STDC_FORMAT_MACROS -DCOMPONENT_BUILD -DNDEBUG -DNVALGRIND -DDYNAMIC_ANNOTATIONS_ENABLED=0 -DBASE_IMPLEMENTATION -DGLIB_VERSION_MAX_ALLOWED=GLIB_VERSION_2_32 -DGLIB_VERSION_MIN_REQUIRED=GLIB_VERSION_2_26 -I../.. -Igen -fno-strict-aliasing --param=ssp-buffer-size=4 -fstack-protector -Wno-builtin-macro-redefined -D__DATE__= -D__TIME__= -D__TIMESTAMP__= -funwind-tables -fPIC -pthread -fcolor-diagnostics -fmerge-all-constants -Xclang -mllvm -Xclang -instcombine-lower-dbg-declare=0 -no-canonical-prefixes -m64 -march=x86-64 -Wall -Wextra -Wimplicit-fallthrough -Wthread-safety -Wno-missing-field-initializers -Wno-unused-parameter -Wno-c++11-narrowing -Wno-covered-switch-default -Wno-unneeded-internal-declaration -Wno-undefined-var-template -Wno-nonportable-include-path -Wno-user-defined-warnings -Wno-unused-lambda-capture -Wno-ignored-pragma-optimize -fno-omit-frame-pointer -g0 -fvisibility=hidden -Wheader-hygiene -Wstring-conversion -Wtautological-overlap-compare -Wno-char-subscripts -Wglobal-constructors -Wexit-time-destructors -Wexit-time-destructors -Wshadow -I/usr/include/glib-2.0 -I/usr/lib/glib-2.0/include -I/usr/lib/libffi-3.2.1/include -Wexit-time-destructors -O2 -fno-ident -fdata-sections -ffunction-sections -std=c++14 -fno-exceptions -fno-rtti -fvisibility-inlines-hidden -D_FORTIFY_SOURCE=2 -march=x86-64 -mtune=generic -O2 -pipe -fstack-protector-strong -fno-plt -c ../../base/json/json_value_converter.cc -o obj/base/base/json_value_converter.o
1074  [11/28/2018 03:13PM]: [148/5007] clang++ -MMD -MF obj/base/base/json_writer.o.d -DUSE_SYMBOLIZE -DV8_DEPRECATION_WARNINGS -DUSE_UDEV -DUSE_AURA=1 -DUSE_GLIB=1 -DUSE_NSS_CERTS=1 -DUSE_X11=1 -DFULL_SAFE_BROWSING -DSAFE_BROWSING_CSD -DSAFE_BROWSING_DB_LOCAL -DCHROMIUM_BUILD -D_FILE_OFFSET_BITS=64 -D_LARGEFILE_SOURCE -D_LARGEFILE64_SOURCE -D_GNU_SOURCE -DCR_CLANG_REVISION=\340925-1\ -D__STDC_CONSTANT_MACROS -D__STDC_FORMAT_MACROS -DCOMPONENT_BUILD -DNDEBUG -DNVALGRIND -DDYNAMIC_ANNOTATIONS_ENABLED=0 -DBASE_IMPLEMENTATION -DGLIB_VERSION_MAX_ALLOWED=GLIB_VERSION_2_32 -DGLIB_VERSION_MIN_REQUIRED=GLIB_VERSION_2_26 -I../.. -Igen -fno-strict-aliasing --param=ssp-buffer-size=4 -fstack-protector -Wno-builtin-macro-redefined -D__DATE__= -D__TIME__= -D__TIMESTAMP__= -funwind-tables -fPIC -pthread -fcolor-diagnostics -fmerge-all-constants -Xclang -mllvm -Xclang -instcombine-lower-dbg-declare=0 -no-canonical-prefixes -m64 -march=x86-64 -Wall -Wextra -Wimplicit-fallthrough -Wthread-safety -Wno-missing-field-initializers -Wno-unused-parameter -Wno-c++11-narrowing -Wno-covered-switch-default -Wno-unneeded-internal-declaration -Wno-undefined-var-template -Wno-nonportable-include-path -Wno-user-defined-warnings -Wno-unused-lambda-capture -Wno-ignored-pragma-optimize -fno-omit-frame-pointer -g0 -fvisibility=hidden -Wheader-hygiene -Wstring-conversion -Wtautological-overlap-compare -Wno-char-subscripts -Wglobal-constructors -Wexit-time-destructors -Wexit-time-destructors -Wshadow -I/usr/include/glib-2.0 -I/usr/lib/glib-2.0/include -I/usr/lib/libffi-3.2.1/include -Wexit-time-destructors -O2 -fno-ident -fdata-sections -ffunction-sections -std=c++14 -fno-exceptions -fno-rtti -fvisibility-inlines-hidden -D_FORTIFY_SOURCE=2 -march=x86-64 -mtune=generic -O2 -pipe -fstack-protector-strong -fno-plt -c ../../base/json/json_writer.cc -o obj/base/base/json_writer.o
1075  [11/28/2018 03:13PM]: [149/5007] clang++ -MMD -MF obj/base/base/string_escape.o.d -DUSE_SYMBOLIZE -DV8_DEPRECATION_WARNINGS -DUSE_UDEV -DUSE_AURA=1 -DUSE_GLIB=1 -DUSE_NSS_CERTS=1 -DUSE_X11=1 -DFULL_SAFE_BROWSING -DSAFE_BROWSING_CSD -DSAFE_BROWSING_DB_LOCAL -DCHROMIUM_BUILD -D_FILE_OFFSET_BITS=64 -D_LARGEFILE_SOURCE -D_LARGEFILE64_SOURCE -D_GNU_SOURCE -DCR_CLANG_REVISION=\340925-1\ -D__STDC_CONSTANT_MACROS -D__STDC_FORMAT_MACROS -DCOMPONENT_BUILD -DNDEBUG -DNVALGRIND -DDYNAMIC_ANNOTATIONS_ENABLED=0 -DBASE_IMPLEMENTATION -DGLIB_VERSION_MAX_ALLOWED=GLIB_VERSION_2_32 -DGLIB_VERSION_MIN_REQUIRED=GLIB_VERSION_2_26 -I../.. -Igen -fno-strict-aliasing --param=ssp-buffer-size=4 -fstack-protector -Wno-builtin-macro-redefined -D__DATE__= -D__TIME__= -D__TIMESTAMP__= -funwind-tables -fPIC -pthread -fcolor-diagnostics -fmerge-all-constants -Xclang -mllvm -Xclang -instcombine-lower-dbg-declare=0 -no-canonical-prefixes -m64 -march=x86-64 -Wall -Wextra -Wimplicit-fallthrough -Wthread-safety -Wno-missing-field-initializers -Wno-unused-parameter -Wno-c++11-narrowing -Wno-covered-switch-default -Wno-unneeded-internal-declaration -Wno-undefined-var-template -Wno-nonportable-include-path -Wno-user-defined-warnings -Wno-unused-lambda-capture -Wno-ignored-pragma-optimize -fno-omit-frame-pointer -g0 -fvisibility=hidden -Wheader-hygiene -Wstring-conversion -Wtautological-overlap-compare -Wno-char-subscripts -Wglobal-constructors -Wexit-time-destructors -Wexit-time-destructors -Wshadow -I/usr/include/glib-2.0 -I/usr/lib/glib-2.0/include -I/usr/lib/libffi-3.2.1/include -Wexit-time-destructors -O2 -fno-ident -fdata-sections -ffunction-sections -std=c++14 -fno-exceptions -fno-rtti -fvisibility-inlines-hidden -D_FORTIFY_SOURCE=2 -march=x86-64 -mtune=generic -O2 -pipe -fstack-protector-strong -fno-plt -c ../../base/json/string_escape.cc -o obj/base/base/string_escape.o
1076  [11/28/2018 03:13PM]: [150/5007] clang++ -MMD -MF obj/base/base/lazy_instance_helpers.o.d -DUSE_SYMBOLIZE -DV8_DEPRECATION_WARNINGS -DUSE_UDEV -DUSE_AURA=1 -DUSE_GLIB=1 -DUSE_NSS_CERTS=1 -DUSE_X11=1 -DFULL_SAFE_BROWSING -DSAFE_BROWSING_CSD -DSAFE_BROWSING_DB_LOCAL -DCHROMIUM_BUILD -D_FILE_OFFSET_BITS=64 -D_LARGEFILE_SOURCE -D_LARGEFILE64_SOURCE -D_GNU_SOURCE -DCR_CLANG_REVISION=\340925-1\ -D__STDC_CONSTANT_MACROS -D__STDC_FORMAT_MACROS -DCOMPONENT_BUILD -DNDEBUG -DNVALGRIND -DDYNAMIC_ANNOTATIONS_ENABLED=0 -DBASE_IMPLEMENTATION -DGLIB_VERSION_MAX_ALLOWED=GLIB_VERSION_2_32 -DGLIB_VERSION_MIN_REQUIRED=GLIB_VERSION_2_26 -I../.. -Igen -fno-strict-aliasing --param=ssp-buffer-size=4 -fstack-protector -Wno-builtin-macro-redefined -D__DATE__= -D__TIME__= -D__TIMESTAMP__= -funwind-tables -fPIC -pthread -fcolor-diagnostics -fmerge-all-constants -Xclang -mllvm -Xclang -instcombine-lower-dbg-declare=0 -no-canonical-prefixes -m64 -march=x86-64 -Wall -Wextra -Wimplicit-fallthrough -Wthread-safety -Wno-missing-field-initializers -Wno-unused-parameter -Wno-c++11-narrowing -Wno-covered-switch-default -Wno-unneeded-internal-declaration -Wno-undefined-var-template -Wno-nonportable-include-path -Wno-user-defined-warnings -Wno-unused-lambda-capture -Wno-ignored-pragma-optimize -fno-omit-frame-pointer -g0 -fvisibility=hidden -Wheader-hygiene -Wstring-conversion -Wtautological-overlap-compare -Wno-char-subscripts -Wglobal-constructors -Wexit-time-destructors -Wexit-time-destructors -Wshadow -I/usr/include/glib-2.0 -I/usr/lib/glib-2.0/include -I/usr/lib/libffi-3.2.1/include -Wexit-time-destructors -O2 -fno-ident -fdata-sections -ffunction-sections -std=c++14 -fno-exceptions -fno-rtti -fvisibility-inlines-hidden -D_FORTIFY_SOURCE=2 -march=x86-64 -mtune=generic -O2 -pipe -fstack-protector-strong -fno-plt -c ../../base/lazy_instance_helpers.cc -o obj/base/base/lazy_instance_helpers.o
1077  [11/28/2018 03:13PM]: [151/5007] clang++ -MMD -MF obj/base/base/location.o.d -DUSE_SYMBOLIZE -DV8_DEPRECATION_WARNINGS -DUSE_UDEV -DUSE_AURA=1 -DUSE_GLIB=1 -DUSE_NSS_CERTS=1 -DUSE_X11=1 -DFULL_SAFE_BROWSING -DSAFE_BROWSING_CSD -DSAFE_BROWSING_DB_LOCAL -DCHROMIUM_BUILD -D_FILE_OFFSET_BITS=64 -D_LARGEFILE_SOURCE -D_LARGEFILE64_SOURCE -D_GNU_SOURCE -DCR_CLANG_REVISION=\340925-1\ -D__STDC_CONSTANT_MACROS -D__STDC_FORMAT_MACROS -DCOMPONENT_BUILD -DNDEBUG -DNVALGRIND -DDYNAMIC_ANNOTATIONS_ENABLED=0 -DBASE_IMPLEMENTATION -DGLIB_VERSION_MAX_ALLOWED=GLIB_VERSION_2_32 -DGLIB_VERSION_MIN_REQUIRED=GLIB_VERSION_2_26 -I../.. -Igen -fno-strict-aliasing --param=ssp-buffer-size=4 -fstack-protector -Wno-builtin-macro-redefined -D__DATE__= -D__TIME__= -D__TIMESTAMP__= -funwind-tables -fPIC -pthread -fcolor-diagnostics -fmerge-all-constants -Xclang -mllvm -Xclang -instcombine-lower-dbg-declare=0 -no-canonical-prefixes -m64 -march=x86-64 -Wall -Wextra -Wimplicit-fallthrough -Wthread-safety -Wno-missing-field-initializers -Wno-unused-parameter -Wno-c++11-narrowing -Wno-covered-switch-default -Wno-unneeded-internal-declaration -Wno-undefined-var-template -Wno-nonportable-include-path -Wno-user-defined-warnings -Wno-unused-lambda-capture -Wno-ignored-pragma-optimize -fno-omit-frame-pointer -g0 -fvisibility=hidden -Wheader-hygiene -Wstring-conversion -Wtautological-overlap-compare -Wno-char-subscripts -Wglobal-constructors -Wexit-time-destructors -Wexit-time-destructors -Wshadow -I/usr/include/glib-2.0 -I/usr/lib/glib-2.0/include -I/usr/lib/libffi-3.2.1/include -Wexit-time-destructors -O2 -fno-ident -fdata-sections -ffunction-sections -std=c++14 -fno-exceptions -fno-rtti -fvisibility-inlines-hidden -D_FORTIFY_SOURCE=2 -march=x86-64 -mtune=generic -O2 -pipe -fstack-protector-strong -fno-plt -c ../../base/location.cc -o obj/base/base/location.o
1078  [11/28/2018 03:13PM]: [152/5007] clang++ -MMD -MF obj/base/base/json_parser.o.d -DUSE_SYMBOLIZE -DV8_DEPRECATION_WARNINGS -DUSE_UDEV -DUSE_AURA=1 -DUSE_GLIB=1 -DUSE_NSS_CERTS=1 -DUSE_X11=1 -DFULL_SAFE_BROWSING -DSAFE_BROWSING_CSD -DSAFE_BROWSING_DB_LOCAL -DCHROMIUM_BUILD -D_FILE_OFFSET_BITS=64 -D_LARGEFILE_SOURCE -D_LARGEFILE64_SOURCE -D_GNU_SOURCE -DCR_CLANG_REVISION=\340925-1\ -D__STDC_CONSTANT_MACROS -D__STDC_FORMAT_MACROS -DCOMPONENT_BUILD -DNDEBUG -DNVALGRIND -DDYNAMIC_ANNOTATIONS_ENABLED=0 -DBASE_IMPLEMENTATION -DGLIB_VERSION_MAX_ALLOWED=GLIB_VERSION_2_32 -DGLIB_VERSION_MIN_REQUIRED=GLIB_VERSION_2_26 -I../.. -Igen -fno-strict-aliasing --param=ssp-buffer-size=4 -fstack-protector -Wno-builtin-macro-redefined -D__DATE__= -D__TIME__= -D__TIMESTAMP__= -funwind-tables -fPIC -pthread -fcolor-diagnostics -fmerge-all-constants -Xclang -mllvm -Xclang -instcombine-lower-dbg-declare=0 -no-canonical-prefixes -m64 -march=x86-64 -Wall -Wextra -Wimplicit-fallthrough -Wthread-safety -Wno-missing-field-initializers -Wno-unused-parameter -Wno-c++11-narrowing -Wno-covered-switch-default -Wno-unneeded-internal-declaration -Wno-undefined-var-template -Wno-nonportable-include-path -Wno-user-defined-warnings -Wno-unused-lambda-capture -Wno-ignored-pragma-optimize -fno-omit-frame-pointer -g0 -fvisibility=hidden -Wheader-hygiene -Wstring-conversion -Wtautological-overlap-compare -Wno-char-subscripts -Wglobal-constructors -Wexit-time-destructors -Wexit-time-destructors -Wshadow -I/usr/include/glib-2.0 -I/usr/lib/glib-2.0/include -I/usr/lib/libffi-3.2.1/include -Wexit-time-destructors -O2 -fno-ident -fdata-sections -ffunction-sections -std=c++14 -fno-exceptions -fno-rtti -fvisibility-inlines-hidden -D_FORTIFY_SOURCE=2 -march=x86-64 -mtune=generic -O2 -pipe -fstack-protector-strong -fno-plt -c ../../base/json/json_parser.cc -o obj/base/base/json_parser.o
1079  [11/28/2018 03:13PM]: [153/5007] clang++ -MMD -MF obj/base/base/aligned_memory.o.d -DUSE_SYMBOLIZE -DV8_DEPRECATION_WARNINGS -DUSE_UDEV -DUSE_AURA=1 -DUSE_GLIB=1 -DUSE_NSS_CERTS=1 -DUSE_X11=1 -DFULL_SAFE_BROWSING -DSAFE_BROWSING_CSD -DSAFE_BROWSING_DB_LOCAL -DCHROMIUM_BUILD -D_FILE_OFFSET_BITS=64 -D_LARGEFILE_SOURCE -D_LARGEFILE64_SOURCE -D_GNU_SOURCE -DCR_CLANG_REVISION=\340925-1\ -D__STDC_CONSTANT_MACROS -D__STDC_FORMAT_MACROS -DCOMPONENT_BUILD -DNDEBUG -DNVALGRIND -DDYNAMIC_ANNOTATIONS_ENABLED=0 -DBASE_IMPLEMENTATION -DGLIB_VERSION_MAX_ALLOWED=GLIB_VERSION_2_32 -DGLIB_VERSION_MIN_REQUIRED=GLIB_VERSION_2_26 -I../.. -Igen -fno-strict-aliasing --param=ssp-buffer-size=4 -fstack-protector -Wno-builtin-macro-redefined -D__DATE__= -D__TIME__= -D__TIMESTAMP__= -funwind-tables -fPIC -pthread -fcolor-diagnostics -fmerge-all-constants -Xclang -mllvm -Xclang -instcombine-lower-dbg-declare=0 -no-canonical-prefixes -m64 -march=x86-64 -Wall -Wextra -Wimplicit-fallthrough -Wthread-safety -Wno-missing-field-initializers -Wno-unused-parameter -Wno-c++11-narrowing -Wno-covered-switch-default -Wno-unneeded-internal-declaration -Wno-undefined-var-template -Wno-nonportable-include-path -Wno-user-defined-warnings -Wno-unused-lambda-capture -Wno-ignored-pragma-optimize -fno-omit-frame-pointer -g0 -fvisibility=hidden -Wheader-hygiene -Wstring-conversion -Wtautological-overlap-compare -Wno-char-subscripts -Wglobal-constructors -Wexit-time-destructors -Wexit-time-destructors -Wshadow -I/usr/include/glib-2.0 -I/usr/lib/glib-2.0/include -I/usr/lib/libffi-3.2.1/include -Wexit-time-destructors -O2 -fno-ident -fdata-sections -ffunction-sections -std=c++14 -fno-exceptions -fno-rtti -fvisibility-inlines-hidden -D_FORTIFY_SOURCE=2 -march=x86-64 -mtune=generic -O2 -pipe -fstack-protector-strong -fno-plt -c ../../base/memory/aligned_memory.cc -o obj/base/base/aligned_memory.o
1080  [11/28/2018 03:13PM]: [154/5007] clang++ -MMD -MF obj/base/base/md5.o.d -DUSE_SYMBOLIZE -DV8_DEPRECATION_WARNINGS -DUSE_UDEV -DUSE_AURA=1 -DUSE_GLIB=1 -DUSE_NSS_CERTS=1 -DUSE_X11=1 -DFULL_SAFE_BROWSING -DSAFE_BROWSING_CSD -DSAFE_BROWSING_DB_LOCAL -DCHROMIUM_BUILD -D_FILE_OFFSET_BITS=64 -D_LARGEFILE_SOURCE -D_LARGEFILE64_SOURCE -D_GNU_SOURCE -DCR_CLANG_REVISION=\340925-1\ -D__STDC_CONSTANT_MACROS -D__STDC_FORMAT_MACROS -DCOMPONENT_BUILD -DNDEBUG -DNVALGRIND -DDYNAMIC_ANNOTATIONS_ENABLED=0 -DBASE_IMPLEMENTATION -DGLIB_VERSION_MAX_ALLOWED=GLIB_VERSION_2_32 -DGLIB_VERSION_MIN_REQUIRED=GLIB_VERSION_2_26 -I../.. -Igen -fno-strict-aliasing --param=ssp-buffer-size=4 -fstack-protector -Wno-builtin-macro-redefined -D__DATE__= -D__TIME__= -D__TIMESTAMP__= -funwind-tables -fPIC -pthread -fcolor-diagnostics -fmerge-all-constants -Xclang -mllvm -Xclang -instcombine-lower-dbg-declare=0 -no-canonical-prefixes -m64 -march=x86-64 -Wall -Wextra -Wimplicit-fallthrough -Wthread-safety -Wno-missing-field-initializers -Wno-unused-parameter -Wno-c++11-narrowing -Wno-covered-switch-default -Wno-unneeded-internal-declaration -Wno-undefined-var-template -Wno-nonportable-include-path -Wno-user-defined-warnings -Wno-unused-lambda-capture -Wno-ignored-pragma-optimize -fno-omit-frame-pointer -g0 -fvisibility=hidden -Wheader-hygiene -Wstring-conversion -Wtautological-overlap-compare -Wno-char-subscripts -Wglobal-constructors -Wexit-time-destructors -Wexit-time-destructors -Wshadow -I/usr/include/glib-2.0 -I/usr/lib/glib-2.0/include -I/usr/lib/libffi-3.2.1/include -Wexit-time-destructors -O2 -fno-ident -fdata-sections -ffunction-sections -std=c++14 -fno-exceptions -fno-rtti -fvisibility-inlines-hidden -D_FORTIFY_SOURCE=2 -march=x86-64 -mtune=generic -O2 -pipe -fstack-protector-strong -fno-plt -c ../../base/md5.cc -o obj/base/base/md5.o
1081  [11/28/2018 03:13PM]: [155/5007] clang++ -MMD -MF obj/base/base/linux_util.o.d -DUSE_SYMBOLIZE -DV8_DEPRECATION_WARNINGS -DUSE_UDEV -DUSE_AURA=1 -DUSE_GLIB=1 -DUSE_NSS_CERTS=1 -DUSE_X11=1 -DFULL_SAFE_BROWSING -DSAFE_BROWSING_CSD -DSAFE_BROWSING_DB_LOCAL -DCHROMIUM_BUILD -D_FILE_OFFSET_BITS=64 -D_LARGEFILE_SOURCE -D_LARGEFILE64_SOURCE -D_GNU_SOURCE -DCR_CLANG_REVISION=\340925-1\ -D__STDC_CONSTANT_MACROS -D__STDC_FORMAT_MACROS -DCOMPONENT_BUILD -DNDEBUG -DNVALGRIND -DDYNAMIC_ANNOTATIONS_ENABLED=0 -DBASE_IMPLEMENTATION -DGLIB_VERSION_MAX_ALLOWED=GLIB_VERSION_2_32 -DGLIB_VERSION_MIN_REQUIRED=GLIB_VERSION_2_26 -I../.. -Igen -fno-strict-aliasing --param=ssp-buffer-size=4 -fstack-protector -Wno-builtin-macro-redefined -D__DATE__= -D__TIME__= -D__TIMESTAMP__= -funwind-tables -fPIC -pthread -fcolor-diagnostics -fmerge-all-constants -Xclang -mllvm -Xclang -instcombine-lower-dbg-declare=0 -no-canonical-prefixes -m64 -march=x86-64 -Wall -Wextra -Wimplicit-fallthrough -Wthread-safety -Wno-missing-field-initializers -Wno-unused-parameter -Wno-c++11-narrowing -Wno-covered-switch-default -Wno-unneeded-internal-declaration -Wno-undefined-var-template -Wno-nonportable-include-path -Wno-user-defined-warnings -Wno-unused-lambda-capture -Wno-ignored-pragma-optimize -fno-omit-frame-pointer -g0 -fvisibility=hidden -Wheader-hygiene -Wstring-conversion -Wtautological-overlap-compare -Wno-char-subscripts -Wglobal-constructors -Wexit-time-destructors -Wexit-time-destructors -Wshadow -I/usr/include/glib-2.0 -I/usr/lib/glib-2.0/include -I/usr/lib/libffi-3.2.1/include -Wexit-time-destructors -O2 -fno-ident -fdata-sections -ffunction-sections -std=c++14 -fno-exceptions -fno-rtti -fvisibility-inlines-hidden -D_FORTIFY_SOURCE=2 -march=x86-64 -mtune=generic -O2 -pipe -fstack-protector-strong -fno-plt -c ../../base/linux_util.cc -o obj/base/base/linux_util.o
1082  [11/28/2018 03:13PM]: [156/5007] clang++ -MMD -MF obj/base/base/file_tracing.o.d -DUSE_SYMBOLIZE -DV8_DEPRECATION_WARNINGS -DUSE_UDEV -DUSE_AURA=1 -DUSE_GLIB=1 -DUSE_NSS_CERTS=1 -DUSE_X11=1 -DFULL_SAFE_BROWSING -DSAFE_BROWSING_CSD -DSAFE_BROWSING_DB_LOCAL -DCHROMIUM_BUILD -D_FILE_OFFSET_BITS=64 -D_LARGEFILE_SOURCE -D_LARGEFILE64_SOURCE -D_GNU_SOURCE -DCR_CLANG_REVISION=\340925-1\ -D__STDC_CONSTANT_MACROS -D__STDC_FORMAT_MACROS -DCOMPONENT_BUILD -DNDEBUG -DNVALGRIND -DDYNAMIC_ANNOTATIONS_ENABLED=0 -DBASE_IMPLEMENTATION -DGLIB_VERSION_MAX_ALLOWED=GLIB_VERSION_2_32 -DGLIB_VERSION_MIN_REQUIRED=GLIB_VERSION_2_26 -I../.. -Igen -fno-strict-aliasing --param=ssp-buffer-size=4 -fstack-protector -Wno-builtin-macro-redefined -D__DATE__= -D__TIME__= -D__TIMESTAMP__= -funwind-tables -fPIC -pthread -fcolor-diagnostics -fmerge-all-constants -Xclang -mllvm -Xclang -instcombine-lower-dbg-declare=0 -no-canonical-prefixes -m64 -march=x86-64 -Wall -Wextra -Wimplicit-fallthrough -Wthread-safety -Wno-missing-field-initializers -Wno-unused-parameter -Wno-c++11-narrowing -Wno-covered-switch-default -Wno-unneeded-internal-declaration -Wno-undefined-var-template -Wno-nonportable-include-path -Wno-user-defined-warnings -Wno-unused-lambda-capture -Wno-ignored-pragma-optimize -fno-omit-frame-pointer -g0 -fvisibility=hidden -Wheader-hygiene -Wstring-conversion -Wtautological-overlap-compare -Wno-char-subscripts -Wglobal-constructors -Wexit-time-destructors -Wexit-time-destructors -Wshadow -I/usr/include/glib-2.0 -I/usr/lib/glib-2.0/include -I/usr/lib/libffi-3.2.1/include -Wexit-time-destructors -O2 -fno-ident -fdata-sections -ffunction-sections -std=c++14 -fno-exceptions -fno-rtti -fvisibility-inlines-hidden -D_FORTIFY_SOURCE=2 -march=x86-64 -mtune=generic -O2 -pipe -fstack-protector-strong -fno-plt -c ../../base/files/file_tracing.cc -o obj/base/base/file_tracing.o
1083  [11/28/2018 03:13PM]: [157/5007] clang++ -MMD -MF obj/base/base/logging.o.d -DUSE_SYMBOLIZE -DV8_DEPRECATION_WARNINGS -DUSE_UDEV -DUSE_AURA=1 -DUSE_GLIB=1 -DUSE_NSS_CERTS=1 -DUSE_X11=1 -DFULL_SAFE_BROWSING -DSAFE_BROWSING_CSD -DSAFE_BROWSING_DB_LOCAL -DCHROMIUM_BUILD -D_FILE_OFFSET_BITS=64 -D_LARGEFILE_SOURCE -D_LARGEFILE64_SOURCE -D_GNU_SOURCE -DCR_CLANG_REVISION=\340925-1\ -D__STDC_CONSTANT_MACROS -D__STDC_FORMAT_MACROS -DCOMPONENT_BUILD -DNDEBUG -DNVALGRIND -DDYNAMIC_ANNOTATIONS_ENABLED=0 -DBASE_IMPLEMENTATION -DGLIB_VERSION_MAX_ALLOWED=GLIB_VERSION_2_32 -DGLIB_VERSION_MIN_REQUIRED=GLIB_VERSION_2_26 -I../.. -Igen -fno-strict-aliasing --param=ssp-buffer-size=4 -fstack-protector -Wno-builtin-macro-redefined -D__DATE__= -D__TIME__= -D__TIMESTAMP__= -funwind-tables -fPIC -pthread -fcolor-diagnostics -fmerge-all-constants -Xclang -mllvm -Xclang -instcombine-lower-dbg-declare=0 -no-canonical-prefixes -m64 -march=x86-64 -Wall -Wextra -Wimplicit-fallthrough -Wthread-safety -Wno-missing-field-initializers -Wno-unused-parameter -Wno-c++11-narrowing -Wno-covered-switch-default -Wno-unneeded-internal-declaration -Wno-undefined-var-template -Wno-nonportable-include-path -Wno-user-defined-warnings -Wno-unused-lambda-capture -Wno-ignored-pragma-optimize -fno-omit-frame-pointer -g0 -fvisibility=hidden -Wheader-hygiene -Wstring-conversion -Wtautological-overlap-compare -Wno-char-subscripts -Wglobal-constructors -Wexit-time-destructors -Wexit-time-destructors -Wshadow -I/usr/include/glib-2.0 -I/usr/lib/glib-2.0/include -I/usr/lib/libffi-3.2.1/include -Wexit-time-destructors -O2 -fno-ident -fdata-sections -ffunction-sections -std=c++14 -fno-exceptions -fno-rtti -fvisibility-inlines-hidden -D_FORTIFY_SOURCE=2 -march=x86-64 -mtune=generic -O2 -pipe -fstack-protector-strong -fno-plt -c ../../base/logging.cc -o obj/base/base/logging.o
1084  [11/28/2018 03:13PM]: [158/5007] clang++ -MMD -MF obj/base/base/file_util_linux.o.d -DUSE_SYMBOLIZE -DV8_DEPRECATION_WARNINGS -DUSE_UDEV -DUSE_AURA=1 -DUSE_GLIB=1 -DUSE_NSS_CERTS=1 -DUSE_X11=1 -DFULL_SAFE_BROWSING -DSAFE_BROWSING_CSD -DSAFE_BROWSING_DB_LOCAL -DCHROMIUM_BUILD -D_FILE_OFFSET_BITS=64 -D_LARGEFILE_SOURCE -D_LARGEFILE64_SOURCE -D_GNU_SOURCE -DCR_CLANG_REVISION=\340925-1\ -D__STDC_CONSTANT_MACROS -D__STDC_FORMAT_MACROS -DCOMPONENT_BUILD -DNDEBUG -DNVALGRIND -DDYNAMIC_ANNOTATIONS_ENABLED=0 -DBASE_IMPLEMENTATION -DGLIB_VERSION_MAX_ALLOWED=GLIB_VERSION_2_32 -DGLIB_VERSION_MIN_REQUIRED=GLIB_VERSION_2_26 -I../.. -Igen -fno-strict-aliasing --param=ssp-buffer-size=4 -fstack-protector -Wno-builtin-macro-redefined -D__DATE__= -D__TIME__= -D__TIMESTAMP__= -funwind-tables -fPIC -pthread -fcolor-diagnostics -fmerge-all-constants -Xclang -mllvm -Xclang -instcombine-lower-dbg-declare=0 -no-canonical-prefixes -m64 -march=x86-64 -Wall -Wextra -Wimplicit-fallthrough -Wthread-safety -Wno-missing-field-initializers -Wno-unused-parameter -Wno-c++11-narrowing -Wno-covered-switch-default -Wno-unneeded-internal-declaration -Wno-undefined-var-template -Wno-nonportable-include-path -Wno-user-defined-warnings -Wno-unused-lambda-capture -Wno-ignored-pragma-optimize -fno-omit-frame-pointer -g0 -fvisibility=hidden -Wheader-hygiene -Wstring-conversion -Wtautological-overlap-compare -Wno-char-subscripts -Wglobal-constructors -Wexit-time-destructors -Wexit-time-destructors -Wshadow -I/usr/include/glib-2.0 -I/usr/lib/glib-2.0/include -I/usr/lib/libffi-3.2.1/include -Wexit-time-destructors -O2 -fno-ident -fdata-sections -ffunction-sections -std=c++14 -fno-exceptions -fno-rtti -fvisibility-inlines-hidden -D_FORTIFY_SOURCE=2 -march=x86-64 -mtune=generic -O2 -pipe -fstack-protector-strong -fno-plt -c ../../base/files/file_util_linux.cc -o obj/base/base/file_util_linux.o
1085  [11/28/2018 03:13PM]: [159/5007] clang++ -MMD -MF obj/base/base/file_util.o.d -DUSE_SYMBOLIZE -DV8_DEPRECATION_WARNINGS -DUSE_UDEV -DUSE_AURA=1 -DUSE_GLIB=1 -DUSE_NSS_CERTS=1 -DUSE_X11=1 -DFULL_SAFE_BROWSING -DSAFE_BROWSING_CSD -DSAFE_BROWSING_DB_LOCAL -DCHROMIUM_BUILD -D_FILE_OFFSET_BITS=64 -D_LARGEFILE_SOURCE -D_LARGEFILE64_SOURCE -D_GNU_SOURCE -DCR_CLANG_REVISION=\340925-1\ -D__STDC_CONSTANT_MACROS -D__STDC_FORMAT_MACROS -DCOMPONENT_BUILD -DNDEBUG -DNVALGRIND -DDYNAMIC_ANNOTATIONS_ENABLED=0 -DBASE_IMPLEMENTATION -DGLIB_VERSION_MAX_ALLOWED=GLIB_VERSION_2_32 -DGLIB_VERSION_MIN_REQUIRED=GLIB_VERSION_2_26 -I../.. -Igen -fno-strict-aliasing --param=ssp-buffer-size=4 -fstack-protector -Wno-builtin-macro-redefined -D__DATE__= -D__TIME__= -D__TIMESTAMP__= -funwind-tables -fPIC -pthread -fcolor-diagnostics -fmerge-all-constants -Xclang -mllvm -Xclang -instcombine-lower-dbg-declare=0 -no-canonical-prefixes -m64 -march=x86-64 -Wall -Wextra -Wimplicit-fallthrough -Wthread-safety -Wno-missing-field-initializers -Wno-unused-parameter -Wno-c++11-narrowing -Wno-covered-switch-default -Wno-unneeded-internal-declaration -Wno-undefined-var-template -Wno-nonportable-include-path -Wno-user-defined-warnings -Wno-unused-lambda-capture -Wno-ignored-pragma-optimize -fno-omit-frame-pointer -g0 -fvisibility=hidden -Wheader-hygiene -Wstring-conversion -Wtautological-overlap-compare -Wno-char-subscripts -Wglobal-constructors -Wexit-time-destructors -Wexit-time-destructors -Wshadow -I/usr/include/glib-2.0 -I/usr/lib/glib-2.0/include -I/usr/lib/libffi-3.2.1/include -Wexit-time-destructors -O2 -fno-ident -fdata-sections -ffunction-sections -std=c++14 -fno-exceptions -fno-rtti -fvisibility-inlines-hidden -D_FORTIFY_SOURCE=2 -march=x86-64 -mtune=generic -O2 -pipe -fstack-protector-strong -fno-plt -c ../../base/files/file_util.cc -o obj/base/base/file_util.o
1086  [11/28/2018 03:13PM]: [160/5007] clang++ -MMD -MF obj/base/base/scoped_file.o.d -DUSE_SYMBOLIZE -DV8_DEPRECATION_WARNINGS -DUSE_UDEV -DUSE_AURA=1 -DUSE_GLIB=1 -DUSE_NSS_CERTS=1 -DUSE_X11=1 -DFULL_SAFE_BROWSING -DSAFE_BROWSING_CSD -DSAFE_BROWSING_DB_LOCAL -DCHROMIUM_BUILD -D_FILE_OFFSET_BITS=64 -D_LARGEFILE_SOURCE -D_LARGEFILE64_SOURCE -D_GNU_SOURCE -DCR_CLANG_REVISION=\340925-1\ -D__STDC_CONSTANT_MACROS -D__STDC_FORMAT_MACROS -DCOMPONENT_BUILD -DNDEBUG -DNVALGRIND -DDYNAMIC_ANNOTATIONS_ENABLED=0 -DBASE_IMPLEMENTATION -DGLIB_VERSION_MAX_ALLOWED=GLIB_VERSION_2_32 -DGLIB_VERSION_MIN_REQUIRED=GLIB_VERSION_2_26 -I../.. -Igen -fno-strict-aliasing --param=ssp-buffer-size=4 -fstack-protector -Wno-builtin-macro-redefined -D__DATE__= -D__TIME__= -D__TIMESTAMP__= -funwind-tables -fPIC -pthread -fcolor-diagnostics -fmerge-all-constants -Xclang -mllvm -Xclang -instcombine-lower-dbg-declare=0 -no-canonical-prefixes -m64 -march=x86-64 -Wall -Wextra -Wimplicit-fallthrough -Wthread-safety -Wno-missing-field-initializers -Wno-unused-parameter -Wno-c++11-narrowing -Wno-covered-switch-default -Wno-unneeded-internal-declaration -Wno-undefined-var-template -Wno-nonportable-include-path -Wno-user-defined-warnings -Wno-unused-lambda-capture -Wno-ignored-pragma-optimize -fno-omit-frame-pointer -g0 -fvisibility=hidden -Wheader-hygiene -Wstring-conversion -Wtautological-overlap-compare -Wno-char-subscripts -Wglobal-constructors -Wexit-time-destructors -Wexit-time-destructors -Wshadow -I/usr/include/glib-2.0 -I/usr/lib/glib-2.0/include -I/usr/lib/libffi-3.2.1/include -Wexit-time-destructors -O2 -fno-ident -fdata-sections -ffunction-sections -std=c++14 -fno-exceptions -fno-rtti -fvisibility-inlines-hidden -D_FORTIFY_SOURCE=2 -march=x86-64 -mtune=generic -O2 -pipe -fstack-protector-strong -fno-plt -c ../../base/files/scoped_file.cc -o obj/base/base/scoped_file.o
1087  [11/28/2018 03:13PM]: [161/5007] clang++ -MMD -MF obj/base/base/file_proxy.o.d -DUSE_SYMBOLIZE -DV8_DEPRECATION_WARNINGS -DUSE_UDEV -DUSE_AURA=1 -DUSE_GLIB=1 -DUSE_NSS_CERTS=1 -DUSE_X11=1 -DFULL_SAFE_BROWSING -DSAFE_BROWSING_CSD -DSAFE_BROWSING_DB_LOCAL -DCHROMIUM_BUILD -D_FILE_OFFSET_BITS=64 -D_LARGEFILE_SOURCE -D_LARGEFILE64_SOURCE -D_GNU_SOURCE -DCR_CLANG_REVISION=\340925-1\ -D__STDC_CONSTANT_MACROS -D__STDC_FORMAT_MACROS -DCOMPONENT_BUILD -DNDEBUG -DNVALGRIND -DDYNAMIC_ANNOTATIONS_ENABLED=0 -DBASE_IMPLEMENTATION -DGLIB_VERSION_MAX_ALLOWED=GLIB_VERSION_2_32 -DGLIB_VERSION_MIN_REQUIRED=GLIB_VERSION_2_26 -I../.. -Igen -fno-strict-aliasing --param=ssp-buffer-size=4 -fstack-protector -Wno-builtin-macro-redefined -D__DATE__= -D__TIME__= -D__TIMESTAMP__= -funwind-tables -fPIC -pthread -fcolor-diagnostics -fmerge-all-constants -Xclang -mllvm -Xclang -instcombine-lower-dbg-declare=0 -no-canonical-prefixes -m64 -march=x86-64 -Wall -Wextra -Wimplicit-fallthrough -Wthread-safety -Wno-missing-field-initializers -Wno-unused-parameter -Wno-c++11-narrowing -Wno-covered-switch-default -Wno-unneeded-internal-declaration -Wno-undefined-var-template -Wno-nonportable-include-path -Wno-user-defined-warnings -Wno-unused-lambda-capture -Wno-ignored-pragma-optimize -fno-omit-frame-pointer -g0 -fvisibility=hidden -Wheader-hygiene -Wstring-conversion -Wtautological-overlap-compare -Wno-char-subscripts -Wglobal-constructors -Wexit-time-destructors -Wexit-time-destructors -Wshadow -I/usr/include/glib-2.0 -I/usr/lib/glib-2.0/include -I/usr/lib/libffi-3.2.1/include -Wexit-time-destructors -O2 -fno-ident -fdata-sections -ffunction-sections -std=c++14 -fno-exceptions -fno-rtti -fvisibility-inlines-hidden -D_FORTIFY_SOURCE=2 -march=x86-64 -mtune=generic -O2 -pipe -fstack-protector-strong -fno-plt -c ../../base/files/file_proxy.cc -o obj/base/base/file_proxy.o
1088  [11/28/2018 03:13PM]: [162/5007] clang++ -MMD -MF obj/base/base/memory_mapped_file.o.d -DUSE_SYMBOLIZE -DV8_DEPRECATION_WARNINGS -DUSE_UDEV -DUSE_AURA=1 -DUSE_GLIB=1 -DUSE_NSS_CERTS=1 -DUSE_X11=1 -DFULL_SAFE_BROWSING -DSAFE_BROWSING_CSD -DSAFE_BROWSING_DB_LOCAL -DCHROMIUM_BUILD -D_FILE_OFFSET_BITS=64 -D_LARGEFILE_SOURCE -D_LARGEFILE64_SOURCE -D_GNU_SOURCE -DCR_CLANG_REVISION=\340925-1\ -D__STDC_CONSTANT_MACROS -D__STDC_FORMAT_MACROS -DCOMPONENT_BUILD -DNDEBUG -DNVALGRIND -DDYNAMIC_ANNOTATIONS_ENABLED=0 -DBASE_IMPLEMENTATION -DGLIB_VERSION_MAX_ALLOWED=GLIB_VERSION_2_32 -DGLIB_VERSION_MIN_REQUIRED=GLIB_VERSION_2_26 -I../.. -Igen -fno-strict-aliasing --param=ssp-buffer-size=4 -fstack-protector -Wno-builtin-macro-redefined -D__DATE__= -D__TIME__= -D__TIMESTAMP__= -funwind-tables -fPIC -pthread -fcolor-diagnostics -fmerge-all-constants -Xclang -mllvm -Xclang -instcombine-lower-dbg-declare=0 -no-canonical-prefixes -m64 -march=x86-64 -Wall -Wextra -Wimplicit-fallthrough -Wthread-safety -Wno-missing-field-initializers -Wno-unused-parameter -Wno-c++11-narrowing -Wno-covered-switch-default -Wno-unneeded-internal-declaration -Wno-undefined-var-template -Wno-nonportable-include-path -Wno-user-defined-warnings -Wno-unused-lambda-capture -Wno-ignored-pragma-optimize -fno-omit-frame-pointer -g0 -fvisibility=hidden -Wheader-hygiene -Wstring-conversion -Wtautological-overlap-compare -Wno-char-subscripts -Wglobal-constructors -Wexit-time-destructors -Wexit-time-destructors -Wshadow -I/usr/include/glib-2.0 -I/usr/lib/glib-2.0/include -I/usr/lib/libffi-3.2.1/include -Wexit-time-destructors -O2 -fno-ident -fdata-sections -ffunction-sections -std=c++14 -fno-exceptions -fno-rtti -fvisibility-inlines-hidden -D_FORTIFY_SOURCE=2 -march=x86-64 -mtune=generic -O2 -pipe -fstack-protector-strong -fno-plt -c ../../base/files/memory_mapped_file.cc -o obj/base/base/memory_mapped_file.o
1089  [11/28/2018 03:13PM]: [163/5007] clang++ -MMD -MF obj/base/base/scoped_temp_dir.o.d -DUSE_SYMBOLIZE -DV8_DEPRECATION_WARNINGS -DUSE_UDEV -DUSE_AURA=1 -DUSE_GLIB=1 -DUSE_NSS_CERTS=1 -DUSE_X11=1 -DFULL_SAFE_BROWSING -DSAFE_BROWSING_CSD -DSAFE_BROWSING_DB_LOCAL -DCHROMIUM_BUILD -D_FILE_OFFSET_BITS=64 -D_LARGEFILE_SOURCE -D_LARGEFILE64_SOURCE -D_GNU_SOURCE -DCR_CLANG_REVISION=\340925-1\ -D__STDC_CONSTANT_MACROS -D__STDC_FORMAT_MACROS -DCOMPONENT_BUILD -DNDEBUG -DNVALGRIND -DDYNAMIC_ANNOTATIONS_ENABLED=0 -DBASE_IMPLEMENTATION -DGLIB_VERSION_MAX_ALLOWED=GLIB_VERSION_2_32 -DGLIB_VERSION_MIN_REQUIRED=GLIB_VERSION_2_26 -I../.. -Igen -fno-strict-aliasing --param=ssp-buffer-size=4 -fstack-protector -Wno-builtin-macro-redefined -D__DATE__= -D__TIME__= -D__TIMESTAMP__= -funwind-tables -fPIC -pthread -fcolor-diagnostics -fmerge-all-constants -Xclang -mllvm -Xclang -instcombine-lower-dbg-declare=0 -no-canonical-prefixes -m64 -march=x86-64 -Wall -Wextra -Wimplicit-fallthrough -Wthread-safety -Wno-missing-field-initializers -Wno-unused-parameter -Wno-c++11-narrowing -Wno-covered-switch-default -Wno-unneeded-internal-declaration -Wno-undefined-var-template -Wno-nonportable-include-path -Wno-user-defined-warnings -Wno-unused-lambda-capture -Wno-ignored-pragma-optimize -fno-omit-frame-pointer -g0 -fvisibility=hidden -Wheader-hygiene -Wstring-conversion -Wtautological-overlap-compare -Wno-char-subscripts -Wglobal-constructors -Wexit-time-destructors -Wexit-time-destructors -Wshadow -I/usr/include/glib-2.0 -I/usr/lib/glib-2.0/include -I/usr/lib/libffi-3.2.1/include -Wexit-time-destructors -O2 -fno-ident -fdata-sections -ffunction-sections -std=c++14 -fno-exceptions -fno-rtti -fvisibility-inlines-hidden -D_FORTIFY_SOURCE=2 -march=x86-64 -mtune=generic -O2 -pipe -fstack-protector-strong -fno-plt -c ../../base/files/scoped_temp_dir.cc -o obj/base/base/scoped_temp_dir.o
1090  [11/28/2018 03:13PM]: [164/5007] clang++ -MMD -MF obj/base/base/file_path_watcher_linux.o.d -DUSE_SYMBOLIZE -DV8_DEPRECATION_WARNINGS -DUSE_UDEV -DUSE_AURA=1 -DUSE_GLIB=1 -DUSE_NSS_CERTS=1 -DUSE_X11=1 -DFULL_SAFE_BROWSING -DSAFE_BROWSING_CSD -DSAFE_BROWSING_DB_LOCAL -DCHROMIUM_BUILD -D_FILE_OFFSET_BITS=64 -D_LARGEFILE_SOURCE -D_LARGEFILE64_SOURCE -D_GNU_SOURCE -DCR_CLANG_REVISION=\340925-1\ -D__STDC_CONSTANT_MACROS -D__STDC_FORMAT_MACROS -DCOMPONENT_BUILD -DNDEBUG -DNVALGRIND -DDYNAMIC_ANNOTATIONS_ENABLED=0 -DBASE_IMPLEMENTATION -DGLIB_VERSION_MAX_ALLOWED=GLIB_VERSION_2_32 -DGLIB_VERSION_MIN_REQUIRED=GLIB_VERSION_2_26 -I../.. -Igen -fno-strict-aliasing --param=ssp-buffer-size=4 -fstack-protector -Wno-builtin-macro-redefined -D__DATE__= -D__TIME__= -D__TIMESTAMP__= -funwind-tables -fPIC -pthread -fcolor-diagnostics -fmerge-all-constants -Xclang -mllvm -Xclang -instcombine-lower-dbg-declare=0 -no-canonical-prefixes -m64 -march=x86-64 -Wall -Wextra -Wimplicit-fallthrough -Wthread-safety -Wno-missing-field-initializers -Wno-unused-parameter -Wno-c++11-narrowing -Wno-covered-switch-default -Wno-unneeded-internal-declaration -Wno-undefined-var-template -Wno-nonportable-include-path -Wno-user-defined-warnings -Wno-unused-lambda-capture -Wno-ignored-pragma-optimize -fno-omit-frame-pointer -g0 -fvisibility=hidden -Wheader-hygiene -Wstring-conversion -Wtautological-overlap-compare -Wno-char-subscripts -Wglobal-constructors -Wexit-time-destructors -Wexit-time-destructors -Wshadow -I/usr/include/glib-2.0 -I/usr/lib/glib-2.0/include -I/usr/lib/libffi-3.2.1/include -Wexit-time-destructors -O2 -fno-ident -fdata-sections -ffunction-sections -std=c++14 -fno-exceptions -fno-rtti -fvisibility-inlines-hidden -D_FORTIFY_SOURCE=2 -march=x86-64 -mtune=generic -O2 -pipe -fstack-protector-strong -fno-plt -c ../../base/files/file_path_watcher_linux.cc -o obj/base/base/file_path_watcher_linux.o
1091  [11/28/2018 03:13PM]: [165/5007] clang++ -MMD -MF obj/base/base/profiler.o.d -DUSE_SYMBOLIZE -DV8_DEPRECATION_WARNINGS -DUSE_UDEV -DUSE_AURA=1 -DUSE_GLIB=1 -DUSE_NSS_CERTS=1 -DUSE_X11=1 -DFULL_SAFE_BROWSING -DSAFE_BROWSING_CSD -DSAFE_BROWSING_DB_LOCAL -DCHROMIUM_BUILD -D_FILE_OFFSET_BITS=64 -D_LARGEFILE_SOURCE -D_LARGEFILE64_SOURCE -D_GNU_SOURCE -DCR_CLANG_REVISION=\340925-1\ -D__STDC_CONSTANT_MACROS -D__STDC_FORMAT_MACROS -DCOMPONENT_BUILD -DNDEBUG -DNVALGRIND -DDYNAMIC_ANNOTATIONS_ENABLED=0 -DBASE_IMPLEMENTATION -DGLIB_VERSION_MAX_ALLOWED=GLIB_VERSION_2_32 -DGLIB_VERSION_MIN_REQUIRED=GLIB_VERSION_2_26 -I../.. -Igen -fno-strict-aliasing --param=ssp-buffer-size=4 -fstack-protector -Wno-builtin-macro-redefined -D__DATE__= -D__TIME__= -D__TIMESTAMP__= -funwind-tables -fPIC -pthread -fcolor-diagnostics -fmerge-all-constants -Xclang -mllvm -Xclang -instcombine-lower-dbg-declare=0 -no-canonical-prefixes -m64 -march=x86-64 -Wall -Wextra -Wimplicit-fallthrough -Wthread-safety -Wno-missing-field-initializers -Wno-unused-parameter -Wno-c++11-narrowing -Wno-covered-switch-default -Wno-unneeded-internal-declaration -Wno-undefined-var-template -Wno-nonportable-include-path -Wno-user-defined-warnings -Wno-unused-lambda-capture -Wno-ignored-pragma-optimize -fno-omit-frame-pointer -g0 -fvisibility=hidden -Wheader-hygiene -Wstring-conversion -Wtautological-overlap-compare -Wno-char-subscripts -Wglobal-constructors -Wexit-time-destructors -Wexit-time-destructors -Wshadow -I/usr/include/glib-2.0 -I/usr/lib/glib-2.0/include -I/usr/lib/libffi-3.2.1/include -Wexit-time-destructors -O2 -fno-ident -fdata-sections -ffunction-sections -std=c++14 -fno-exceptions -fno-rtti -fvisibility-inlines-hidden -D_FORTIFY_SOURCE=2 -march=x86-64 -mtune=generic -O2 -pipe -fstack-protector-strong -fno-plt -c ../../base/debug/profiler.cc -o obj/base/base/profiler.o
1092  [11/28/2018 03:13PM]: [166/5007] clang++ -MMD -MF obj/base/base/proc_maps_linux.o.d -DUSE_SYMBOLIZE -DV8_DEPRECATION_WARNINGS -DUSE_UDEV -DUSE_AURA=1 -DUSE_GLIB=1 -DUSE_NSS_CERTS=1 -DUSE_X11=1 -DFULL_SAFE_BROWSING -DSAFE_BROWSING_CSD -DSAFE_BROWSING_DB_LOCAL -DCHROMIUM_BUILD -D_FILE_OFFSET_BITS=64 -D_LARGEFILE_SOURCE -D_LARGEFILE64_SOURCE -D_GNU_SOURCE -DCR_CLANG_REVISION=\340925-1\ -D__STDC_CONSTANT_MACROS -D__STDC_FORMAT_MACROS -DCOMPONENT_BUILD -DNDEBUG -DNVALGRIND -DDYNAMIC_ANNOTATIONS_ENABLED=0 -DBASE_IMPLEMENTATION -DGLIB_VERSION_MAX_ALLOWED=GLIB_VERSION_2_32 -DGLIB_VERSION_MIN_REQUIRED=GLIB_VERSION_2_26 -I../.. -Igen -fno-strict-aliasing --param=ssp-buffer-size=4 -fstack-protector -Wno-builtin-macro-redefined -D__DATE__= -D__TIME__= -D__TIMESTAMP__= -funwind-tables -fPIC -pthread -fcolor-diagnostics -fmerge-all-constants -Xclang -mllvm -Xclang -instcombine-lower-dbg-declare=0 -no-canonical-prefixes -m64 -march=x86-64 -Wall -Wextra -Wimplicit-fallthrough -Wthread-safety -Wno-missing-field-initializers -Wno-unused-parameter -Wno-c++11-narrowing -Wno-covered-switch-default -Wno-unneeded-internal-declaration -Wno-undefined-var-template -Wno-nonportable-include-path -Wno-user-defined-warnings -Wno-unused-lambda-capture -Wno-ignored-pragma-optimize -fno-omit-frame-pointer -g0 -fvisibility=hidden -Wheader-hygiene -Wstring-conversion -Wtautological-overlap-compare -Wno-char-subscripts -Wglobal-constructors -Wexit-time-destructors -Wexit-time-destructors -Wshadow -I/usr/include/glib-2.0 -I/usr/lib/glib-2.0/include -I/usr/lib/libffi-3.2.1/include -Wexit-time-destructors -O2 -fno-ident -fdata-sections -ffunction-sections -std=c++14 -fno-exceptions -fno-rtti -fvisibility-inlines-hidden -D_FORTIFY_SOURCE=2 -march=x86-64 -mtune=generic -O2 -pipe -fstack-protector-strong -fno-plt -c ../../base/debug/proc_maps_linux.cc -o obj/base/base/proc_maps_linux.o
1093  [11/28/2018 03:13PM]: [167/5007] clang++ -MMD -MF obj/base/base/discardable_memory.o.d -DUSE_SYMBOLIZE -DV8_DEPRECATION_WARNINGS -DUSE_UDEV -DUSE_AURA=1 -DUSE_GLIB=1 -DUSE_NSS_CERTS=1 -DUSE_X11=1 -DFULL_SAFE_BROWSING -DSAFE_BROWSING_CSD -DSAFE_BROWSING_DB_LOCAL -DCHROMIUM_BUILD -D_FILE_OFFSET_BITS=64 -D_LARGEFILE_SOURCE -D_LARGEFILE64_SOURCE -D_GNU_SOURCE -DCR_CLANG_REVISION=\340925-1\ -D__STDC_CONSTANT_MACROS -D__STDC_FORMAT_MACROS -DCOMPONENT_BUILD -DNDEBUG -DNVALGRIND -DDYNAMIC_ANNOTATIONS_ENABLED=0 -DBASE_IMPLEMENTATION -DGLIB_VERSION_MAX_ALLOWED=GLIB_VERSION_2_32 -DGLIB_VERSION_MIN_REQUIRED=GLIB_VERSION_2_26 -I../.. -Igen -fno-strict-aliasing --param=ssp-buffer-size=4 -fstack-protector -Wno-builtin-macro-redefined -D__DATE__= -D__TIME__= -D__TIMESTAMP__= -funwind-tables -fPIC -pthread -fcolor-diagnostics -fmerge-all-constants -Xclang -mllvm -Xclang -instcombine-lower-dbg-declare=0 -no-canonical-prefixes -m64 -march=x86-64 -Wall -Wextra -Wimplicit-fallthrough -Wthread-safety -Wno-missing-field-initializers -Wno-unused-parameter -Wno-c++11-narrowing -Wno-covered-switch-default -Wno-unneeded-internal-declaration -Wno-undefined-var-template -Wno-nonportable-include-path -Wno-user-defined-warnings -Wno-unused-lambda-capture -Wno-ignored-pragma-optimize -fno-omit-frame-pointer -g0 -fvisibility=hidden -Wheader-hygiene -Wstring-conversion -Wtautological-overlap-compare -Wno-char-subscripts -Wglobal-constructors -Wexit-time-destructors -Wexit-time-destructors -Wshadow -I/usr/include/glib-2.0 -I/usr/lib/glib-2.0/include -I/usr/lib/libffi-3.2.1/include -Wexit-time-destructors -O2 -fno-ident -fdata-sections -ffunction-sections -std=c++14 -fno-exceptions -fno-rtti -fvisibility-inlines-hidden -D_FORTIFY_SOURCE=2 -march=x86-64 -mtune=generic -O2 -pipe -fstack-protector-strong -fno-plt -c ../../base/memory/discardable_memory.cc -o obj/base/base/discardable_memory.o
1094  [11/28/2018 03:13PM]: [168/5007] clang++ -MMD -MF obj/base/base/important_file_writer.o.d -DUSE_SYMBOLIZE -DV8_DEPRECATION_WARNINGS -DUSE_UDEV -DUSE_AURA=1 -DUSE_GLIB=1 -DUSE_NSS_CERTS=1 -DUSE_X11=1 -DFULL_SAFE_BROWSING -DSAFE_BROWSING_CSD -DSAFE_BROWSING_DB_LOCAL -DCHROMIUM_BUILD -D_FILE_OFFSET_BITS=64 -D_LARGEFILE_SOURCE -D_LARGEFILE64_SOURCE -D_GNU_SOURCE -DCR_CLANG_REVISION=\340925-1\ -D__STDC_CONSTANT_MACROS -D__STDC_FORMAT_MACROS -DCOMPONENT_BUILD -DNDEBUG -DNVALGRIND -DDYNAMIC_ANNOTATIONS_ENABLED=0 -DBASE_IMPLEMENTATION -DGLIB_VERSION_MAX_ALLOWED=GLIB_VERSION_2_32 -DGLIB_VERSION_MIN_REQUIRED=GLIB_VERSION_2_26 -I../.. -Igen -fno-strict-aliasing --param=ssp-buffer-size=4 -fstack-protector -Wno-builtin-macro-redefined -D__DATE__= -D__TIME__= -D__TIMESTAMP__= -funwind-tables -fPIC -pthread -fcolor-diagnostics -fmerge-all-constants -Xclang -mllvm -Xclang -instcombine-lower-dbg-declare=0 -no-canonical-prefixes -m64 -march=x86-64 -Wall -Wextra -Wimplicit-fallthrough -Wthread-safety -Wno-missing-field-initializers -Wno-unused-parameter -Wno-c++11-narrowing -Wno-covered-switch-default -Wno-unneeded-internal-declaration -Wno-undefined-var-template -Wno-nonportable-include-path -Wno-user-defined-warnings -Wno-unused-lambda-capture -Wno-ignored-pragma-optimize -fno-omit-frame-pointer -g0 -fvisibility=hidden -Wheader-hygiene -Wstring-conversion -Wtautological-overlap-compare -Wno-char-subscripts -Wglobal-constructors -Wexit-time-destructors -Wexit-time-destructors -Wshadow -I/usr/include/glib-2.0 -I/usr/lib/glib-2.0/include -I/usr/lib/libffi-3.2.1/include -Wexit-time-destructors -O2 -fno-ident -fdata-sections -ffunction-sections -std=c++14 -fno-exceptions -fno-rtti -fvisibility-inlines-hidden -D_FORTIFY_SOURCE=2 -march=x86-64 -mtune=generic -O2 -pipe -fstack-protector-strong -fno-plt -c ../../base/files/important_file_writer.cc -o obj/base/base/important_file_writer.o
1095  [11/28/2018 03:13PM]: [169/5007] clang++ -MMD -MF obj/base/base/stack_trace.o.d -DUSE_SYMBOLIZE -DV8_DEPRECATION_WARNINGS -DUSE_UDEV -DUSE_AURA=1 -DUSE_GLIB=1 -DUSE_NSS_CERTS=1 -DUSE_X11=1 -DFULL_SAFE_BROWSING -DSAFE_BROWSING_CSD -DSAFE_BROWSING_DB_LOCAL -DCHROMIUM_BUILD -D_FILE_OFFSET_BITS=64 -D_LARGEFILE_SOURCE -D_LARGEFILE64_SOURCE -D_GNU_SOURCE -DCR_CLANG_REVISION=\340925-1\ -D__STDC_CONSTANT_MACROS -D__STDC_FORMAT_MACROS -DCOMPONENT_BUILD -DNDEBUG -DNVALGRIND -DDYNAMIC_ANNOTATIONS_ENABLED=0 -DBASE_IMPLEMENTATION -DGLIB_VERSION_MAX_ALLOWED=GLIB_VERSION_2_32 -DGLIB_VERSION_MIN_REQUIRED=GLIB_VERSION_2_26 -I../.. -Igen -fno-strict-aliasing --param=ssp-buffer-size=4 -fstack-protector -Wno-builtin-macro-redefined -D__DATE__= -D__TIME__= -D__TIMESTAMP__= -funwind-tables -fPIC -pthread -fcolor-diagnostics -fmerge-all-constants -Xclang -mllvm -Xclang -instcombine-lower-dbg-declare=0 -no-canonical-prefixes -m64 -march=x86-64 -Wall -Wextra -Wimplicit-fallthrough -Wthread-safety -Wno-missing-field-initializers -Wno-unused-parameter -Wno-c++11-narrowing -Wno-covered-switch-default -Wno-unneeded-internal-declaration -Wno-undefined-var-template -Wno-nonportable-include-path -Wno-user-defined-warnings -Wno-unused-lambda-capture -Wno-ignored-pragma-optimize -fno-omit-frame-pointer -g0 -fvisibility=hidden -Wheader-hygiene -Wstring-conversion -Wtautological-overlap-compare -Wno-char-subscripts -Wglobal-constructors -Wexit-time-destructors -Wexit-time-destructors -Wshadow -I/usr/include/glib-2.0 -I/usr/lib/glib-2.0/include -I/usr/lib/libffi-3.2.1/include -Wexit-time-destructors -O2 -fno-ident -fdata-sections -ffunction-sections -std=c++14 -fno-exceptions -fno-rtti -fvisibility-inlines-hidden -D_FORTIFY_SOURCE=2 -march=x86-64 -mtune=generic -O2 -pipe -fstack-protector-strong -fno-plt -c ../../base/debug/stack_trace.cc -o obj/base/base/stack_trace.o
1096  [11/28/2018 03:13PM]: [170/5007] clang++ -MMD -MF obj/base/base/thread_heap_usage_tracker.o.d -DUSE_SYMBOLIZE -DV8_DEPRECATION_WARNINGS -DUSE_UDEV -DUSE_AURA=1 -DUSE_GLIB=1 -DUSE_NSS_CERTS=1 -DUSE_X11=1 -DFULL_SAFE_BROWSING -DSAFE_BROWSING_CSD -DSAFE_BROWSING_DB_LOCAL -DCHROMIUM_BUILD -D_FILE_OFFSET_BITS=64 -D_LARGEFILE_SOURCE -D_LARGEFILE64_SOURCE -D_GNU_SOURCE -DCR_CLANG_REVISION=\340925-1\ -D__STDC_CONSTANT_MACROS -D__STDC_FORMAT_MACROS -DCOMPONENT_BUILD -DNDEBUG -DNVALGRIND -DDYNAMIC_ANNOTATIONS_ENABLED=0 -DBASE_IMPLEMENTATION -DGLIB_VERSION_MAX_ALLOWED=GLIB_VERSION_2_32 -DGLIB_VERSION_MIN_REQUIRED=GLIB_VERSION_2_26 -I../.. -Igen -fno-strict-aliasing --param=ssp-buffer-size=4 -fstack-protector -Wno-builtin-macro-redefined -D__DATE__= -D__TIME__= -D__TIMESTAMP__= -funwind-tables -fPIC -pthread -fcolor-diagnostics -fmerge-all-constants -Xclang -mllvm -Xclang -instcombine-lower-dbg-declare=0 -no-canonical-prefixes -m64 -march=x86-64 -Wall -Wextra -Wimplicit-fallthrough -Wthread-safety -Wno-missing-field-initializers -Wno-unused-parameter -Wno-c++11-narrowing -Wno-covered-switch-default -Wno-unneeded-internal-declaration -Wno-undefined-var-template -Wno-nonportable-include-path -Wno-user-defined-warnings -Wno-unused-lambda-capture -Wno-ignored-pragma-optimize -fno-omit-frame-pointer -g0 -fvisibility=hidden -Wheader-hygiene -Wstring-conversion -Wtautological-overlap-compare -Wno-char-subscripts -Wglobal-constructors -Wexit-time-destructors -Wexit-time-destructors -Wshadow -I/usr/include/glib-2.0 -I/usr/lib/glib-2.0/include -I/usr/lib/libffi-3.2.1/include -Wexit-time-destructors -O2 -fno-ident -fdata-sections -ffunction-sections -std=c++14 -fno-exceptions -fno-rtti -fvisibility-inlines-hidden -D_FORTIFY_SOURCE=2 -march=x86-64 -mtune=generic -O2 -pipe -fstack-protector-strong -fno-plt -c ../../base/debug/thread_heap_usage_tracker.cc -o obj/base/base/thread_heap_usage_tracker.o
1097  [11/28/2018 03:13PM]: [171/5007] clang++ -MMD -MF obj/base/base/deferred_sequenced_task_runner.o.d -DUSE_SYMBOLIZE -DV8_DEPRECATION_WARNINGS -DUSE_UDEV -DUSE_AURA=1 -DUSE_GLIB=1 -DUSE_NSS_CERTS=1 -DUSE_X11=1 -DFULL_SAFE_BROWSING -DSAFE_BROWSING_CSD -DSAFE_BROWSING_DB_LOCAL -DCHROMIUM_BUILD -D_FILE_OFFSET_BITS=64 -D_LARGEFILE_SOURCE -D_LARGEFILE64_SOURCE -D_GNU_SOURCE -DCR_CLANG_REVISION=\340925-1\ -D__STDC_CONSTANT_MACROS -D__STDC_FORMAT_MACROS -DCOMPONENT_BUILD -DNDEBUG -DNVALGRIND -DDYNAMIC_ANNOTATIONS_ENABLED=0 -DBASE_IMPLEMENTATION -DGLIB_VERSION_MAX_ALLOWED=GLIB_VERSION_2_32 -DGLIB_VERSION_MIN_REQUIRED=GLIB_VERSION_2_26 -I../.. -Igen -fno-strict-aliasing --param=ssp-buffer-size=4 -fstack-protector -Wno-builtin-macro-redefined -D__DATE__= -D__TIME__= -D__TIMESTAMP__= -funwind-tables -fPIC -pthread -fcolor-diagnostics -fmerge-all-constants -Xclang -mllvm -Xclang -instcombine-lower-dbg-declare=0 -no-canonical-prefixes -m64 -march=x86-64 -Wall -Wextra -Wimplicit-fallthrough -Wthread-safety -Wno-missing-field-initializers -Wno-unused-parameter -Wno-c++11-narrowing -Wno-covered-switch-default -Wno-unneeded-internal-declaration -Wno-undefined-var-template -Wno-nonportable-include-path -Wno-user-defined-warnings -Wno-unused-lambda-capture -Wno-ignored-pragma-optimize -fno-omit-frame-pointer -g0 -fvisibility=hidden -Wheader-hygiene -Wstring-conversion -Wtautological-overlap-compare -Wno-char-subscripts -Wglobal-constructors -Wexit-time-destructors -Wexit-time-destructors -Wshadow -I/usr/include/glib-2.0 -I/usr/lib/glib-2.0/include -I/usr/lib/libffi-3.2.1/include -Wexit-time-destructors -O2 -fno-ident -fdata-sections -ffunction-sections -std=c++14 -fno-exceptions -fno-rtti -fvisibility-inlines-hidden -D_FORTIFY_SOURCE=2 -march=x86-64 -mtune=generic -O2 -pipe -fstack-protector-strong -fno-plt -c ../../base/deferred_sequenced_task_runner.cc -o obj/base/base/deferred_sequenced_task_runner.o
1098  [11/28/2018 03:13PM]: [172/5007] clang++ -MMD -MF obj/base/base/discardable_memory_allocator.o.d -DUSE_SYMBOLIZE -DV8_DEPRECATION_WARNINGS -DUSE_UDEV -DUSE_AURA=1 -DUSE_GLIB=1 -DUSE_NSS_CERTS=1 -DUSE_X11=1 -DFULL_SAFE_BROWSING -DSAFE_BROWSING_CSD -DSAFE_BROWSING_DB_LOCAL -DCHROMIUM_BUILD -D_FILE_OFFSET_BITS=64 -D_LARGEFILE_SOURCE -D_LARGEFILE64_SOURCE -D_GNU_SOURCE -DCR_CLANG_REVISION=\340925-1\ -D__STDC_CONSTANT_MACROS -D__STDC_FORMAT_MACROS -DCOMPONENT_BUILD -DNDEBUG -DNVALGRIND -DDYNAMIC_ANNOTATIONS_ENABLED=0 -DBASE_IMPLEMENTATION -DGLIB_VERSION_MAX_ALLOWED=GLIB_VERSION_2_32 -DGLIB_VERSION_MIN_REQUIRED=GLIB_VERSION_2_26 -I../.. -Igen -fno-strict-aliasing --param=ssp-buffer-size=4 -fstack-protector -Wno-builtin-macro-redefined -D__DATE__= -D__TIME__= -D__TIMESTAMP__= -funwind-tables -fPIC -pthread -fcolor-diagnostics -fmerge-all-constants -Xclang -mllvm -Xclang -instcombine-lower-dbg-declare=0 -no-canonical-prefixes -m64 -march=x86-64 -Wall -Wextra -Wimplicit-fallthrough -Wthread-safety -Wno-missing-field-initializers -Wno-unused-parameter -Wno-c++11-narrowing -Wno-covered-switch-default -Wno-unneeded-internal-declaration -Wno-undefined-var-template -Wno-nonportable-include-path -Wno-user-defined-warnings -Wno-unused-lambda-capture -Wno-ignored-pragma-optimize -fno-omit-frame-pointer -g0 -fvisibility=hidden -Wheader-hygiene -Wstring-conversion -Wtautological-overlap-compare -Wno-char-subscripts -Wglobal-constructors -Wexit-time-destructors -Wexit-time-destructors -Wshadow -I/usr/include/glib-2.0 -I/usr/lib/glib-2.0/include -I/usr/lib/libffi-3.2.1/include -Wexit-time-destructors -O2 -fno-ident -fdata-sections -ffunction-sections -std=c++14 -fno-exceptions -fno-rtti -fvisibility-inlines-hidden -D_FORTIFY_SOURCE=2 -march=x86-64 -mtune=generic -O2 -pipe -fstack-protector-strong -fno-plt -c ../../base/memory/discardable_memory_allocator.cc -o obj/base/base/discardable_memory_allocator.o
1099  [11/28/2018 03:13PM]: [173/5007] clang++ -MMD -MF obj/base/base/memory_coordinator_client.o.d -DUSE_SYMBOLIZE -DV8_DEPRECATION_WARNINGS -DUSE_UDEV -DUSE_AURA=1 -DUSE_GLIB=1 -DUSE_NSS_CERTS=1 -DUSE_X11=1 -DFULL_SAFE_BROWSING -DSAFE_BROWSING_CSD -DSAFE_BROWSING_DB_LOCAL -DCHROMIUM_BUILD -D_FILE_OFFSET_BITS=64 -D_LARGEFILE_SOURCE -D_LARGEFILE64_SOURCE -D_GNU_SOURCE -DCR_CLANG_REVISION=\340925-1\ -D__STDC_CONSTANT_MACROS -D__STDC_FORMAT_MACROS -DCOMPONENT_BUILD -DNDEBUG -DNVALGRIND -DDYNAMIC_ANNOTATIONS_ENABLED=0 -DBASE_IMPLEMENTATION -DGLIB_VERSION_MAX_ALLOWED=GLIB_VERSION_2_32 -DGLIB_VERSION_MIN_REQUIRED=GLIB_VERSION_2_26 -I../.. -Igen -fno-strict-aliasing --param=ssp-buffer-size=4 -fstack-protector -Wno-builtin-macro-redefined -D__DATE__= -D__TIME__= -D__TIMESTAMP__= -funwind-tables -fPIC -pthread -fcolor-diagnostics -fmerge-all-constants -Xclang -mllvm -Xclang -instcombine-lower-dbg-declare=0 -no-canonical-prefixes -m64 -march=x86-64 -Wall -Wextra -Wimplicit-fallthrough -Wthread-safety -Wno-missing-field-initializers -Wno-unused-parameter -Wno-c++11-narrowing -Wno-covered-switch-default -Wno-unneeded-internal-declaration -Wno-undefined-var-template -Wno-nonportable-include-path -Wno-user-defined-warnings -Wno-unused-lambda-capture -Wno-ignored-pragma-optimize -fno-omit-frame-pointer -g0 -fvisibility=hidden -Wheader-hygiene -Wstring-conversion -Wtautological-overlap-compare -Wno-char-subscripts -Wglobal-constructors -Wexit-time-destructors -Wexit-time-destructors -Wshadow -I/usr/include/glib-2.0 -I/usr/lib/glib-2.0/include -I/usr/lib/libffi-3.2.1/include -Wexit-time-destructors -O2 -fno-ident -fdata-sections -ffunction-sections -std=c++14 -fno-exceptions -fno-rtti -fvisibility-inlines-hidden -D_FORTIFY_SOURCE=2 -march=x86-64 -mtune=generic -O2 -pipe -fstack-protector-strong -fno-plt -c ../../base/memory/memory_coordinator_client.cc -o obj/base/base/memory_coordinator_client.o
1100  [11/28/2018 03:13PM]: [174/5007] clang++ -MMD -MF obj/base/base/task_annotator.o.d -DUSE_SYMBOLIZE -DV8_DEPRECATION_WARNINGS -DUSE_UDEV -DUSE_AURA=1 -DUSE_GLIB=1 -DUSE_NSS_CERTS=1 -DUSE_X11=1 -DFULL_SAFE_BROWSING -DSAFE_BROWSING_CSD -DSAFE_BROWSING_DB_LOCAL -DCHROMIUM_BUILD -D_FILE_OFFSET_BITS=64 -D_LARGEFILE_SOURCE -D_LARGEFILE64_SOURCE -D_GNU_SOURCE -DCR_CLANG_REVISION=\340925-1\ -D__STDC_CONSTANT_MACROS -D__STDC_FORMAT_MACROS -DCOMPONENT_BUILD -DNDEBUG -DNVALGRIND -DDYNAMIC_ANNOTATIONS_ENABLED=0 -DBASE_IMPLEMENTATION -DGLIB_VERSION_MAX_ALLOWED=GLIB_VERSION_2_32 -DGLIB_VERSION_MIN_REQUIRED=GLIB_VERSION_2_26 -I../.. -Igen -fno-strict-aliasing --param=ssp-buffer-size=4 -fstack-protector -Wno-builtin-macro-redefined -D__DATE__= -D__TIME__= -D__TIMESTAMP__= -funwind-tables -fPIC -pthread -fcolor-diagnostics -fmerge-all-constants -Xclang -mllvm -Xclang -instcombine-lower-dbg-declare=0 -no-canonical-prefixes -m64 -march=x86-64 -Wall -Wextra -Wimplicit-fallthrough -Wthread-safety -Wno-missing-field-initializers -Wno-unused-parameter -Wno-c++11-narrowing -Wno-covered-switch-default -Wno-unneeded-internal-declaration -Wno-undefined-var-template -Wno-nonportable-include-path -Wno-user-defined-warnings -Wno-unused-lambda-capture -Wno-ignored-pragma-optimize -fno-omit-frame-pointer -g0 -fvisibility=hidden -Wheader-hygiene -Wstring-conversion -Wtautological-overlap-compare -Wno-char-subscripts -Wglobal-constructors -Wexit-time-destructors -Wexit-time-destructors -Wshadow -I/usr/include/glib-2.0 -I/usr/lib/glib-2.0/include -I/usr/lib/libffi-3.2.1/include -Wexit-time-destructors -O2 -fno-ident -fdata-sections -ffunction-sections -std=c++14 -fno-exceptions -fno-rtti -fvisibility-inlines-hidden -D_FORTIFY_SOURCE=2 -march=x86-64 -mtune=generic -O2 -pipe -fstack-protector-strong -fno-plt -c ../../base/debug/task_annotator.cc -o obj/base/base/task_annotator.o
1101  [11/28/2018 03:13PM]: [175/5007] clang++ -MMD -MF obj/base/base/memory_coordinator_proxy.o.d -DUSE_SYMBOLIZE -DV8_DEPRECATION_WARNINGS -DUSE_UDEV -DUSE_AURA=1 -DUSE_GLIB=1 -DUSE_NSS_CERTS=1 -DUSE_X11=1 -DFULL_SAFE_BROWSING -DSAFE_BROWSING_CSD -DSAFE_BROWSING_DB_LOCAL -DCHROMIUM_BUILD -D_FILE_OFFSET_BITS=64 -D_LARGEFILE_SOURCE -D_LARGEFILE64_SOURCE -D_GNU_SOURCE -DCR_CLANG_REVISION=\340925-1\ -D__STDC_CONSTANT_MACROS -D__STDC_FORMAT_MACROS -DCOMPONENT_BUILD -DNDEBUG -DNVALGRIND -DDYNAMIC_ANNOTATIONS_ENABLED=0 -DBASE_IMPLEMENTATION -DGLIB_VERSION_MAX_ALLOWED=GLIB_VERSION_2_32 -DGLIB_VERSION_MIN_REQUIRED=GLIB_VERSION_2_26 -I../.. -Igen -fno-strict-aliasing --param=ssp-buffer-size=4 -fstack-protector -Wno-builtin-macro-redefined -D__DATE__= -D__TIME__= -D__TIMESTAMP__= -funwind-tables -fPIC -pthread -fcolor-diagnostics -fmerge-all-constants -Xclang -mllvm -Xclang -instcombine-lower-dbg-declare=0 -no-canonical-prefixes -m64 -march=x86-64 -Wall -Wextra -Wimplicit-fallthrough -Wthread-safety -Wno-missing-field-initializers -Wno-unused-parameter -Wno-c++11-narrowing -Wno-covered-switch-default -Wno-unneeded-internal-declaration -Wno-undefined-var-template -Wno-nonportable-include-path -Wno-user-defined-warnings -Wno-unused-lambda-capture -Wno-ignored-pragma-optimize -fno-omit-frame-pointer -g0 -fvisibility=hidden -Wheader-hygiene -Wstring-conversion -Wtautological-overlap-compare -Wno-char-subscripts -Wglobal-constructors -Wexit-time-destructors -Wexit-time-destructors -Wshadow -I/usr/include/glib-2.0 -I/usr/lib/glib-2.0/include -I/usr/lib/libffi-3.2.1/include -Wexit-time-destructors -O2 -fno-ident -fdata-sections -ffunction-sections -std=c++14 -fno-exceptions -fno-rtti -fvisibility-inlines-hidden -D_FORTIFY_SOURCE=2 -march=x86-64 -mtune=generic -O2 -pipe -fstack-protector-strong -fno-plt -c ../../base/memory/memory_coordinator_proxy.cc -o obj/base/base/memory_coordinator_proxy.o
1102  [11/28/2018 03:13PM]: [176/5007] clang++ -MMD -MF obj/base/base/discardable_shared_memory.o.d -DUSE_SYMBOLIZE -DV8_DEPRECATION_WARNINGS -DUSE_UDEV -DUSE_AURA=1 -DUSE_GLIB=1 -DUSE_NSS_CERTS=1 -DUSE_X11=1 -DFULL_SAFE_BROWSING -DSAFE_BROWSING_CSD -DSAFE_BROWSING_DB_LOCAL -DCHROMIUM_BUILD -D_FILE_OFFSET_BITS=64 -D_LARGEFILE_SOURCE -D_LARGEFILE64_SOURCE -D_GNU_SOURCE -DCR_CLANG_REVISION=\340925-1\ -D__STDC_CONSTANT_MACROS -D__STDC_FORMAT_MACROS -DCOMPONENT_BUILD -DNDEBUG -DNVALGRIND -DDYNAMIC_ANNOTATIONS_ENABLED=0 -DBASE_IMPLEMENTATION -DGLIB_VERSION_MAX_ALLOWED=GLIB_VERSION_2_32 -DGLIB_VERSION_MIN_REQUIRED=GLIB_VERSION_2_26 -I../.. -Igen -fno-strict-aliasing --param=ssp-buffer-size=4 -fstack-protector -Wno-builtin-macro-redefined -D__DATE__= -D__TIME__= -D__TIMESTAMP__= -funwind-tables -fPIC -pthread -fcolor-diagnostics -fmerge-all-constants -Xclang -mllvm -Xclang -instcombine-lower-dbg-declare=0 -no-canonical-prefixes -m64 -march=x86-64 -Wall -Wextra -Wimplicit-fallthrough -Wthread-safety -Wno-missing-field-initializers -Wno-unused-parameter -Wno-c++11-narrowing -Wno-covered-switch-default -Wno-unneeded-internal-declaration -Wno-undefined-var-template -Wno-nonportable-include-path -Wno-user-defined-warnings -Wno-unused-lambda-capture -Wno-ignored-pragma-optimize -fno-omit-frame-pointer -g0 -fvisibility=hidden -Wheader-hygiene -Wstring-conversion -Wtautological-overlap-compare -Wno-char-subscripts -Wglobal-constructors -Wexit-time-destructors -Wexit-time-destructors -Wshadow -I/usr/include/glib-2.0 -I/usr/lib/glib-2.0/include -I/usr/lib/libffi-3.2.1/include -Wexit-time-destructors -O2 -fno-ident -fdata-sections -ffunction-sections -std=c++14 -fno-exceptions -fno-rtti -fvisibility-inlines-hidden -D_FORTIFY_SOURCE=2 -march=x86-64 -mtune=generic -O2 -pipe -fstack-protector-strong -fno-plt -c ../../base/memory/discardable_shared_memory.cc -o obj/base/base/discardable_shared_memory.o
1103  [11/28/2018 03:13PM]: [177/5007] clang++ -MMD -MF obj/base/base/memory_pressure_monitor.o.d -DUSE_SYMBOLIZE -DV8_DEPRECATION_WARNINGS -DUSE_UDEV -DUSE_AURA=1 -DUSE_GLIB=1 -DUSE_NSS_CERTS=1 -DUSE_X11=1 -DFULL_SAFE_BROWSING -DSAFE_BROWSING_CSD -DSAFE_BROWSING_DB_LOCAL -DCHROMIUM_BUILD -D_FILE_OFFSET_BITS=64 -D_LARGEFILE_SOURCE -D_LARGEFILE64_SOURCE -D_GNU_SOURCE -DCR_CLANG_REVISION=\340925-1\ -D__STDC_CONSTANT_MACROS -D__STDC_FORMAT_MACROS -DCOMPONENT_BUILD -DNDEBUG -DNVALGRIND -DDYNAMIC_ANNOTATIONS_ENABLED=0 -DBASE_IMPLEMENTATION -DGLIB_VERSION_MAX_ALLOWED=GLIB_VERSION_2_32 -DGLIB_VERSION_MIN_REQUIRED=GLIB_VERSION_2_26 -I../.. -Igen -fno-strict-aliasing --param=ssp-buffer-size=4 -fstack-protector -Wno-builtin-macro-redefined -D__DATE__= -D__TIME__= -D__TIMESTAMP__= -funwind-tables -fPIC -pthread -fcolor-diagnostics -fmerge-all-constants -Xclang -mllvm -Xclang -instcombine-lower-dbg-declare=0 -no-canonical-prefixes -m64 -march=x86-64 -Wall -Wextra -Wimplicit-fallthrough -Wthread-safety -Wno-missing-field-initializers -Wno-unused-parameter -Wno-c++11-narrowing -Wno-covered-switch-default -Wno-unneeded-internal-declaration -Wno-undefined-var-template -Wno-nonportable-include-path -Wno-user-defined-warnings -Wno-unused-lambda-capture -Wno-ignored-pragma-optimize -fno-omit-frame-pointer -g0 -fvisibility=hidden -Wheader-hygiene -Wstring-conversion -Wtautological-overlap-compare -Wno-char-subscripts -Wglobal-constructors -Wexit-time-destructors -Wexit-time-destructors -Wshadow -I/usr/include/glib-2.0 -I/usr/lib/glib-2.0/include -I/usr/lib/libffi-3.2.1/include -Wexit-time-destructors -O2 -fno-ident -fdata-sections -ffunction-sections -std=c++14 -fno-exceptions -fno-rtti -fvisibility-inlines-hidden -D_FORTIFY_SOURCE=2 -march=x86-64 -mtune=generic -O2 -pipe -fstack-protector-strong -fno-plt -c ../../base/memory/memory_pressure_monitor.cc -o obj/base/base/memory_pressure_monitor.o
1104  [11/28/2018 03:13PM]: [178/5007] clang++ -MMD -MF obj/base/base/memory_coordinator_client_registry.o.d -DUSE_SYMBOLIZE -DV8_DEPRECATION_WARNINGS -DUSE_UDEV -DUSE_AURA=1 -DUSE_GLIB=1 -DUSE_NSS_CERTS=1 -DUSE_X11=1 -DFULL_SAFE_BROWSING -DSAFE_BROWSING_CSD -DSAFE_BROWSING_DB_LOCAL -DCHROMIUM_BUILD -D_FILE_OFFSET_BITS=64 -D_LARGEFILE_SOURCE -D_LARGEFILE64_SOURCE -D_GNU_SOURCE -DCR_CLANG_REVISION=\340925-1\ -D__STDC_CONSTANT_MACROS -D__STDC_FORMAT_MACROS -DCOMPONENT_BUILD -DNDEBUG -DNVALGRIND -DDYNAMIC_ANNOTATIONS_ENABLED=0 -DBASE_IMPLEMENTATION -DGLIB_VERSION_MAX_ALLOWED=GLIB_VERSION_2_32 -DGLIB_VERSION_MIN_REQUIRED=GLIB_VERSION_2_26 -I../.. -Igen -fno-strict-aliasing --param=ssp-buffer-size=4 -fstack-protector -Wno-builtin-macro-redefined -D__DATE__= -D__TIME__= -D__TIMESTAMP__= -funwind-tables -fPIC -pthread -fcolor-diagnostics -fmerge-all-constants -Xclang -mllvm -Xclang -instcombine-lower-dbg-declare=0 -no-canonical-prefixes -m64 -march=x86-64 -Wall -Wextra -Wimplicit-fallthrough -Wthread-safety -Wno-missing-field-initializers -Wno-unused-parameter -Wno-c++11-narrowing -Wno-covered-switch-default -Wno-unneeded-internal-declaration -Wno-undefined-var-template -Wno-nonportable-include-path -Wno-user-defined-warnings -Wno-unused-lambda-capture -Wno-ignored-pragma-optimize -fno-omit-frame-pointer -g0 -fvisibility=hidden -Wheader-hygiene -Wstring-conversion -Wtautological-overlap-compare -Wno-char-subscripts -Wglobal-constructors -Wexit-time-destructors -Wexit-time-destructors -Wshadow -I/usr/include/glib-2.0 -I/usr/lib/glib-2.0/include -I/usr/lib/libffi-3.2.1/include -Wexit-time-destructors -O2 -fno-ident -fdata-sections -ffunction-sections -std=c++14 -fno-exceptions -fno-rtti -fvisibility-inlines-hidden -D_FORTIFY_SOURCE=2 -march=x86-64 -mtune=generic -O2 -pipe -fstack-protector-strong -fno-plt -c ../../base/memory/memory_coordinator_client_registry.cc -o obj/base/base/memory_coordinator_client_registry.o
1105  [11/28/2018 03:13PM]: [179/5007] clang++ -MMD -MF obj/base/base/platform_shared_memory_region.o.d -DUSE_SYMBOLIZE -DV8_DEPRECATION_WARNINGS -DUSE_UDEV -DUSE_AURA=1 -DUSE_GLIB=1 -DUSE_NSS_CERTS=1 -DUSE_X11=1 -DFULL_SAFE_BROWSING -DSAFE_BROWSING_CSD -DSAFE_BROWSING_DB_LOCAL -DCHROMIUM_BUILD -D_FILE_OFFSET_BITS=64 -D_LARGEFILE_SOURCE -D_LARGEFILE64_SOURCE -D_GNU_SOURCE -DCR_CLANG_REVISION=\340925-1\ -D__STDC_CONSTANT_MACROS -D__STDC_FORMAT_MACROS -DCOMPONENT_BUILD -DNDEBUG -DNVALGRIND -DDYNAMIC_ANNOTATIONS_ENABLED=0 -DBASE_IMPLEMENTATION -DGLIB_VERSION_MAX_ALLOWED=GLIB_VERSION_2_32 -DGLIB_VERSION_MIN_REQUIRED=GLIB_VERSION_2_26 -I../.. -Igen -fno-strict-aliasing --param=ssp-buffer-size=4 -fstack-protector -Wno-builtin-macro-redefined -D__DATE__= -D__TIME__= -D__TIMESTAMP__= -funwind-tables -fPIC -pthread -fcolor-diagnostics -fmerge-all-constants -Xclang -mllvm -Xclang -instcombine-lower-dbg-declare=0 -no-canonical-prefixes -m64 -march=x86-64 -Wall -Wextra -Wimplicit-fallthrough -Wthread-safety -Wno-missing-field-initializers -Wno-unused-parameter -Wno-c++11-narrowing -Wno-covered-switch-default -Wno-unneeded-internal-declaration -Wno-undefined-var-template -Wno-nonportable-include-path -Wno-user-defined-warnings -Wno-unused-lambda-capture -Wno-ignored-pragma-optimize -fno-omit-frame-pointer -g0 -fvisibility=hidden -Wheader-hygiene -Wstring-conversion -Wtautological-overlap-compare -Wno-char-subscripts -Wglobal-constructors -Wexit-time-destructors -Wexit-time-destructors -Wshadow -I/usr/include/glib-2.0 -I/usr/lib/glib-2.0/include -I/usr/lib/libffi-3.2.1/include -Wexit-time-destructors -O2 -fno-ident -fdata-sections -ffunction-sections -std=c++14 -fno-exceptions -fno-rtti -fvisibility-inlines-hidden -D_FORTIFY_SOURCE=2 -march=x86-64 -mtune=generic -O2 -pipe -fstack-protector-strong -fno-plt -c ../../base/memory/platform_shared_memory_region.cc -o obj/base/base/platform_shared_memory_region.o
1106  [11/28/2018 03:13PM]: [180/5007] clang++ -MMD -MF obj/base/base/protected_memory.o.d -DUSE_SYMBOLIZE -DV8_DEPRECATION_WARNINGS -DUSE_UDEV -DUSE_AURA=1 -DUSE_GLIB=1 -DUSE_NSS_CERTS=1 -DUSE_X11=1 -DFULL_SAFE_BROWSING -DSAFE_BROWSING_CSD -DSAFE_BROWSING_DB_LOCAL -DCHROMIUM_BUILD -D_FILE_OFFSET_BITS=64 -D_LARGEFILE_SOURCE -D_LARGEFILE64_SOURCE -D_GNU_SOURCE -DCR_CLANG_REVISION=\340925-1\ -D__STDC_CONSTANT_MACROS -D__STDC_FORMAT_MACROS -DCOMPONENT_BUILD -DNDEBUG -DNVALGRIND -DDYNAMIC_ANNOTATIONS_ENABLED=0 -DBASE_IMPLEMENTATION -DGLIB_VERSION_MAX_ALLOWED=GLIB_VERSION_2_32 -DGLIB_VERSION_MIN_REQUIRED=GLIB_VERSION_2_26 -I../.. -Igen -fno-strict-aliasing --param=ssp-buffer-size=4 -fstack-protector -Wno-builtin-macro-redefined -D__DATE__= -D__TIME__= -D__TIMESTAMP__= -funwind-tables -fPIC -pthread -fcolor-diagnostics -fmerge-all-constants -Xclang -mllvm -Xclang -instcombine-lower-dbg-declare=0 -no-canonical-prefixes -m64 -march=x86-64 -Wall -Wextra -Wimplicit-fallthrough -Wthread-safety -Wno-missing-field-initializers -Wno-unused-parameter -Wno-c++11-narrowing -Wno-covered-switch-default -Wno-unneeded-internal-declaration -Wno-undefined-var-template -Wno-nonportable-include-path -Wno-user-defined-warnings -Wno-unused-lambda-capture -Wno-ignored-pragma-optimize -fno-omit-frame-pointer -g0 -fvisibility=hidden -Wheader-hygiene -Wstring-conversion -Wtautological-overlap-compare -Wno-char-subscripts -Wglobal-constructors -Wexit-time-destructors -Wexit-time-destructors -Wshadow -I/usr/include/glib-2.0 -I/usr/lib/glib-2.0/include -I/usr/lib/libffi-3.2.1/include -Wexit-time-destructors -O2 -fno-ident -fdata-sections -ffunction-sections -std=c++14 -fno-exceptions -fno-rtti -fvisibility-inlines-hidden -D_FORTIFY_SOURCE=2 -march=x86-64 -mtune=generic -O2 -pipe -fstack-protector-strong -fno-plt -c ../../base/memory/protected_memory.cc -o obj/base/base/protected_memory.o
1107  [11/28/2018 03:13PM]: [181/5007] clang++ -MMD -MF obj/base/base/read_only_shared_memory_region.o.d -DUSE_SYMBOLIZE -DV8_DEPRECATION_WARNINGS -DUSE_UDEV -DUSE_AURA=1 -DUSE_GLIB=1 -DUSE_NSS_CERTS=1 -DUSE_X11=1 -DFULL_SAFE_BROWSING -DSAFE_BROWSING_CSD -DSAFE_BROWSING_DB_LOCAL -DCHROMIUM_BUILD -D_FILE_OFFSET_BITS=64 -D_LARGEFILE_SOURCE -D_LARGEFILE64_SOURCE -D_GNU_SOURCE -DCR_CLANG_REVISION=\340925-1\ -D__STDC_CONSTANT_MACROS -D__STDC_FORMAT_MACROS -DCOMPONENT_BUILD -DNDEBUG -DNVALGRIND -DDYNAMIC_ANNOTATIONS_ENABLED=0 -DBASE_IMPLEMENTATION -DGLIB_VERSION_MAX_ALLOWED=GLIB_VERSION_2_32 -DGLIB_VERSION_MIN_REQUIRED=GLIB_VERSION_2_26 -I../.. -Igen -fno-strict-aliasing --param=ssp-buffer-size=4 -fstack-protector -Wno-builtin-macro-redefined -D__DATE__= -D__TIME__= -D__TIMESTAMP__= -funwind-tables -fPIC -pthread -fcolor-diagnostics -fmerge-all-constants -Xclang -mllvm -Xclang -instcombine-lower-dbg-declare=0 -no-canonical-prefixes -m64 -march=x86-64 -Wall -Wextra -Wimplicit-fallthrough -Wthread-safety -Wno-missing-field-initializers -Wno-unused-parameter -Wno-c++11-narrowing -Wno-covered-switch-default -Wno-unneeded-internal-declaration -Wno-undefined-var-template -Wno-nonportable-include-path -Wno-user-defined-warnings -Wno-unused-lambda-capture -Wno-ignored-pragma-optimize -fno-omit-frame-pointer -g0 -fvisibility=hidden -Wheader-hygiene -Wstring-conversion -Wtautological-overlap-compare -Wno-char-subscripts -Wglobal-constructors -Wexit-time-destructors -Wexit-time-destructors -Wshadow -I/usr/include/glib-2.0 -I/usr/lib/glib-2.0/include -I/usr/lib/libffi-3.2.1/include -Wexit-time-destructors -O2 -fno-ident -fdata-sections -ffunction-sections -std=c++14 -fno-exceptions -fno-rtti -fvisibility-inlines-hidden -D_FORTIFY_SOURCE=2 -march=x86-64 -mtune=generic -O2 -pipe -fstack-protector-strong -fno-plt -c ../../base/memory/read_only_shared_memory_region.cc -o obj/base/base/read_only_shared_memory_region.o
1108  [11/28/2018 03:13PM]: [182/5007] clang++ -MMD -MF obj/base/base/ref_counted.o.d -DUSE_SYMBOLIZE -DV8_DEPRECATION_WARNINGS -DUSE_UDEV -DUSE_AURA=1 -DUSE_GLIB=1 -DUSE_NSS_CERTS=1 -DUSE_X11=1 -DFULL_SAFE_BROWSING -DSAFE_BROWSING_CSD -DSAFE_BROWSING_DB_LOCAL -DCHROMIUM_BUILD -D_FILE_OFFSET_BITS=64 -D_LARGEFILE_SOURCE -D_LARGEFILE64_SOURCE -D_GNU_SOURCE -DCR_CLANG_REVISION=\340925-1\ -D__STDC_CONSTANT_MACROS -D__STDC_FORMAT_MACROS -DCOMPONENT_BUILD -DNDEBUG -DNVALGRIND -DDYNAMIC_ANNOTATIONS_ENABLED=0 -DBASE_IMPLEMENTATION -DGLIB_VERSION_MAX_ALLOWED=GLIB_VERSION_2_32 -DGLIB_VERSION_MIN_REQUIRED=GLIB_VERSION_2_26 -I../.. -Igen -fno-strict-aliasing --param=ssp-buffer-size=4 -fstack-protector -Wno-builtin-macro-redefined -D__DATE__= -D__TIME__= -D__TIMESTAMP__= -funwind-tables -fPIC -pthread -fcolor-diagnostics -fmerge-all-constants -Xclang -mllvm -Xclang -instcombine-lower-dbg-declare=0 -no-canonical-prefixes -m64 -march=x86-64 -Wall -Wextra -Wimplicit-fallthrough -Wthread-safety -Wno-missing-field-initializers -Wno-unused-parameter -Wno-c++11-narrowing -Wno-covered-switch-default -Wno-unneeded-internal-declaration -Wno-undefined-var-template -Wno-nonportable-include-path -Wno-user-defined-warnings -Wno-unused-lambda-capture -Wno-ignored-pragma-optimize -fno-omit-frame-pointer -g0 -fvisibility=hidden -Wheader-hygiene -Wstring-conversion -Wtautological-overlap-compare -Wno-char-subscripts -Wglobal-constructors -Wexit-time-destructors -Wexit-time-destructors -Wshadow -I/usr/include/glib-2.0 -I/usr/lib/glib-2.0/include -I/usr/lib/libffi-3.2.1/include -Wexit-time-destructors -O2 -fno-ident -fdata-sections -ffunction-sections -std=c++14 -fno-exceptions -fno-rtti -fvisibility-inlines-hidden -D_FORTIFY_SOURCE=2 -march=x86-64 -mtune=generic -O2 -pipe -fstack-protector-strong -fno-plt -c ../../base/memory/ref_counted.cc -o obj/base/base/ref_counted.o
1109  [11/28/2018 03:14PM]: [183/5007] clang++ -MMD -MF obj/base/base/memory_pressure_listener.o.d -DUSE_SYMBOLIZE -DV8_DEPRECATION_WARNINGS -DUSE_UDEV -DUSE_AURA=1 -DUSE_GLIB=1 -DUSE_NSS_CERTS=1 -DUSE_X11=1 -DFULL_SAFE_BROWSING -DSAFE_BROWSING_CSD -DSAFE_BROWSING_DB_LOCAL -DCHROMIUM_BUILD -D_FILE_OFFSET_BITS=64 -D_LARGEFILE_SOURCE -D_LARGEFILE64_SOURCE -D_GNU_SOURCE -DCR_CLANG_REVISION=\340925-1\ -D__STDC_CONSTANT_MACROS -D__STDC_FORMAT_MACROS -DCOMPONENT_BUILD -DNDEBUG -DNVALGRIND -DDYNAMIC_ANNOTATIONS_ENABLED=0 -DBASE_IMPLEMENTATION -DGLIB_VERSION_MAX_ALLOWED=GLIB_VERSION_2_32 -DGLIB_VERSION_MIN_REQUIRED=GLIB_VERSION_2_26 -I../.. -Igen -fno-strict-aliasing --param=ssp-buffer-size=4 -fstack-protector -Wno-builtin-macro-redefined -D__DATE__= -D__TIME__= -D__TIMESTAMP__= -funwind-tables -fPIC -pthread -fcolor-diagnostics -fmerge-all-constants -Xclang -mllvm -Xclang -instcombine-lower-dbg-declare=0 -no-canonical-prefixes -m64 -march=x86-64 -Wall -Wextra -Wimplicit-fallthrough -Wthread-safety -Wno-missing-field-initializers -Wno-unused-parameter -Wno-c++11-narrowing -Wno-covered-switch-default -Wno-unneeded-internal-declaration -Wno-undefined-var-template -Wno-nonportable-include-path -Wno-user-defined-warnings -Wno-unused-lambda-capture -Wno-ignored-pragma-optimize -fno-omit-frame-pointer -g0 -fvisibility=hidden -Wheader-hygiene -Wstring-conversion -Wtautological-overlap-compare -Wno-char-subscripts -Wglobal-constructors -Wexit-time-destructors -Wexit-time-destructors -Wshadow -I/usr/include/glib-2.0 -I/usr/lib/glib-2.0/include -I/usr/lib/libffi-3.2.1/include -Wexit-time-destructors -O2 -fno-ident -fdata-sections -ffunction-sections -std=c++14 -fno-exceptions -fno-rtti -fvisibility-inlines-hidden -D_FORTIFY_SOURCE=2 -march=x86-64 -mtune=generic -O2 -pipe -fstack-protector-strong -fno-plt -c ../../base/memory/memory_pressure_listener.cc -o obj/base/base/memory_pressure_listener.o
1110  [11/28/2018 03:14PM]: [184/5007] clang++ -MMD -MF obj/base/base/shared_memory_handle.o.d -DUSE_SYMBOLIZE -DV8_DEPRECATION_WARNINGS -DUSE_UDEV -DUSE_AURA=1 -DUSE_GLIB=1 -DUSE_NSS_CERTS=1 -DUSE_X11=1 -DFULL_SAFE_BROWSING -DSAFE_BROWSING_CSD -DSAFE_BROWSING_DB_LOCAL -DCHROMIUM_BUILD -D_FILE_OFFSET_BITS=64 -D_LARGEFILE_SOURCE -D_LARGEFILE64_SOURCE -D_GNU_SOURCE -DCR_CLANG_REVISION=\340925-1\ -D__STDC_CONSTANT_MACROS -D__STDC_FORMAT_MACROS -DCOMPONENT_BUILD -DNDEBUG -DNVALGRIND -DDYNAMIC_ANNOTATIONS_ENABLED=0 -DBASE_IMPLEMENTATION -DGLIB_VERSION_MAX_ALLOWED=GLIB_VERSION_2_32 -DGLIB_VERSION_MIN_REQUIRED=GLIB_VERSION_2_26 -I../.. -Igen -fno-strict-aliasing --param=ssp-buffer-size=4 -fstack-protector -Wno-builtin-macro-redefined -D__DATE__= -D__TIME__= -D__TIMESTAMP__= -funwind-tables -fPIC -pthread -fcolor-diagnostics -fmerge-all-constants -Xclang -mllvm -Xclang -instcombine-lower-dbg-declare=0 -no-canonical-prefixes -m64 -march=x86-64 -Wall -Wextra -Wimplicit-fallthrough -Wthread-safety -Wno-missing-field-initializers -Wno-unused-parameter -Wno-c++11-narrowing -Wno-covered-switch-default -Wno-unneeded-internal-declaration -Wno-undefined-var-template -Wno-nonportable-include-path -Wno-user-defined-warnings -Wno-unused-lambda-capture -Wno-ignored-pragma-optimize -fno-omit-frame-pointer -g0 -fvisibility=hidden -Wheader-hygiene -Wstring-conversion -Wtautological-overlap-compare -Wno-char-subscripts -Wglobal-constructors -Wexit-time-destructors -Wexit-time-destructors -Wshadow -I/usr/include/glib-2.0 -I/usr/lib/glib-2.0/include -I/usr/lib/libffi-3.2.1/include -Wexit-time-destructors -O2 -fno-ident -fdata-sections -ffunction-sections -std=c++14 -fno-exceptions -fno-rtti -fvisibility-inlines-hidden -D_FORTIFY_SOURCE=2 -march=x86-64 -mtune=generic -O2 -pipe -fstack-protector-strong -fno-plt -c ../../base/memory/shared_memory_handle.cc -o obj/base/base/shared_memory_handle.o
1111  [11/28/2018 03:14PM]: [185/5007] clang++ -MMD -MF obj/base/base/shared_memory_helper.o.d -DUSE_SYMBOLIZE -DV8_DEPRECATION_WARNINGS -DUSE_UDEV -DUSE_AURA=1 -DUSE_GLIB=1 -DUSE_NSS_CERTS=1 -DUSE_X11=1 -DFULL_SAFE_BROWSING -DSAFE_BROWSING_CSD -DSAFE_BROWSING_DB_LOCAL -DCHROMIUM_BUILD -D_FILE_OFFSET_BITS=64 -D_LARGEFILE_SOURCE -D_LARGEFILE64_SOURCE -D_GNU_SOURCE -DCR_CLANG_REVISION=\340925-1\ -D__STDC_CONSTANT_MACROS -D__STDC_FORMAT_MACROS -DCOMPONENT_BUILD -DNDEBUG -DNVALGRIND -DDYNAMIC_ANNOTATIONS_ENABLED=0 -DBASE_IMPLEMENTATION -DGLIB_VERSION_MAX_ALLOWED=GLIB_VERSION_2_32 -DGLIB_VERSION_MIN_REQUIRED=GLIB_VERSION_2_26 -I../.. -Igen -fno-strict-aliasing --param=ssp-buffer-size=4 -fstack-protector -Wno-builtin-macro-redefined -D__DATE__= -D__TIME__= -D__TIMESTAMP__= -funwind-tables -fPIC -pthread -fcolor-diagnostics -fmerge-all-constants -Xclang -mllvm -Xclang -instcombine-lower-dbg-declare=0 -no-canonical-prefixes -m64 -march=x86-64 -Wall -Wextra -Wimplicit-fallthrough -Wthread-safety -Wno-missing-field-initializers -Wno-unused-parameter -Wno-c++11-narrowing -Wno-covered-switch-default -Wno-unneeded-internal-declaration -Wno-undefined-var-template -Wno-nonportable-include-path -Wno-user-defined-warnings -Wno-unused-lambda-capture -Wno-ignored-pragma-optimize -fno-omit-frame-pointer -g0 -fvisibility=hidden -Wheader-hygiene -Wstring-conversion -Wtautological-overlap-compare -Wno-char-subscripts -Wglobal-constructors -Wexit-time-destructors -Wexit-time-destructors -Wshadow -I/usr/include/glib-2.0 -I/usr/lib/glib-2.0/include -I/usr/lib/libffi-3.2.1/include -Wexit-time-destructors -O2 -fno-ident -fdata-sections -ffunction-sections -std=c++14 -fno-exceptions -fno-rtti -fvisibility-inlines-hidden -D_FORTIFY_SOURCE=2 -march=x86-64 -mtune=generic -O2 -pipe -fstack-protector-strong -fno-plt -c ../../base/memory/shared_memory_helper.cc -o obj/base/base/shared_memory_helper.o
1112  [11/28/2018 03:14PM]: [186/5007] clang++ -MMD -MF obj/base/base/ref_counted_memory.o.d -DUSE_SYMBOLIZE -DV8_DEPRECATION_WARNINGS -DUSE_UDEV -DUSE_AURA=1 -DUSE_GLIB=1 -DUSE_NSS_CERTS=1 -DUSE_X11=1 -DFULL_SAFE_BROWSING -DSAFE_BROWSING_CSD -DSAFE_BROWSING_DB_LOCAL -DCHROMIUM_BUILD -D_FILE_OFFSET_BITS=64 -D_LARGEFILE_SOURCE -D_LARGEFILE64_SOURCE -D_GNU_SOURCE -DCR_CLANG_REVISION=\340925-1\ -D__STDC_CONSTANT_MACROS -D__STDC_FORMAT_MACROS -DCOMPONENT_BUILD -DNDEBUG -DNVALGRIND -DDYNAMIC_ANNOTATIONS_ENABLED=0 -DBASE_IMPLEMENTATION -DGLIB_VERSION_MAX_ALLOWED=GLIB_VERSION_2_32 -DGLIB_VERSION_MIN_REQUIRED=GLIB_VERSION_2_26 -I../.. -Igen -fno-strict-aliasing --param=ssp-buffer-size=4 -fstack-protector -Wno-builtin-macro-redefined -D__DATE__= -D__TIME__= -D__TIMESTAMP__= -funwind-tables -fPIC -pthread -fcolor-diagnostics -fmerge-all-constants -Xclang -mllvm -Xclang -instcombine-lower-dbg-declare=0 -no-canonical-prefixes -m64 -march=x86-64 -Wall -Wextra -Wimplicit-fallthrough -Wthread-safety -Wno-missing-field-initializers -Wno-unused-parameter -Wno-c++11-narrowing -Wno-covered-switch-default -Wno-unneeded-internal-declaration -Wno-undefined-var-template -Wno-nonportable-include-path -Wno-user-defined-warnings -Wno-unused-lambda-capture -Wno-ignored-pragma-optimize -fno-omit-frame-pointer -g0 -fvisibility=hidden -Wheader-hygiene -Wstring-conversion -Wtautological-overlap-compare -Wno-char-subscripts -Wglobal-constructors -Wexit-time-destructors -Wexit-time-destructors -Wshadow -I/usr/include/glib-2.0 -I/usr/lib/glib-2.0/include -I/usr/lib/libffi-3.2.1/include -Wexit-time-destructors -O2 -fno-ident -fdata-sections -ffunction-sections -std=c++14 -fno-exceptions -fno-rtti -fvisibility-inlines-hidden -D_FORTIFY_SOURCE=2 -march=x86-64 -mtune=generic -O2 -pipe -fstack-protector-strong -fno-plt -c ../../base/memory/ref_counted_memory.cc -o obj/base/base/ref_counted_memory.o
1113  [11/28/2018 03:14PM]: [187/5007] clang++ -MMD -MF obj/base/base/sample_map.o.d -DUSE_SYMBOLIZE -DV8_DEPRECATION_WARNINGS -DUSE_UDEV -DUSE_AURA=1 -DUSE_GLIB=1 -DUSE_NSS_CERTS=1 -DUSE_X11=1 -DFULL_SAFE_BROWSING -DSAFE_BROWSING_CSD -DSAFE_BROWSING_DB_LOCAL -DCHROMIUM_BUILD -D_FILE_OFFSET_BITS=64 -D_LARGEFILE_SOURCE -D_LARGEFILE64_SOURCE -D_GNU_SOURCE -DCR_CLANG_REVISION=\340925-1\ -D__STDC_CONSTANT_MACROS -D__STDC_FORMAT_MACROS -DCOMPONENT_BUILD -DNDEBUG -DNVALGRIND -DDYNAMIC_ANNOTATIONS_ENABLED=0 -DBASE_IMPLEMENTATION -DGLIB_VERSION_MAX_ALLOWED=GLIB_VERSION_2_32 -DGLIB_VERSION_MIN_REQUIRED=GLIB_VERSION_2_26 -I../.. -Igen -fno-strict-aliasing --param=ssp-buffer-size=4 -fstack-protector -Wno-builtin-macro-redefined -D__DATE__= -D__TIME__= -D__TIMESTAMP__= -funwind-tables -fPIC -pthread -fcolor-diagnostics -fmerge-all-constants -Xclang -mllvm -Xclang -instcombine-lower-dbg-declare=0 -no-canonical-prefixes -m64 -march=x86-64 -Wall -Wextra -Wimplicit-fallthrough -Wthread-safety -Wno-missing-field-initializers -Wno-unused-parameter -Wno-c++11-narrowing -Wno-covered-switch-default -Wno-unneeded-internal-declaration -Wno-undefined-var-template -Wno-nonportable-include-path -Wno-user-defined-warnings -Wno-unused-lambda-capture -Wno-ignored-pragma-optimize -fno-omit-frame-pointer -g0 -fvisibility=hidden -Wheader-hygiene -Wstring-conversion -Wtautological-overlap-compare -Wno-char-subscripts -Wglobal-constructors -Wexit-time-destructors -Wexit-time-destructors -Wshadow -I/usr/include/glib-2.0 -I/usr/lib/glib-2.0/include -I/usr/lib/libffi-3.2.1/include -Wexit-time-destructors -O2 -fno-ident -fdata-sections -ffunction-sections -std=c++14 -fno-exceptions -fno-rtti -fvisibility-inlines-hidden -D_FORTIFY_SOURCE=2 -march=x86-64 -mtune=generic -O2 -pipe -fstack-protector-strong -fno-plt -c ../../base/metrics/sample_map.cc -o obj/base/base/sample_map.o
1114  [11/28/2018 03:14PM]: [188/5007] clang++ -MMD -MF obj/base/base/sample_vector.o.d -DUSE_SYMBOLIZE -DV8_DEPRECATION_WARNINGS -DUSE_UDEV -DUSE_AURA=1 -DUSE_GLIB=1 -DUSE_NSS_CERTS=1 -DUSE_X11=1 -DFULL_SAFE_BROWSING -DSAFE_BROWSING_CSD -DSAFE_BROWSING_DB_LOCAL -DCHROMIUM_BUILD -D_FILE_OFFSET_BITS=64 -D_LARGEFILE_SOURCE -D_LARGEFILE64_SOURCE -D_GNU_SOURCE -DCR_CLANG_REVISION=\340925-1\ -D__STDC_CONSTANT_MACROS -D__STDC_FORMAT_MACROS -DCOMPONENT_BUILD -DNDEBUG -DNVALGRIND -DDYNAMIC_ANNOTATIONS_ENABLED=0 -DBASE_IMPLEMENTATION -DGLIB_VERSION_MAX_ALLOWED=GLIB_VERSION_2_32 -DGLIB_VERSION_MIN_REQUIRED=GLIB_VERSION_2_26 -I../.. -Igen -fno-strict-aliasing --param=ssp-buffer-size=4 -fstack-protector -Wno-builtin-macro-redefined -D__DATE__= -D__TIME__= -D__TIMESTAMP__= -funwind-tables -fPIC -pthread -fcolor-diagnostics -fmerge-all-constants -Xclang -mllvm -Xclang -instcombine-lower-dbg-declare=0 -no-canonical-prefixes -m64 -march=x86-64 -Wall -Wextra -Wimplicit-fallthrough -Wthread-safety -Wno-missing-field-initializers -Wno-unused-parameter -Wno-c++11-narrowing -Wno-covered-switch-default -Wno-unneeded-internal-declaration -Wno-undefined-var-template -Wno-nonportable-include-path -Wno-user-defined-warnings -Wno-unused-lambda-capture -Wno-ignored-pragma-optimize -fno-omit-frame-pointer -g0 -fvisibility=hidden -Wheader-hygiene -Wstring-conversion -Wtautological-overlap-compare -Wno-char-subscripts -Wglobal-constructors -Wexit-time-destructors -Wexit-time-destructors -Wshadow -I/usr/include/glib-2.0 -I/usr/lib/glib-2.0/include -I/usr/lib/libffi-3.2.1/include -Wexit-time-destructors -O2 -fno-ident -fdata-sections -ffunction-sections -std=c++14 -fno-exceptions -fno-rtti -fvisibility-inlines-hidden -D_FORTIFY_SOURCE=2 -march=x86-64 -mtune=generic -O2 -pipe -fstack-protector-strong -fno-plt -c ../../base/metrics/sample_vector.cc -o obj/base/base/sample_vector.o
1115  [11/28/2018 03:14PM]: [189/5007] clang++ -MMD -MF obj/base/base/persistent_sample_map.o.d -DUSE_SYMBOLIZE -DV8_DEPRECATION_WARNINGS -DUSE_UDEV -DUSE_AURA=1 -DUSE_GLIB=1 -DUSE_NSS_CERTS=1 -DUSE_X11=1 -DFULL_SAFE_BROWSING -DSAFE_BROWSING_CSD -DSAFE_BROWSING_DB_LOCAL -DCHROMIUM_BUILD -D_FILE_OFFSET_BITS=64 -D_LARGEFILE_SOURCE -D_LARGEFILE64_SOURCE -D_GNU_SOURCE -DCR_CLANG_REVISION=\340925-1\ -D__STDC_CONSTANT_MACROS -D__STDC_FORMAT_MACROS -DCOMPONENT_BUILD -DNDEBUG -DNVALGRIND -DDYNAMIC_ANNOTATIONS_ENABLED=0 -DBASE_IMPLEMENTATION -DGLIB_VERSION_MAX_ALLOWED=GLIB_VERSION_2_32 -DGLIB_VERSION_MIN_REQUIRED=GLIB_VERSION_2_26 -I../.. -Igen -fno-strict-aliasing --param=ssp-buffer-size=4 -fstack-protector -Wno-builtin-macro-redefined -D__DATE__= -D__TIME__= -D__TIMESTAMP__= -funwind-tables -fPIC -pthread -fcolor-diagnostics -fmerge-all-constants -Xclang -mllvm -Xclang -instcombine-lower-dbg-declare=0 -no-canonical-prefixes -m64 -march=x86-64 -Wall -Wextra -Wimplicit-fallthrough -Wthread-safety -Wno-missing-field-initializers -Wno-unused-parameter -Wno-c++11-narrowing -Wno-covered-switch-default -Wno-unneeded-internal-declaration -Wno-undefined-var-template -Wno-nonportable-include-path -Wno-user-defined-warnings -Wno-unused-lambda-capture -Wno-ignored-pragma-optimize -fno-omit-frame-pointer -g0 -fvisibility=hidden -Wheader-hygiene -Wstring-conversion -Wtautological-overlap-compare -Wno-char-subscripts -Wglobal-constructors -Wexit-time-destructors -Wexit-time-destructors -Wshadow -I/usr/include/glib-2.0 -I/usr/lib/glib-2.0/include -I/usr/lib/libffi-3.2.1/include -Wexit-time-destructors -O2 -fno-ident -fdata-sections -ffunction-sections -std=c++14 -fno-exceptions -fno-rtti -fvisibility-inlines-hidden -D_FORTIFY_SOURCE=2 -march=x86-64 -mtune=generic -O2 -pipe -fstack-protector-strong -fno-plt -c ../../base/metrics/persistent_sample_map.cc -o obj/base/base/persistent_sample_map.o
1116  [11/28/2018 03:14PM]: [190/5007] clang++ -MMD -MF obj/base/base/persistent_memory_allocator.o.d -DUSE_SYMBOLIZE -DV8_DEPRECATION_WARNINGS -DUSE_UDEV -DUSE_AURA=1 -DUSE_GLIB=1 -DUSE_NSS_CERTS=1 -DUSE_X11=1 -DFULL_SAFE_BROWSING -DSAFE_BROWSING_CSD -DSAFE_BROWSING_DB_LOCAL -DCHROMIUM_BUILD -D_FILE_OFFSET_BITS=64 -D_LARGEFILE_SOURCE -D_LARGEFILE64_SOURCE -D_GNU_SOURCE -DCR_CLANG_REVISION=\340925-1\ -D__STDC_CONSTANT_MACROS -D__STDC_FORMAT_MACROS -DCOMPONENT_BUILD -DNDEBUG -DNVALGRIND -DDYNAMIC_ANNOTATIONS_ENABLED=0 -DBASE_IMPLEMENTATION -DGLIB_VERSION_MAX_ALLOWED=GLIB_VERSION_2_32 -DGLIB_VERSION_MIN_REQUIRED=GLIB_VERSION_2_26 -I../.. -Igen -fno-strict-aliasing --param=ssp-buffer-size=4 -fstack-protector -Wno-builtin-macro-redefined -D__DATE__= -D__TIME__= -D__TIMESTAMP__= -funwind-tables -fPIC -pthread -fcolor-diagnostics -fmerge-all-constants -Xclang -mllvm -Xclang -instcombine-lower-dbg-declare=0 -no-canonical-prefixes -m64 -march=x86-64 -Wall -Wextra -Wimplicit-fallthrough -Wthread-safety -Wno-missing-field-initializers -Wno-unused-parameter -Wno-c++11-narrowing -Wno-covered-switch-default -Wno-unneeded-internal-declaration -Wno-undefined-var-template -Wno-nonportable-include-path -Wno-user-defined-warnings -Wno-unused-lambda-capture -Wno-ignored-pragma-optimize -fno-omit-frame-pointer -g0 -fvisibility=hidden -Wheader-hygiene -Wstring-conversion -Wtautological-overlap-compare -Wno-char-subscripts -Wglobal-constructors -Wexit-time-destructors -Wexit-time-destructors -Wshadow -I/usr/include/glib-2.0 -I/usr/lib/glib-2.0/include -I/usr/lib/libffi-3.2.1/include -Wexit-time-destructors -O2 -fno-ident -fdata-sections -ffunction-sections -std=c++14 -fno-exceptions -fno-rtti -fvisibility-inlines-hidden -D_FORTIFY_SOURCE=2 -march=x86-64 -mtune=generic -O2 -pipe -fstack-protector-strong -fno-plt -c ../../base/metrics/persistent_memory_allocator.cc -o obj/base/base/persistent_memory_allocator.o
1117  [11/28/2018 03:14PM]: [191/5007] clang++ -MMD -MF obj/base/base/single_sample_metrics.o.d -DUSE_SYMBOLIZE -DV8_DEPRECATION_WARNINGS -DUSE_UDEV -DUSE_AURA=1 -DUSE_GLIB=1 -DUSE_NSS_CERTS=1 -DUSE_X11=1 -DFULL_SAFE_BROWSING -DSAFE_BROWSING_CSD -DSAFE_BROWSING_DB_LOCAL -DCHROMIUM_BUILD -D_FILE_OFFSET_BITS=64 -D_LARGEFILE_SOURCE -D_LARGEFILE64_SOURCE -D_GNU_SOURCE -DCR_CLANG_REVISION=\340925-1\ -D__STDC_CONSTANT_MACROS -D__STDC_FORMAT_MACROS -DCOMPONENT_BUILD -DNDEBUG -DNVALGRIND -DDYNAMIC_ANNOTATIONS_ENABLED=0 -DBASE_IMPLEMENTATION -DGLIB_VERSION_MAX_ALLOWED=GLIB_VERSION_2_32 -DGLIB_VERSION_MIN_REQUIRED=GLIB_VERSION_2_26 -I../.. -Igen -fno-strict-aliasing --param=ssp-buffer-size=4 -fstack-protector -Wno-builtin-macro-redefined -D__DATE__= -D__TIME__= -D__TIMESTAMP__= -funwind-tables -fPIC -pthread -fcolor-diagnostics -fmerge-all-constants -Xclang -mllvm -Xclang -instcombine-lower-dbg-declare=0 -no-canonical-prefixes -m64 -march=x86-64 -Wall -Wextra -Wimplicit-fallthrough -Wthread-safety -Wno-missing-field-initializers -Wno-unused-parameter -Wno-c++11-narrowing -Wno-covered-switch-default -Wno-unneeded-internal-declaration -Wno-undefined-var-template -Wno-nonportable-include-path -Wno-user-defined-warnings -Wno-unused-lambda-capture -Wno-ignored-pragma-optimize -fno-omit-frame-pointer -g0 -fvisibility=hidden -Wheader-hygiene -Wstring-conversion -Wtautological-overlap-compare -Wno-char-subscripts -Wglobal-constructors -Wexit-time-destructors -Wexit-time-destructors -Wshadow -I/usr/include/glib-2.0 -I/usr/lib/glib-2.0/include -I/usr/lib/libffi-3.2.1/include -Wexit-time-destructors -O2 -fno-ident -fdata-sections -ffunction-sections -std=c++14 -fno-exceptions -fno-rtti -fvisibility-inlines-hidden -D_FORTIFY_SOURCE=2 -march=x86-64 -mtune=generic -O2 -pipe -fstack-protector-strong -fno-plt -c ../../base/metrics/single_sample_metrics.cc -o obj/base/base/single_sample_metrics.o
1118  [11/28/2018 03:14PM]: [192/5007] clang++ -MMD -MF obj/base/base/native_library.o.d -DUSE_SYMBOLIZE -DV8_DEPRECATION_WARNINGS -DUSE_UDEV -DUSE_AURA=1 -DUSE_GLIB=1 -DUSE_NSS_CERTS=1 -DUSE_X11=1 -DFULL_SAFE_BROWSING -DSAFE_BROWSING_CSD -DSAFE_BROWSING_DB_LOCAL -DCHROMIUM_BUILD -D_FILE_OFFSET_BITS=64 -D_LARGEFILE_SOURCE -D_LARGEFILE64_SOURCE -D_GNU_SOURCE -DCR_CLANG_REVISION=\340925-1\ -D__STDC_CONSTANT_MACROS -D__STDC_FORMAT_MACROS -DCOMPONENT_BUILD -DNDEBUG -DNVALGRIND -DDYNAMIC_ANNOTATIONS_ENABLED=0 -DBASE_IMPLEMENTATION -DGLIB_VERSION_MAX_ALLOWED=GLIB_VERSION_2_32 -DGLIB_VERSION_MIN_REQUIRED=GLIB_VERSION_2_26 -I../.. -Igen -fno-strict-aliasing --param=ssp-buffer-size=4 -fstack-protector -Wno-builtin-macro-redefined -D__DATE__= -D__TIME__= -D__TIMESTAMP__= -funwind-tables -fPIC -pthread -fcolor-diagnostics -fmerge-all-constants -Xclang -mllvm -Xclang -instcombine-lower-dbg-declare=0 -no-canonical-prefixes -m64 -march=x86-64 -Wall -Wextra -Wimplicit-fallthrough -Wthread-safety -Wno-missing-field-initializers -Wno-unused-parameter -Wno-c++11-narrowing -Wno-covered-switch-default -Wno-unneeded-internal-declaration -Wno-undefined-var-template -Wno-nonportable-include-path -Wno-user-defined-warnings -Wno-unused-lambda-capture -Wno-ignored-pragma-optimize -fno-omit-frame-pointer -g0 -fvisibility=hidden -Wheader-hygiene -Wstring-conversion -Wtautological-overlap-compare -Wno-char-subscripts -Wglobal-constructors -Wexit-time-destructors -Wexit-time-destructors -Wshadow -I/usr/include/glib-2.0 -I/usr/lib/glib-2.0/include -I/usr/lib/libffi-3.2.1/include -Wexit-time-destructors -O2 -fno-ident -fdata-sections -ffunction-sections -std=c++14 -fno-exceptions -fno-rtti -fvisibility-inlines-hidden -D_FORTIFY_SOURCE=2 -march=x86-64 -mtune=generic -O2 -pipe -fstack-protector-strong -fno-plt -c ../../base/native_library.cc -o obj/base/base/native_library.o
1119  [11/28/2018 03:14PM]: [193/5007] clang++ -MMD -MF obj/base/base/sparse_histogram.o.d -DUSE_SYMBOLIZE -DV8_DEPRECATION_WARNINGS -DUSE_UDEV -DUSE_AURA=1 -DUSE_GLIB=1 -DUSE_NSS_CERTS=1 -DUSE_X11=1 -DFULL_SAFE_BROWSING -DSAFE_BROWSING_CSD -DSAFE_BROWSING_DB_LOCAL -DCHROMIUM_BUILD -D_FILE_OFFSET_BITS=64 -D_LARGEFILE_SOURCE -D_LARGEFILE64_SOURCE -D_GNU_SOURCE -DCR_CLANG_REVISION=\340925-1\ -D__STDC_CONSTANT_MACROS -D__STDC_FORMAT_MACROS -DCOMPONENT_BUILD -DNDEBUG -DNVALGRIND -DDYNAMIC_ANNOTATIONS_ENABLED=0 -DBASE_IMPLEMENTATION -DGLIB_VERSION_MAX_ALLOWED=GLIB_VERSION_2_32 -DGLIB_VERSION_MIN_REQUIRED=GLIB_VERSION_2_26 -I../.. -Igen -fno-strict-aliasing --param=ssp-buffer-size=4 -fstack-protector -Wno-builtin-macro-redefined -D__DATE__= -D__TIME__= -D__TIMESTAMP__= -funwind-tables -fPIC -pthread -fcolor-diagnostics -fmerge-all-constants -Xclang -mllvm -Xclang -instcombine-lower-dbg-declare=0 -no-canonical-prefixes -m64 -march=x86-64 -Wall -Wextra -Wimplicit-fallthrough -Wthread-safety -Wno-missing-field-initializers -Wno-unused-parameter -Wno-c++11-narrowing -Wno-covered-switch-default -Wno-unneeded-internal-declaration -Wno-undefined-var-template -Wno-nonportable-include-path -Wno-user-defined-warnings -Wno-unused-lambda-capture -Wno-ignored-pragma-optimize -fno-omit-frame-pointer -g0 -fvisibility=hidden -Wheader-hygiene -Wstring-conversion -Wtautological-overlap-compare -Wno-char-subscripts -Wglobal-constructors -Wexit-time-destructors -Wexit-time-destructors -Wshadow -I/usr/include/glib-2.0 -I/usr/lib/glib-2.0/include -I/usr/lib/libffi-3.2.1/include -Wexit-time-destructors -O2 -fno-ident -fdata-sections -ffunction-sections -std=c++14 -fno-exceptions -fno-rtti -fvisibility-inlines-hidden -D_FORTIFY_SOURCE=2 -march=x86-64 -mtune=generic -O2 -pipe -fstack-protector-strong -fno-plt -c ../../base/metrics/sparse_histogram.cc -o obj/base/base/sparse_histogram.o
1120  [11/28/2018 03:14PM]: [194/5007] clang++ -MMD -MF obj/base/base/ukm_source_id.o.d -DUSE_SYMBOLIZE -DV8_DEPRECATION_WARNINGS -DUSE_UDEV -DUSE_AURA=1 -DUSE_GLIB=1 -DUSE_NSS_CERTS=1 -DUSE_X11=1 -DFULL_SAFE_BROWSING -DSAFE_BROWSING_CSD -DSAFE_BROWSING_DB_LOCAL -DCHROMIUM_BUILD -D_FILE_OFFSET_BITS=64 -D_LARGEFILE_SOURCE -D_LARGEFILE64_SOURCE -D_GNU_SOURCE -DCR_CLANG_REVISION=\340925-1\ -D__STDC_CONSTANT_MACROS -D__STDC_FORMAT_MACROS -DCOMPONENT_BUILD -DNDEBUG -DNVALGRIND -DDYNAMIC_ANNOTATIONS_ENABLED=0 -DBASE_IMPLEMENTATION -DGLIB_VERSION_MAX_ALLOWED=GLIB_VERSION_2_32 -DGLIB_VERSION_MIN_REQUIRED=GLIB_VERSION_2_26 -I../.. -Igen -fno-strict-aliasing --param=ssp-buffer-size=4 -fstack-protector -Wno-builtin-macro-redefined -D__DATE__= -D__TIME__= -D__TIMESTAMP__= -funwind-tables -fPIC -pthread -fcolor-diagnostics -fmerge-all-constants -Xclang -mllvm -Xclang -instcombine-lower-dbg-declare=0 -no-canonical-prefixes -m64 -march=x86-64 -Wall -Wextra -Wimplicit-fallthrough -Wthread-safety -Wno-missing-field-initializers -Wno-unused-parameter -Wno-c++11-narrowing -Wno-covered-switch-default -Wno-unneeded-internal-declaration -Wno-undefined-var-template -Wno-nonportable-include-path -Wno-user-defined-warnings -Wno-unused-lambda-capture -Wno-ignored-pragma-optimize -fno-omit-frame-pointer -g0 -fvisibility=hidden -Wheader-hygiene -Wstring-conversion -Wtautological-overlap-compare -Wno-char-subscripts -Wglobal-constructors -Wexit-time-destructors -Wexit-time-destructors -Wshadow -I/usr/include/glib-2.0 -I/usr/lib/glib-2.0/include -I/usr/lib/libffi-3.2.1/include -Wexit-time-destructors -O2 -fno-ident -fdata-sections -ffunction-sections -std=c++14 -fno-exceptions -fno-rtti -fvisibility-inlines-hidden -D_FORTIFY_SOURCE=2 -march=x86-64 -mtune=generic -O2 -pipe -fstack-protector-strong -fno-plt -c ../../base/metrics/ukm_source_id.cc -o obj/base/base/ukm_source_id.o
1121  [11/28/2018 03:14PM]: [195/5007] clang++ -MMD -MF obj/base/base/user_metrics.o.d -DUSE_SYMBOLIZE -DV8_DEPRECATION_WARNINGS -DUSE_UDEV -DUSE_AURA=1 -DUSE_GLIB=1 -DUSE_NSS_CERTS=1 -DUSE_X11=1 -DFULL_SAFE_BROWSING -DSAFE_BROWSING_CSD -DSAFE_BROWSING_DB_LOCAL -DCHROMIUM_BUILD -D_FILE_OFFSET_BITS=64 -D_LARGEFILE_SOURCE -D_LARGEFILE64_SOURCE -D_GNU_SOURCE -DCR_CLANG_REVISION=\340925-1\ -D__STDC_CONSTANT_MACROS -D__STDC_FORMAT_MACROS -DCOMPONENT_BUILD -DNDEBUG -DNVALGRIND -DDYNAMIC_ANNOTATIONS_ENABLED=0 -DBASE_IMPLEMENTATION -DGLIB_VERSION_MAX_ALLOWED=GLIB_VERSION_2_32 -DGLIB_VERSION_MIN_REQUIRED=GLIB_VERSION_2_26 -I../.. -Igen -fno-strict-aliasing --param=ssp-buffer-size=4 -fstack-protector -Wno-builtin-macro-redefined -D__DATE__= -D__TIME__= -D__TIMESTAMP__= -funwind-tables -fPIC -pthread -fcolor-diagnostics -fmerge-all-constants -Xclang -mllvm -Xclang -instcombine-lower-dbg-declare=0 -no-canonical-prefixes -m64 -march=x86-64 -Wall -Wextra -Wimplicit-fallthrough -Wthread-safety -Wno-missing-field-initializers -Wno-unused-parameter -Wno-c++11-narrowing -Wno-covered-switch-default -Wno-unneeded-internal-declaration -Wno-undefined-var-template -Wno-nonportable-include-path -Wno-user-defined-warnings -Wno-unused-lambda-capture -Wno-ignored-pragma-optimize -fno-omit-frame-pointer -g0 -fvisibility=hidden -Wheader-hygiene -Wstring-conversion -Wtautological-overlap-compare -Wno-char-subscripts -Wglobal-constructors -Wexit-time-destructors -Wexit-time-destructors -Wshadow -I/usr/include/glib-2.0 -I/usr/lib/glib-2.0/include -I/usr/lib/libffi-3.2.1/include -Wexit-time-destructors -O2 -fno-ident -fdata-sections -ffunction-sections -std=c++14 -fno-exceptions -fno-rtti -fvisibility-inlines-hidden -D_FORTIFY_SOURCE=2 -march=x86-64 -mtune=generic -O2 -pipe -fstack-protector-strong -fno-plt -c ../../base/metrics/user_metrics.cc -o obj/base/base/user_metrics.o
1122  [11/28/2018 03:14PM]: [196/5007] clang++ -MMD -MF obj/base/base/mime_util_xdg.o.d -DUSE_SYMBOLIZE -DV8_DEPRECATION_WARNINGS -DUSE_UDEV -DUSE_AURA=1 -DUSE_GLIB=1 -DUSE_NSS_CERTS=1 -DUSE_X11=1 -DFULL_SAFE_BROWSING -DSAFE_BROWSING_CSD -DSAFE_BROWSING_DB_LOCAL -DCHROMIUM_BUILD -D_FILE_OFFSET_BITS=64 -D_LARGEFILE_SOURCE -D_LARGEFILE64_SOURCE -D_GNU_SOURCE -DCR_CLANG_REVISION=\340925-1\ -D__STDC_CONSTANT_MACROS -D__STDC_FORMAT_MACROS -DCOMPONENT_BUILD -DNDEBUG -DNVALGRIND -DDYNAMIC_ANNOTATIONS_ENABLED=0 -DBASE_IMPLEMENTATION -DGLIB_VERSION_MAX_ALLOWED=GLIB_VERSION_2_32 -DGLIB_VERSION_MIN_REQUIRED=GLIB_VERSION_2_26 -I../.. -Igen -fno-strict-aliasing --param=ssp-buffer-size=4 -fstack-protector -Wno-builtin-macro-redefined -D__DATE__= -D__TIME__= -D__TIMESTAMP__= -funwind-tables -fPIC -pthread -fcolor-diagnostics -fmerge-all-constants -Xclang -mllvm -Xclang -instcombine-lower-dbg-declare=0 -no-canonical-prefixes -m64 -march=x86-64 -Wall -Wextra -Wimplicit-fallthrough -Wthread-safety -Wno-missing-field-initializers -Wno-unused-parameter -Wno-c++11-narrowing -Wno-covered-switch-default -Wno-unneeded-internal-declaration -Wno-undefined-var-template -Wno-nonportable-include-path -Wno-user-defined-warnings -Wno-unused-lambda-capture -Wno-ignored-pragma-optimize -fno-omit-frame-pointer -g0 -fvisibility=hidden -Wheader-hygiene -Wstring-conversion -Wtautological-overlap-compare -Wno-char-subscripts -Wglobal-constructors -Wexit-time-destructors -Wexit-time-destructors -Wshadow -I/usr/include/glib-2.0 -I/usr/lib/glib-2.0/include -I/usr/lib/libffi-3.2.1/include -Wexit-time-destructors -O2 -fno-ident -fdata-sections -ffunction-sections -std=c++14 -fno-exceptions -fno-rtti -fvisibility-inlines-hidden -D_FORTIFY_SOURCE=2 -march=x86-64 -mtune=generic -O2 -pipe -fstack-protector-strong -fno-plt -c ../../base/nix/mime_util_xdg.cc -o obj/base/base/mime_util_xdg.o
1123  [11/28/2018 03:14PM]: [197/5007] clang++ -MMD -MF obj/base/base/xdg_util.o.d -DUSE_SYMBOLIZE -DV8_DEPRECATION_WARNINGS -DUSE_UDEV -DUSE_AURA=1 -DUSE_GLIB=1 -DUSE_NSS_CERTS=1 -DUSE_X11=1 -DFULL_SAFE_BROWSING -DSAFE_BROWSING_CSD -DSAFE_BROWSING_DB_LOCAL -DCHROMIUM_BUILD -D_FILE_OFFSET_BITS=64 -D_LARGEFILE_SOURCE -D_LARGEFILE64_SOURCE -D_GNU_SOURCE -DCR_CLANG_REVISION=\340925-1\ -D__STDC_CONSTANT_MACROS -D__STDC_FORMAT_MACROS -DCOMPONENT_BUILD -DNDEBUG -DNVALGRIND -DDYNAMIC_ANNOTATIONS_ENABLED=0 -DBASE_IMPLEMENTATION -DGLIB_VERSION_MAX_ALLOWED=GLIB_VERSION_2_32 -DGLIB_VERSION_MIN_REQUIRED=GLIB_VERSION_2_26 -I../.. -Igen -fno-strict-aliasing --param=ssp-buffer-size=4 -fstack-protector -Wno-builtin-macro-redefined -D__DATE__= -D__TIME__= -D__TIMESTAMP__= -funwind-tables -fPIC -pthread -fcolor-diagnostics -fmerge-all-constants -Xclang -mllvm -Xclang -instcombine-lower-dbg-declare=0 -no-canonical-prefixes -m64 -march=x86-64 -Wall -Wextra -Wimplicit-fallthrough -Wthread-safety -Wno-missing-field-initializers -Wno-unused-parameter -Wno-c++11-narrowing -Wno-covered-switch-default -Wno-unneeded-internal-declaration -Wno-undefined-var-template -Wno-nonportable-include-path -Wno-user-defined-warnings -Wno-unused-lambda-capture -Wno-ignored-pragma-optimize -fno-omit-frame-pointer -g0 -fvisibility=hidden -Wheader-hygiene -Wstring-conversion -Wtautological-overlap-compare -Wno-char-subscripts -Wglobal-constructors -Wexit-time-destructors -Wexit-time-destructors -Wshadow -I/usr/include/glib-2.0 -I/usr/lib/glib-2.0/include -I/usr/lib/libffi-3.2.1/include -Wexit-time-destructors -O2 -fno-ident -fdata-sections -ffunction-sections -std=c++14 -fno-exceptions -fno-rtti -fvisibility-inlines-hidden -D_FORTIFY_SOURCE=2 -march=x86-64 -mtune=generic -O2 -pipe -fstack-protector-strong -fno-plt -c ../../base/nix/xdg_util.cc -o obj/base/base/xdg_util.o
1124  [11/28/2018 03:14PM]: [198/5007] clang++ -MMD -MF obj/base/base/observer_list_threadsafe.o.d -DUSE_SYMBOLIZE -DV8_DEPRECATION_WARNINGS -DUSE_UDEV -DUSE_AURA=1 -DUSE_GLIB=1 -DUSE_NSS_CERTS=1 -DUSE_X11=1 -DFULL_SAFE_BROWSING -DSAFE_BROWSING_CSD -DSAFE_BROWSING_DB_LOCAL -DCHROMIUM_BUILD -D_FILE_OFFSET_BITS=64 -D_LARGEFILE_SOURCE -D_LARGEFILE64_SOURCE -D_GNU_SOURCE -DCR_CLANG_REVISION=\340925-1\ -D__STDC_CONSTANT_MACROS -D__STDC_FORMAT_MACROS -DCOMPONENT_BUILD -DNDEBUG -DNVALGRIND -DDYNAMIC_ANNOTATIONS_ENABLED=0 -DBASE_IMPLEMENTATION -DGLIB_VERSION_MAX_ALLOWED=GLIB_VERSION_2_32 -DGLIB_VERSION_MIN_REQUIRED=GLIB_VERSION_2_26 -I../.. -Igen -fno-strict-aliasing --param=ssp-buffer-size=4 -fstack-protector -Wno-builtin-macro-redefined -D__DATE__= -D__TIME__= -D__TIMESTAMP__= -funwind-tables -fPIC -pthread -fcolor-diagnostics -fmerge-all-constants -Xclang -mllvm -Xclang -instcombine-lower-dbg-declare=0 -no-canonical-prefixes -m64 -march=x86-64 -Wall -Wextra -Wimplicit-fallthrough -Wthread-safety -Wno-missing-field-initializers -Wno-unused-parameter -Wno-c++11-narrowing -Wno-covered-switch-default -Wno-unneeded-internal-declaration -Wno-undefined-var-template -Wno-nonportable-include-path -Wno-user-defined-warnings -Wno-unused-lambda-capture -Wno-ignored-pragma-optimize -fno-omit-frame-pointer -g0 -fvisibility=hidden -Wheader-hygiene -Wstring-conversion -Wtautological-overlap-compare -Wno-char-subscripts -Wglobal-constructors -Wexit-time-destructors -Wexit-time-destructors -Wshadow -I/usr/include/glib-2.0 -I/usr/lib/glib-2.0/include -I/usr/lib/libffi-3.2.1/include -Wexit-time-destructors -O2 -fno-ident -fdata-sections -ffunction-sections -std=c++14 -fno-exceptions -fno-rtti -fvisibility-inlines-hidden -D_FORTIFY_SOURCE=2 -march=x86-64 -mtune=generic -O2 -pipe -fstack-protector-strong -fno-plt -c ../../base/observer_list_threadsafe.cc -o obj/base/base/observer_list_threadsafe.o
1125  [11/28/2018 03:14PM]: [199/5007] clang++ -MMD -MF obj/base/base/path_service.o.d -DUSE_SYMBOLIZE -DV8_DEPRECATION_WARNINGS -DUSE_UDEV -DUSE_AURA=1 -DUSE_GLIB=1 -DUSE_NSS_CERTS=1 -DUSE_X11=1 -DFULL_SAFE_BROWSING -DSAFE_BROWSING_CSD -DSAFE_BROWSING_DB_LOCAL -DCHROMIUM_BUILD -D_FILE_OFFSET_BITS=64 -D_LARGEFILE_SOURCE -D_LARGEFILE64_SOURCE -D_GNU_SOURCE -DCR_CLANG_REVISION=\340925-1\ -D__STDC_CONSTANT_MACROS -D__STDC_FORMAT_MACROS -DCOMPONENT_BUILD -DNDEBUG -DNVALGRIND -DDYNAMIC_ANNOTATIONS_ENABLED=0 -DBASE_IMPLEMENTATION -DGLIB_VERSION_MAX_ALLOWED=GLIB_VERSION_2_32 -DGLIB_VERSION_MIN_REQUIRED=GLIB_VERSION_2_26 -I../.. -Igen -fno-strict-aliasing --param=ssp-buffer-size=4 -fstack-protector -Wno-builtin-macro-redefined -D__DATE__= -D__TIME__= -D__TIMESTAMP__= -funwind-tables -fPIC -pthread -fcolor-diagnostics -fmerge-all-constants -Xclang -mllvm -Xclang -instcombine-lower-dbg-declare=0 -no-canonical-prefixes -m64 -march=x86-64 -Wall -Wextra -Wimplicit-fallthrough -Wthread-safety -Wno-missing-field-initializers -Wno-unused-parameter -Wno-c++11-narrowing -Wno-covered-switch-default -Wno-unneeded-internal-declaration -Wno-undefined-var-template -Wno-nonportable-include-path -Wno-user-defined-warnings -Wno-unused-lambda-capture -Wno-ignored-pragma-optimize -fno-omit-frame-pointer -g0 -fvisibility=hidden -Wheader-hygiene -Wstring-conversion -Wtautological-overlap-compare -Wno-char-subscripts -Wglobal-constructors -Wexit-time-destructors -Wexit-time-destructors -Wshadow -I/usr/include/glib-2.0 -I/usr/lib/glib-2.0/include -I/usr/lib/libffi-3.2.1/include -Wexit-time-destructors -O2 -fno-ident -fdata-sections -ffunction-sections -std=c++14 -fno-exceptions -fno-rtti -fvisibility-inlines-hidden -D_FORTIFY_SOURCE=2 -march=x86-64 -mtune=generic -O2 -pipe -fstack-protector-strong -fno-plt -c ../../base/path_service.cc -o obj/base/base/path_service.o
1126  [11/28/2018 03:14PM]: [200/5007] clang++ -MMD -MF obj/base/base/pending_task.o.d -DUSE_SYMBOLIZE -DV8_DEPRECATION_WARNINGS -DUSE_UDEV -DUSE_AURA=1 -DUSE_GLIB=1 -DUSE_NSS_CERTS=1 -DUSE_X11=1 -DFULL_SAFE_BROWSING -DSAFE_BROWSING_CSD -DSAFE_BROWSING_DB_LOCAL -DCHROMIUM_BUILD -D_FILE_OFFSET_BITS=64 -D_LARGEFILE_SOURCE -D_LARGEFILE64_SOURCE -D_GNU_SOURCE -DCR_CLANG_REVISION=\340925-1\ -D__STDC_CONSTANT_MACROS -D__STDC_FORMAT_MACROS -DCOMPONENT_BUILD -DNDEBUG -DNVALGRIND -DDYNAMIC_ANNOTATIONS_ENABLED=0 -DBASE_IMPLEMENTATION -DGLIB_VERSION_MAX_ALLOWED=GLIB_VERSION_2_32 -DGLIB_VERSION_MIN_REQUIRED=GLIB_VERSION_2_26 -I../.. -Igen -fno-strict-aliasing --param=ssp-buffer-size=4 -fstack-protector -Wno-builtin-macro-redefined -D__DATE__= -D__TIME__= -D__TIMESTAMP__= -funwind-tables -fPIC -pthread -fcolor-diagnostics -fmerge-all-constants -Xclang -mllvm -Xclang -instcombine-lower-dbg-declare=0 -no-canonical-prefixes -m64 -march=x86-64 -Wall -Wextra -Wimplicit-fallthrough -Wthread-safety -Wno-missing-field-initializers -Wno-unused-parameter -Wno-c++11-narrowing -Wno-covered-switch-default -Wno-unneeded-internal-declaration -Wno-undefined-var-template -Wno-nonportable-include-path -Wno-user-defined-warnings -Wno-unused-lambda-capture -Wno-ignored-pragma-optimize -fno-omit-frame-pointer -g0 -fvisibility=hidden -Wheader-hygiene -Wstring-conversion -Wtautological-overlap-compare -Wno-char-subscripts -Wglobal-constructors -Wexit-time-destructors -Wexit-time-destructors -Wshadow -I/usr/include/glib-2.0 -I/usr/lib/glib-2.0/include -I/usr/lib/libffi-3.2.1/include -Wexit-time-destructors -O2 -fno-ident -fdata-sections -ffunction-sections -std=c++14 -fno-exceptions -fno-rtti -fvisibility-inlines-hidden -D_FORTIFY_SOURCE=2 -march=x86-64 -mtune=generic -O2 -pipe -fstack-protector-strong -fno-plt -c ../../base/pending_task.cc -o obj/base/base/pending_task.o
1127  [11/28/2018 03:14PM]: [201/5007] clang++ -MMD -MF obj/base/base/pickle.o.d -DUSE_SYMBOLIZE -DV8_DEPRECATION_WARNINGS -DUSE_UDEV -DUSE_AURA=1 -DUSE_GLIB=1 -DUSE_NSS_CERTS=1 -DUSE_X11=1 -DFULL_SAFE_BROWSING -DSAFE_BROWSING_CSD -DSAFE_BROWSING_DB_LOCAL -DCHROMIUM_BUILD -D_FILE_OFFSET_BITS=64 -D_LARGEFILE_SOURCE -D_LARGEFILE64_SOURCE -D_GNU_SOURCE -DCR_CLANG_REVISION=\340925-1\ -D__STDC_CONSTANT_MACROS -D__STDC_FORMAT_MACROS -DCOMPONENT_BUILD -DNDEBUG -DNVALGRIND -DDYNAMIC_ANNOTATIONS_ENABLED=0 -DBASE_IMPLEMENTATION -DGLIB_VERSION_MAX_ALLOWED=GLIB_VERSION_2_32 -DGLIB_VERSION_MIN_REQUIRED=GLIB_VERSION_2_26 -I../.. -Igen -fno-strict-aliasing --param=ssp-buffer-size=4 -fstack-protector -Wno-builtin-macro-redefined -D__DATE__= -D__TIME__= -D__TIMESTAMP__= -funwind-tables -fPIC -pthread -fcolor-diagnostics -fmerge-all-constants -Xclang -mllvm -Xclang -instcombine-lower-dbg-declare=0 -no-canonical-prefixes -m64 -march=x86-64 -Wall -Wextra -Wimplicit-fallthrough -Wthread-safety -Wno-missing-field-initializers -Wno-unused-parameter -Wno-c++11-narrowing -Wno-covered-switch-default -Wno-unneeded-internal-declaration -Wno-undefined-var-template -Wno-nonportable-include-path -Wno-user-defined-warnings -Wno-unused-lambda-capture -Wno-ignored-pragma-optimize -fno-omit-frame-pointer -g0 -fvisibility=hidden -Wheader-hygiene -Wstring-conversion -Wtautological-overlap-compare -Wno-char-subscripts -Wglobal-constructors -Wexit-time-destructors -Wexit-time-destructors -Wshadow -I/usr/include/glib-2.0 -I/usr/lib/glib-2.0/include -I/usr/lib/libffi-3.2.1/include -Wexit-time-destructors -O2 -fno-ident -fdata-sections -ffunction-sections -std=c++14 -fno-exceptions -fno-rtti -fvisibility-inlines-hidden -D_FORTIFY_SOURCE=2 -march=x86-64 -mtune=generic -O2 -pipe -fstack-protector-strong -fno-plt -c ../../base/pickle.cc -o obj/base/base/pickle.o
1128  [11/28/2018 03:14PM]: [202/5007] clang++ -MMD -MF obj/base/base/statistics_recorder.o.d -DUSE_SYMBOLIZE -DV8_DEPRECATION_WARNINGS -DUSE_UDEV -DUSE_AURA=1 -DUSE_GLIB=1 -DUSE_NSS_CERTS=1 -DUSE_X11=1 -DFULL_SAFE_BROWSING -DSAFE_BROWSING_CSD -DSAFE_BROWSING_DB_LOCAL -DCHROMIUM_BUILD -D_FILE_OFFSET_BITS=64 -D_LARGEFILE_SOURCE -D_LARGEFILE64_SOURCE -D_GNU_SOURCE -DCR_CLANG_REVISION=\340925-1\ -D__STDC_CONSTANT_MACROS -D__STDC_FORMAT_MACROS -DCOMPONENT_BUILD -DNDEBUG -DNVALGRIND -DDYNAMIC_ANNOTATIONS_ENABLED=0 -DBASE_IMPLEMENTATION -DGLIB_VERSION_MAX_ALLOWED=GLIB_VERSION_2_32 -DGLIB_VERSION_MIN_REQUIRED=GLIB_VERSION_2_26 -I../.. -Igen -fno-strict-aliasing --param=ssp-buffer-size=4 -fstack-protector -Wno-builtin-macro-redefined -D__DATE__= -D__TIME__= -D__TIMESTAMP__= -funwind-tables -fPIC -pthread -fcolor-diagnostics -fmerge-all-constants -Xclang -mllvm -Xclang -instcombine-lower-dbg-declare=0 -no-canonical-prefixes -m64 -march=x86-64 -Wall -Wextra -Wimplicit-fallthrough -Wthread-safety -Wno-missing-field-initializers -Wno-unused-parameter -Wno-c++11-narrowing -Wno-covered-switch-default -Wno-unneeded-internal-declaration -Wno-undefined-var-template -Wno-nonportable-include-path -Wno-user-defined-warnings -Wno-unused-lambda-capture -Wno-ignored-pragma-optimize -fno-omit-frame-pointer -g0 -fvisibility=hidden -Wheader-hygiene -Wstring-conversion -Wtautological-overlap-compare -Wno-char-subscripts -Wglobal-constructors -Wexit-time-destructors -Wexit-time-destructors -Wshadow -I/usr/include/glib-2.0 -I/usr/lib/glib-2.0/include -I/usr/lib/libffi-3.2.1/include -Wexit-time-destructors -O2 -fno-ident -fdata-sections -ffunction-sections -std=c++14 -fno-exceptions -fno-rtti -fvisibility-inlines-hidden -D_FORTIFY_SOURCE=2 -march=x86-64 -mtune=generic -O2 -pipe -fstack-protector-strong -fno-plt -c ../../base/metrics/statistics_recorder.cc -o obj/base/base/statistics_recorder.o
1129  [11/28/2018 03:14PM]: [203/5007] clang++ -MMD -MF obj/base/base/power_monitor_device_source.o.d -DUSE_SYMBOLIZE -DV8_DEPRECATION_WARNINGS -DUSE_UDEV -DUSE_AURA=1 -DUSE_GLIB=1 -DUSE_NSS_CERTS=1 -DUSE_X11=1 -DFULL_SAFE_BROWSING -DSAFE_BROWSING_CSD -DSAFE_BROWSING_DB_LOCAL -DCHROMIUM_BUILD -D_FILE_OFFSET_BITS=64 -D_LARGEFILE_SOURCE -D_LARGEFILE64_SOURCE -D_GNU_SOURCE -DCR_CLANG_REVISION=\340925-1\ -D__STDC_CONSTANT_MACROS -D__STDC_FORMAT_MACROS -DCOMPONENT_BUILD -DNDEBUG -DNVALGRIND -DDYNAMIC_ANNOTATIONS_ENABLED=0 -DBASE_IMPLEMENTATION -DGLIB_VERSION_MAX_ALLOWED=GLIB_VERSION_2_32 -DGLIB_VERSION_MIN_REQUIRED=GLIB_VERSION_2_26 -I../.. -Igen -fno-strict-aliasing --param=ssp-buffer-size=4 -fstack-protector -Wno-builtin-macro-redefined -D__DATE__= -D__TIME__= -D__TIMESTAMP__= -funwind-tables -fPIC -pthread -fcolor-diagnostics -fmerge-all-constants -Xclang -mllvm -Xclang -instcombine-lower-dbg-declare=0 -no-canonical-prefixes -m64 -march=x86-64 -Wall -Wextra -Wimplicit-fallthrough -Wthread-safety -Wno-missing-field-initializers -Wno-unused-parameter -Wno-c++11-narrowing -Wno-covered-switch-default -Wno-unneeded-internal-declaration -Wno-undefined-var-template -Wno-nonportable-include-path -Wno-user-defined-warnings -Wno-unused-lambda-capture -Wno-ignored-pragma-optimize -fno-omit-frame-pointer -g0 -fvisibility=hidden -Wheader-hygiene -Wstring-conversion -Wtautological-overlap-compare -Wno-char-subscripts -Wglobal-constructors -Wexit-time-destructors -Wexit-time-destructors -Wshadow -I/usr/include/glib-2.0 -I/usr/lib/glib-2.0/include -I/usr/lib/libffi-3.2.1/include -Wexit-time-destructors -O2 -fno-ident -fdata-sections -ffunction-sections -std=c++14 -fno-exceptions -fno-rtti -fvisibility-inlines-hidden -D_FORTIFY_SOURCE=2 -march=x86-64 -mtune=generic -O2 -pipe -fstack-protector-strong -fno-plt -c ../../base/power_monitor/power_monitor_device_source.cc -o obj/base/base/power_monitor_device_source.o
1130  [11/28/2018 03:14PM]: [204/5007] clang++ -MMD -MF obj/base/base/power_monitor_source.o.d -DUSE_SYMBOLIZE -DV8_DEPRECATION_WARNINGS -DUSE_UDEV -DUSE_AURA=1 -DUSE_GLIB=1 -DUSE_NSS_CERTS=1 -DUSE_X11=1 -DFULL_SAFE_BROWSING -DSAFE_BROWSING_CSD -DSAFE_BROWSING_DB_LOCAL -DCHROMIUM_BUILD -D_FILE_OFFSET_BITS=64 -D_LARGEFILE_SOURCE -D_LARGEFILE64_SOURCE -D_GNU_SOURCE -DCR_CLANG_REVISION=\340925-1\ -D__STDC_CONSTANT_MACROS -D__STDC_FORMAT_MACROS -DCOMPONENT_BUILD -DNDEBUG -DNVALGRIND -DDYNAMIC_ANNOTATIONS_ENABLED=0 -DBASE_IMPLEMENTATION -DGLIB_VERSION_MAX_ALLOWED=GLIB_VERSION_2_32 -DGLIB_VERSION_MIN_REQUIRED=GLIB_VERSION_2_26 -I../.. -Igen -fno-strict-aliasing --param=ssp-buffer-size=4 -fstack-protector -Wno-builtin-macro-redefined -D__DATE__= -D__TIME__= -D__TIMESTAMP__= -funwind-tables -fPIC -pthread -fcolor-diagnostics -fmerge-all-constants -Xclang -mllvm -Xclang -instcombine-lower-dbg-declare=0 -no-canonical-prefixes -m64 -march=x86-64 -Wall -Wextra -Wimplicit-fallthrough -Wthread-safety -Wno-missing-field-initializers -Wno-unused-parameter -Wno-c++11-narrowing -Wno-covered-switch-default -Wno-unneeded-internal-declaration -Wno-undefined-var-template -Wno-nonportable-include-path -Wno-user-defined-warnings -Wno-unused-lambda-capture -Wno-ignored-pragma-optimize -fno-omit-frame-pointer -g0 -fvisibility=hidden -Wheader-hygiene -Wstring-conversion -Wtautological-overlap-compare -Wno-char-subscripts -Wglobal-constructors -Wexit-time-destructors -Wexit-time-destructors -Wshadow -I/usr/include/glib-2.0 -I/usr/lib/glib-2.0/include -I/usr/lib/libffi-3.2.1/include -Wexit-time-destructors -O2 -fno-ident -fdata-sections -ffunction-sections -std=c++14 -fno-exceptions -fno-rtti -fvisibility-inlines-hidden -D_FORTIFY_SOURCE=2 -march=x86-64 -mtune=generic -O2 -pipe -fstack-protector-strong -fno-plt -c ../../base/power_monitor/power_monitor_source.cc -o obj/base/base/power_monitor_source.o
1131  [11/28/2018 03:14PM]: [205/5007] clang++ -MMD -MF obj/base/base/kill.o.d -DUSE_SYMBOLIZE -DV8_DEPRECATION_WARNINGS -DUSE_UDEV -DUSE_AURA=1 -DUSE_GLIB=1 -DUSE_NSS_CERTS=1 -DUSE_X11=1 -DFULL_SAFE_BROWSING -DSAFE_BROWSING_CSD -DSAFE_BROWSING_DB_LOCAL -DCHROMIUM_BUILD -D_FILE_OFFSET_BITS=64 -D_LARGEFILE_SOURCE -D_LARGEFILE64_SOURCE -D_GNU_SOURCE -DCR_CLANG_REVISION=\340925-1\ -D__STDC_CONSTANT_MACROS -D__STDC_FORMAT_MACROS -DCOMPONENT_BUILD -DNDEBUG -DNVALGRIND -DDYNAMIC_ANNOTATIONS_ENABLED=0 -DBASE_IMPLEMENTATION -DGLIB_VERSION_MAX_ALLOWED=GLIB_VERSION_2_32 -DGLIB_VERSION_MIN_REQUIRED=GLIB_VERSION_2_26 -I../.. -Igen -fno-strict-aliasing --param=ssp-buffer-size=4 -fstack-protector -Wno-builtin-macro-redefined -D__DATE__= -D__TIME__= -D__TIMESTAMP__= -funwind-tables -fPIC -pthread -fcolor-diagnostics -fmerge-all-constants -Xclang -mllvm -Xclang -instcombine-lower-dbg-declare=0 -no-canonical-prefixes -m64 -march=x86-64 -Wall -Wextra -Wimplicit-fallthrough -Wthread-safety -Wno-missing-field-initializers -Wno-unused-parameter -Wno-c++11-narrowing -Wno-covered-switch-default -Wno-unneeded-internal-declaration -Wno-undefined-var-template -Wno-nonportable-include-path -Wno-user-defined-warnings -Wno-unused-lambda-capture -Wno-ignored-pragma-optimize -fno-omit-frame-pointer -g0 -fvisibility=hidden -Wheader-hygiene -Wstring-conversion -Wtautological-overlap-compare -Wno-char-subscripts -Wglobal-constructors -Wexit-time-destructors -Wexit-time-destructors -Wshadow -I/usr/include/glib-2.0 -I/usr/lib/glib-2.0/include -I/usr/lib/libffi-3.2.1/include -Wexit-time-destructors -O2 -fno-ident -fdata-sections -ffunction-sections -std=c++14 -fno-exceptions -fno-rtti -fvisibility-inlines-hidden -D_FORTIFY_SOURCE=2 -march=x86-64 -mtune=generic -O2 -pipe -fstack-protector-strong -fno-plt -c ../../base/process/kill.cc -o obj/base/base/kill.o
1132  [11/28/2018 03:14PM]: [206/5007] clang++ -MMD -MF obj/base/base/power_monitor.o.d -DUSE_SYMBOLIZE -DV8_DEPRECATION_WARNINGS -DUSE_UDEV -DUSE_AURA=1 -DUSE_GLIB=1 -DUSE_NSS_CERTS=1 -DUSE_X11=1 -DFULL_SAFE_BROWSING -DSAFE_BROWSING_CSD -DSAFE_BROWSING_DB_LOCAL -DCHROMIUM_BUILD -D_FILE_OFFSET_BITS=64 -D_LARGEFILE_SOURCE -D_LARGEFILE64_SOURCE -D_GNU_SOURCE -DCR_CLANG_REVISION=\340925-1\ -D__STDC_CONSTANT_MACROS -D__STDC_FORMAT_MACROS -DCOMPONENT_BUILD -DNDEBUG -DNVALGRIND -DDYNAMIC_ANNOTATIONS_ENABLED=0 -DBASE_IMPLEMENTATION -DGLIB_VERSION_MAX_ALLOWED=GLIB_VERSION_2_32 -DGLIB_VERSION_MIN_REQUIRED=GLIB_VERSION_2_26 -I../.. -Igen -fno-strict-aliasing --param=ssp-buffer-size=4 -fstack-protector -Wno-builtin-macro-redefined -D__DATE__= -D__TIME__= -D__TIMESTAMP__= -funwind-tables -fPIC -pthread -fcolor-diagnostics -fmerge-all-constants -Xclang -mllvm -Xclang -instcombine-lower-dbg-declare=0 -no-canonical-prefixes -m64 -march=x86-64 -Wall -Wextra -Wimplicit-fallthrough -Wthread-safety -Wno-missing-field-initializers -Wno-unused-parameter -Wno-c++11-narrowing -Wno-covered-switch-default -Wno-unneeded-internal-declaration -Wno-undefined-var-template -Wno-nonportable-include-path -Wno-user-defined-warnings -Wno-unused-lambda-capture -Wno-ignored-pragma-optimize -fno-omit-frame-pointer -g0 -fvisibility=hidden -Wheader-hygiene -Wstring-conversion -Wtautological-overlap-compare -Wno-char-subscripts -Wglobal-constructors -Wexit-time-destructors -Wexit-time-destructors -Wshadow -I/usr/include/glib-2.0 -I/usr/lib/glib-2.0/include -I/usr/lib/libffi-3.2.1/include -Wexit-time-destructors -O2 -fno-ident -fdata-sections -ffunction-sections -std=c++14 -fno-exceptions -fno-rtti -fvisibility-inlines-hidden -D_FORTIFY_SOURCE=2 -march=x86-64 -mtune=generic -O2 -pipe -fstack-protector-strong -fno-plt -c ../../base/power_monitor/power_monitor.cc -o obj/base/base/power_monitor.o
1133  [11/28/2018 03:14PM]: [207/5007] clang++ -MMD -MF obj/base/base/memory.o.d -DUSE_SYMBOLIZE -DV8_DEPRECATION_WARNINGS -DUSE_UDEV -DUSE_AURA=1 -DUSE_GLIB=1 -DUSE_NSS_CERTS=1 -DUSE_X11=1 -DFULL_SAFE_BROWSING -DSAFE_BROWSING_CSD -DSAFE_BROWSING_DB_LOCAL -DCHROMIUM_BUILD -D_FILE_OFFSET_BITS=64 -D_LARGEFILE_SOURCE -D_LARGEFILE64_SOURCE -D_GNU_SOURCE -DCR_CLANG_REVISION=\340925-1\ -D__STDC_CONSTANT_MACROS -D__STDC_FORMAT_MACROS -DCOMPONENT_BUILD -DNDEBUG -DNVALGRIND -DDYNAMIC_ANNOTATIONS_ENABLED=0 -DBASE_IMPLEMENTATION -DGLIB_VERSION_MAX_ALLOWED=GLIB_VERSION_2_32 -DGLIB_VERSION_MIN_REQUIRED=GLIB_VERSION_2_26 -I../.. -Igen -fno-strict-aliasing --param=ssp-buffer-size=4 -fstack-protector -Wno-builtin-macro-redefined -D__DATE__= -D__TIME__= -D__TIMESTAMP__= -funwind-tables -fPIC -pthread -fcolor-diagnostics -fmerge-all-constants -Xclang -mllvm -Xclang -instcombine-lower-dbg-declare=0 -no-canonical-prefixes -m64 -march=x86-64 -Wall -Wextra -Wimplicit-fallthrough -Wthread-safety -Wno-missing-field-initializers -Wno-unused-parameter -Wno-c++11-narrowing -Wno-covered-switch-default -Wno-unneeded-internal-declaration -Wno-undefined-var-template -Wno-nonportable-include-path -Wno-user-defined-warnings -Wno-unused-lambda-capture -Wno-ignored-pragma-optimize -fno-omit-frame-pointer -g0 -fvisibility=hidden -Wheader-hygiene -Wstring-conversion -Wtautological-overlap-compare -Wno-char-subscripts -Wglobal-constructors -Wexit-time-destructors -Wexit-time-destructors -Wshadow -I/usr/include/glib-2.0 -I/usr/lib/glib-2.0/include -I/usr/lib/libffi-3.2.1/include -Wexit-time-destructors -O2 -fno-ident -fdata-sections -ffunction-sections -std=c++14 -fno-exceptions -fno-rtti -fvisibility-inlines-hidden -D_FORTIFY_SOURCE=2 -march=x86-64 -mtune=generic -O2 -pipe -fstack-protector-strong -fno-plt -c ../../base/process/memory.cc -o obj/base/base/memory.o
1134  [11/28/2018 03:14PM]: [208/5007] clang++ -MMD -MF obj/base/base/launch.o.d -DUSE_SYMBOLIZE -DV8_DEPRECATION_WARNINGS -DUSE_UDEV -DUSE_AURA=1 -DUSE_GLIB=1 -DUSE_NSS_CERTS=1 -DUSE_X11=1 -DFULL_SAFE_BROWSING -DSAFE_BROWSING_CSD -DSAFE_BROWSING_DB_LOCAL -DCHROMIUM_BUILD -D_FILE_OFFSET_BITS=64 -D_LARGEFILE_SOURCE -D_LARGEFILE64_SOURCE -D_GNU_SOURCE -DCR_CLANG_REVISION=\340925-1\ -D__STDC_CONSTANT_MACROS -D__STDC_FORMAT_MACROS -DCOMPONENT_BUILD -DNDEBUG -DNVALGRIND -DDYNAMIC_ANNOTATIONS_ENABLED=0 -DBASE_IMPLEMENTATION -DGLIB_VERSION_MAX_ALLOWED=GLIB_VERSION_2_32 -DGLIB_VERSION_MIN_REQUIRED=GLIB_VERSION_2_26 -I../.. -Igen -fno-strict-aliasing --param=ssp-buffer-size=4 -fstack-protector -Wno-builtin-macro-redefined -D__DATE__= -D__TIME__= -D__TIMESTAMP__= -funwind-tables -fPIC -pthread -fcolor-diagnostics -fmerge-all-constants -Xclang -mllvm -Xclang -instcombine-lower-dbg-declare=0 -no-canonical-prefixes -m64 -march=x86-64 -Wall -Wextra -Wimplicit-fallthrough -Wthread-safety -Wno-missing-field-initializers -Wno-unused-parameter -Wno-c++11-narrowing -Wno-covered-switch-default -Wno-unneeded-internal-declaration -Wno-undefined-var-template -Wno-nonportable-include-path -Wno-user-defined-warnings -Wno-unused-lambda-capture -Wno-ignored-pragma-optimize -fno-omit-frame-pointer -g0 -fvisibility=hidden -Wheader-hygiene -Wstring-conversion -Wtautological-overlap-compare -Wno-char-subscripts -Wglobal-constructors -Wexit-time-destructors -Wexit-time-destructors -Wshadow -I/usr/include/glib-2.0 -I/usr/lib/glib-2.0/include -I/usr/lib/libffi-3.2.1/include -Wexit-time-destructors -O2 -fno-ident -fdata-sections -ffunction-sections -std=c++14 -fno-exceptions -fno-rtti -fvisibility-inlines-hidden -D_FORTIFY_SOURCE=2 -march=x86-64 -mtune=generic -O2 -pipe -fstack-protector-strong -fno-plt -c ../../base/process/launch.cc -o obj/base/base/launch.o
1135  [11/28/2018 03:14PM]: [209/5007] clang++ -MMD -MF obj/base/base/internal_linux.o.d -DUSE_SYMBOLIZE -DV8_DEPRECATION_WARNINGS -DUSE_UDEV -DUSE_AURA=1 -DUSE_GLIB=1 -DUSE_NSS_CERTS=1 -DUSE_X11=1 -DFULL_SAFE_BROWSING -DSAFE_BROWSING_CSD -DSAFE_BROWSING_DB_LOCAL -DCHROMIUM_BUILD -D_FILE_OFFSET_BITS=64 -D_LARGEFILE_SOURCE -D_LARGEFILE64_SOURCE -D_GNU_SOURCE -DCR_CLANG_REVISION=\340925-1\ -D__STDC_CONSTANT_MACROS -D__STDC_FORMAT_MACROS -DCOMPONENT_BUILD -DNDEBUG -DNVALGRIND -DDYNAMIC_ANNOTATIONS_ENABLED=0 -DBASE_IMPLEMENTATION -DGLIB_VERSION_MAX_ALLOWED=GLIB_VERSION_2_32 -DGLIB_VERSION_MIN_REQUIRED=GLIB_VERSION_2_26 -I../.. -Igen -fno-strict-aliasing --param=ssp-buffer-size=4 -fstack-protector -Wno-builtin-macro-redefined -D__DATE__= -D__TIME__= -D__TIMESTAMP__= -funwind-tables -fPIC -pthread -fcolor-diagnostics -fmerge-all-constants -Xclang -mllvm -Xclang -instcombine-lower-dbg-declare=0 -no-canonical-prefixes -m64 -march=x86-64 -Wall -Wextra -Wimplicit-fallthrough -Wthread-safety -Wno-missing-field-initializers -Wno-unused-parameter -Wno-c++11-narrowing -Wno-covered-switch-default -Wno-unneeded-internal-declaration -Wno-undefined-var-template -Wno-nonportable-include-path -Wno-user-defined-warnings -Wno-unused-lambda-capture -Wno-ignored-pragma-optimize -fno-omit-frame-pointer -g0 -fvisibility=hidden -Wheader-hygiene -Wstring-conversion -Wtautological-overlap-compare -Wno-char-subscripts -Wglobal-constructors -Wexit-time-destructors -Wexit-time-destructors -Wshadow -I/usr/include/glib-2.0 -I/usr/lib/glib-2.0/include -I/usr/lib/libffi-3.2.1/include -Wexit-time-destructors -O2 -fno-ident -fdata-sections -ffunction-sections -std=c++14 -fno-exceptions -fno-rtti -fvisibility-inlines-hidden -D_FORTIFY_SOURCE=2 -march=x86-64 -mtune=generic -O2 -pipe -fstack-protector-strong -fno-plt -c ../../base/process/internal_linux.cc -o obj/base/base/internal_linux.o
1136  [11/28/2018 03:14PM]: [210/5007] clang++ -MMD -MF obj/base/base/process_handle.o.d -DUSE_SYMBOLIZE -DV8_DEPRECATION_WARNINGS -DUSE_UDEV -DUSE_AURA=1 -DUSE_GLIB=1 -DUSE_NSS_CERTS=1 -DUSE_X11=1 -DFULL_SAFE_BROWSING -DSAFE_BROWSING_CSD -DSAFE_BROWSING_DB_LOCAL -DCHROMIUM_BUILD -D_FILE_OFFSET_BITS=64 -D_LARGEFILE_SOURCE -D_LARGEFILE64_SOURCE -D_GNU_SOURCE -DCR_CLANG_REVISION=\340925-1\ -D__STDC_CONSTANT_MACROS -D__STDC_FORMAT_MACROS -DCOMPONENT_BUILD -DNDEBUG -DNVALGRIND -DDYNAMIC_ANNOTATIONS_ENABLED=0 -DBASE_IMPLEMENTATION -DGLIB_VERSION_MAX_ALLOWED=GLIB_VERSION_2_32 -DGLIB_VERSION_MIN_REQUIRED=GLIB_VERSION_2_26 -I../.. -Igen -fno-strict-aliasing --param=ssp-buffer-size=4 -fstack-protector -Wno-builtin-macro-redefined -D__DATE__= -D__TIME__= -D__TIMESTAMP__= -funwind-tables -fPIC -pthread -fcolor-diagnostics -fmerge-all-constants -Xclang -mllvm -Xclang -instcombine-lower-dbg-declare=0 -no-canonical-prefixes -m64 -march=x86-64 -Wall -Wextra -Wimplicit-fallthrough -Wthread-safety -Wno-missing-field-initializers -Wno-unused-parameter -Wno-c++11-narrowing -Wno-covered-switch-default -Wno-unneeded-internal-declaration -Wno-undefined-var-template -Wno-nonportable-include-path -Wno-user-defined-warnings -Wno-unused-lambda-capture -Wno-ignored-pragma-optimize -fno-omit-frame-pointer -g0 -fvisibility=hidden -Wheader-hygiene -Wstring-conversion -Wtautological-overlap-compare -Wno-char-subscripts -Wglobal-constructors -Wexit-time-destructors -Wexit-time-destructors -Wshadow -I/usr/include/glib-2.0 -I/usr/lib/glib-2.0/include -I/usr/lib/libffi-3.2.1/include -Wexit-time-destructors -O2 -fno-ident -fdata-sections -ffunction-sections -std=c++14 -fno-exceptions -fno-rtti -fvisibility-inlines-hidden -D_FORTIFY_SOURCE=2 -march=x86-64 -mtune=generic -O2 -pipe -fstack-protector-strong -fno-plt -c ../../base/process/process_handle.cc -o obj/base/base/process_handle.o
1137  [11/28/2018 03:14PM]: [211/5007] clang++ -MMD -MF obj/base/base/memory_linux.o.d -DUSE_SYMBOLIZE -DV8_DEPRECATION_WARNINGS -DUSE_UDEV -DUSE_AURA=1 -DUSE_GLIB=1 -DUSE_NSS_CERTS=1 -DUSE_X11=1 -DFULL_SAFE_BROWSING -DSAFE_BROWSING_CSD -DSAFE_BROWSING_DB_LOCAL -DCHROMIUM_BUILD -D_FILE_OFFSET_BITS=64 -D_LARGEFILE_SOURCE -D_LARGEFILE64_SOURCE -D_GNU_SOURCE -DCR_CLANG_REVISION=\340925-1\ -D__STDC_CONSTANT_MACROS -D__STDC_FORMAT_MACROS -DCOMPONENT_BUILD -DNDEBUG -DNVALGRIND -DDYNAMIC_ANNOTATIONS_ENABLED=0 -DBASE_IMPLEMENTATION -DGLIB_VERSION_MAX_ALLOWED=GLIB_VERSION_2_32 -DGLIB_VERSION_MIN_REQUIRED=GLIB_VERSION_2_26 -I../.. -Igen -fno-strict-aliasing --param=ssp-buffer-size=4 -fstack-protector -Wno-builtin-macro-redefined -D__DATE__= -D__TIME__= -D__TIMESTAMP__= -funwind-tables -fPIC -pthread -fcolor-diagnostics -fmerge-all-constants -Xclang -mllvm -Xclang -instcombine-lower-dbg-declare=0 -no-canonical-prefixes -m64 -march=x86-64 -Wall -Wextra -Wimplicit-fallthrough -Wthread-safety -Wno-missing-field-initializers -Wno-unused-parameter -Wno-c++11-narrowing -Wno-covered-switch-default -Wno-unneeded-internal-declaration -Wno-undefined-var-template -Wno-nonportable-include-path -Wno-user-defined-warnings -Wno-unused-lambda-capture -Wno-ignored-pragma-optimize -fno-omit-frame-pointer -g0 -fvisibility=hidden -Wheader-hygiene -Wstring-conversion -Wtautological-overlap-compare -Wno-char-subscripts -Wglobal-constructors -Wexit-time-destructors -Wexit-time-destructors -Wshadow -I/usr/include/glib-2.0 -I/usr/lib/glib-2.0/include -I/usr/lib/libffi-3.2.1/include -Wexit-time-destructors -O2 -fno-ident -fdata-sections -ffunction-sections -std=c++14 -fno-exceptions -fno-rtti -fvisibility-inlines-hidden -D_FORTIFY_SOURCE=2 -march=x86-64 -mtune=generic -O2 -pipe -fstack-protector-strong -fno-plt -c ../../base/process/memory_linux.cc -o obj/base/base/memory_linux.o
1138  [11/28/2018 03:14PM]: [212/5007] clang++ -MMD -MF obj/base/base/process_handle_linux.o.d -DUSE_SYMBOLIZE -DV8_DEPRECATION_WARNINGS -DUSE_UDEV -DUSE_AURA=1 -DUSE_GLIB=1 -DUSE_NSS_CERTS=1 -DUSE_X11=1 -DFULL_SAFE_BROWSING -DSAFE_BROWSING_CSD -DSAFE_BROWSING_DB_LOCAL -DCHROMIUM_BUILD -D_FILE_OFFSET_BITS=64 -D_LARGEFILE_SOURCE -D_LARGEFILE64_SOURCE -D_GNU_SOURCE -DCR_CLANG_REVISION=\340925-1\ -D__STDC_CONSTANT_MACROS -D__STDC_FORMAT_MACROS -DCOMPONENT_BUILD -DNDEBUG -DNVALGRIND -DDYNAMIC_ANNOTATIONS_ENABLED=0 -DBASE_IMPLEMENTATION -DGLIB_VERSION_MAX_ALLOWED=GLIB_VERSION_2_32 -DGLIB_VERSION_MIN_REQUIRED=GLIB_VERSION_2_26 -I../.. -Igen -fno-strict-aliasing --param=ssp-buffer-size=4 -fstack-protector -Wno-builtin-macro-redefined -D__DATE__= -D__TIME__= -D__TIMESTAMP__= -funwind-tables -fPIC -pthread -fcolor-diagnostics -fmerge-all-constants -Xclang -mllvm -Xclang -instcombine-lower-dbg-declare=0 -no-canonical-prefixes -m64 -march=x86-64 -Wall -Wextra -Wimplicit-fallthrough -Wthread-safety -Wno-missing-field-initializers -Wno-unused-parameter -Wno-c++11-narrowing -Wno-covered-switch-default -Wno-unneeded-internal-declaration -Wno-undefined-var-template -Wno-nonportable-include-path -Wno-user-defined-warnings -Wno-unused-lambda-capture -Wno-ignored-pragma-optimize -fno-omit-frame-pointer -g0 -fvisibility=hidden -Wheader-hygiene -Wstring-conversion -Wtautological-overlap-compare -Wno-char-subscripts -Wglobal-constructors -Wexit-time-destructors -Wexit-time-destructors -Wshadow -I/usr/include/glib-2.0 -I/usr/lib/glib-2.0/include -I/usr/lib/libffi-3.2.1/include -Wexit-time-destructors -O2 -fno-ident -fdata-sections -ffunction-sections -std=c++14 -fno-exceptions -fno-rtti -fvisibility-inlines-hidden -D_FORTIFY_SOURCE=2 -march=x86-64 -mtune=generic -O2 -pipe -fstack-protector-strong -fno-plt -c ../../base/process/process_handle_linux.cc -o obj/base/base/process_handle_linux.o
1139  [11/28/2018 03:14PM]: [213/5007] clang++ -MMD -MF obj/base/base/process_iterator.o.d -DUSE_SYMBOLIZE -DV8_DEPRECATION_WARNINGS -DUSE_UDEV -DUSE_AURA=1 -DUSE_GLIB=1 -DUSE_NSS_CERTS=1 -DUSE_X11=1 -DFULL_SAFE_BROWSING -DSAFE_BROWSING_CSD -DSAFE_BROWSING_DB_LOCAL -DCHROMIUM_BUILD -D_FILE_OFFSET_BITS=64 -D_LARGEFILE_SOURCE -D_LARGEFILE64_SOURCE -D_GNU_SOURCE -DCR_CLANG_REVISION=\340925-1\ -D__STDC_CONSTANT_MACROS -D__STDC_FORMAT_MACROS -DCOMPONENT_BUILD -DNDEBUG -DNVALGRIND -DDYNAMIC_ANNOTATIONS_ENABLED=0 -DBASE_IMPLEMENTATION -DGLIB_VERSION_MAX_ALLOWED=GLIB_VERSION_2_32 -DGLIB_VERSION_MIN_REQUIRED=GLIB_VERSION_2_26 -I../.. -Igen -fno-strict-aliasing --param=ssp-buffer-size=4 -fstack-protector -Wno-builtin-macro-redefined -D__DATE__= -D__TIME__= -D__TIMESTAMP__= -funwind-tables -fPIC -pthread -fcolor-diagnostics -fmerge-all-constants -Xclang -mllvm -Xclang -instcombine-lower-dbg-declare=0 -no-canonical-prefixes -m64 -march=x86-64 -Wall -Wextra -Wimplicit-fallthrough -Wthread-safety -Wno-missing-field-initializers -Wno-unused-parameter -Wno-c++11-narrowing -Wno-covered-switch-default -Wno-unneeded-internal-declaration -Wno-undefined-var-template -Wno-nonportable-include-path -Wno-user-defined-warnings -Wno-unused-lambda-capture -Wno-ignored-pragma-optimize -fno-omit-frame-pointer -g0 -fvisibility=hidden -Wheader-hygiene -Wstring-conversion -Wtautological-overlap-compare -Wno-char-subscripts -Wglobal-constructors -Wexit-time-destructors -Wexit-time-destructors -Wshadow -I/usr/include/glib-2.0 -I/usr/lib/glib-2.0/include -I/usr/lib/libffi-3.2.1/include -Wexit-time-destructors -O2 -fno-ident -fdata-sections -ffunction-sections -std=c++14 -fno-exceptions -fno-rtti -fvisibility-inlines-hidden -D_FORTIFY_SOURCE=2 -march=x86-64 -mtune=generic -O2 -pipe -fstack-protector-strong -fno-plt -c ../../base/process/process_iterator.cc -o obj/base/base/process_iterator.o
1140  [11/28/2018 03:14PM]: [214/5007] clang++ -MMD -MF obj/base/base/process_iterator_linux.o.d -DUSE_SYMBOLIZE -DV8_DEPRECATION_WARNINGS -DUSE_UDEV -DUSE_AURA=1 -DUSE_GLIB=1 -DUSE_NSS_CERTS=1 -DUSE_X11=1 -DFULL_SAFE_BROWSING -DSAFE_BROWSING_CSD -DSAFE_BROWSING_DB_LOCAL -DCHROMIUM_BUILD -D_FILE_OFFSET_BITS=64 -D_LARGEFILE_SOURCE -D_LARGEFILE64_SOURCE -D_GNU_SOURCE -DCR_CLANG_REVISION=\340925-1\ -D__STDC_CONSTANT_MACROS -D__STDC_FORMAT_MACROS -DCOMPONENT_BUILD -DNDEBUG -DNVALGRIND -DDYNAMIC_ANNOTATIONS_ENABLED=0 -DBASE_IMPLEMENTATION -DGLIB_VERSION_MAX_ALLOWED=GLIB_VERSION_2_32 -DGLIB_VERSION_MIN_REQUIRED=GLIB_VERSION_2_26 -I../.. -Igen -fno-strict-aliasing --param=ssp-buffer-size=4 -fstack-protector -Wno-builtin-macro-redefined -D__DATE__= -D__TIME__= -D__TIMESTAMP__= -funwind-tables -fPIC -pthread -fcolor-diagnostics -fmerge-all-constants -Xclang -mllvm -Xclang -instcombine-lower-dbg-declare=0 -no-canonical-prefixes -m64 -march=x86-64 -Wall -Wextra -Wimplicit-fallthrough -Wthread-safety -Wno-missing-field-initializers -Wno-unused-parameter -Wno-c++11-narrowing -Wno-covered-switch-default -Wno-unneeded-internal-declaration -Wno-undefined-var-template -Wno-nonportable-include-path -Wno-user-defined-warnings -Wno-unused-lambda-capture -Wno-ignored-pragma-optimize -fno-omit-frame-pointer -g0 -fvisibility=hidden -Wheader-hygiene -Wstring-conversion -Wtautological-overlap-compare -Wno-char-subscripts -Wglobal-constructors -Wexit-time-destructors -Wexit-time-destructors -Wshadow -I/usr/include/glib-2.0 -I/usr/lib/glib-2.0/include -I/usr/lib/libffi-3.2.1/include -Wexit-time-destructors -O2 -fno-ident -fdata-sections -ffunction-sections -std=c++14 -fno-exceptions -fno-rtti -fvisibility-inlines-hidden -D_FORTIFY_SOURCE=2 -march=x86-64 -mtune=generic -O2 -pipe -fstack-protector-strong -fno-plt -c ../../base/process/process_iterator_linux.cc -o obj/base/base/process_iterator_linux.o
1141  [11/28/2018 03:14PM]: [215/5007] clang++ -MMD -MF obj/base/base/process_info_linux.o.d -DUSE_SYMBOLIZE -DV8_DEPRECATION_WARNINGS -DUSE_UDEV -DUSE_AURA=1 -DUSE_GLIB=1 -DUSE_NSS_CERTS=1 -DUSE_X11=1 -DFULL_SAFE_BROWSING -DSAFE_BROWSING_CSD -DSAFE_BROWSING_DB_LOCAL -DCHROMIUM_BUILD -D_FILE_OFFSET_BITS=64 -D_LARGEFILE_SOURCE -D_LARGEFILE64_SOURCE -D_GNU_SOURCE -DCR_CLANG_REVISION=\340925-1\ -D__STDC_CONSTANT_MACROS -D__STDC_FORMAT_MACROS -DCOMPONENT_BUILD -DNDEBUG -DNVALGRIND -DDYNAMIC_ANNOTATIONS_ENABLED=0 -DBASE_IMPLEMENTATION -DGLIB_VERSION_MAX_ALLOWED=GLIB_VERSION_2_32 -DGLIB_VERSION_MIN_REQUIRED=GLIB_VERSION_2_26 -I../.. -Igen -fno-strict-aliasing --param=ssp-buffer-size=4 -fstack-protector -Wno-builtin-macro-redefined -D__DATE__= -D__TIME__= -D__TIMESTAMP__= -funwind-tables -fPIC -pthread -fcolor-diagnostics -fmerge-all-constants -Xclang -mllvm -Xclang -instcombine-lower-dbg-declare=0 -no-canonical-prefixes -m64 -march=x86-64 -Wall -Wextra -Wimplicit-fallthrough -Wthread-safety -Wno-missing-field-initializers -Wno-unused-parameter -Wno-c++11-narrowing -Wno-covered-switch-default -Wno-unneeded-internal-declaration -Wno-undefined-var-template -Wno-nonportable-include-path -Wno-user-defined-warnings -Wno-unused-lambda-capture -Wno-ignored-pragma-optimize -fno-omit-frame-pointer -g0 -fvisibility=hidden -Wheader-hygiene -Wstring-conversion -Wtautological-overlap-compare -Wno-char-subscripts -Wglobal-constructors -Wexit-time-destructors -Wexit-time-destructors -Wshadow -I/usr/include/glib-2.0 -I/usr/lib/glib-2.0/include -I/usr/lib/libffi-3.2.1/include -Wexit-time-destructors -O2 -fno-ident -fdata-sections -ffunction-sections -std=c++14 -fno-exceptions -fno-rtti -fvisibility-inlines-hidden -D_FORTIFY_SOURCE=2 -march=x86-64 -mtune=generic -O2 -pipe -fstack-protector-strong -fno-plt -c ../../base/process/process_info_linux.cc -o obj/base/base/process_info_linux.o
1142  [11/28/2018 03:14PM]: [216/5007] clang++ -MMD -MF obj/base/base/process_linux.o.d -DUSE_SYMBOLIZE -DV8_DEPRECATION_WARNINGS -DUSE_UDEV -DUSE_AURA=1 -DUSE_GLIB=1 -DUSE_NSS_CERTS=1 -DUSE_X11=1 -DFULL_SAFE_BROWSING -DSAFE_BROWSING_CSD -DSAFE_BROWSING_DB_LOCAL -DCHROMIUM_BUILD -D_FILE_OFFSET_BITS=64 -D_LARGEFILE_SOURCE -D_LARGEFILE64_SOURCE -D_GNU_SOURCE -DCR_CLANG_REVISION=\340925-1\ -D__STDC_CONSTANT_MACROS -D__STDC_FORMAT_MACROS -DCOMPONENT_BUILD -DNDEBUG -DNVALGRIND -DDYNAMIC_ANNOTATIONS_ENABLED=0 -DBASE_IMPLEMENTATION -DGLIB_VERSION_MAX_ALLOWED=GLIB_VERSION_2_32 -DGLIB_VERSION_MIN_REQUIRED=GLIB_VERSION_2_26 -I../.. -Igen -fno-strict-aliasing --param=ssp-buffer-size=4 -fstack-protector -Wno-builtin-macro-redefined -D__DATE__= -D__TIME__= -D__TIMESTAMP__= -funwind-tables -fPIC -pthread -fcolor-diagnostics -fmerge-all-constants -Xclang -mllvm -Xclang -instcombine-lower-dbg-declare=0 -no-canonical-prefixes -m64 -march=x86-64 -Wall -Wextra -Wimplicit-fallthrough -Wthread-safety -Wno-missing-field-initializers -Wno-unused-parameter -Wno-c++11-narrowing -Wno-covered-switch-default -Wno-unneeded-internal-declaration -Wno-undefined-var-template -Wno-nonportable-include-path -Wno-user-defined-warnings -Wno-unused-lambda-capture -Wno-ignored-pragma-optimize -fno-omit-frame-pointer -g0 -fvisibility=hidden -Wheader-hygiene -Wstring-conversion -Wtautological-overlap-compare -Wno-char-subscripts -Wglobal-constructors -Wexit-time-destructors -Wexit-time-destructors -Wshadow -I/usr/include/glib-2.0 -I/usr/lib/glib-2.0/include -I/usr/lib/libffi-3.2.1/include -Wexit-time-destructors -O2 -fno-ident -fdata-sections -ffunction-sections -std=c++14 -fno-exceptions -fno-rtti -fvisibility-inlines-hidden -D_FORTIFY_SOURCE=2 -march=x86-64 -mtune=generic -O2 -pipe -fstack-protector-strong -fno-plt -c ../../base/process/process_linux.cc -o obj/base/base/process_linux.o
1143  [11/28/2018 03:14PM]: [217/5007] clang++ -MMD -MF obj/base/base/trace_event_memory_overhead.o.d -DUSE_SYMBOLIZE -DV8_DEPRECATION_WARNINGS -DUSE_UDEV -DUSE_AURA=1 -DUSE_GLIB=1 -DUSE_NSS_CERTS=1 -DUSE_X11=1 -DFULL_SAFE_BROWSING -DSAFE_BROWSING_CSD -DSAFE_BROWSING_DB_LOCAL -DCHROMIUM_BUILD -D_FILE_OFFSET_BITS=64 -D_LARGEFILE_SOURCE -D_LARGEFILE64_SOURCE -D_GNU_SOURCE -DCR_CLANG_REVISION=\340925-1\ -D__STDC_CONSTANT_MACROS -D__STDC_FORMAT_MACROS -DCOMPONENT_BUILD -DNDEBUG -DNVALGRIND -DDYNAMIC_ANNOTATIONS_ENABLED=0 -DBASE_IMPLEMENTATION -DGLIB_VERSION_MAX_ALLOWED=GLIB_VERSION_2_32 -DGLIB_VERSION_MIN_REQUIRED=GLIB_VERSION_2_26 -I../.. -Igen -fno-strict-aliasing --param=ssp-buffer-size=4 -fstack-protector -Wno-builtin-macro-redefined -D__DATE__= -D__TIME__= -D__TIMESTAMP__= -funwind-tables -fPIC -pthread -fcolor-diagnostics -fmerge-all-constants -Xclang -mllvm -Xclang -instcombine-lower-dbg-declare=0 -no-canonical-prefixes -m64 -march=x86-64 -Wall -Wextra -Wimplicit-fallthrough -Wthread-safety -Wno-missing-field-initializers -Wno-unused-parameter -Wno-c++11-narrowing -Wno-covered-switch-default -Wno-unneeded-internal-declaration -Wno-undefined-var-template -Wno-nonportable-include-path -Wno-user-defined-warnings -Wno-unused-lambda-capture -Wno-ignored-pragma-optimize -fno-omit-frame-pointer -g0 -fvisibility=hidden -Wheader-hygiene -Wstring-conversion -Wtautological-overlap-compare -Wno-char-subscripts -Wglobal-constructors -Wexit-time-destructors -Wexit-time-destructors -Wshadow -I/usr/include/glib-2.0 -I/usr/lib/glib-2.0/include -I/usr/lib/libffi-3.2.1/include -Wexit-time-destructors -O2 -fno-ident -fdata-sections -ffunction-sections -std=c++14 -fno-exceptions -fno-rtti -fvisibility-inlines-hidden -D_FORTIFY_SOURCE=2 -march=x86-64 -mtune=generic -O2 -pipe -fstack-protector-strong -fno-plt -c ../../base/trace_event/trace_event_memory_overhead.cc -o obj/base/base/trace_event_memory_overhead.o
1144  [11/28/2018 03:14PM]: [218/5007] clang++ -MMD -MF obj/base/base/process_metrics.o.d -DUSE_SYMBOLIZE -DV8_DEPRECATION_WARNINGS -DUSE_UDEV -DUSE_AURA=1 -DUSE_GLIB=1 -DUSE_NSS_CERTS=1 -DUSE_X11=1 -DFULL_SAFE_BROWSING -DSAFE_BROWSING_CSD -DSAFE_BROWSING_DB_LOCAL -DCHROMIUM_BUILD -D_FILE_OFFSET_BITS=64 -D_LARGEFILE_SOURCE -D_LARGEFILE64_SOURCE -D_GNU_SOURCE -DCR_CLANG_REVISION=\340925-1\ -D__STDC_CONSTANT_MACROS -D__STDC_FORMAT_MACROS -DCOMPONENT_BUILD -DNDEBUG -DNVALGRIND -DDYNAMIC_ANNOTATIONS_ENABLED=0 -DBASE_IMPLEMENTATION -DGLIB_VERSION_MAX_ALLOWED=GLIB_VERSION_2_32 -DGLIB_VERSION_MIN_REQUIRED=GLIB_VERSION_2_26 -I../.. -Igen -fno-strict-aliasing --param=ssp-buffer-size=4 -fstack-protector -Wno-builtin-macro-redefined -D__DATE__= -D__TIME__= -D__TIMESTAMP__= -funwind-tables -fPIC -pthread -fcolor-diagnostics -fmerge-all-constants -Xclang -mllvm -Xclang -instcombine-lower-dbg-declare=0 -no-canonical-prefixes -m64 -march=x86-64 -Wall -Wextra -Wimplicit-fallthrough -Wthread-safety -Wno-missing-field-initializers -Wno-unused-parameter -Wno-c++11-narrowing -Wno-covered-switch-default -Wno-unneeded-internal-declaration -Wno-undefined-var-template -Wno-nonportable-include-path -Wno-user-defined-warnings -Wno-unused-lambda-capture -Wno-ignored-pragma-optimize -fno-omit-frame-pointer -g0 -fvisibility=hidden -Wheader-hygiene -Wstring-conversion -Wtautological-overlap-compare -Wno-char-subscripts -Wglobal-constructors -Wexit-time-destructors -Wexit-time-destructors -Wshadow -I/usr/include/glib-2.0 -I/usr/lib/glib-2.0/include -I/usr/lib/libffi-3.2.1/include -Wexit-time-destructors -O2 -fno-ident -fdata-sections -ffunction-sections -std=c++14 -fno-exceptions -fno-rtti -fvisibility-inlines-hidden -D_FORTIFY_SOURCE=2 -march=x86-64 -mtune=generic -O2 -pipe -fstack-protector-strong -fno-plt -c ../../base/process/process_metrics.cc -o obj/base/base/process_metrics.o
1145  [11/28/2018 03:14PM]: [219/5007] clang++ -MMD -MF obj/base/base/trace_event_impl.o.d -DUSE_SYMBOLIZE -DV8_DEPRECATION_WARNINGS -DUSE_UDEV -DUSE_AURA=1 -DUSE_GLIB=1 -DUSE_NSS_CERTS=1 -DUSE_X11=1 -DFULL_SAFE_BROWSING -DSAFE_BROWSING_CSD -DSAFE_BROWSING_DB_LOCAL -DCHROMIUM_BUILD -D_FILE_OFFSET_BITS=64 -D_LARGEFILE_SOURCE -D_LARGEFILE64_SOURCE -D_GNU_SOURCE -DCR_CLANG_REVISION=\340925-1\ -D__STDC_CONSTANT_MACROS -D__STDC_FORMAT_MACROS -DCOMPONENT_BUILD -DNDEBUG -DNVALGRIND -DDYNAMIC_ANNOTATIONS_ENABLED=0 -DBASE_IMPLEMENTATION -DGLIB_VERSION_MAX_ALLOWED=GLIB_VERSION_2_32 -DGLIB_VERSION_MIN_REQUIRED=GLIB_VERSION_2_26 -I../.. -Igen -fno-strict-aliasing --param=ssp-buffer-size=4 -fstack-protector -Wno-builtin-macro-redefined -D__DATE__= -D__TIME__= -D__TIMESTAMP__= -funwind-tables -fPIC -pthread -fcolor-diagnostics -fmerge-all-constants -Xclang -mllvm -Xclang -instcombine-lower-dbg-declare=0 -no-canonical-prefixes -m64 -march=x86-64 -Wall -Wextra -Wimplicit-fallthrough -Wthread-safety -Wno-missing-field-initializers -Wno-unused-parameter -Wno-c++11-narrowing -Wno-covered-switch-default -Wno-unneeded-internal-declaration -Wno-undefined-var-template -Wno-nonportable-include-path -Wno-user-defined-warnings -Wno-unused-lambda-capture -Wno-ignored-pragma-optimize -fno-omit-frame-pointer -g0 -fvisibility=hidden -Wheader-hygiene -Wstring-conversion -Wtautological-overlap-compare -Wno-char-subscripts -Wglobal-constructors -Wexit-time-destructors -Wexit-time-destructors -Wshadow -I/usr/include/glib-2.0 -I/usr/lib/glib-2.0/include -I/usr/lib/libffi-3.2.1/include -Wexit-time-destructors -O2 -fno-ident -fdata-sections -ffunction-sections -std=c++14 -fno-exceptions -fno-rtti -fvisibility-inlines-hidden -D_FORTIFY_SOURCE=2 -march=x86-64 -mtune=generic -O2 -pipe -fstack-protector-strong -fno-plt -c ../../base/trace_event/trace_event_impl.cc -o obj/base/base/trace_event_impl.o
1146  [11/28/2018 03:14PM]: [220/5007] clang++ -MMD -MF obj/base/base/trace_event_system_stats_monitor.o.d -DUSE_SYMBOLIZE -DV8_DEPRECATION_WARNINGS -DUSE_UDEV -DUSE_AURA=1 -DUSE_GLIB=1 -DUSE_NSS_CERTS=1 -DUSE_X11=1 -DFULL_SAFE_BROWSING -DSAFE_BROWSING_CSD -DSAFE_BROWSING_DB_LOCAL -DCHROMIUM_BUILD -D_FILE_OFFSET_BITS=64 -D_LARGEFILE_SOURCE -D_LARGEFILE64_SOURCE -D_GNU_SOURCE -DCR_CLANG_REVISION=\340925-1\ -D__STDC_CONSTANT_MACROS -D__STDC_FORMAT_MACROS -DCOMPONENT_BUILD -DNDEBUG -DNVALGRIND -DDYNAMIC_ANNOTATIONS_ENABLED=0 -DBASE_IMPLEMENTATION -DGLIB_VERSION_MAX_ALLOWED=GLIB_VERSION_2_32 -DGLIB_VERSION_MIN_REQUIRED=GLIB_VERSION_2_26 -I../.. -Igen -fno-strict-aliasing --param=ssp-buffer-size=4 -fstack-protector -Wno-builtin-macro-redefined -D__DATE__= -D__TIME__= -D__TIMESTAMP__= -funwind-tables -fPIC -pthread -fcolor-diagnostics -fmerge-all-constants -Xclang -mllvm -Xclang -instcombine-lower-dbg-declare=0 -no-canonical-prefixes -m64 -march=x86-64 -Wall -Wextra -Wimplicit-fallthrough -Wthread-safety -Wno-missing-field-initializers -Wno-unused-parameter -Wno-c++11-narrowing -Wno-covered-switch-default -Wno-unneeded-internal-declaration -Wno-undefined-var-template -Wno-nonportable-include-path -Wno-user-defined-warnings -Wno-unused-lambda-capture -Wno-ignored-pragma-optimize -fno-omit-frame-pointer -g0 -fvisibility=hidden -Wheader-hygiene -Wstring-conversion -Wtautological-overlap-compare -Wno-char-subscripts -Wglobal-constructors -Wexit-time-destructors -Wexit-time-destructors -Wshadow -I/usr/include/glib-2.0 -I/usr/lib/glib-2.0/include -I/usr/lib/libffi-3.2.1/include -Wexit-time-destructors -O2 -fno-ident -fdata-sections -ffunction-sections -std=c++14 -fno-exceptions -fno-rtti -fvisibility-inlines-hidden -D_FORTIFY_SOURCE=2 -march=x86-64 -mtune=generic -O2 -pipe -fstack-protector-strong -fno-plt -c ../../base/trace_event/trace_event_system_stats_monitor.cc -o obj/base/base/trace_event_system_stats_monitor.o
1147  [11/28/2018 03:14PM]: [221/5007] clang++ -MMD -MF obj/base/base/shared_memory_mapping.o.d -DUSE_SYMBOLIZE -DV8_DEPRECATION_WARNINGS -DUSE_UDEV -DUSE_AURA=1 -DUSE_GLIB=1 -DUSE_NSS_CERTS=1 -DUSE_X11=1 -DFULL_SAFE_BROWSING -DSAFE_BROWSING_CSD -DSAFE_BROWSING_DB_LOCAL -DCHROMIUM_BUILD -D_FILE_OFFSET_BITS=64 -D_LARGEFILE_SOURCE -D_LARGEFILE64_SOURCE -D_GNU_SOURCE -DCR_CLANG_REVISION=\340925-1\ -D__STDC_CONSTANT_MACROS -D__STDC_FORMAT_MACROS -DCOMPONENT_BUILD -DNDEBUG -DNVALGRIND -DDYNAMIC_ANNOTATIONS_ENABLED=0 -DBASE_IMPLEMENTATION -DGLIB_VERSION_MAX_ALLOWED=GLIB_VERSION_2_32 -DGLIB_VERSION_MIN_REQUIRED=GLIB_VERSION_2_26 -I../.. -Igen -fno-strict-aliasing --param=ssp-buffer-size=4 -fstack-protector -Wno-builtin-macro-redefined -D__DATE__= -D__TIME__= -D__TIMESTAMP__= -funwind-tables -fPIC -pthread -fcolor-diagnostics -fmerge-all-constants -Xclang -mllvm -Xclang -instcombine-lower-dbg-declare=0 -no-canonical-prefixes -m64 -march=x86-64 -Wall -Wextra -Wimplicit-fallthrough -Wthread-safety -Wno-missing-field-initializers -Wno-unused-parameter -Wno-c++11-narrowing -Wno-covered-switch-default -Wno-unneeded-internal-declaration -Wno-undefined-var-template -Wno-nonportable-include-path -Wno-user-defined-warnings -Wno-unused-lambda-capture -Wno-ignored-pragma-optimize -fno-omit-frame-pointer -g0 -fvisibility=hidden -Wheader-hygiene -Wstring-conversion -Wtautological-overlap-compare -Wno-char-subscripts -Wglobal-constructors -Wexit-time-destructors -Wexit-time-destructors -Wshadow -I/usr/include/glib-2.0 -I/usr/lib/glib-2.0/include -I/usr/lib/libffi-3.2.1/include -Wexit-time-destructors -O2 -fno-ident -fdata-sections -ffunction-sections -std=c++14 -fno-exceptions -fno-rtti -fvisibility-inlines-hidden -D_FORTIFY_SOURCE=2 -march=x86-64 -mtune=generic -O2 -pipe -fstack-protector-strong -fno-plt -c ../../base/memory/shared_memory_mapping.cc -o obj/base/base/shared_memory_mapping.o
1148  [11/28/2018 03:14PM]: [222/5007] clang++ -MMD -MF obj/base/base/weak_ptr.o.d -DUSE_SYMBOLIZE -DV8_DEPRECATION_WARNINGS -DUSE_UDEV -DUSE_AURA=1 -DUSE_GLIB=1 -DUSE_NSS_CERTS=1 -DUSE_X11=1 -DFULL_SAFE_BROWSING -DSAFE_BROWSING_CSD -DSAFE_BROWSING_DB_LOCAL -DCHROMIUM_BUILD -D_FILE_OFFSET_BITS=64 -D_LARGEFILE_SOURCE -D_LARGEFILE64_SOURCE -D_GNU_SOURCE -DCR_CLANG_REVISION=\340925-1\ -D__STDC_CONSTANT_MACROS -D__STDC_FORMAT_MACROS -DCOMPONENT_BUILD -DNDEBUG -DNVALGRIND -DDYNAMIC_ANNOTATIONS_ENABLED=0 -DBASE_IMPLEMENTATION -DGLIB_VERSION_MAX_ALLOWED=GLIB_VERSION_2_32 -DGLIB_VERSION_MIN_REQUIRED=GLIB_VERSION_2_26 -I../.. -Igen -fno-strict-aliasing --param=ssp-buffer-size=4 -fstack-protector -Wno-builtin-macro-redefined -D__DATE__= -D__TIME__= -D__TIMESTAMP__= -funwind-tables -fPIC -pthread -fcolor-diagnostics -fmerge-all-constants -Xclang -mllvm -Xclang -instcombine-lower-dbg-declare=0 -no-canonical-prefixes -m64 -march=x86-64 -Wall -Wextra -Wimplicit-fallthrough -Wthread-safety -Wno-missing-field-initializers -Wno-unused-parameter -Wno-c++11-narrowing -Wno-covered-switch-default -Wno-unneeded-internal-declaration -Wno-undefined-var-template -Wno-nonportable-include-path -Wno-user-defined-warnings -Wno-unused-lambda-capture -Wno-ignored-pragma-optimize -fno-omit-frame-pointer -g0 -fvisibility=hidden -Wheader-hygiene -Wstring-conversion -Wtautological-overlap-compare -Wno-char-subscripts -Wglobal-constructors -Wexit-time-destructors -Wexit-time-destructors -Wshadow -I/usr/include/glib-2.0 -I/usr/lib/glib-2.0/include -I/usr/lib/libffi-3.2.1/include -Wexit-time-destructors -O2 -fno-ident -fdata-sections -ffunction-sections -std=c++14 -fno-exceptions -fno-rtti -fvisibility-inlines-hidden -D_FORTIFY_SOURCE=2 -march=x86-64 -mtune=generic -O2 -pipe -fstack-protector-strong -fno-plt -c ../../base/memory/weak_ptr.cc -o obj/base/base/weak_ptr.o
1149  [11/28/2018 03:14PM]: [223/5007] clang++ -MMD -MF obj/base/base/unsafe_shared_memory_region.o.d -DUSE_SYMBOLIZE -DV8_DEPRECATION_WARNINGS -DUSE_UDEV -DUSE_AURA=1 -DUSE_GLIB=1 -DUSE_NSS_CERTS=1 -DUSE_X11=1 -DFULL_SAFE_BROWSING -DSAFE_BROWSING_CSD -DSAFE_BROWSING_DB_LOCAL -DCHROMIUM_BUILD -D_FILE_OFFSET_BITS=64 -D_LARGEFILE_SOURCE -D_LARGEFILE64_SOURCE -D_GNU_SOURCE -DCR_CLANG_REVISION=\340925-1\ -D__STDC_CONSTANT_MACROS -D__STDC_FORMAT_MACROS -DCOMPONENT_BUILD -DNDEBUG -DNVALGRIND -DDYNAMIC_ANNOTATIONS_ENABLED=0 -DBASE_IMPLEMENTATION -DGLIB_VERSION_MAX_ALLOWED=GLIB_VERSION_2_32 -DGLIB_VERSION_MIN_REQUIRED=GLIB_VERSION_2_26 -I../.. -Igen -fno-strict-aliasing --param=ssp-buffer-size=4 -fstack-protector -Wno-builtin-macro-redefined -D__DATE__= -D__TIME__= -D__TIMESTAMP__= -funwind-tables -fPIC -pthread -fcolor-diagnostics -fmerge-all-constants -Xclang -mllvm -Xclang -instcombine-lower-dbg-declare=0 -no-canonical-prefixes -m64 -march=x86-64 -Wall -Wextra -Wimplicit-fallthrough -Wthread-safety -Wno-missing-field-initializers -Wno-unused-parameter -Wno-c++11-narrowing -Wno-covered-switch-default -Wno-unneeded-internal-declaration -Wno-undefined-var-template -Wno-nonportable-include-path -Wno-user-defined-warnings -Wno-unused-lambda-capture -Wno-ignored-pragma-optimize -fno-omit-frame-pointer -g0 -fvisibility=hidden -Wheader-hygiene -Wstring-conversion -Wtautological-overlap-compare -Wno-char-subscripts -Wglobal-constructors -Wexit-time-destructors -Wexit-time-destructors -Wshadow -I/usr/include/glib-2.0 -I/usr/lib/glib-2.0/include -I/usr/lib/libffi-3.2.1/include -Wexit-time-destructors -O2 -fno-ident -fdata-sections -ffunction-sections -std=c++14 -fno-exceptions -fno-rtti -fvisibility-inlines-hidden -D_FORTIFY_SOURCE=2 -march=x86-64 -mtune=generic -O2 -pipe -fstack-protector-strong -fno-plt -c ../../base/memory/unsafe_shared_memory_region.cc -o obj/base/base/unsafe_shared_memory_region.o
1150  [11/28/2018 03:14PM]: [224/5007] clang++ -MMD -MF obj/base/base/writable_shared_memory_region.o.d -DUSE_SYMBOLIZE -DV8_DEPRECATION_WARNINGS -DUSE_UDEV -DUSE_AURA=1 -DUSE_GLIB=1 -DUSE_NSS_CERTS=1 -DUSE_X11=1 -DFULL_SAFE_BROWSING -DSAFE_BROWSING_CSD -DSAFE_BROWSING_DB_LOCAL -DCHROMIUM_BUILD -D_FILE_OFFSET_BITS=64 -D_LARGEFILE_SOURCE -D_LARGEFILE64_SOURCE -D_GNU_SOURCE -DCR_CLANG_REVISION=\340925-1\ -D__STDC_CONSTANT_MACROS -D__STDC_FORMAT_MACROS -DCOMPONENT_BUILD -DNDEBUG -DNVALGRIND -DDYNAMIC_ANNOTATIONS_ENABLED=0 -DBASE_IMPLEMENTATION -DGLIB_VERSION_MAX_ALLOWED=GLIB_VERSION_2_32 -DGLIB_VERSION_MIN_REQUIRED=GLIB_VERSION_2_26 -I../.. -Igen -fno-strict-aliasing --param=ssp-buffer-size=4 -fstack-protector -Wno-builtin-macro-redefined -D__DATE__= -D__TIME__= -D__TIMESTAMP__= -funwind-tables -fPIC -pthread -fcolor-diagnostics -fmerge-all-constants -Xclang -mllvm -Xclang -instcombine-lower-dbg-declare=0 -no-canonical-prefixes -m64 -march=x86-64 -Wall -Wextra -Wimplicit-fallthrough -Wthread-safety -Wno-missing-field-initializers -Wno-unused-parameter -Wno-c++11-narrowing -Wno-covered-switch-default -Wno-unneeded-internal-declaration -Wno-undefined-var-template -Wno-nonportable-include-path -Wno-user-defined-warnings -Wno-unused-lambda-capture -Wno-ignored-pragma-optimize -fno-omit-frame-pointer -g0 -fvisibility=hidden -Wheader-hygiene -Wstring-conversion -Wtautological-overlap-compare -Wno-char-subscripts -Wglobal-constructors -Wexit-time-destructors -Wexit-time-destructors -Wshadow -I/usr/include/glib-2.0 -I/usr/lib/glib-2.0/include -I/usr/lib/libffi-3.2.1/include -Wexit-time-destructors -O2 -fno-ident -fdata-sections -ffunction-sections -std=c++14 -fno-exceptions -fno-rtti -fvisibility-inlines-hidden -D_FORTIFY_SOURCE=2 -march=x86-64 -mtune=generic -O2 -pipe -fstack-protector-strong -fno-plt -c ../../base/memory/writable_shared_memory_region.cc -o obj/base/base/writable_shared_memory_region.o
1151  [11/28/2018 03:14PM]: [225/5007] clang++ -MMD -MF obj/base/base/shared_memory_tracker.o.d -DUSE_SYMBOLIZE -DV8_DEPRECATION_WARNINGS -DUSE_UDEV -DUSE_AURA=1 -DUSE_GLIB=1 -DUSE_NSS_CERTS=1 -DUSE_X11=1 -DFULL_SAFE_BROWSING -DSAFE_BROWSING_CSD -DSAFE_BROWSING_DB_LOCAL -DCHROMIUM_BUILD -D_FILE_OFFSET_BITS=64 -D_LARGEFILE_SOURCE -D_LARGEFILE64_SOURCE -D_GNU_SOURCE -DCR_CLANG_REVISION=\340925-1\ -D__STDC_CONSTANT_MACROS -D__STDC_FORMAT_MACROS -DCOMPONENT_BUILD -DNDEBUG -DNVALGRIND -DDYNAMIC_ANNOTATIONS_ENABLED=0 -DBASE_IMPLEMENTATION -DGLIB_VERSION_MAX_ALLOWED=GLIB_VERSION_2_32 -DGLIB_VERSION_MIN_REQUIRED=GLIB_VERSION_2_26 -I../.. -Igen -fno-strict-aliasing --param=ssp-buffer-size=4 -fstack-protector -Wno-builtin-macro-redefined -D__DATE__= -D__TIME__= -D__TIMESTAMP__= -funwind-tables -fPIC -pthread -fcolor-diagnostics -fmerge-all-constants -Xclang -mllvm -Xclang -instcombine-lower-dbg-declare=0 -no-canonical-prefixes -m64 -march=x86-64 -Wall -Wextra -Wimplicit-fallthrough -Wthread-safety -Wno-missing-field-initializers -Wno-unused-parameter -Wno-c++11-narrowing -Wno-covered-switch-default -Wno-unneeded-internal-declaration -Wno-undefined-var-template -Wno-nonportable-include-path -Wno-user-defined-warnings -Wno-unused-lambda-capture -Wno-ignored-pragma-optimize -fno-omit-frame-pointer -g0 -fvisibility=hidden -Wheader-hygiene -Wstring-conversion -Wtautological-overlap-compare -Wno-char-subscripts -Wglobal-constructors -Wexit-time-destructors -Wexit-time-destructors -Wshadow -I/usr/include/glib-2.0 -I/usr/lib/glib-2.0/include -I/usr/lib/libffi-3.2.1/include -Wexit-time-destructors -O2 -fno-ident -fdata-sections -ffunction-sections -std=c++14 -fno-exceptions -fno-rtti -fvisibility-inlines-hidden -D_FORTIFY_SOURCE=2 -march=x86-64 -mtune=generic -O2 -pipe -fstack-protector-strong -fno-plt -c ../../base/memory/shared_memory_tracker.cc -o obj/base/base/shared_memory_tracker.o
1152  [11/28/2018 03:14PM]: [226/5007] clang++ -MMD -MF obj/base/base/message_pump.o.d -DUSE_SYMBOLIZE -DV8_DEPRECATION_WARNINGS -DUSE_UDEV -DUSE_AURA=1 -DUSE_GLIB=1 -DUSE_NSS_CERTS=1 -DUSE_X11=1 -DFULL_SAFE_BROWSING -DSAFE_BROWSING_CSD -DSAFE_BROWSING_DB_LOCAL -DCHROMIUM_BUILD -D_FILE_OFFSET_BITS=64 -D_LARGEFILE_SOURCE -D_LARGEFILE64_SOURCE -D_GNU_SOURCE -DCR_CLANG_REVISION=\340925-1\ -D__STDC_CONSTANT_MACROS -D__STDC_FORMAT_MACROS -DCOMPONENT_BUILD -DNDEBUG -DNVALGRIND -DDYNAMIC_ANNOTATIONS_ENABLED=0 -DBASE_IMPLEMENTATION -DGLIB_VERSION_MAX_ALLOWED=GLIB_VERSION_2_32 -DGLIB_VERSION_MIN_REQUIRED=GLIB_VERSION_2_26 -I../.. -Igen -fno-strict-aliasing --param=ssp-buffer-size=4 -fstack-protector -Wno-builtin-macro-redefined -D__DATE__= -D__TIME__= -D__TIMESTAMP__= -funwind-tables -fPIC -pthread -fcolor-diagnostics -fmerge-all-constants -Xclang -mllvm -Xclang -instcombine-lower-dbg-declare=0 -no-canonical-prefixes -m64 -march=x86-64 -Wall -Wextra -Wimplicit-fallthrough -Wthread-safety -Wno-missing-field-initializers -Wno-unused-parameter -Wno-c++11-narrowing -Wno-covered-switch-default -Wno-unneeded-internal-declaration -Wno-undefined-var-template -Wno-nonportable-include-path -Wno-user-defined-warnings -Wno-unused-lambda-capture -Wno-ignored-pragma-optimize -fno-omit-frame-pointer -g0 -fvisibility=hidden -Wheader-hygiene -Wstring-conversion -Wtautological-overlap-compare -Wno-char-subscripts -Wglobal-constructors -Wexit-time-destructors -Wexit-time-destructors -Wshadow -I/usr/include/glib-2.0 -I/usr/lib/glib-2.0/include -I/usr/lib/libffi-3.2.1/include -Wexit-time-destructors -O2 -fno-ident -fdata-sections -ffunction-sections -std=c++14 -fno-exceptions -fno-rtti -fvisibility-inlines-hidden -D_FORTIFY_SOURCE=2 -march=x86-64 -mtune=generic -O2 -pipe -fstack-protector-strong -fno-plt -c ../../base/message_loop/message_pump.cc -o obj/base/base/message_pump.o
1153  [11/28/2018 03:14PM]: [227/5007] clang++ -MMD -MF obj/base/base/message_pump_default.o.d -DUSE_SYMBOLIZE -DV8_DEPRECATION_WARNINGS -DUSE_UDEV -DUSE_AURA=1 -DUSE_GLIB=1 -DUSE_NSS_CERTS=1 -DUSE_X11=1 -DFULL_SAFE_BROWSING -DSAFE_BROWSING_CSD -DSAFE_BROWSING_DB_LOCAL -DCHROMIUM_BUILD -D_FILE_OFFSET_BITS=64 -D_LARGEFILE_SOURCE -D_LARGEFILE64_SOURCE -D_GNU_SOURCE -DCR_CLANG_REVISION=\340925-1\ -D__STDC_CONSTANT_MACROS -D__STDC_FORMAT_MACROS -DCOMPONENT_BUILD -DNDEBUG -DNVALGRIND -DDYNAMIC_ANNOTATIONS_ENABLED=0 -DBASE_IMPLEMENTATION -DGLIB_VERSION_MAX_ALLOWED=GLIB_VERSION_2_32 -DGLIB_VERSION_MIN_REQUIRED=GLIB_VERSION_2_26 -I../.. -Igen -fno-strict-aliasing --param=ssp-buffer-size=4 -fstack-protector -Wno-builtin-macro-redefined -D__DATE__= -D__TIME__= -D__TIMESTAMP__= -funwind-tables -fPIC -pthread -fcolor-diagnostics -fmerge-all-constants -Xclang -mllvm -Xclang -instcombine-lower-dbg-declare=0 -no-canonical-prefixes -m64 -march=x86-64 -Wall -Wextra -Wimplicit-fallthrough -Wthread-safety -Wno-missing-field-initializers -Wno-unused-parameter -Wno-c++11-narrowing -Wno-covered-switch-default -Wno-unneeded-internal-declaration -Wno-undefined-var-template -Wno-nonportable-include-path -Wno-user-defined-warnings -Wno-unused-lambda-capture -Wno-ignored-pragma-optimize -fno-omit-frame-pointer -g0 -fvisibility=hidden -Wheader-hygiene -Wstring-conversion -Wtautological-overlap-compare -Wno-char-subscripts -Wglobal-constructors -Wexit-time-destructors -Wexit-time-destructors -Wshadow -I/usr/include/glib-2.0 -I/usr/lib/glib-2.0/include -I/usr/lib/libffi-3.2.1/include -Wexit-time-destructors -O2 -fno-ident -fdata-sections -ffunction-sections -std=c++14 -fno-exceptions -fno-rtti -fvisibility-inlines-hidden -D_FORTIFY_SOURCE=2 -march=x86-64 -mtune=generic -O2 -pipe -fstack-protector-strong -fno-plt -c ../../base/message_loop/message_pump_default.cc -o obj/base/base/message_pump_default.o
1154  [11/28/2018 03:14PM]: [228/5007] clang++ -MMD -MF obj/base/base/message_loop_current.o.d -DUSE_SYMBOLIZE -DV8_DEPRECATION_WARNINGS -DUSE_UDEV -DUSE_AURA=1 -DUSE_GLIB=1 -DUSE_NSS_CERTS=1 -DUSE_X11=1 -DFULL_SAFE_BROWSING -DSAFE_BROWSING_CSD -DSAFE_BROWSING_DB_LOCAL -DCHROMIUM_BUILD -D_FILE_OFFSET_BITS=64 -D_LARGEFILE_SOURCE -D_LARGEFILE64_SOURCE -D_GNU_SOURCE -DCR_CLANG_REVISION=\340925-1\ -D__STDC_CONSTANT_MACROS -D__STDC_FORMAT_MACROS -DCOMPONENT_BUILD -DNDEBUG -DNVALGRIND -DDYNAMIC_ANNOTATIONS_ENABLED=0 -DBASE_IMPLEMENTATION -DGLIB_VERSION_MAX_ALLOWED=GLIB_VERSION_2_32 -DGLIB_VERSION_MIN_REQUIRED=GLIB_VERSION_2_26 -I../.. -Igen -fno-strict-aliasing --param=ssp-buffer-size=4 -fstack-protector -Wno-builtin-macro-redefined -D__DATE__= -D__TIME__= -D__TIMESTAMP__= -funwind-tables -fPIC -pthread -fcolor-diagnostics -fmerge-all-constants -Xclang -mllvm -Xclang -instcombine-lower-dbg-declare=0 -no-canonical-prefixes -m64 -march=x86-64 -Wall -Wextra -Wimplicit-fallthrough -Wthread-safety -Wno-missing-field-initializers -Wno-unused-parameter -Wno-c++11-narrowing -Wno-covered-switch-default -Wno-unneeded-internal-declaration -Wno-undefined-var-template -Wno-nonportable-include-path -Wno-user-defined-warnings -Wno-unused-lambda-capture -Wno-ignored-pragma-optimize -fno-omit-frame-pointer -g0 -fvisibility=hidden -Wheader-hygiene -Wstring-conversion -Wtautological-overlap-compare -Wno-char-subscripts -Wglobal-constructors -Wexit-time-destructors -Wexit-time-destructors -Wshadow -I/usr/include/glib-2.0 -I/usr/lib/glib-2.0/include -I/usr/lib/libffi-3.2.1/include -Wexit-time-destructors -O2 -fno-ident -fdata-sections -ffunction-sections -std=c++14 -fno-exceptions -fno-rtti -fvisibility-inlines-hidden -D_FORTIFY_SOURCE=2 -march=x86-64 -mtune=generic -O2 -pipe -fstack-protector-strong -fno-plt -c ../../base/message_loop/message_loop_current.cc -o obj/base/base/message_loop_current.o
1155  [11/28/2018 03:14PM]: [229/5007] clang++ -MMD -MF obj/base/base/message_loop_task_runner.o.d -DUSE_SYMBOLIZE -DV8_DEPRECATION_WARNINGS -DUSE_UDEV -DUSE_AURA=1 -DUSE_GLIB=1 -DUSE_NSS_CERTS=1 -DUSE_X11=1 -DFULL_SAFE_BROWSING -DSAFE_BROWSING_CSD -DSAFE_BROWSING_DB_LOCAL -DCHROMIUM_BUILD -D_FILE_OFFSET_BITS=64 -D_LARGEFILE_SOURCE -D_LARGEFILE64_SOURCE -D_GNU_SOURCE -DCR_CLANG_REVISION=\340925-1\ -D__STDC_CONSTANT_MACROS -D__STDC_FORMAT_MACROS -DCOMPONENT_BUILD -DNDEBUG -DNVALGRIND -DDYNAMIC_ANNOTATIONS_ENABLED=0 -DBASE_IMPLEMENTATION -DGLIB_VERSION_MAX_ALLOWED=GLIB_VERSION_2_32 -DGLIB_VERSION_MIN_REQUIRED=GLIB_VERSION_2_26 -I../.. -Igen -fno-strict-aliasing --param=ssp-buffer-size=4 -fstack-protector -Wno-builtin-macro-redefined -D__DATE__= -D__TIME__= -D__TIMESTAMP__= -funwind-tables -fPIC -pthread -fcolor-diagnostics -fmerge-all-constants -Xclang -mllvm -Xclang -instcombine-lower-dbg-declare=0 -no-canonical-prefixes -m64 -march=x86-64 -Wall -Wextra -Wimplicit-fallthrough -Wthread-safety -Wno-missing-field-initializers -Wno-unused-parameter -Wno-c++11-narrowing -Wno-covered-switch-default -Wno-unneeded-internal-declaration -Wno-undefined-var-template -Wno-nonportable-include-path -Wno-user-defined-warnings -Wno-unused-lambda-capture -Wno-ignored-pragma-optimize -fno-omit-frame-pointer -g0 -fvisibility=hidden -Wheader-hygiene -Wstring-conversion -Wtautological-overlap-compare -Wno-char-subscripts -Wglobal-constructors -Wexit-time-destructors -Wexit-time-destructors -Wshadow -I/usr/include/glib-2.0 -I/usr/lib/glib-2.0/include -I/usr/lib/libffi-3.2.1/include -Wexit-time-destructors -O2 -fno-ident -fdata-sections -ffunction-sections -std=c++14 -fno-exceptions -fno-rtti -fvisibility-inlines-hidden -D_FORTIFY_SOURCE=2 -march=x86-64 -mtune=generic -O2 -pipe -fstack-protector-strong -fno-plt -c ../../base/message_loop/message_loop_task_runner.cc -o obj/base/base/message_loop_task_runner.o
1156  [11/28/2018 03:14PM]: [230/5007] clang++ -MMD -MF obj/base/base/message_loop.o.d -DUSE_SYMBOLIZE -DV8_DEPRECATION_WARNINGS -DUSE_UDEV -DUSE_AURA=1 -DUSE_GLIB=1 -DUSE_NSS_CERTS=1 -DUSE_X11=1 -DFULL_SAFE_BROWSING -DSAFE_BROWSING_CSD -DSAFE_BROWSING_DB_LOCAL -DCHROMIUM_BUILD -D_FILE_OFFSET_BITS=64 -D_LARGEFILE_SOURCE -D_LARGEFILE64_SOURCE -D_GNU_SOURCE -DCR_CLANG_REVISION=\340925-1\ -D__STDC_CONSTANT_MACROS -D__STDC_FORMAT_MACROS -DCOMPONENT_BUILD -DNDEBUG -DNVALGRIND -DDYNAMIC_ANNOTATIONS_ENABLED=0 -DBASE_IMPLEMENTATION -DGLIB_VERSION_MAX_ALLOWED=GLIB_VERSION_2_32 -DGLIB_VERSION_MIN_REQUIRED=GLIB_VERSION_2_26 -I../.. -Igen -fno-strict-aliasing --param=ssp-buffer-size=4 -fstack-protector -Wno-builtin-macro-redefined -D__DATE__= -D__TIME__= -D__TIMESTAMP__= -funwind-tables -fPIC -pthread -fcolor-diagnostics -fmerge-all-constants -Xclang -mllvm -Xclang -instcombine-lower-dbg-declare=0 -no-canonical-prefixes -m64 -march=x86-64 -Wall -Wextra -Wimplicit-fallthrough -Wthread-safety -Wno-missing-field-initializers -Wno-unused-parameter -Wno-c++11-narrowing -Wno-covered-switch-default -Wno-unneeded-internal-declaration -Wno-undefined-var-template -Wno-nonportable-include-path -Wno-user-defined-warnings -Wno-unused-lambda-capture -Wno-ignored-pragma-optimize -fno-omit-frame-pointer -g0 -fvisibility=hidden -Wheader-hygiene -Wstring-conversion -Wtautological-overlap-compare -Wno-char-subscripts -Wglobal-constructors -Wexit-time-destructors -Wexit-time-destructors -Wshadow -I/usr/include/glib-2.0 -I/usr/lib/glib-2.0/include -I/usr/lib/libffi-3.2.1/include -Wexit-time-destructors -O2 -fno-ident -fdata-sections -ffunction-sections -std=c++14 -fno-exceptions -fno-rtti -fvisibility-inlines-hidden -D_FORTIFY_SOURCE=2 -march=x86-64 -mtune=generic -O2 -pipe -fstack-protector-strong -fno-plt -c ../../base/message_loop/message_loop.cc -o obj/base/base/message_loop.o
1157  [11/28/2018 03:14PM]: [231/5007] clang++ -MMD -MF obj/base/base/bucket_ranges.o.d -DUSE_SYMBOLIZE -DV8_DEPRECATION_WARNINGS -DUSE_UDEV -DUSE_AURA=1 -DUSE_GLIB=1 -DUSE_NSS_CERTS=1 -DUSE_X11=1 -DFULL_SAFE_BROWSING -DSAFE_BROWSING_CSD -DSAFE_BROWSING_DB_LOCAL -DCHROMIUM_BUILD -D_FILE_OFFSET_BITS=64 -D_LARGEFILE_SOURCE -D_LARGEFILE64_SOURCE -D_GNU_SOURCE -DCR_CLANG_REVISION=\340925-1\ -D__STDC_CONSTANT_MACROS -D__STDC_FORMAT_MACROS -DCOMPONENT_BUILD -DNDEBUG -DNVALGRIND -DDYNAMIC_ANNOTATIONS_ENABLED=0 -DBASE_IMPLEMENTATION -DGLIB_VERSION_MAX_ALLOWED=GLIB_VERSION_2_32 -DGLIB_VERSION_MIN_REQUIRED=GLIB_VERSION_2_26 -I../.. -Igen -fno-strict-aliasing --param=ssp-buffer-size=4 -fstack-protector -Wno-builtin-macro-redefined -D__DATE__= -D__TIME__= -D__TIMESTAMP__= -funwind-tables -fPIC -pthread -fcolor-diagnostics -fmerge-all-constants -Xclang -mllvm -Xclang -instcombine-lower-dbg-declare=0 -no-canonical-prefixes -m64 -march=x86-64 -Wall -Wextra -Wimplicit-fallthrough -Wthread-safety -Wno-missing-field-initializers -Wno-unused-parameter -Wno-c++11-narrowing -Wno-covered-switch-default -Wno-unneeded-internal-declaration -Wno-undefined-var-template -Wno-nonportable-include-path -Wno-user-defined-warnings -Wno-unused-lambda-capture -Wno-ignored-pragma-optimize -fno-omit-frame-pointer -g0 -fvisibility=hidden -Wheader-hygiene -Wstring-conversion -Wtautological-overlap-compare -Wno-char-subscripts -Wglobal-constructors -Wexit-time-destructors -Wexit-time-destructors -Wshadow -I/usr/include/glib-2.0 -I/usr/lib/glib-2.0/include -I/usr/lib/libffi-3.2.1/include -Wexit-time-destructors -O2 -fno-ident -fdata-sections -ffunction-sections -std=c++14 -fno-exceptions -fno-rtti -fvisibility-inlines-hidden -D_FORTIFY_SOURCE=2 -march=x86-64 -mtune=generic -O2 -pipe -fstack-protector-strong -fno-plt -c ../../base/metrics/bucket_ranges.cc -o obj/base/base/bucket_ranges.o
1158  [11/28/2018 03:14PM]: [232/5007] clang++ -MMD -MF obj/base/base/message_pump_glib.o.d -DUSE_SYMBOLIZE -DV8_DEPRECATION_WARNINGS -DUSE_UDEV -DUSE_AURA=1 -DUSE_GLIB=1 -DUSE_NSS_CERTS=1 -DUSE_X11=1 -DFULL_SAFE_BROWSING -DSAFE_BROWSING_CSD -DSAFE_BROWSING_DB_LOCAL -DCHROMIUM_BUILD -D_FILE_OFFSET_BITS=64 -D_LARGEFILE_SOURCE -D_LARGEFILE64_SOURCE -D_GNU_SOURCE -DCR_CLANG_REVISION=\340925-1\ -D__STDC_CONSTANT_MACROS -D__STDC_FORMAT_MACROS -DCOMPONENT_BUILD -DNDEBUG -DNVALGRIND -DDYNAMIC_ANNOTATIONS_ENABLED=0 -DBASE_IMPLEMENTATION -DGLIB_VERSION_MAX_ALLOWED=GLIB_VERSION_2_32 -DGLIB_VERSION_MIN_REQUIRED=GLIB_VERSION_2_26 -I../.. -Igen -fno-strict-aliasing --param=ssp-buffer-size=4 -fstack-protector -Wno-builtin-macro-redefined -D__DATE__= -D__TIME__= -D__TIMESTAMP__= -funwind-tables -fPIC -pthread -fcolor-diagnostics -fmerge-all-constants -Xclang -mllvm -Xclang -instcombine-lower-dbg-declare=0 -no-canonical-prefixes -m64 -march=x86-64 -Wall -Wextra -Wimplicit-fallthrough -Wthread-safety -Wno-missing-field-initializers -Wno-unused-parameter -Wno-c++11-narrowing -Wno-covered-switch-default -Wno-unneeded-internal-declaration -Wno-undefined-var-template -Wno-nonportable-include-path -Wno-user-defined-warnings -Wno-unused-lambda-capture -Wno-ignored-pragma-optimize -fno-omit-frame-pointer -g0 -fvisibility=hidden -Wheader-hygiene -Wstring-conversion -Wtautological-overlap-compare -Wno-char-subscripts -Wglobal-constructors -Wexit-time-destructors -Wexit-time-destructors -Wshadow -I/usr/include/glib-2.0 -I/usr/lib/glib-2.0/include -I/usr/lib/libffi-3.2.1/include -Wexit-time-destructors -O2 -fno-ident -fdata-sections -ffunction-sections -std=c++14 -fno-exceptions -fno-rtti -fvisibility-inlines-hidden -D_FORTIFY_SOURCE=2 -march=x86-64 -mtune=generic -O2 -pipe -fstack-protector-strong -fno-plt -c ../../base/message_loop/message_pump_glib.cc -o obj/base/base/message_pump_glib.o
1159  [11/28/2018 03:14PM]: [233/5007] clang++ -MMD -MF obj/base/base/trace_log.o.d -DUSE_SYMBOLIZE -DV8_DEPRECATION_WARNINGS -DUSE_UDEV -DUSE_AURA=1 -DUSE_GLIB=1 -DUSE_NSS_CERTS=1 -DUSE_X11=1 -DFULL_SAFE_BROWSING -DSAFE_BROWSING_CSD -DSAFE_BROWSING_DB_LOCAL -DCHROMIUM_BUILD -D_FILE_OFFSET_BITS=64 -D_LARGEFILE_SOURCE -D_LARGEFILE64_SOURCE -D_GNU_SOURCE -DCR_CLANG_REVISION=\340925-1\ -D__STDC_CONSTANT_MACROS -D__STDC_FORMAT_MACROS -DCOMPONENT_BUILD -DNDEBUG -DNVALGRIND -DDYNAMIC_ANNOTATIONS_ENABLED=0 -DBASE_IMPLEMENTATION -DGLIB_VERSION_MAX_ALLOWED=GLIB_VERSION_2_32 -DGLIB_VERSION_MIN_REQUIRED=GLIB_VERSION_2_26 -I../.. -Igen -fno-strict-aliasing --param=ssp-buffer-size=4 -fstack-protector -Wno-builtin-macro-redefined -D__DATE__= -D__TIME__= -D__TIMESTAMP__= -funwind-tables -fPIC -pthread -fcolor-diagnostics -fmerge-all-constants -Xclang -mllvm -Xclang -instcombine-lower-dbg-declare=0 -no-canonical-prefixes -m64 -march=x86-64 -Wall -Wextra -Wimplicit-fallthrough -Wthread-safety -Wno-missing-field-initializers -Wno-unused-parameter -Wno-c++11-narrowing -Wno-covered-switch-default -Wno-unneeded-internal-declaration -Wno-undefined-var-template -Wno-nonportable-include-path -Wno-user-defined-warnings -Wno-unused-lambda-capture -Wno-ignored-pragma-optimize -fno-omit-frame-pointer -g0 -fvisibility=hidden -Wheader-hygiene -Wstring-conversion -Wtautological-overlap-compare -Wno-char-subscripts -Wglobal-constructors -Wexit-time-destructors -Wexit-time-destructors -Wshadow -I/usr/include/glib-2.0 -I/usr/lib/glib-2.0/include -I/usr/lib/libffi-3.2.1/include -Wexit-time-destructors -O2 -fno-ident -fdata-sections -ffunction-sections -std=c++14 -fno-exceptions -fno-rtti -fvisibility-inlines-hidden -D_FORTIFY_SOURCE=2 -march=x86-64 -mtune=generic -O2 -pipe -fstack-protector-strong -fno-plt -c ../../base/trace_event/trace_log.cc -o obj/base/base/trace_log.o
1160  [11/28/2018 03:14PM]: [234/5007] clang++ -MMD -MF obj/base/base/dummy_histogram.o.d -DUSE_SYMBOLIZE -DV8_DEPRECATION_WARNINGS -DUSE_UDEV -DUSE_AURA=1 -DUSE_GLIB=1 -DUSE_NSS_CERTS=1 -DUSE_X11=1 -DFULL_SAFE_BROWSING -DSAFE_BROWSING_CSD -DSAFE_BROWSING_DB_LOCAL -DCHROMIUM_BUILD -D_FILE_OFFSET_BITS=64 -D_LARGEFILE_SOURCE -D_LARGEFILE64_SOURCE -D_GNU_SOURCE -DCR_CLANG_REVISION=\340925-1\ -D__STDC_CONSTANT_MACROS -D__STDC_FORMAT_MACROS -DCOMPONENT_BUILD -DNDEBUG -DNVALGRIND -DDYNAMIC_ANNOTATIONS_ENABLED=0 -DBASE_IMPLEMENTATION -DGLIB_VERSION_MAX_ALLOWED=GLIB_VERSION_2_32 -DGLIB_VERSION_MIN_REQUIRED=GLIB_VERSION_2_26 -I../.. -Igen -fno-strict-aliasing --param=ssp-buffer-size=4 -fstack-protector -Wno-builtin-macro-redefined -D__DATE__= -D__TIME__= -D__TIMESTAMP__= -funwind-tables -fPIC -pthread -fcolor-diagnostics -fmerge-all-constants -Xclang -mllvm -Xclang -instcombine-lower-dbg-declare=0 -no-canonical-prefixes -m64 -march=x86-64 -Wall -Wextra -Wimplicit-fallthrough -Wthread-safety -Wno-missing-field-initializers -Wno-unused-parameter -Wno-c++11-narrowing -Wno-covered-switch-default -Wno-unneeded-internal-declaration -Wno-undefined-var-template -Wno-nonportable-include-path -Wno-user-defined-warnings -Wno-unused-lambda-capture -Wno-ignored-pragma-optimize -fno-omit-frame-pointer -g0 -fvisibility=hidden -Wheader-hygiene -Wstring-conversion -Wtautological-overlap-compare -Wno-char-subscripts -Wglobal-constructors -Wexit-time-destructors -Wexit-time-destructors -Wshadow -I/usr/include/glib-2.0 -I/usr/lib/glib-2.0/include -I/usr/lib/libffi-3.2.1/include -Wexit-time-destructors -O2 -fno-ident -fdata-sections -ffunction-sections -std=c++14 -fno-exceptions -fno-rtti -fvisibility-inlines-hidden -D_FORTIFY_SOURCE=2 -march=x86-64 -mtune=generic -O2 -pipe -fstack-protector-strong -fno-plt -c ../../base/metrics/dummy_histogram.cc -o obj/base/base/dummy_histogram.o
1161  [11/28/2018 03:14PM]: [235/5007] clang++ -MMD -MF obj/base/base/pending_task_queue.o.d -DUSE_SYMBOLIZE -DV8_DEPRECATION_WARNINGS -DUSE_UDEV -DUSE_AURA=1 -DUSE_GLIB=1 -DUSE_NSS_CERTS=1 -DUSE_X11=1 -DFULL_SAFE_BROWSING -DSAFE_BROWSING_CSD -DSAFE_BROWSING_DB_LOCAL -DCHROMIUM_BUILD -D_FILE_OFFSET_BITS=64 -D_LARGEFILE_SOURCE -D_LARGEFILE64_SOURCE -D_GNU_SOURCE -DCR_CLANG_REVISION=\340925-1\ -D__STDC_CONSTANT_MACROS -D__STDC_FORMAT_MACROS -DCOMPONENT_BUILD -DNDEBUG -DNVALGRIND -DDYNAMIC_ANNOTATIONS_ENABLED=0 -DBASE_IMPLEMENTATION -DGLIB_VERSION_MAX_ALLOWED=GLIB_VERSION_2_32 -DGLIB_VERSION_MIN_REQUIRED=GLIB_VERSION_2_26 -I../.. -Igen -fno-strict-aliasing --param=ssp-buffer-size=4 -fstack-protector -Wno-builtin-macro-redefined -D__DATE__= -D__TIME__= -D__TIMESTAMP__= -funwind-tables -fPIC -pthread -fcolor-diagnostics -fmerge-all-constants -Xclang -mllvm -Xclang -instcombine-lower-dbg-declare=0 -no-canonical-prefixes -m64 -march=x86-64 -Wall -Wextra -Wimplicit-fallthrough -Wthread-safety -Wno-missing-field-initializers -Wno-unused-parameter -Wno-c++11-narrowing -Wno-covered-switch-default -Wno-unneeded-internal-declaration -Wno-undefined-var-template -Wno-nonportable-include-path -Wno-user-defined-warnings -Wno-unused-lambda-capture -Wno-ignored-pragma-optimize -fno-omit-frame-pointer -g0 -fvisibility=hidden -Wheader-hygiene -Wstring-conversion -Wtautological-overlap-compare -Wno-char-subscripts -Wglobal-constructors -Wexit-time-destructors -Wexit-time-destructors -Wshadow -I/usr/include/glib-2.0 -I/usr/lib/glib-2.0/include -I/usr/lib/libffi-3.2.1/include -Wexit-time-destructors -O2 -fno-ident -fdata-sections -ffunction-sections -std=c++14 -fno-exceptions -fno-rtti -fvisibility-inlines-hidden -D_FORTIFY_SOURCE=2 -march=x86-64 -mtune=generic -O2 -pipe -fstack-protector-strong -fno-plt -c ../../base/message_loop/pending_task_queue.cc -o obj/base/base/pending_task_queue.o
1162  [11/28/2018 03:14PM]: [236/5007] clang++ -MMD -MF obj/base/base/thread_checker_impl.o.d -DUSE_SYMBOLIZE -DV8_DEPRECATION_WARNINGS -DUSE_UDEV -DUSE_AURA=1 -DUSE_GLIB=1 -DUSE_NSS_CERTS=1 -DUSE_X11=1 -DFULL_SAFE_BROWSING -DSAFE_BROWSING_CSD -DSAFE_BROWSING_DB_LOCAL -DCHROMIUM_BUILD -D_FILE_OFFSET_BITS=64 -D_LARGEFILE_SOURCE -D_LARGEFILE64_SOURCE -D_GNU_SOURCE -DCR_CLANG_REVISION=\340925-1\ -D__STDC_CONSTANT_MACROS -D__STDC_FORMAT_MACROS -DCOMPONENT_BUILD -DNDEBUG -DNVALGRIND -DDYNAMIC_ANNOTATIONS_ENABLED=0 -DBASE_IMPLEMENTATION -DGLIB_VERSION_MAX_ALLOWED=GLIB_VERSION_2_32 -DGLIB_VERSION_MIN_REQUIRED=GLIB_VERSION_2_26 -I../.. -Igen -fno-strict-aliasing --param=ssp-buffer-size=4 -fstack-protector -Wno-builtin-macro-redefined -D__DATE__= -D__TIME__= -D__TIMESTAMP__= -funwind-tables -fPIC -pthread -fcolor-diagnostics -fmerge-all-constants -Xclang -mllvm -Xclang -instcombine-lower-dbg-declare=0 -no-canonical-prefixes -m64 -march=x86-64 -Wall -Wextra -Wimplicit-fallthrough -Wthread-safety -Wno-missing-field-initializers -Wno-unused-parameter -Wno-c++11-narrowing -Wno-covered-switch-default -Wno-unneeded-internal-declaration -Wno-undefined-var-template -Wno-nonportable-include-path -Wno-user-defined-warnings -Wno-unused-lambda-capture -Wno-ignored-pragma-optimize -fno-omit-frame-pointer -g0 -fvisibility=hidden -Wheader-hygiene -Wstring-conversion -Wtautological-overlap-compare -Wno-char-subscripts -Wglobal-constructors -Wexit-time-destructors -Wexit-time-destructors -Wshadow -I/usr/include/glib-2.0 -I/usr/lib/glib-2.0/include -I/usr/lib/libffi-3.2.1/include -Wexit-time-destructors -O2 -fno-ident -fdata-sections -ffunction-sections -std=c++14 -fno-exceptions -fno-rtti -fvisibility-inlines-hidden -D_FORTIFY_SOURCE=2 -march=x86-64 -mtune=generic -O2 -pipe -fstack-protector-strong -fno-plt -c ../../base/threading/thread_checker_impl.cc -o obj/base/base/thread_checker_impl.o
1163  [11/28/2018 03:14PM]: [237/5007] clang++ -MMD -MF obj/base/base/thread_collision_warner.o.d -DUSE_SYMBOLIZE -DV8_DEPRECATION_WARNINGS -DUSE_UDEV -DUSE_AURA=1 -DUSE_GLIB=1 -DUSE_NSS_CERTS=1 -DUSE_X11=1 -DFULL_SAFE_BROWSING -DSAFE_BROWSING_CSD -DSAFE_BROWSING_DB_LOCAL -DCHROMIUM_BUILD -D_FILE_OFFSET_BITS=64 -D_LARGEFILE_SOURCE -D_LARGEFILE64_SOURCE -D_GNU_SOURCE -DCR_CLANG_REVISION=\340925-1\ -D__STDC_CONSTANT_MACROS -D__STDC_FORMAT_MACROS -DCOMPONENT_BUILD -DNDEBUG -DNVALGRIND -DDYNAMIC_ANNOTATIONS_ENABLED=0 -DBASE_IMPLEMENTATION -DGLIB_VERSION_MAX_ALLOWED=GLIB_VERSION_2_32 -DGLIB_VERSION_MIN_REQUIRED=GLIB_VERSION_2_26 -I../.. -Igen -fno-strict-aliasing --param=ssp-buffer-size=4 -fstack-protector -Wno-builtin-macro-redefined -D__DATE__= -D__TIME__= -D__TIMESTAMP__= -funwind-tables -fPIC -pthread -fcolor-diagnostics -fmerge-all-constants -Xclang -mllvm -Xclang -instcombine-lower-dbg-declare=0 -no-canonical-prefixes -m64 -march=x86-64 -Wall -Wextra -Wimplicit-fallthrough -Wthread-safety -Wno-missing-field-initializers -Wno-unused-parameter -Wno-c++11-narrowing -Wno-covered-switch-default -Wno-unneeded-internal-declaration -Wno-undefined-var-template -Wno-nonportable-include-path -Wno-user-defined-warnings -Wno-unused-lambda-capture -Wno-ignored-pragma-optimize -fno-omit-frame-pointer -g0 -fvisibility=hidden -Wheader-hygiene -Wstring-conversion -Wtautological-overlap-compare -Wno-char-subscripts -Wglobal-constructors -Wexit-time-destructors -Wexit-time-destructors -Wshadow -I/usr/include/glib-2.0 -I/usr/lib/glib-2.0/include -I/usr/lib/libffi-3.2.1/include -Wexit-time-destructors -O2 -fno-ident -fdata-sections -ffunction-sections -std=c++14 -fno-exceptions -fno-rtti -fvisibility-inlines-hidden -D_FORTIFY_SOURCE=2 -march=x86-64 -mtune=generic -O2 -pipe -fstack-protector-strong -fno-plt -c ../../base/threading/thread_collision_warner.cc -o obj/base/base/thread_collision_warner.o
1164  [11/28/2018 03:14PM]: [238/5007] clang++ -MMD -MF obj/base/base/field_trial_params.o.d -DUSE_SYMBOLIZE -DV8_DEPRECATION_WARNINGS -DUSE_UDEV -DUSE_AURA=1 -DUSE_GLIB=1 -DUSE_NSS_CERTS=1 -DUSE_X11=1 -DFULL_SAFE_BROWSING -DSAFE_BROWSING_CSD -DSAFE_BROWSING_DB_LOCAL -DCHROMIUM_BUILD -D_FILE_OFFSET_BITS=64 -D_LARGEFILE_SOURCE -D_LARGEFILE64_SOURCE -D_GNU_SOURCE -DCR_CLANG_REVISION=\340925-1\ -D__STDC_CONSTANT_MACROS -D__STDC_FORMAT_MACROS -DCOMPONENT_BUILD -DNDEBUG -DNVALGRIND -DDYNAMIC_ANNOTATIONS_ENABLED=0 -DBASE_IMPLEMENTATION -DGLIB_VERSION_MAX_ALLOWED=GLIB_VERSION_2_32 -DGLIB_VERSION_MIN_REQUIRED=GLIB_VERSION_2_26 -I../.. -Igen -fno-strict-aliasing --param=ssp-buffer-size=4 -fstack-protector -Wno-builtin-macro-redefined -D__DATE__= -D__TIME__= -D__TIMESTAMP__= -funwind-tables -fPIC -pthread -fcolor-diagnostics -fmerge-all-constants -Xclang -mllvm -Xclang -instcombine-lower-dbg-declare=0 -no-canonical-prefixes -m64 -march=x86-64 -Wall -Wextra -Wimplicit-fallthrough -Wthread-safety -Wno-missing-field-initializers -Wno-unused-parameter -Wno-c++11-narrowing -Wno-covered-switch-default -Wno-unneeded-internal-declaration -Wno-undefined-var-template -Wno-nonportable-include-path -Wno-user-defined-warnings -Wno-unused-lambda-capture -Wno-ignored-pragma-optimize -fno-omit-frame-pointer -g0 -fvisibility=hidden -Wheader-hygiene -Wstring-conversion -Wtautological-overlap-compare -Wno-char-subscripts -Wglobal-constructors -Wexit-time-destructors -Wexit-time-destructors -Wshadow -I/usr/include/glib-2.0 -I/usr/lib/glib-2.0/include -I/usr/lib/libffi-3.2.1/include -Wexit-time-destructors -O2 -fno-ident -fdata-sections -ffunction-sections -std=c++14 -fno-exceptions -fno-rtti -fvisibility-inlines-hidden -D_FORTIFY_SOURCE=2 -march=x86-64 -mtune=generic -O2 -pipe -fstack-protector-strong -fno-plt -c ../../base/metrics/field_trial_params.cc -o obj/base/base/field_trial_params.o
1165  [11/28/2018 03:14PM]: [239/5007] clang++ -MMD -MF obj/base/base/field_trial_param_associator.o.d -DUSE_SYMBOLIZE -DV8_DEPRECATION_WARNINGS -DUSE_UDEV -DUSE_AURA=1 -DUSE_GLIB=1 -DUSE_NSS_CERTS=1 -DUSE_X11=1 -DFULL_SAFE_BROWSING -DSAFE_BROWSING_CSD -DSAFE_BROWSING_DB_LOCAL -DCHROMIUM_BUILD -D_FILE_OFFSET_BITS=64 -D_LARGEFILE_SOURCE -D_LARGEFILE64_SOURCE -D_GNU_SOURCE -DCR_CLANG_REVISION=\340925-1\ -D__STDC_CONSTANT_MACROS -D__STDC_FORMAT_MACROS -DCOMPONENT_BUILD -DNDEBUG -DNVALGRIND -DDYNAMIC_ANNOTATIONS_ENABLED=0 -DBASE_IMPLEMENTATION -DGLIB_VERSION_MAX_ALLOWED=GLIB_VERSION_2_32 -DGLIB_VERSION_MIN_REQUIRED=GLIB_VERSION_2_26 -I../.. -Igen -fno-strict-aliasing --param=ssp-buffer-size=4 -fstack-protector -Wno-builtin-macro-redefined -D__DATE__= -D__TIME__= -D__TIMESTAMP__= -funwind-tables -fPIC -pthread -fcolor-diagnostics -fmerge-all-constants -Xclang -mllvm -Xclang -instcombine-lower-dbg-declare=0 -no-canonical-prefixes -m64 -march=x86-64 -Wall -Wextra -Wimplicit-fallthrough -Wthread-safety -Wno-missing-field-initializers -Wno-unused-parameter -Wno-c++11-narrowing -Wno-covered-switch-default -Wno-unneeded-internal-declaration -Wno-undefined-var-template -Wno-nonportable-include-path -Wno-user-defined-warnings -Wno-unused-lambda-capture -Wno-ignored-pragma-optimize -fno-omit-frame-pointer -g0 -fvisibility=hidden -Wheader-hygiene -Wstring-conversion -Wtautological-overlap-compare -Wno-char-subscripts -Wglobal-constructors -Wexit-time-destructors -Wexit-time-destructors -Wshadow -I/usr/include/glib-2.0 -I/usr/lib/glib-2.0/include -I/usr/lib/libffi-3.2.1/include -Wexit-time-destructors -O2 -fno-ident -fdata-sections -ffunction-sections -std=c++14 -fno-exceptions -fno-rtti -fvisibility-inlines-hidden -D_FORTIFY_SOURCE=2 -march=x86-64 -mtune=generic -O2 -pipe -fstack-protector-strong -fno-plt -c ../../base/metrics/field_trial_param_associator.cc -o obj/base/base/field_trial_param_associator.o
1166  [11/28/2018 03:14PM]: [240/5007] clang++ -MMD -MF obj/base/base/thread_id_name_manager.o.d -DUSE_SYMBOLIZE -DV8_DEPRECATION_WARNINGS -DUSE_UDEV -DUSE_AURA=1 -DUSE_GLIB=1 -DUSE_NSS_CERTS=1 -DUSE_X11=1 -DFULL_SAFE_BROWSING -DSAFE_BROWSING_CSD -DSAFE_BROWSING_DB_LOCAL -DCHROMIUM_BUILD -D_FILE_OFFSET_BITS=64 -D_LARGEFILE_SOURCE -D_LARGEFILE64_SOURCE -D_GNU_SOURCE -DCR_CLANG_REVISION=\340925-1\ -D__STDC_CONSTANT_MACROS -D__STDC_FORMAT_MACROS -DCOMPONENT_BUILD -DNDEBUG -DNVALGRIND -DDYNAMIC_ANNOTATIONS_ENABLED=0 -DBASE_IMPLEMENTATION -DGLIB_VERSION_MAX_ALLOWED=GLIB_VERSION_2_32 -DGLIB_VERSION_MIN_REQUIRED=GLIB_VERSION_2_26 -I../.. -Igen -fno-strict-aliasing --param=ssp-buffer-size=4 -fstack-protector -Wno-builtin-macro-redefined -D__DATE__= -D__TIME__= -D__TIMESTAMP__= -funwind-tables -fPIC -pthread -fcolor-diagnostics -fmerge-all-constants -Xclang -mllvm -Xclang -instcombine-lower-dbg-declare=0 -no-canonical-prefixes -m64 -march=x86-64 -Wall -Wextra -Wimplicit-fallthrough -Wthread-safety -Wno-missing-field-initializers -Wno-unused-parameter -Wno-c++11-narrowing -Wno-covered-switch-default -Wno-unneeded-internal-declaration -Wno-undefined-var-template -Wno-nonportable-include-path -Wno-user-defined-warnings -Wno-unused-lambda-capture -Wno-ignored-pragma-optimize -fno-omit-frame-pointer -g0 -fvisibility=hidden -Wheader-hygiene -Wstring-conversion -Wtautological-overlap-compare -Wno-char-subscripts -Wglobal-constructors -Wexit-time-destructors -Wexit-time-destructors -Wshadow -I/usr/include/glib-2.0 -I/usr/lib/glib-2.0/include -I/usr/lib/libffi-3.2.1/include -Wexit-time-destructors -O2 -fno-ident -fdata-sections -ffunction-sections -std=c++14 -fno-exceptions -fno-rtti -fvisibility-inlines-hidden -D_FORTIFY_SOURCE=2 -march=x86-64 -mtune=generic -O2 -pipe -fstack-protector-strong -fno-plt -c ../../base/threading/thread_id_name_manager.cc -o obj/base/base/thread_id_name_manager.o
1167  [11/28/2018 03:14PM]: [241/5007] clang++ -MMD -MF obj/base/base/thread_local_storage.o.d -DUSE_SYMBOLIZE -DV8_DEPRECATION_WARNINGS -DUSE_UDEV -DUSE_AURA=1 -DUSE_GLIB=1 -DUSE_NSS_CERTS=1 -DUSE_X11=1 -DFULL_SAFE_BROWSING -DSAFE_BROWSING_CSD -DSAFE_BROWSING_DB_LOCAL -DCHROMIUM_BUILD -D_FILE_OFFSET_BITS=64 -D_LARGEFILE_SOURCE -D_LARGEFILE64_SOURCE -D_GNU_SOURCE -DCR_CLANG_REVISION=\340925-1\ -D__STDC_CONSTANT_MACROS -D__STDC_FORMAT_MACROS -DCOMPONENT_BUILD -DNDEBUG -DNVALGRIND -DDYNAMIC_ANNOTATIONS_ENABLED=0 -DBASE_IMPLEMENTATION -DGLIB_VERSION_MAX_ALLOWED=GLIB_VERSION_2_32 -DGLIB_VERSION_MIN_REQUIRED=GLIB_VERSION_2_26 -I../.. -Igen -fno-strict-aliasing --param=ssp-buffer-size=4 -fstack-protector -Wno-builtin-macro-redefined -D__DATE__= -D__TIME__= -D__TIMESTAMP__= -funwind-tables -fPIC -pthread -fcolor-diagnostics -fmerge-all-constants -Xclang -mllvm -Xclang -instcombine-lower-dbg-declare=0 -no-canonical-prefixes -m64 -march=x86-64 -Wall -Wextra -Wimplicit-fallthrough -Wthread-safety -Wno-missing-field-initializers -Wno-unused-parameter -Wno-c++11-narrowing -Wno-covered-switch-default -Wno-unneeded-internal-declaration -Wno-undefined-var-template -Wno-nonportable-include-path -Wno-user-defined-warnings -Wno-unused-lambda-capture -Wno-ignored-pragma-optimize -fno-omit-frame-pointer -g0 -fvisibility=hidden -Wheader-hygiene -Wstring-conversion -Wtautological-overlap-compare -Wno-char-subscripts -Wglobal-constructors -Wexit-time-destructors -Wexit-time-destructors -Wshadow -I/usr/include/glib-2.0 -I/usr/lib/glib-2.0/include -I/usr/lib/libffi-3.2.1/include -Wexit-time-destructors -O2 -fno-ident -fdata-sections -ffunction-sections -std=c++14 -fno-exceptions -fno-rtti -fvisibility-inlines-hidden -D_FORTIFY_SOURCE=2 -march=x86-64 -mtune=generic -O2 -pipe -fstack-protector-strong -fno-plt -c ../../base/threading/thread_local_storage.cc -o obj/base/base/thread_local_storage.o
1168  [11/28/2018 03:14PM]: [242/5007] clang++ -MMD -MF obj/base/base/histogram_delta_serialization.o.d -DUSE_SYMBOLIZE -DV8_DEPRECATION_WARNINGS -DUSE_UDEV -DUSE_AURA=1 -DUSE_GLIB=1 -DUSE_NSS_CERTS=1 -DUSE_X11=1 -DFULL_SAFE_BROWSING -DSAFE_BROWSING_CSD -DSAFE_BROWSING_DB_LOCAL -DCHROMIUM_BUILD -D_FILE_OFFSET_BITS=64 -D_LARGEFILE_SOURCE -D_LARGEFILE64_SOURCE -D_GNU_SOURCE -DCR_CLANG_REVISION=\340925-1\ -D__STDC_CONSTANT_MACROS -D__STDC_FORMAT_MACROS -DCOMPONENT_BUILD -DNDEBUG -DNVALGRIND -DDYNAMIC_ANNOTATIONS_ENABLED=0 -DBASE_IMPLEMENTATION -DGLIB_VERSION_MAX_ALLOWED=GLIB_VERSION_2_32 -DGLIB_VERSION_MIN_REQUIRED=GLIB_VERSION_2_26 -I../.. -Igen -fno-strict-aliasing --param=ssp-buffer-size=4 -fstack-protector -Wno-builtin-macro-redefined -D__DATE__= -D__TIME__= -D__TIMESTAMP__= -funwind-tables -fPIC -pthread -fcolor-diagnostics -fmerge-all-constants -Xclang -mllvm -Xclang -instcombine-lower-dbg-declare=0 -no-canonical-prefixes -m64 -march=x86-64 -Wall -Wextra -Wimplicit-fallthrough -Wthread-safety -Wno-missing-field-initializers -Wno-unused-parameter -Wno-c++11-narrowing -Wno-covered-switch-default -Wno-unneeded-internal-declaration -Wno-undefined-var-template -Wno-nonportable-include-path -Wno-user-defined-warnings -Wno-unused-lambda-capture -Wno-ignored-pragma-optimize -fno-omit-frame-pointer -g0 -fvisibility=hidden -Wheader-hygiene -Wstring-conversion -Wtautological-overlap-compare -Wno-char-subscripts -Wglobal-constructors -Wexit-time-destructors -Wexit-time-destructors -Wshadow -I/usr/include/glib-2.0 -I/usr/lib/glib-2.0/include -I/usr/lib/libffi-3.2.1/include -Wexit-time-destructors -O2 -fno-ident -fdata-sections -ffunction-sections -std=c++14 -fno-exceptions -fno-rtti -fvisibility-inlines-hidden -D_FORTIFY_SOURCE=2 -march=x86-64 -mtune=generic -O2 -pipe -fstack-protector-strong -fno-plt -c ../../base/metrics/histogram_delta_serialization.cc -o obj/base/base/histogram_delta_serialization.o
1169  [11/28/2018 03:14PM]: [243/5007] clang++ -MMD -MF obj/base/base/histogram_base.o.d -DUSE_SYMBOLIZE -DV8_DEPRECATION_WARNINGS -DUSE_UDEV -DUSE_AURA=1 -DUSE_GLIB=1 -DUSE_NSS_CERTS=1 -DUSE_X11=1 -DFULL_SAFE_BROWSING -DSAFE_BROWSING_CSD -DSAFE_BROWSING_DB_LOCAL -DCHROMIUM_BUILD -D_FILE_OFFSET_BITS=64 -D_LARGEFILE_SOURCE -D_LARGEFILE64_SOURCE -D_GNU_SOURCE -DCR_CLANG_REVISION=\340925-1\ -D__STDC_CONSTANT_MACROS -D__STDC_FORMAT_MACROS -DCOMPONENT_BUILD -DNDEBUG -DNVALGRIND -DDYNAMIC_ANNOTATIONS_ENABLED=0 -DBASE_IMPLEMENTATION -DGLIB_VERSION_MAX_ALLOWED=GLIB_VERSION_2_32 -DGLIB_VERSION_MIN_REQUIRED=GLIB_VERSION_2_26 -I../.. -Igen -fno-strict-aliasing --param=ssp-buffer-size=4 -fstack-protector -Wno-builtin-macro-redefined -D__DATE__= -D__TIME__= -D__TIMESTAMP__= -funwind-tables -fPIC -pthread -fcolor-diagnostics -fmerge-all-constants -Xclang -mllvm -Xclang -instcombine-lower-dbg-declare=0 -no-canonical-prefixes -m64 -march=x86-64 -Wall -Wextra -Wimplicit-fallthrough -Wthread-safety -Wno-missing-field-initializers -Wno-unused-parameter -Wno-c++11-narrowing -Wno-covered-switch-default -Wno-unneeded-internal-declaration -Wno-undefined-var-template -Wno-nonportable-include-path -Wno-user-defined-warnings -Wno-unused-lambda-capture -Wno-ignored-pragma-optimize -fno-omit-frame-pointer -g0 -fvisibility=hidden -Wheader-hygiene -Wstring-conversion -Wtautological-overlap-compare -Wno-char-subscripts -Wglobal-constructors -Wexit-time-destructors -Wexit-time-destructors -Wshadow -I/usr/include/glib-2.0 -I/usr/lib/glib-2.0/include -I/usr/lib/libffi-3.2.1/include -Wexit-time-destructors -O2 -fno-ident -fdata-sections -ffunction-sections -std=c++14 -fno-exceptions -fno-rtti -fvisibility-inlines-hidden -D_FORTIFY_SOURCE=2 -march=x86-64 -mtune=generic -O2 -pipe -fstack-protector-strong -fno-plt -c ../../base/metrics/histogram_base.cc -o obj/base/base/histogram_base.o
1170  [11/28/2018 03:14PM]: [244/5007] clang++ -MMD -MF obj/base/base/histogram_functions.o.d -DUSE_SYMBOLIZE -DV8_DEPRECATION_WARNINGS -DUSE_UDEV -DUSE_AURA=1 -DUSE_GLIB=1 -DUSE_NSS_CERTS=1 -DUSE_X11=1 -DFULL_SAFE_BROWSING -DSAFE_BROWSING_CSD -DSAFE_BROWSING_DB_LOCAL -DCHROMIUM_BUILD -D_FILE_OFFSET_BITS=64 -D_LARGEFILE_SOURCE -D_LARGEFILE64_SOURCE -D_GNU_SOURCE -DCR_CLANG_REVISION=\340925-1\ -D__STDC_CONSTANT_MACROS -D__STDC_FORMAT_MACROS -DCOMPONENT_BUILD -DNDEBUG -DNVALGRIND -DDYNAMIC_ANNOTATIONS_ENABLED=0 -DBASE_IMPLEMENTATION -DGLIB_VERSION_MAX_ALLOWED=GLIB_VERSION_2_32 -DGLIB_VERSION_MIN_REQUIRED=GLIB_VERSION_2_26 -I../.. -Igen -fno-strict-aliasing --param=ssp-buffer-size=4 -fstack-protector -Wno-builtin-macro-redefined -D__DATE__= -D__TIME__= -D__TIMESTAMP__= -funwind-tables -fPIC -pthread -fcolor-diagnostics -fmerge-all-constants -Xclang -mllvm -Xclang -instcombine-lower-dbg-declare=0 -no-canonical-prefixes -m64 -march=x86-64 -Wall -Wextra -Wimplicit-fallthrough -Wthread-safety -Wno-missing-field-initializers -Wno-unused-parameter -Wno-c++11-narrowing -Wno-covered-switch-default -Wno-unneeded-internal-declaration -Wno-undefined-var-template -Wno-nonportable-include-path -Wno-user-defined-warnings -Wno-unused-lambda-capture -Wno-ignored-pragma-optimize -fno-omit-frame-pointer -g0 -fvisibility=hidden -Wheader-hygiene -Wstring-conversion -Wtautological-overlap-compare -Wno-char-subscripts -Wglobal-constructors -Wexit-time-destructors -Wexit-time-destructors -Wshadow -I/usr/include/glib-2.0 -I/usr/lib/glib-2.0/include -I/usr/lib/libffi-3.2.1/include -Wexit-time-destructors -O2 -fno-ident -fdata-sections -ffunction-sections -std=c++14 -fno-exceptions -fno-rtti -fvisibility-inlines-hidden -D_FORTIFY_SOURCE=2 -march=x86-64 -mtune=generic -O2 -pipe -fstack-protector-strong -fno-plt -c ../../base/metrics/histogram_functions.cc -o obj/base/base/histogram_functions.o
1171  [11/28/2018 03:14PM]: [245/5007] clang++ -MMD -MF obj/base/base/field_trial.o.d -DUSE_SYMBOLIZE -DV8_DEPRECATION_WARNINGS -DUSE_UDEV -DUSE_AURA=1 -DUSE_GLIB=1 -DUSE_NSS_CERTS=1 -DUSE_X11=1 -DFULL_SAFE_BROWSING -DSAFE_BROWSING_CSD -DSAFE_BROWSING_DB_LOCAL -DCHROMIUM_BUILD -D_FILE_OFFSET_BITS=64 -D_LARGEFILE_SOURCE -D_LARGEFILE64_SOURCE -D_GNU_SOURCE -DCR_CLANG_REVISION=\340925-1\ -D__STDC_CONSTANT_MACROS -D__STDC_FORMAT_MACROS -DCOMPONENT_BUILD -DNDEBUG -DNVALGRIND -DDYNAMIC_ANNOTATIONS_ENABLED=0 -DBASE_IMPLEMENTATION -DGLIB_VERSION_MAX_ALLOWED=GLIB_VERSION_2_32 -DGLIB_VERSION_MIN_REQUIRED=GLIB_VERSION_2_26 -I../.. -Igen -fno-strict-aliasing --param=ssp-buffer-size=4 -fstack-protector -Wno-builtin-macro-redefined -D__DATE__= -D__TIME__= -D__TIMESTAMP__= -funwind-tables -fPIC -pthread -fcolor-diagnostics -fmerge-all-constants -Xclang -mllvm -Xclang -instcombine-lower-dbg-declare=0 -no-canonical-prefixes -m64 -march=x86-64 -Wall -Wextra -Wimplicit-fallthrough -Wthread-safety -Wno-missing-field-initializers -Wno-unused-parameter -Wno-c++11-narrowing -Wno-covered-switch-default -Wno-unneeded-internal-declaration -Wno-undefined-var-template -Wno-nonportable-include-path -Wno-user-defined-warnings -Wno-unused-lambda-capture -Wno-ignored-pragma-optimize -fno-omit-frame-pointer -g0 -fvisibility=hidden -Wheader-hygiene -Wstring-conversion -Wtautological-overlap-compare -Wno-char-subscripts -Wglobal-constructors -Wexit-time-destructors -Wexit-time-destructors -Wshadow -I/usr/include/glib-2.0 -I/usr/lib/glib-2.0/include -I/usr/lib/libffi-3.2.1/include -Wexit-time-destructors -O2 -fno-ident -fdata-sections -ffunction-sections -std=c++14 -fno-exceptions -fno-rtti -fvisibility-inlines-hidden -D_FORTIFY_SOURCE=2 -march=x86-64 -mtune=generic -O2 -pipe -fstack-protector-strong -fno-plt -c ../../base/metrics/field_trial.cc -o obj/base/base/field_trial.o
1172  [11/28/2018 03:14PM]: [246/5007] clang++ -MMD -MF obj/base/base/histogram_samples.o.d -DUSE_SYMBOLIZE -DV8_DEPRECATION_WARNINGS -DUSE_UDEV -DUSE_AURA=1 -DUSE_GLIB=1 -DUSE_NSS_CERTS=1 -DUSE_X11=1 -DFULL_SAFE_BROWSING -DSAFE_BROWSING_CSD -DSAFE_BROWSING_DB_LOCAL -DCHROMIUM_BUILD -D_FILE_OFFSET_BITS=64 -D_LARGEFILE_SOURCE -D_LARGEFILE64_SOURCE -D_GNU_SOURCE -DCR_CLANG_REVISION=\340925-1\ -D__STDC_CONSTANT_MACROS -D__STDC_FORMAT_MACROS -DCOMPONENT_BUILD -DNDEBUG -DNVALGRIND -DDYNAMIC_ANNOTATIONS_ENABLED=0 -DBASE_IMPLEMENTATION -DGLIB_VERSION_MAX_ALLOWED=GLIB_VERSION_2_32 -DGLIB_VERSION_MIN_REQUIRED=GLIB_VERSION_2_26 -I../.. -Igen -fno-strict-aliasing --param=ssp-buffer-size=4 -fstack-protector -Wno-builtin-macro-redefined -D__DATE__= -D__TIME__= -D__TIMESTAMP__= -funwind-tables -fPIC -pthread -fcolor-diagnostics -fmerge-all-constants -Xclang -mllvm -Xclang -instcombine-lower-dbg-declare=0 -no-canonical-prefixes -m64 -march=x86-64 -Wall -Wextra -Wimplicit-fallthrough -Wthread-safety -Wno-missing-field-initializers -Wno-unused-parameter -Wno-c++11-narrowing -Wno-covered-switch-default -Wno-unneeded-internal-declaration -Wno-undefined-var-template -Wno-nonportable-include-path -Wno-user-defined-warnings -Wno-unused-lambda-capture -Wno-ignored-pragma-optimize -fno-omit-frame-pointer -g0 -fvisibility=hidden -Wheader-hygiene -Wstring-conversion -Wtautological-overlap-compare -Wno-char-subscripts -Wglobal-constructors -Wexit-time-destructors -Wexit-time-destructors -Wshadow -I/usr/include/glib-2.0 -I/usr/lib/glib-2.0/include -I/usr/lib/libffi-3.2.1/include -Wexit-time-destructors -O2 -fno-ident -fdata-sections -ffunction-sections -std=c++14 -fno-exceptions -fno-rtti -fvisibility-inlines-hidden -D_FORTIFY_SOURCE=2 -march=x86-64 -mtune=generic -O2 -pipe -fstack-protector-strong -fno-plt -c ../../base/metrics/histogram_samples.cc -o obj/base/base/histogram_samples.o
1173  [11/28/2018 03:14PM]: [247/5007] clang++ -MMD -MF obj/base/base/metrics_hashes.o.d -DUSE_SYMBOLIZE -DV8_DEPRECATION_WARNINGS -DUSE_UDEV -DUSE_AURA=1 -DUSE_GLIB=1 -DUSE_NSS_CERTS=1 -DUSE_X11=1 -DFULL_SAFE_BROWSING -DSAFE_BROWSING_CSD -DSAFE_BROWSING_DB_LOCAL -DCHROMIUM_BUILD -D_FILE_OFFSET_BITS=64 -D_LARGEFILE_SOURCE -D_LARGEFILE64_SOURCE -D_GNU_SOURCE -DCR_CLANG_REVISION=\340925-1\ -D__STDC_CONSTANT_MACROS -D__STDC_FORMAT_MACROS -DCOMPONENT_BUILD -DNDEBUG -DNVALGRIND -DDYNAMIC_ANNOTATIONS_ENABLED=0 -DBASE_IMPLEMENTATION -DGLIB_VERSION_MAX_ALLOWED=GLIB_VERSION_2_32 -DGLIB_VERSION_MIN_REQUIRED=GLIB_VERSION_2_26 -I../.. -Igen -fno-strict-aliasing --param=ssp-buffer-size=4 -fstack-protector -Wno-builtin-macro-redefined -D__DATE__= -D__TIME__= -D__TIMESTAMP__= -funwind-tables -fPIC -pthread -fcolor-diagnostics -fmerge-all-constants -Xclang -mllvm -Xclang -instcombine-lower-dbg-declare=0 -no-canonical-prefixes -m64 -march=x86-64 -Wall -Wextra -Wimplicit-fallthrough -Wthread-safety -Wno-missing-field-initializers -Wno-unused-parameter -Wno-c++11-narrowing -Wno-covered-switch-default -Wno-unneeded-internal-declaration -Wno-undefined-var-template -Wno-nonportable-include-path -Wno-user-defined-warnings -Wno-unused-lambda-capture -Wno-ignored-pragma-optimize -fno-omit-frame-pointer -g0 -fvisibility=hidden -Wheader-hygiene -Wstring-conversion -Wtautological-overlap-compare -Wno-char-subscripts -Wglobal-constructors -Wexit-time-destructors -Wexit-time-destructors -Wshadow -I/usr/include/glib-2.0 -I/usr/lib/glib-2.0/include -I/usr/lib/libffi-3.2.1/include -Wexit-time-destructors -O2 -fno-ident -fdata-sections -ffunction-sections -std=c++14 -fno-exceptions -fno-rtti -fvisibility-inlines-hidden -D_FORTIFY_SOURCE=2 -march=x86-64 -mtune=generic -O2 -pipe -fstack-protector-strong -fno-plt -c ../../base/metrics/metrics_hashes.cc -o obj/base/base/metrics_hashes.o
1174  [11/28/2018 03:14PM]: [248/5007] clang++ -MMD -MF obj/base/base/histogram.o.d -DUSE_SYMBOLIZE -DV8_DEPRECATION_WARNINGS -DUSE_UDEV -DUSE_AURA=1 -DUSE_GLIB=1 -DUSE_NSS_CERTS=1 -DUSE_X11=1 -DFULL_SAFE_BROWSING -DSAFE_BROWSING_CSD -DSAFE_BROWSING_DB_LOCAL -DCHROMIUM_BUILD -D_FILE_OFFSET_BITS=64 -D_LARGEFILE_SOURCE -D_LARGEFILE64_SOURCE -D_GNU_SOURCE -DCR_CLANG_REVISION=\340925-1\ -D__STDC_CONSTANT_MACROS -D__STDC_FORMAT_MACROS -DCOMPONENT_BUILD -DNDEBUG -DNVALGRIND -DDYNAMIC_ANNOTATIONS_ENABLED=0 -DBASE_IMPLEMENTATION -DGLIB_VERSION_MAX_ALLOWED=GLIB_VERSION_2_32 -DGLIB_VERSION_MIN_REQUIRED=GLIB_VERSION_2_26 -I../.. -Igen -fno-strict-aliasing --param=ssp-buffer-size=4 -fstack-protector -Wno-builtin-macro-redefined -D__DATE__= -D__TIME__= -D__TIMESTAMP__= -funwind-tables -fPIC -pthread -fcolor-diagnostics -fmerge-all-constants -Xclang -mllvm -Xclang -instcombine-lower-dbg-declare=0 -no-canonical-prefixes -m64 -march=x86-64 -Wall -Wextra -Wimplicit-fallthrough -Wthread-safety -Wno-missing-field-initializers -Wno-unused-parameter -Wno-c++11-narrowing -Wno-covered-switch-default -Wno-unneeded-internal-declaration -Wno-undefined-var-template -Wno-nonportable-include-path -Wno-user-defined-warnings -Wno-unused-lambda-capture -Wno-ignored-pragma-optimize -fno-omit-frame-pointer -g0 -fvisibility=hidden -Wheader-hygiene -Wstring-conversion -Wtautological-overlap-compare -Wno-char-subscripts -Wglobal-constructors -Wexit-time-destructors -Wexit-time-destructors -Wshadow -I/usr/include/glib-2.0 -I/usr/lib/glib-2.0/include -I/usr/lib/libffi-3.2.1/include -Wexit-time-destructors -O2 -fno-ident -fdata-sections -ffunction-sections -std=c++14 -fno-exceptions -fno-rtti -fvisibility-inlines-hidden -D_FORTIFY_SOURCE=2 -march=x86-64 -mtune=generic -O2 -pipe -fstack-protector-strong -fno-plt -c ../../base/metrics/histogram.cc -o obj/base/base/histogram.o
1175  [11/28/2018 03:15PM]: [249/5007] clang++ -MMD -MF obj/base/base/native_stack_sampler.o.d -DUSE_SYMBOLIZE -DV8_DEPRECATION_WARNINGS -DUSE_UDEV -DUSE_AURA=1 -DUSE_GLIB=1 -DUSE_NSS_CERTS=1 -DUSE_X11=1 -DFULL_SAFE_BROWSING -DSAFE_BROWSING_CSD -DSAFE_BROWSING_DB_LOCAL -DCHROMIUM_BUILD -D_FILE_OFFSET_BITS=64 -D_LARGEFILE_SOURCE -D_LARGEFILE64_SOURCE -D_GNU_SOURCE -DCR_CLANG_REVISION=\340925-1\ -D__STDC_CONSTANT_MACROS -D__STDC_FORMAT_MACROS -DCOMPONENT_BUILD -DNDEBUG -DNVALGRIND -DDYNAMIC_ANNOTATIONS_ENABLED=0 -DBASE_IMPLEMENTATION -DGLIB_VERSION_MAX_ALLOWED=GLIB_VERSION_2_32 -DGLIB_VERSION_MIN_REQUIRED=GLIB_VERSION_2_26 -I../.. -Igen -fno-strict-aliasing --param=ssp-buffer-size=4 -fstack-protector -Wno-builtin-macro-redefined -D__DATE__= -D__TIME__= -D__TIMESTAMP__= -funwind-tables -fPIC -pthread -fcolor-diagnostics -fmerge-all-constants -Xclang -mllvm -Xclang -instcombine-lower-dbg-declare=0 -no-canonical-prefixes -m64 -march=x86-64 -Wall -Wextra -Wimplicit-fallthrough -Wthread-safety -Wno-missing-field-initializers -Wno-unused-parameter -Wno-c++11-narrowing -Wno-covered-switch-default -Wno-unneeded-internal-declaration -Wno-undefined-var-template -Wno-nonportable-include-path -Wno-user-defined-warnings -Wno-unused-lambda-capture -Wno-ignored-pragma-optimize -fno-omit-frame-pointer -g0 -fvisibility=hidden -Wheader-hygiene -Wstring-conversion -Wtautological-overlap-compare -Wno-char-subscripts -Wglobal-constructors -Wexit-time-destructors -Wexit-time-destructors -Wshadow -I/usr/include/glib-2.0 -I/usr/lib/glib-2.0/include -I/usr/lib/libffi-3.2.1/include -Wexit-time-destructors -O2 -fno-ident -fdata-sections -ffunction-sections -std=c++14 -fno-exceptions -fno-rtti -fvisibility-inlines-hidden -D_FORTIFY_SOURCE=2 -march=x86-64 -mtune=generic -O2 -pipe -fstack-protector-strong -fno-plt -c ../../base/profiler/native_stack_sampler.cc -o obj/base/base/native_stack_sampler.o
1176  [11/28/2018 03:15PM]: [250/5007] clang++ -MMD -MF obj/base/base/histogram_snapshot_manager.o.d -DUSE_SYMBOLIZE -DV8_DEPRECATION_WARNINGS -DUSE_UDEV -DUSE_AURA=1 -DUSE_GLIB=1 -DUSE_NSS_CERTS=1 -DUSE_X11=1 -DFULL_SAFE_BROWSING -DSAFE_BROWSING_CSD -DSAFE_BROWSING_DB_LOCAL -DCHROMIUM_BUILD -D_FILE_OFFSET_BITS=64 -D_LARGEFILE_SOURCE -D_LARGEFILE64_SOURCE -D_GNU_SOURCE -DCR_CLANG_REVISION=\340925-1\ -D__STDC_CONSTANT_MACROS -D__STDC_FORMAT_MACROS -DCOMPONENT_BUILD -DNDEBUG -DNVALGRIND -DDYNAMIC_ANNOTATIONS_ENABLED=0 -DBASE_IMPLEMENTATION -DGLIB_VERSION_MAX_ALLOWED=GLIB_VERSION_2_32 -DGLIB_VERSION_MIN_REQUIRED=GLIB_VERSION_2_26 -I../.. -Igen -fno-strict-aliasing --param=ssp-buffer-size=4 -fstack-protector -Wno-builtin-macro-redefined -D__DATE__= -D__TIME__= -D__TIMESTAMP__= -funwind-tables -fPIC -pthread -fcolor-diagnostics -fmerge-all-constants -Xclang -mllvm -Xclang -instcombine-lower-dbg-declare=0 -no-canonical-prefixes -m64 -march=x86-64 -Wall -Wextra -Wimplicit-fallthrough -Wthread-safety -Wno-missing-field-initializers -Wno-unused-parameter -Wno-c++11-narrowing -Wno-covered-switch-default -Wno-unneeded-internal-declaration -Wno-undefined-var-template -Wno-nonportable-include-path -Wno-user-defined-warnings -Wno-unused-lambda-capture -Wno-ignored-pragma-optimize -fno-omit-frame-pointer -g0 -fvisibility=hidden -Wheader-hygiene -Wstring-conversion -Wtautological-overlap-compare -Wno-char-subscripts -Wglobal-constructors -Wexit-time-destructors -Wexit-time-destructors -Wshadow -I/usr/include/glib-2.0 -I/usr/lib/glib-2.0/include -I/usr/lib/libffi-3.2.1/include -Wexit-time-destructors -O2 -fno-ident -fdata-sections -ffunction-sections -std=c++14 -fno-exceptions -fno-rtti -fvisibility-inlines-hidden -D_FORTIFY_SOURCE=2 -march=x86-64 -mtune=generic -O2 -pipe -fstack-protector-strong -fno-plt -c ../../base/metrics/histogram_snapshot_manager.cc -o obj/base/base/histogram_snapshot_manager.o
1177  [11/28/2018 03:15PM]: [251/5007] clang++ -MMD -MF obj/base/base/rand_util.o.d -DUSE_SYMBOLIZE -DV8_DEPRECATION_WARNINGS -DUSE_UDEV -DUSE_AURA=1 -DUSE_GLIB=1 -DUSE_NSS_CERTS=1 -DUSE_X11=1 -DFULL_SAFE_BROWSING -DSAFE_BROWSING_CSD -DSAFE_BROWSING_DB_LOCAL -DCHROMIUM_BUILD -D_FILE_OFFSET_BITS=64 -D_LARGEFILE_SOURCE -D_LARGEFILE64_SOURCE -D_GNU_SOURCE -DCR_CLANG_REVISION=\340925-1\ -D__STDC_CONSTANT_MACROS -D__STDC_FORMAT_MACROS -DCOMPONENT_BUILD -DNDEBUG -DNVALGRIND -DDYNAMIC_ANNOTATIONS_ENABLED=0 -DBASE_IMPLEMENTATION -DGLIB_VERSION_MAX_ALLOWED=GLIB_VERSION_2_32 -DGLIB_VERSION_MIN_REQUIRED=GLIB_VERSION_2_26 -I../.. -Igen -fno-strict-aliasing --param=ssp-buffer-size=4 -fstack-protector -Wno-builtin-macro-redefined -D__DATE__= -D__TIME__= -D__TIMESTAMP__= -funwind-tables -fPIC -pthread -fcolor-diagnostics -fmerge-all-constants -Xclang -mllvm -Xclang -instcombine-lower-dbg-declare=0 -no-canonical-prefixes -m64 -march=x86-64 -Wall -Wextra -Wimplicit-fallthrough -Wthread-safety -Wno-missing-field-initializers -Wno-unused-parameter -Wno-c++11-narrowing -Wno-covered-switch-default -Wno-unneeded-internal-declaration -Wno-undefined-var-template -Wno-nonportable-include-path -Wno-user-defined-warnings -Wno-unused-lambda-capture -Wno-ignored-pragma-optimize -fno-omit-frame-pointer -g0 -fvisibility=hidden -Wheader-hygiene -Wstring-conversion -Wtautological-overlap-compare -Wno-char-subscripts -Wglobal-constructors -Wexit-time-destructors -Wexit-time-destructors -Wshadow -I/usr/include/glib-2.0 -I/usr/lib/glib-2.0/include -I/usr/lib/libffi-3.2.1/include -Wexit-time-destructors -O2 -fno-ident -fdata-sections -ffunction-sections -std=c++14 -fno-exceptions -fno-rtti -fvisibility-inlines-hidden -D_FORTIFY_SOURCE=2 -march=x86-64 -mtune=generic -O2 -pipe -fstack-protector-strong -fno-plt -c ../../base/rand_util.cc -o obj/base/base/rand_util.o
1178  [11/28/2018 03:15PM]: [252/5007] clang++ -MMD -MF obj/base/base/process_metrics_linux.o.d -DUSE_SYMBOLIZE -DV8_DEPRECATION_WARNINGS -DUSE_UDEV -DUSE_AURA=1 -DUSE_GLIB=1 -DUSE_NSS_CERTS=1 -DUSE_X11=1 -DFULL_SAFE_BROWSING -DSAFE_BROWSING_CSD -DSAFE_BROWSING_DB_LOCAL -DCHROMIUM_BUILD -D_FILE_OFFSET_BITS=64 -D_LARGEFILE_SOURCE -D_LARGEFILE64_SOURCE -D_GNU_SOURCE -DCR_CLANG_REVISION=\340925-1\ -D__STDC_CONSTANT_MACROS -D__STDC_FORMAT_MACROS -DCOMPONENT_BUILD -DNDEBUG -DNVALGRIND -DDYNAMIC_ANNOTATIONS_ENABLED=0 -DBASE_IMPLEMENTATION -DGLIB_VERSION_MAX_ALLOWED=GLIB_VERSION_2_32 -DGLIB_VERSION_MIN_REQUIRED=GLIB_VERSION_2_26 -I../.. -Igen -fno-strict-aliasing --param=ssp-buffer-size=4 -fstack-protector -Wno-builtin-macro-redefined -D__DATE__= -D__TIME__= -D__TIMESTAMP__= -funwind-tables -fPIC -pthread -fcolor-diagnostics -fmerge-all-constants -Xclang -mllvm -Xclang -instcombine-lower-dbg-declare=0 -no-canonical-prefixes -m64 -march=x86-64 -Wall -Wextra -Wimplicit-fallthrough -Wthread-safety -Wno-missing-field-initializers -Wno-unused-parameter -Wno-c++11-narrowing -Wno-covered-switch-default -Wno-unneeded-internal-declaration -Wno-undefined-var-template -Wno-nonportable-include-path -Wno-user-defined-warnings -Wno-unused-lambda-capture -Wno-ignored-pragma-optimize -fno-omit-frame-pointer -g0 -fvisibility=hidden -Wheader-hygiene -Wstring-conversion -Wtautological-overlap-compare -Wno-char-subscripts -Wglobal-constructors -Wexit-time-destructors -Wexit-time-destructors -Wshadow -I/usr/include/glib-2.0 -I/usr/lib/glib-2.0/include -I/usr/lib/libffi-3.2.1/include -Wexit-time-destructors -O2 -fno-ident -fdata-sections -ffunction-sections -std=c++14 -fno-exceptions -fno-rtti -fvisibility-inlines-hidden -D_FORTIFY_SOURCE=2 -march=x86-64 -mtune=generic -O2 -pipe -fstack-protector-strong -fno-plt -c ../../base/process/process_metrics_linux.cc -o obj/base/base/process_metrics_linux.o
1179  [11/28/2018 03:15PM]: [253/5007] clang++ -MMD -MF obj/base/base/lock_free_address_hash_set.o.d -DUSE_SYMBOLIZE -DV8_DEPRECATION_WARNINGS -DUSE_UDEV -DUSE_AURA=1 -DUSE_GLIB=1 -DUSE_NSS_CERTS=1 -DUSE_X11=1 -DFULL_SAFE_BROWSING -DSAFE_BROWSING_CSD -DSAFE_BROWSING_DB_LOCAL -DCHROMIUM_BUILD -D_FILE_OFFSET_BITS=64 -D_LARGEFILE_SOURCE -D_LARGEFILE64_SOURCE -D_GNU_SOURCE -DCR_CLANG_REVISION=\340925-1\ -D__STDC_CONSTANT_MACROS -D__STDC_FORMAT_MACROS -DCOMPONENT_BUILD -DNDEBUG -DNVALGRIND -DDYNAMIC_ANNOTATIONS_ENABLED=0 -DBASE_IMPLEMENTATION -DGLIB_VERSION_MAX_ALLOWED=GLIB_VERSION_2_32 -DGLIB_VERSION_MIN_REQUIRED=GLIB_VERSION_2_26 -I../.. -Igen -fno-strict-aliasing --param=ssp-buffer-size=4 -fstack-protector -Wno-builtin-macro-redefined -D__DATE__= -D__TIME__= -D__TIMESTAMP__= -funwind-tables -fPIC -pthread -fcolor-diagnostics -fmerge-all-constants -Xclang -mllvm -Xclang -instcombine-lower-dbg-declare=0 -no-canonical-prefixes -m64 -march=x86-64 -Wall -Wextra -Wimplicit-fallthrough -Wthread-safety -Wno-missing-field-initializers -Wno-unused-parameter -Wno-c++11-narrowing -Wno-covered-switch-default -Wno-unneeded-internal-declaration -Wno-undefined-var-template -Wno-nonportable-include-path -Wno-user-defined-warnings -Wno-unused-lambda-capture -Wno-ignored-pragma-optimize -fno-omit-frame-pointer -g0 -fvisibility=hidden -Wheader-hygiene -Wstring-conversion -Wtautological-overlap-compare -Wno-char-subscripts -Wglobal-constructors -Wexit-time-destructors -Wexit-time-destructors -Wshadow -I/usr/include/glib-2.0 -I/usr/lib/glib-2.0/include -I/usr/lib/libffi-3.2.1/include -Wexit-time-destructors -O2 -fno-ident -fdata-sections -ffunction-sections -std=c++14 -fno-exceptions -fno-rtti -fvisibility-inlines-hidden -D_FORTIFY_SOURCE=2 -march=x86-64 -mtune=generic -O2 -pipe -fstack-protector-strong -fno-plt -c ../../base/sampling_heap_profiler/lock_free_address_hash_set.cc -o obj/base/base/lock_free_address_hash_set.o
1180  [11/28/2018 03:15PM]: [254/5007] clang++ -MMD -MF obj/base/base/module_cache.o.d -DUSE_SYMBOLIZE -DV8_DEPRECATION_WARNINGS -DUSE_UDEV -DUSE_AURA=1 -DUSE_GLIB=1 -DUSE_NSS_CERTS=1 -DUSE_X11=1 -DFULL_SAFE_BROWSING -DSAFE_BROWSING_CSD -DSAFE_BROWSING_DB_LOCAL -DCHROMIUM_BUILD -D_FILE_OFFSET_BITS=64 -D_LARGEFILE_SOURCE -D_LARGEFILE64_SOURCE -D_GNU_SOURCE -DCR_CLANG_REVISION=\340925-1\ -D__STDC_CONSTANT_MACROS -D__STDC_FORMAT_MACROS -DCOMPONENT_BUILD -DNDEBUG -DNVALGRIND -DDYNAMIC_ANNOTATIONS_ENABLED=0 -DBASE_IMPLEMENTATION -DGLIB_VERSION_MAX_ALLOWED=GLIB_VERSION_2_32 -DGLIB_VERSION_MIN_REQUIRED=GLIB_VERSION_2_26 -I../.. -Igen -fno-strict-aliasing --param=ssp-buffer-size=4 -fstack-protector -Wno-builtin-macro-redefined -D__DATE__= -D__TIME__= -D__TIMESTAMP__= -funwind-tables -fPIC -pthread -fcolor-diagnostics -fmerge-all-constants -Xclang -mllvm -Xclang -instcombine-lower-dbg-declare=0 -no-canonical-prefixes -m64 -march=x86-64 -Wall -Wextra -Wimplicit-fallthrough -Wthread-safety -Wno-missing-field-initializers -Wno-unused-parameter -Wno-c++11-narrowing -Wno-covered-switch-default -Wno-unneeded-internal-declaration -Wno-undefined-var-template -Wno-nonportable-include-path -Wno-user-defined-warnings -Wno-unused-lambda-capture -Wno-ignored-pragma-optimize -fno-omit-frame-pointer -g0 -fvisibility=hidden -Wheader-hygiene -Wstring-conversion -Wtautological-overlap-compare -Wno-char-subscripts -Wglobal-constructors -Wexit-time-destructors -Wexit-time-destructors -Wshadow -I/usr/include/glib-2.0 -I/usr/lib/glib-2.0/include -I/usr/lib/libffi-3.2.1/include -Wexit-time-destructors -O2 -fno-ident -fdata-sections -ffunction-sections -std=c++14 -fno-exceptions -fno-rtti -fvisibility-inlines-hidden -D_FORTIFY_SOURCE=2 -march=x86-64 -mtune=generic -O2 -pipe -fstack-protector-strong -fno-plt -c ../../base/sampling_heap_profiler/module_cache.cc -o obj/base/base/module_cache.o
1181  [11/28/2018 03:15PM]: [255/5007] clang++ -MMD -MF obj/base/base/persistent_histogram_allocator.o.d -DUSE_SYMBOLIZE -DV8_DEPRECATION_WARNINGS -DUSE_UDEV -DUSE_AURA=1 -DUSE_GLIB=1 -DUSE_NSS_CERTS=1 -DUSE_X11=1 -DFULL_SAFE_BROWSING -DSAFE_BROWSING_CSD -DSAFE_BROWSING_DB_LOCAL -DCHROMIUM_BUILD -D_FILE_OFFSET_BITS=64 -D_LARGEFILE_SOURCE -D_LARGEFILE64_SOURCE -D_GNU_SOURCE -DCR_CLANG_REVISION=\340925-1\ -D__STDC_CONSTANT_MACROS -D__STDC_FORMAT_MACROS -DCOMPONENT_BUILD -DNDEBUG -DNVALGRIND -DDYNAMIC_ANNOTATIONS_ENABLED=0 -DBASE_IMPLEMENTATION -DGLIB_VERSION_MAX_ALLOWED=GLIB_VERSION_2_32 -DGLIB_VERSION_MIN_REQUIRED=GLIB_VERSION_2_26 -I../.. -Igen -fno-strict-aliasing --param=ssp-buffer-size=4 -fstack-protector -Wno-builtin-macro-redefined -D__DATE__= -D__TIME__= -D__TIMESTAMP__= -funwind-tables -fPIC -pthread -fcolor-diagnostics -fmerge-all-constants -Xclang -mllvm -Xclang -instcombine-lower-dbg-declare=0 -no-canonical-prefixes -m64 -march=x86-64 -Wall -Wextra -Wimplicit-fallthrough -Wthread-safety -Wno-missing-field-initializers -Wno-unused-parameter -Wno-c++11-narrowing -Wno-covered-switch-default -Wno-unneeded-internal-declaration -Wno-undefined-var-template -Wno-nonportable-include-path -Wno-user-defined-warnings -Wno-unused-lambda-capture -Wno-ignored-pragma-optimize -fno-omit-frame-pointer -g0 -fvisibility=hidden -Wheader-hygiene -Wstring-conversion -Wtautological-overlap-compare -Wno-char-subscripts -Wglobal-constructors -Wexit-time-destructors -Wexit-time-destructors -Wshadow -I/usr/include/glib-2.0 -I/usr/lib/glib-2.0/include -I/usr/lib/libffi-3.2.1/include -Wexit-time-destructors -O2 -fno-ident -fdata-sections -ffunction-sections -std=c++14 -fno-exceptions -fno-rtti -fvisibility-inlines-hidden -D_FORTIFY_SOURCE=2 -march=x86-64 -mtune=generic -O2 -pipe -fstack-protector-strong -fno-plt -c ../../base/metrics/persistent_histogram_allocator.cc -o obj/base/base/persistent_histogram_allocator.o
1182  [11/28/2018 03:15PM]: [256/5007] clang++ -MMD -MF obj/base/base/scoped_native_library.o.d -DUSE_SYMBOLIZE -DV8_DEPRECATION_WARNINGS -DUSE_UDEV -DUSE_AURA=1 -DUSE_GLIB=1 -DUSE_NSS_CERTS=1 -DUSE_X11=1 -DFULL_SAFE_BROWSING -DSAFE_BROWSING_CSD -DSAFE_BROWSING_DB_LOCAL -DCHROMIUM_BUILD -D_FILE_OFFSET_BITS=64 -D_LARGEFILE_SOURCE -D_LARGEFILE64_SOURCE -D_GNU_SOURCE -DCR_CLANG_REVISION=\340925-1\ -D__STDC_CONSTANT_MACROS -D__STDC_FORMAT_MACROS -DCOMPONENT_BUILD -DNDEBUG -DNVALGRIND -DDYNAMIC_ANNOTATIONS_ENABLED=0 -DBASE_IMPLEMENTATION -DGLIB_VERSION_MAX_ALLOWED=GLIB_VERSION_2_32 -DGLIB_VERSION_MIN_REQUIRED=GLIB_VERSION_2_26 -I../.. -Igen -fno-strict-aliasing --param=ssp-buffer-size=4 -fstack-protector -Wno-builtin-macro-redefined -D__DATE__= -D__TIME__= -D__TIMESTAMP__= -funwind-tables -fPIC -pthread -fcolor-diagnostics -fmerge-all-constants -Xclang -mllvm -Xclang -instcombine-lower-dbg-declare=0 -no-canonical-prefixes -m64 -march=x86-64 -Wall -Wextra -Wimplicit-fallthrough -Wthread-safety -Wno-missing-field-initializers -Wno-unused-parameter -Wno-c++11-narrowing -Wno-covered-switch-default -Wno-unneeded-internal-declaration -Wno-undefined-var-template -Wno-nonportable-include-path -Wno-user-defined-warnings -Wno-unused-lambda-capture -Wno-ignored-pragma-optimize -fno-omit-frame-pointer -g0 -fvisibility=hidden -Wheader-hygiene -Wstring-conversion -Wtautological-overlap-compare -Wno-char-subscripts -Wglobal-constructors -Wexit-time-destructors -Wexit-time-destructors -Wshadow -I/usr/include/glib-2.0 -I/usr/lib/glib-2.0/include -I/usr/lib/libffi-3.2.1/include -Wexit-time-destructors -O2 -fno-ident -fdata-sections -ffunction-sections -std=c++14 -fno-exceptions -fno-rtti -fvisibility-inlines-hidden -D_FORTIFY_SOURCE=2 -march=x86-64 -mtune=generic -O2 -pipe -fstack-protector-strong -fno-plt -c ../../base/scoped_native_library.cc -o obj/base/base/scoped_native_library.o
1183  [11/28/2018 03:15PM]: [257/5007] clang++ -MMD -MF obj/base/base/stack_sampling_profiler.o.d -DUSE_SYMBOLIZE -DV8_DEPRECATION_WARNINGS -DUSE_UDEV -DUSE_AURA=1 -DUSE_GLIB=1 -DUSE_NSS_CERTS=1 -DUSE_X11=1 -DFULL_SAFE_BROWSING -DSAFE_BROWSING_CSD -DSAFE_BROWSING_DB_LOCAL -DCHROMIUM_BUILD -D_FILE_OFFSET_BITS=64 -D_LARGEFILE_SOURCE -D_LARGEFILE64_SOURCE -D_GNU_SOURCE -DCR_CLANG_REVISION=\340925-1\ -D__STDC_CONSTANT_MACROS -D__STDC_FORMAT_MACROS -DCOMPONENT_BUILD -DNDEBUG -DNVALGRIND -DDYNAMIC_ANNOTATIONS_ENABLED=0 -DBASE_IMPLEMENTATION -DGLIB_VERSION_MAX_ALLOWED=GLIB_VERSION_2_32 -DGLIB_VERSION_MIN_REQUIRED=GLIB_VERSION_2_26 -I../.. -Igen -fno-strict-aliasing --param=ssp-buffer-size=4 -fstack-protector -Wno-builtin-macro-redefined -D__DATE__= -D__TIME__= -D__TIMESTAMP__= -funwind-tables -fPIC -pthread -fcolor-diagnostics -fmerge-all-constants -Xclang -mllvm -Xclang -instcombine-lower-dbg-declare=0 -no-canonical-prefixes -m64 -march=x86-64 -Wall -Wextra -Wimplicit-fallthrough -Wthread-safety -Wno-missing-field-initializers -Wno-unused-parameter -Wno-c++11-narrowing -Wno-covered-switch-default -Wno-unneeded-internal-declaration -Wno-undefined-var-template -Wno-nonportable-include-path -Wno-user-defined-warnings -Wno-unused-lambda-capture -Wno-ignored-pragma-optimize -fno-omit-frame-pointer -g0 -fvisibility=hidden -Wheader-hygiene -Wstring-conversion -Wtautological-overlap-compare -Wno-char-subscripts -Wglobal-constructors -Wexit-time-destructors -Wexit-time-destructors -Wshadow -I/usr/include/glib-2.0 -I/usr/lib/glib-2.0/include -I/usr/lib/libffi-3.2.1/include -Wexit-time-destructors -O2 -fno-ident -fdata-sections -ffunction-sections -std=c++14 -fno-exceptions -fno-rtti -fvisibility-inlines-hidden -D_FORTIFY_SOURCE=2 -march=x86-64 -mtune=generic -O2 -pipe -fstack-protector-strong -fno-plt -c ../../base/profiler/stack_sampling_profiler.cc -o obj/base/base/stack_sampling_profiler.o
1184  [11/28/2018 03:15PM]: [258/5007] clang++ -MMD -MF obj/base/base/poisson_allocation_sampler.o.d -DUSE_SYMBOLIZE -DV8_DEPRECATION_WARNINGS -DUSE_UDEV -DUSE_AURA=1 -DUSE_GLIB=1 -DUSE_NSS_CERTS=1 -DUSE_X11=1 -DFULL_SAFE_BROWSING -DSAFE_BROWSING_CSD -DSAFE_BROWSING_DB_LOCAL -DCHROMIUM_BUILD -D_FILE_OFFSET_BITS=64 -D_LARGEFILE_SOURCE -D_LARGEFILE64_SOURCE -D_GNU_SOURCE -DCR_CLANG_REVISION=\340925-1\ -D__STDC_CONSTANT_MACROS -D__STDC_FORMAT_MACROS -DCOMPONENT_BUILD -DNDEBUG -DNVALGRIND -DDYNAMIC_ANNOTATIONS_ENABLED=0 -DBASE_IMPLEMENTATION -DGLIB_VERSION_MAX_ALLOWED=GLIB_VERSION_2_32 -DGLIB_VERSION_MIN_REQUIRED=GLIB_VERSION_2_26 -I../.. -Igen -fno-strict-aliasing --param=ssp-buffer-size=4 -fstack-protector -Wno-builtin-macro-redefined -D__DATE__= -D__TIME__= -D__TIMESTAMP__= -funwind-tables -fPIC -pthread -fcolor-diagnostics -fmerge-all-constants -Xclang -mllvm -Xclang -instcombine-lower-dbg-declare=0 -no-canonical-prefixes -m64 -march=x86-64 -Wall -Wextra -Wimplicit-fallthrough -Wthread-safety -Wno-missing-field-initializers -Wno-unused-parameter -Wno-c++11-narrowing -Wno-covered-switch-default -Wno-unneeded-internal-declaration -Wno-undefined-var-template -Wno-nonportable-include-path -Wno-user-defined-warnings -Wno-unused-lambda-capture -Wno-ignored-pragma-optimize -fno-omit-frame-pointer -g0 -fvisibility=hidden -Wheader-hygiene -Wstring-conversion -Wtautological-overlap-compare -Wno-char-subscripts -Wglobal-constructors -Wexit-time-destructors -Wexit-time-destructors -Wshadow -I/usr/include/glib-2.0 -I/usr/lib/glib-2.0/include -I/usr/lib/libffi-3.2.1/include -Wexit-time-destructors -O2 -fno-ident -fdata-sections -ffunction-sections -std=c++14 -fno-exceptions -fno-rtti -fvisibility-inlines-hidden -D_FORTIFY_SOURCE=2 -march=x86-64 -mtune=generic -O2 -pipe -fstack-protector-strong -fno-plt -c ../../base/sampling_heap_profiler/poisson_allocation_sampler.cc -o obj/base/base/poisson_allocation_sampler.o
1185  [11/28/2018 03:15PM]: [259/5007] clang++ -MMD -MF obj/base/base/run_loop.o.d -DUSE_SYMBOLIZE -DV8_DEPRECATION_WARNINGS -DUSE_UDEV -DUSE_AURA=1 -DUSE_GLIB=1 -DUSE_NSS_CERTS=1 -DUSE_X11=1 -DFULL_SAFE_BROWSING -DSAFE_BROWSING_CSD -DSAFE_BROWSING_DB_LOCAL -DCHROMIUM_BUILD -D_FILE_OFFSET_BITS=64 -D_LARGEFILE_SOURCE -D_LARGEFILE64_SOURCE -D_GNU_SOURCE -DCR_CLANG_REVISION=\340925-1\ -D__STDC_CONSTANT_MACROS -D__STDC_FORMAT_MACROS -DCOMPONENT_BUILD -DNDEBUG -DNVALGRIND -DDYNAMIC_ANNOTATIONS_ENABLED=0 -DBASE_IMPLEMENTATION -DGLIB_VERSION_MAX_ALLOWED=GLIB_VERSION_2_32 -DGLIB_VERSION_MIN_REQUIRED=GLIB_VERSION_2_26 -I../.. -Igen -fno-strict-aliasing --param=ssp-buffer-size=4 -fstack-protector -Wno-builtin-macro-redefined -D__DATE__= -D__TIME__= -D__TIMESTAMP__= -funwind-tables -fPIC -pthread -fcolor-diagnostics -fmerge-all-constants -Xclang -mllvm -Xclang -instcombine-lower-dbg-declare=0 -no-canonical-prefixes -m64 -march=x86-64 -Wall -Wextra -Wimplicit-fallthrough -Wthread-safety -Wno-missing-field-initializers -Wno-unused-parameter -Wno-c++11-narrowing -Wno-covered-switch-default -Wno-unneeded-internal-declaration -Wno-undefined-var-template -Wno-nonportable-include-path -Wno-user-defined-warnings -Wno-unused-lambda-capture -Wno-ignored-pragma-optimize -fno-omit-frame-pointer -g0 -fvisibility=hidden -Wheader-hygiene -Wstring-conversion -Wtautological-overlap-compare -Wno-char-subscripts -Wglobal-constructors -Wexit-time-destructors -Wexit-time-destructors -Wshadow -I/usr/include/glib-2.0 -I/usr/lib/glib-2.0/include -I/usr/lib/libffi-3.2.1/include -Wexit-time-destructors -O2 -fno-ident -fdata-sections -ffunction-sections -std=c++14 -fno-exceptions -fno-rtti -fvisibility-inlines-hidden -D_FORTIFY_SOURCE=2 -march=x86-64 -mtune=generic -O2 -pipe -fstack-protector-strong -fno-plt -c ../../base/run_loop.cc -o obj/base/base/run_loop.o
1186  [11/28/2018 03:15PM]: [260/5007] clang++ -MMD -MF obj/base/base/sequence_token.o.d -DUSE_SYMBOLIZE -DV8_DEPRECATION_WARNINGS -DUSE_UDEV -DUSE_AURA=1 -DUSE_GLIB=1 -DUSE_NSS_CERTS=1 -DUSE_X11=1 -DFULL_SAFE_BROWSING -DSAFE_BROWSING_CSD -DSAFE_BROWSING_DB_LOCAL -DCHROMIUM_BUILD -D_FILE_OFFSET_BITS=64 -D_LARGEFILE_SOURCE -D_LARGEFILE64_SOURCE -D_GNU_SOURCE -DCR_CLANG_REVISION=\340925-1\ -D__STDC_CONSTANT_MACROS -D__STDC_FORMAT_MACROS -DCOMPONENT_BUILD -DNDEBUG -DNVALGRIND -DDYNAMIC_ANNOTATIONS_ENABLED=0 -DBASE_IMPLEMENTATION -DGLIB_VERSION_MAX_ALLOWED=GLIB_VERSION_2_32 -DGLIB_VERSION_MIN_REQUIRED=GLIB_VERSION_2_26 -I../.. -Igen -fno-strict-aliasing --param=ssp-buffer-size=4 -fstack-protector -Wno-builtin-macro-redefined -D__DATE__= -D__TIME__= -D__TIMESTAMP__= -funwind-tables -fPIC -pthread -fcolor-diagnostics -fmerge-all-constants -Xclang -mllvm -Xclang -instcombine-lower-dbg-declare=0 -no-canonical-prefixes -m64 -march=x86-64 -Wall -Wextra -Wimplicit-fallthrough -Wthread-safety -Wno-missing-field-initializers -Wno-unused-parameter -Wno-c++11-narrowing -Wno-covered-switch-default -Wno-unneeded-internal-declaration -Wno-undefined-var-template -Wno-nonportable-include-path -Wno-user-defined-warnings -Wno-unused-lambda-capture -Wno-ignored-pragma-optimize -fno-omit-frame-pointer -g0 -fvisibility=hidden -Wheader-hygiene -Wstring-conversion -Wtautological-overlap-compare -Wno-char-subscripts -Wglobal-constructors -Wexit-time-destructors -Wexit-time-destructors -Wshadow -I/usr/include/glib-2.0 -I/usr/lib/glib-2.0/include -I/usr/lib/libffi-3.2.1/include -Wexit-time-destructors -O2 -fno-ident -fdata-sections -ffunction-sections -std=c++14 -fno-exceptions -fno-rtti -fvisibility-inlines-hidden -D_FORTIFY_SOURCE=2 -march=x86-64 -mtune=generic -O2 -pipe -fstack-protector-strong -fno-plt -c ../../base/sequence_token.cc -o obj/base/base/sequence_token.o
1187  [11/28/2018 03:15PM]: [261/5007] clang++ -MMD -MF obj/base/base/sampling_heap_profiler.o.d -DUSE_SYMBOLIZE -DV8_DEPRECATION_WARNINGS -DUSE_UDEV -DUSE_AURA=1 -DUSE_GLIB=1 -DUSE_NSS_CERTS=1 -DUSE_X11=1 -DFULL_SAFE_BROWSING -DSAFE_BROWSING_CSD -DSAFE_BROWSING_DB_LOCAL -DCHROMIUM_BUILD -D_FILE_OFFSET_BITS=64 -D_LARGEFILE_SOURCE -D_LARGEFILE64_SOURCE -D_GNU_SOURCE -DCR_CLANG_REVISION=\340925-1\ -D__STDC_CONSTANT_MACROS -D__STDC_FORMAT_MACROS -DCOMPONENT_BUILD -DNDEBUG -DNVALGRIND -DDYNAMIC_ANNOTATIONS_ENABLED=0 -DBASE_IMPLEMENTATION -DGLIB_VERSION_MAX_ALLOWED=GLIB_VERSION_2_32 -DGLIB_VERSION_MIN_REQUIRED=GLIB_VERSION_2_26 -I../.. -Igen -fno-strict-aliasing --param=ssp-buffer-size=4 -fstack-protector -Wno-builtin-macro-redefined -D__DATE__= -D__TIME__= -D__TIMESTAMP__= -funwind-tables -fPIC -pthread -fcolor-diagnostics -fmerge-all-constants -Xclang -mllvm -Xclang -instcombine-lower-dbg-declare=0 -no-canonical-prefixes -m64 -march=x86-64 -Wall -Wextra -Wimplicit-fallthrough -Wthread-safety -Wno-missing-field-initializers -Wno-unused-parameter -Wno-c++11-narrowing -Wno-covered-switch-default -Wno-unneeded-internal-declaration -Wno-undefined-var-template -Wno-nonportable-include-path -Wno-user-defined-warnings -Wno-unused-lambda-capture -Wno-ignored-pragma-optimize -fno-omit-frame-pointer -g0 -fvisibility=hidden -Wheader-hygiene -Wstring-conversion -Wtautological-overlap-compare -Wno-char-subscripts -Wglobal-constructors -Wexit-time-destructors -Wexit-time-destructors -Wshadow -I/usr/include/glib-2.0 -I/usr/lib/glib-2.0/include -I/usr/lib/libffi-3.2.1/include -Wexit-time-destructors -O2 -fno-ident -fdata-sections -ffunction-sections -std=c++14 -fno-exceptions -fno-rtti -fvisibility-inlines-hidden -D_FORTIFY_SOURCE=2 -march=x86-64 -mtune=generic -O2 -pipe -fstack-protector-strong -fno-plt -c ../../base/sampling_heap_profiler/sampling_heap_profiler.cc -o obj/base/base/sampling_heap_profiler.o
1188  [11/28/2018 03:15PM]: [262/5007] clang++ -MMD -MF obj/base/base/latin1_string_conversions.o.d -DUSE_SYMBOLIZE -DV8_DEPRECATION_WARNINGS -DUSE_UDEV -DUSE_AURA=1 -DUSE_GLIB=1 -DUSE_NSS_CERTS=1 -DUSE_X11=1 -DFULL_SAFE_BROWSING -DSAFE_BROWSING_CSD -DSAFE_BROWSING_DB_LOCAL -DCHROMIUM_BUILD -D_FILE_OFFSET_BITS=64 -D_LARGEFILE_SOURCE -D_LARGEFILE64_SOURCE -D_GNU_SOURCE -DCR_CLANG_REVISION=\340925-1\ -D__STDC_CONSTANT_MACROS -D__STDC_FORMAT_MACROS -DCOMPONENT_BUILD -DNDEBUG -DNVALGRIND -DDYNAMIC_ANNOTATIONS_ENABLED=0 -DBASE_IMPLEMENTATION -DGLIB_VERSION_MAX_ALLOWED=GLIB_VERSION_2_32 -DGLIB_VERSION_MIN_REQUIRED=GLIB_VERSION_2_26 -I../.. -Igen -fno-strict-aliasing --param=ssp-buffer-size=4 -fstack-protector -Wno-builtin-macro-redefined -D__DATE__= -D__TIME__= -D__TIMESTAMP__= -funwind-tables -fPIC -pthread -fcolor-diagnostics -fmerge-all-constants -Xclang -mllvm -Xclang -instcombine-lower-dbg-declare=0 -no-canonical-prefixes -m64 -march=x86-64 -Wall -Wextra -Wimplicit-fallthrough -Wthread-safety -Wno-missing-field-initializers -Wno-unused-parameter -Wno-c++11-narrowing -Wno-covered-switch-default -Wno-unneeded-internal-declaration -Wno-undefined-var-template -Wno-nonportable-include-path -Wno-user-defined-warnings -Wno-unused-lambda-capture -Wno-ignored-pragma-optimize -fno-omit-frame-pointer -g0 -fvisibility=hidden -Wheader-hygiene -Wstring-conversion -Wtautological-overlap-compare -Wno-char-subscripts -Wglobal-constructors -Wexit-time-destructors -Wexit-time-destructors -Wshadow -I/usr/include/glib-2.0 -I/usr/lib/glib-2.0/include -I/usr/lib/libffi-3.2.1/include -Wexit-time-destructors -O2 -fno-ident -fdata-sections -ffunction-sections -std=c++14 -fno-exceptions -fno-rtti -fvisibility-inlines-hidden -D_FORTIFY_SOURCE=2 -march=x86-64 -mtune=generic -O2 -pipe -fstack-protector-strong -fno-plt -c ../../base/strings/latin1_string_conversions.cc -o obj/base/base/latin1_string_conversions.o
1189  [11/28/2018 03:15PM]: [263/5007] clang++ -MMD -MF obj/base/base/sequence_checker_impl.o.d -DUSE_SYMBOLIZE -DV8_DEPRECATION_WARNINGS -DUSE_UDEV -DUSE_AURA=1 -DUSE_GLIB=1 -DUSE_NSS_CERTS=1 -DUSE_X11=1 -DFULL_SAFE_BROWSING -DSAFE_BROWSING_CSD -DSAFE_BROWSING_DB_LOCAL -DCHROMIUM_BUILD -D_FILE_OFFSET_BITS=64 -D_LARGEFILE_SOURCE -D_LARGEFILE64_SOURCE -D_GNU_SOURCE -DCR_CLANG_REVISION=\340925-1\ -D__STDC_CONSTANT_MACROS -D__STDC_FORMAT_MACROS -DCOMPONENT_BUILD -DNDEBUG -DNVALGRIND -DDYNAMIC_ANNOTATIONS_ENABLED=0 -DBASE_IMPLEMENTATION -DGLIB_VERSION_MAX_ALLOWED=GLIB_VERSION_2_32 -DGLIB_VERSION_MIN_REQUIRED=GLIB_VERSION_2_26 -I../.. -Igen -fno-strict-aliasing --param=ssp-buffer-size=4 -fstack-protector -Wno-builtin-macro-redefined -D__DATE__= -D__TIME__= -D__TIMESTAMP__= -funwind-tables -fPIC -pthread -fcolor-diagnostics -fmerge-all-constants -Xclang -mllvm -Xclang -instcombine-lower-dbg-declare=0 -no-canonical-prefixes -m64 -march=x86-64 -Wall -Wextra -Wimplicit-fallthrough -Wthread-safety -Wno-missing-field-initializers -Wno-unused-parameter -Wno-c++11-narrowing -Wno-covered-switch-default -Wno-unneeded-internal-declaration -Wno-undefined-var-template -Wno-nonportable-include-path -Wno-user-defined-warnings -Wno-unused-lambda-capture -Wno-ignored-pragma-optimize -fno-omit-frame-pointer -g0 -fvisibility=hidden -Wheader-hygiene -Wstring-conversion -Wtautological-overlap-compare -Wno-char-subscripts -Wglobal-constructors -Wexit-time-destructors -Wexit-time-destructors -Wshadow -I/usr/include/glib-2.0 -I/usr/lib/glib-2.0/include -I/usr/lib/libffi-3.2.1/include -Wexit-time-destructors -O2 -fno-ident -fdata-sections -ffunction-sections -std=c++14 -fno-exceptions -fno-rtti -fvisibility-inlines-hidden -D_FORTIFY_SOURCE=2 -march=x86-64 -mtune=generic -O2 -pipe -fstack-protector-strong -fno-plt -c ../../base/sequence_checker_impl.cc -o obj/base/base/sequence_checker_impl.o
1190  [11/28/2018 03:15PM]: [264/5007] clang++ -MMD -MF obj/base/base/sha1.o.d -DUSE_SYMBOLIZE -DV8_DEPRECATION_WARNINGS -DUSE_UDEV -DUSE_AURA=1 -DUSE_GLIB=1 -DUSE_NSS_CERTS=1 -DUSE_X11=1 -DFULL_SAFE_BROWSING -DSAFE_BROWSING_CSD -DSAFE_BROWSING_DB_LOCAL -DCHROMIUM_BUILD -D_FILE_OFFSET_BITS=64 -D_LARGEFILE_SOURCE -D_LARGEFILE64_SOURCE -D_GNU_SOURCE -DCR_CLANG_REVISION=\340925-1\ -D__STDC_CONSTANT_MACROS -D__STDC_FORMAT_MACROS -DCOMPONENT_BUILD -DNDEBUG -DNVALGRIND -DDYNAMIC_ANNOTATIONS_ENABLED=0 -DBASE_IMPLEMENTATION -DGLIB_VERSION_MAX_ALLOWED=GLIB_VERSION_2_32 -DGLIB_VERSION_MIN_REQUIRED=GLIB_VERSION_2_26 -I../.. -Igen -fno-strict-aliasing --param=ssp-buffer-size=4 -fstack-protector -Wno-builtin-macro-redefined -D__DATE__= -D__TIME__= -D__TIMESTAMP__= -funwind-tables -fPIC -pthread -fcolor-diagnostics -fmerge-all-constants -Xclang -mllvm -Xclang -instcombine-lower-dbg-declare=0 -no-canonical-prefixes -m64 -march=x86-64 -Wall -Wextra -Wimplicit-fallthrough -Wthread-safety -Wno-missing-field-initializers -Wno-unused-parameter -Wno-c++11-narrowing -Wno-covered-switch-default -Wno-unneeded-internal-declaration -Wno-undefined-var-template -Wno-nonportable-include-path -Wno-user-defined-warnings -Wno-unused-lambda-capture -Wno-ignored-pragma-optimize -fno-omit-frame-pointer -g0 -fvisibility=hidden -Wheader-hygiene -Wstring-conversion -Wtautological-overlap-compare -Wno-char-subscripts -Wglobal-constructors -Wexit-time-destructors -Wexit-time-destructors -Wshadow -I/usr/include/glib-2.0 -I/usr/lib/glib-2.0/include -I/usr/lib/libffi-3.2.1/include -Wexit-time-destructors -O2 -fno-ident -fdata-sections -ffunction-sections -std=c++14 -fno-exceptions -fno-rtti -fvisibility-inlines-hidden -D_FORTIFY_SOURCE=2 -march=x86-64 -mtune=generic -O2 -pipe -fstack-protector-strong -fno-plt -c ../../base/sha1.cc -o obj/base/base/sha1.o
1191  [11/28/2018 03:15PM]: [265/5007] clang++ -MMD -MF obj/base/base/safe_sprintf.o.d -DUSE_SYMBOLIZE -DV8_DEPRECATION_WARNINGS -DUSE_UDEV -DUSE_AURA=1 -DUSE_GLIB=1 -DUSE_NSS_CERTS=1 -DUSE_X11=1 -DFULL_SAFE_BROWSING -DSAFE_BROWSING_CSD -DSAFE_BROWSING_DB_LOCAL -DCHROMIUM_BUILD -D_FILE_OFFSET_BITS=64 -D_LARGEFILE_SOURCE -D_LARGEFILE64_SOURCE -D_GNU_SOURCE -DCR_CLANG_REVISION=\340925-1\ -D__STDC_CONSTANT_MACROS -D__STDC_FORMAT_MACROS -DCOMPONENT_BUILD -DNDEBUG -DNVALGRIND -DDYNAMIC_ANNOTATIONS_ENABLED=0 -DBASE_IMPLEMENTATION -DGLIB_VERSION_MAX_ALLOWED=GLIB_VERSION_2_32 -DGLIB_VERSION_MIN_REQUIRED=GLIB_VERSION_2_26 -I../.. -Igen -fno-strict-aliasing --param=ssp-buffer-size=4 -fstack-protector -Wno-builtin-macro-redefined -D__DATE__= -D__TIME__= -D__TIMESTAMP__= -funwind-tables -fPIC -pthread -fcolor-diagnostics -fmerge-all-constants -Xclang -mllvm -Xclang -instcombine-lower-dbg-declare=0 -no-canonical-prefixes -m64 -march=x86-64 -Wall -Wextra -Wimplicit-fallthrough -Wthread-safety -Wno-missing-field-initializers -Wno-unused-parameter -Wno-c++11-narrowing -Wno-covered-switch-default -Wno-unneeded-internal-declaration -Wno-undefined-var-template -Wno-nonportable-include-path -Wno-user-defined-warnings -Wno-unused-lambda-capture -Wno-ignored-pragma-optimize -fno-omit-frame-pointer -g0 -fvisibility=hidden -Wheader-hygiene -Wstring-conversion -Wtautological-overlap-compare -Wno-char-subscripts -Wglobal-constructors -Wexit-time-destructors -Wexit-time-destructors -Wshadow -I/usr/include/glib-2.0 -I/usr/lib/glib-2.0/include -I/usr/lib/libffi-3.2.1/include -Wexit-time-destructors -O2 -fno-ident -fdata-sections -ffunction-sections -std=c++14 -fno-exceptions -fno-rtti -fvisibility-inlines-hidden -D_FORTIFY_SOURCE=2 -march=x86-64 -mtune=generic -O2 -pipe -fstack-protector-strong -fno-plt -c ../../base/strings/safe_sprintf.cc -o obj/base/base/safe_sprintf.o
1192  [11/28/2018 03:15PM]: [266/5007] clang++ -MMD -MF obj/base/base/pattern.o.d -DUSE_SYMBOLIZE -DV8_DEPRECATION_WARNINGS -DUSE_UDEV -DUSE_AURA=1 -DUSE_GLIB=1 -DUSE_NSS_CERTS=1 -DUSE_X11=1 -DFULL_SAFE_BROWSING -DSAFE_BROWSING_CSD -DSAFE_BROWSING_DB_LOCAL -DCHROMIUM_BUILD -D_FILE_OFFSET_BITS=64 -D_LARGEFILE_SOURCE -D_LARGEFILE64_SOURCE -D_GNU_SOURCE -DCR_CLANG_REVISION=\340925-1\ -D__STDC_CONSTANT_MACROS -D__STDC_FORMAT_MACROS -DCOMPONENT_BUILD -DNDEBUG -DNVALGRIND -DDYNAMIC_ANNOTATIONS_ENABLED=0 -DBASE_IMPLEMENTATION -DGLIB_VERSION_MAX_ALLOWED=GLIB_VERSION_2_32 -DGLIB_VERSION_MIN_REQUIRED=GLIB_VERSION_2_26 -I../.. -Igen -fno-strict-aliasing --param=ssp-buffer-size=4 -fstack-protector -Wno-builtin-macro-redefined -D__DATE__= -D__TIME__= -D__TIMESTAMP__= -funwind-tables -fPIC -pthread -fcolor-diagnostics -fmerge-all-constants -Xclang -mllvm -Xclang -instcombine-lower-dbg-declare=0 -no-canonical-prefixes -m64 -march=x86-64 -Wall -Wextra -Wimplicit-fallthrough -Wthread-safety -Wno-missing-field-initializers -Wno-unused-parameter -Wno-c++11-narrowing -Wno-covered-switch-default -Wno-unneeded-internal-declaration -Wno-undefined-var-template -Wno-nonportable-include-path -Wno-user-defined-warnings -Wno-unused-lambda-capture -Wno-ignored-pragma-optimize -fno-omit-frame-pointer -g0 -fvisibility=hidden -Wheader-hygiene -Wstring-conversion -Wtautological-overlap-compare -Wno-char-subscripts -Wglobal-constructors -Wexit-time-destructors -Wexit-time-destructors -Wshadow -I/usr/include/glib-2.0 -I/usr/lib/glib-2.0/include -I/usr/lib/libffi-3.2.1/include -Wexit-time-destructors -O2 -fno-ident -fdata-sections -ffunction-sections -std=c++14 -fno-exceptions -fno-rtti -fvisibility-inlines-hidden -D_FORTIFY_SOURCE=2 -march=x86-64 -mtune=generic -O2 -pipe -fstack-protector-strong -fno-plt -c ../../base/strings/pattern.cc -o obj/base/base/pattern.o
1193  [11/28/2018 03:15PM]: [267/5007] clang++ -MMD -MF obj/base/base/sequenced_task_runner.o.d -DUSE_SYMBOLIZE -DV8_DEPRECATION_WARNINGS -DUSE_UDEV -DUSE_AURA=1 -DUSE_GLIB=1 -DUSE_NSS_CERTS=1 -DUSE_X11=1 -DFULL_SAFE_BROWSING -DSAFE_BROWSING_CSD -DSAFE_BROWSING_DB_LOCAL -DCHROMIUM_BUILD -D_FILE_OFFSET_BITS=64 -D_LARGEFILE_SOURCE -D_LARGEFILE64_SOURCE -D_GNU_SOURCE -DCR_CLANG_REVISION=\340925-1\ -D__STDC_CONSTANT_MACROS -D__STDC_FORMAT_MACROS -DCOMPONENT_BUILD -DNDEBUG -DNVALGRIND -DDYNAMIC_ANNOTATIONS_ENABLED=0 -DBASE_IMPLEMENTATION -DGLIB_VERSION_MAX_ALLOWED=GLIB_VERSION_2_32 -DGLIB_VERSION_MIN_REQUIRED=GLIB_VERSION_2_26 -I../.. -Igen -fno-strict-aliasing --param=ssp-buffer-size=4 -fstack-protector -Wno-builtin-macro-redefined -D__DATE__= -D__TIME__= -D__TIMESTAMP__= -funwind-tables -fPIC -pthread -fcolor-diagnostics -fmerge-all-constants -Xclang -mllvm -Xclang -instcombine-lower-dbg-declare=0 -no-canonical-prefixes -m64 -march=x86-64 -Wall -Wextra -Wimplicit-fallthrough -Wthread-safety -Wno-missing-field-initializers -Wno-unused-parameter -Wno-c++11-narrowing -Wno-covered-switch-default -Wno-unneeded-internal-declaration -Wno-undefined-var-template -Wno-nonportable-include-path -Wno-user-defined-warnings -Wno-unused-lambda-capture -Wno-ignored-pragma-optimize -fno-omit-frame-pointer -g0 -fvisibility=hidden -Wheader-hygiene -Wstring-conversion -Wtautological-overlap-compare -Wno-char-subscripts -Wglobal-constructors -Wexit-time-destructors -Wexit-time-destructors -Wshadow -I/usr/include/glib-2.0 -I/usr/lib/glib-2.0/include -I/usr/lib/libffi-3.2.1/include -Wexit-time-destructors -O2 -fno-ident -fdata-sections -ffunction-sections -std=c++14 -fno-exceptions -fno-rtti -fvisibility-inlines-hidden -D_FORTIFY_SOURCE=2 -march=x86-64 -mtune=generic -O2 -pipe -fstack-protector-strong -fno-plt -c ../../base/sequenced_task_runner.cc -o obj/base/base/sequenced_task_runner.o
1194  [11/28/2018 03:15PM]: [268/5007] clang++ -MMD -MF obj/base/base/nullable_string16.o.d -DUSE_SYMBOLIZE -DV8_DEPRECATION_WARNINGS -DUSE_UDEV -DUSE_AURA=1 -DUSE_GLIB=1 -DUSE_NSS_CERTS=1 -DUSE_X11=1 -DFULL_SAFE_BROWSING -DSAFE_BROWSING_CSD -DSAFE_BROWSING_DB_LOCAL -DCHROMIUM_BUILD -D_FILE_OFFSET_BITS=64 -D_LARGEFILE_SOURCE -D_LARGEFILE64_SOURCE -D_GNU_SOURCE -DCR_CLANG_REVISION=\340925-1\ -D__STDC_CONSTANT_MACROS -D__STDC_FORMAT_MACROS -DCOMPONENT_BUILD -DNDEBUG -DNVALGRIND -DDYNAMIC_ANNOTATIONS_ENABLED=0 -DBASE_IMPLEMENTATION -DGLIB_VERSION_MAX_ALLOWED=GLIB_VERSION_2_32 -DGLIB_VERSION_MIN_REQUIRED=GLIB_VERSION_2_26 -I../.. -Igen -fno-strict-aliasing --param=ssp-buffer-size=4 -fstack-protector -Wno-builtin-macro-redefined -D__DATE__= -D__TIME__= -D__TIMESTAMP__= -funwind-tables -fPIC -pthread -fcolor-diagnostics -fmerge-all-constants -Xclang -mllvm -Xclang -instcombine-lower-dbg-declare=0 -no-canonical-prefixes -m64 -march=x86-64 -Wall -Wextra -Wimplicit-fallthrough -Wthread-safety -Wno-missing-field-initializers -Wno-unused-parameter -Wno-c++11-narrowing -Wno-covered-switch-default -Wno-unneeded-internal-declaration -Wno-undefined-var-template -Wno-nonportable-include-path -Wno-user-defined-warnings -Wno-unused-lambda-capture -Wno-ignored-pragma-optimize -fno-omit-frame-pointer -g0 -fvisibility=hidden -Wheader-hygiene -Wstring-conversion -Wtautological-overlap-compare -Wno-char-subscripts -Wglobal-constructors -Wexit-time-destructors -Wexit-time-destructors -Wshadow -I/usr/include/glib-2.0 -I/usr/lib/glib-2.0/include -I/usr/lib/libffi-3.2.1/include -Wexit-time-destructors -O2 -fno-ident -fdata-sections -ffunction-sections -std=c++14 -fno-exceptions -fno-rtti -fvisibility-inlines-hidden -D_FORTIFY_SOURCE=2 -march=x86-64 -mtune=generic -O2 -pipe -fstack-protector-strong -fno-plt -c ../../base/strings/nullable_string16.cc -o obj/base/base/nullable_string16.o
1195  [11/28/2018 03:15PM]: [269/5007] clang++ -MMD -MF obj/base/base/strcat.o.d -DUSE_SYMBOLIZE -DV8_DEPRECATION_WARNINGS -DUSE_UDEV -DUSE_AURA=1 -DUSE_GLIB=1 -DUSE_NSS_CERTS=1 -DUSE_X11=1 -DFULL_SAFE_BROWSING -DSAFE_BROWSING_CSD -DSAFE_BROWSING_DB_LOCAL -DCHROMIUM_BUILD -D_FILE_OFFSET_BITS=64 -D_LARGEFILE_SOURCE -D_LARGEFILE64_SOURCE -D_GNU_SOURCE -DCR_CLANG_REVISION=\340925-1\ -D__STDC_CONSTANT_MACROS -D__STDC_FORMAT_MACROS -DCOMPONENT_BUILD -DNDEBUG -DNVALGRIND -DDYNAMIC_ANNOTATIONS_ENABLED=0 -DBASE_IMPLEMENTATION -DGLIB_VERSION_MAX_ALLOWED=GLIB_VERSION_2_32 -DGLIB_VERSION_MIN_REQUIRED=GLIB_VERSION_2_26 -I../.. -Igen -fno-strict-aliasing --param=ssp-buffer-size=4 -fstack-protector -Wno-builtin-macro-redefined -D__DATE__= -D__TIME__= -D__TIMESTAMP__= -funwind-tables -fPIC -pthread -fcolor-diagnostics -fmerge-all-constants -Xclang -mllvm -Xclang -instcombine-lower-dbg-declare=0 -no-canonical-prefixes -m64 -march=x86-64 -Wall -Wextra -Wimplicit-fallthrough -Wthread-safety -Wno-missing-field-initializers -Wno-unused-parameter -Wno-c++11-narrowing -Wno-covered-switch-default -Wno-unneeded-internal-declaration -Wno-undefined-var-template -Wno-nonportable-include-path -Wno-user-defined-warnings -Wno-unused-lambda-capture -Wno-ignored-pragma-optimize -fno-omit-frame-pointer -g0 -fvisibility=hidden -Wheader-hygiene -Wstring-conversion -Wtautological-overlap-compare -Wno-char-subscripts -Wglobal-constructors -Wexit-time-destructors -Wexit-time-destructors -Wshadow -I/usr/include/glib-2.0 -I/usr/lib/glib-2.0/include -I/usr/lib/libffi-3.2.1/include -Wexit-time-destructors -O2 -fno-ident -fdata-sections -ffunction-sections -std=c++14 -fno-exceptions -fno-rtti -fvisibility-inlines-hidden -D_FORTIFY_SOURCE=2 -march=x86-64 -mtune=generic -O2 -pipe -fstack-protector-strong -fno-plt -c ../../base/strings/strcat.cc -o obj/base/base/strcat.o
1196  [11/28/2018 03:15PM]: [270/5007] clang++ -MMD -MF obj/base/base/string_util_constants.o.d -DUSE_SYMBOLIZE -DV8_DEPRECATION_WARNINGS -DUSE_UDEV -DUSE_AURA=1 -DUSE_GLIB=1 -DUSE_NSS_CERTS=1 -DUSE_X11=1 -DFULL_SAFE_BROWSING -DSAFE_BROWSING_CSD -DSAFE_BROWSING_DB_LOCAL -DCHROMIUM_BUILD -D_FILE_OFFSET_BITS=64 -D_LARGEFILE_SOURCE -D_LARGEFILE64_SOURCE -D_GNU_SOURCE -DCR_CLANG_REVISION=\340925-1\ -D__STDC_CONSTANT_MACROS -D__STDC_FORMAT_MACROS -DCOMPONENT_BUILD -DNDEBUG -DNVALGRIND -DDYNAMIC_ANNOTATIONS_ENABLED=0 -DBASE_IMPLEMENTATION -DGLIB_VERSION_MAX_ALLOWED=GLIB_VERSION_2_32 -DGLIB_VERSION_MIN_REQUIRED=GLIB_VERSION_2_26 -I../.. -Igen -fno-strict-aliasing --param=ssp-buffer-size=4 -fstack-protector -Wno-builtin-macro-redefined -D__DATE__= -D__TIME__= -D__TIMESTAMP__= -funwind-tables -fPIC -pthread -fcolor-diagnostics -fmerge-all-constants -Xclang -mllvm -Xclang -instcombine-lower-dbg-declare=0 -no-canonical-prefixes -m64 -march=x86-64 -Wall -Wextra -Wimplicit-fallthrough -Wthread-safety -Wno-missing-field-initializers -Wno-unused-parameter -Wno-c++11-narrowing -Wno-covered-switch-default -Wno-unneeded-internal-declaration -Wno-undefined-var-template -Wno-nonportable-include-path -Wno-user-defined-warnings -Wno-unused-lambda-capture -Wno-ignored-pragma-optimize -fno-omit-frame-pointer -g0 -fvisibility=hidden -Wheader-hygiene -Wstring-conversion -Wtautological-overlap-compare -Wno-char-subscripts -Wglobal-constructors -Wexit-time-destructors -Wexit-time-destructors -Wshadow -I/usr/include/glib-2.0 -I/usr/lib/glib-2.0/include -I/usr/lib/libffi-3.2.1/include -Wexit-time-destructors -O2 -fno-ident -fdata-sections -ffunction-sections -std=c++14 -fno-exceptions -fno-rtti -fvisibility-inlines-hidden -D_FORTIFY_SOURCE=2 -march=x86-64 -mtune=generic -O2 -pipe -fstack-protector-strong -fno-plt -c ../../base/strings/string_util_constants.cc -o obj/base/base/string_util_constants.o
1197  [11/28/2018 03:15PM]: [271/5007] clang++ -MMD -MF obj/base/base/string16.o.d -DUSE_SYMBOLIZE -DV8_DEPRECATION_WARNINGS -DUSE_UDEV -DUSE_AURA=1 -DUSE_GLIB=1 -DUSE_NSS_CERTS=1 -DUSE_X11=1 -DFULL_SAFE_BROWSING -DSAFE_BROWSING_CSD -DSAFE_BROWSING_DB_LOCAL -DCHROMIUM_BUILD -D_FILE_OFFSET_BITS=64 -D_LARGEFILE_SOURCE -D_LARGEFILE64_SOURCE -D_GNU_SOURCE -DCR_CLANG_REVISION=\340925-1\ -D__STDC_CONSTANT_MACROS -D__STDC_FORMAT_MACROS -DCOMPONENT_BUILD -DNDEBUG -DNVALGRIND -DDYNAMIC_ANNOTATIONS_ENABLED=0 -DBASE_IMPLEMENTATION -DGLIB_VERSION_MAX_ALLOWED=GLIB_VERSION_2_32 -DGLIB_VERSION_MIN_REQUIRED=GLIB_VERSION_2_26 -I../.. -Igen -fno-strict-aliasing --param=ssp-buffer-size=4 -fstack-protector -Wno-builtin-macro-redefined -D__DATE__= -D__TIME__= -D__TIMESTAMP__= -funwind-tables -fPIC -pthread -fcolor-diagnostics -fmerge-all-constants -Xclang -mllvm -Xclang -instcombine-lower-dbg-declare=0 -no-canonical-prefixes -m64 -march=x86-64 -Wall -Wextra -Wimplicit-fallthrough -Wthread-safety -Wno-missing-field-initializers -Wno-unused-parameter -Wno-c++11-narrowing -Wno-covered-switch-default -Wno-unneeded-internal-declaration -Wno-undefined-var-template -Wno-nonportable-include-path -Wno-user-defined-warnings -Wno-unused-lambda-capture -Wno-ignored-pragma-optimize -fno-omit-frame-pointer -g0 -fvisibility=hidden -Wheader-hygiene -Wstring-conversion -Wtautological-overlap-compare -Wno-char-subscripts -Wglobal-constructors -Wexit-time-destructors -Wexit-time-destructors -Wshadow -I/usr/include/glib-2.0 -I/usr/lib/glib-2.0/include -I/usr/lib/libffi-3.2.1/include -Wexit-time-destructors -O2 -fno-ident -fdata-sections -ffunction-sections -std=c++14 -fno-exceptions -fno-rtti -fvisibility-inlines-hidden -D_FORTIFY_SOURCE=2 -march=x86-64 -mtune=generic -O2 -pipe -fstack-protector-strong -fno-plt -c ../../base/strings/string16.cc -o obj/base/base/string16.o
1198  [11/28/2018 03:15PM]: [272/5007] clang++ -MMD -MF obj/base/base/string_piece.o.d -DUSE_SYMBOLIZE -DV8_DEPRECATION_WARNINGS -DUSE_UDEV -DUSE_AURA=1 -DUSE_GLIB=1 -DUSE_NSS_CERTS=1 -DUSE_X11=1 -DFULL_SAFE_BROWSING -DSAFE_BROWSING_CSD -DSAFE_BROWSING_DB_LOCAL -DCHROMIUM_BUILD -D_FILE_OFFSET_BITS=64 -D_LARGEFILE_SOURCE -D_LARGEFILE64_SOURCE -D_GNU_SOURCE -DCR_CLANG_REVISION=\340925-1\ -D__STDC_CONSTANT_MACROS -D__STDC_FORMAT_MACROS -DCOMPONENT_BUILD -DNDEBUG -DNVALGRIND -DDYNAMIC_ANNOTATIONS_ENABLED=0 -DBASE_IMPLEMENTATION -DGLIB_VERSION_MAX_ALLOWED=GLIB_VERSION_2_32 -DGLIB_VERSION_MIN_REQUIRED=GLIB_VERSION_2_26 -I../.. -Igen -fno-strict-aliasing --param=ssp-buffer-size=4 -fstack-protector -Wno-builtin-macro-redefined -D__DATE__= -D__TIME__= -D__TIMESTAMP__= -funwind-tables -fPIC -pthread -fcolor-diagnostics -fmerge-all-constants -Xclang -mllvm -Xclang -instcombine-lower-dbg-declare=0 -no-canonical-prefixes -m64 -march=x86-64 -Wall -Wextra -Wimplicit-fallthrough -Wthread-safety -Wno-missing-field-initializers -Wno-unused-parameter -Wno-c++11-narrowing -Wno-covered-switch-default -Wno-unneeded-internal-declaration -Wno-undefined-var-template -Wno-nonportable-include-path -Wno-user-defined-warnings -Wno-unused-lambda-capture -Wno-ignored-pragma-optimize -fno-omit-frame-pointer -g0 -fvisibility=hidden -Wheader-hygiene -Wstring-conversion -Wtautological-overlap-compare -Wno-char-subscripts -Wglobal-constructors -Wexit-time-destructors -Wexit-time-destructors -Wshadow -I/usr/include/glib-2.0 -I/usr/lib/glib-2.0/include -I/usr/lib/libffi-3.2.1/include -Wexit-time-destructors -O2 -fno-ident -fdata-sections -ffunction-sections -std=c++14 -fno-exceptions -fno-rtti -fvisibility-inlines-hidden -D_FORTIFY_SOURCE=2 -march=x86-64 -mtune=generic -O2 -pipe -fstack-protector-strong -fno-plt -c ../../base/strings/string_piece.cc -o obj/base/base/string_piece.o
1199  [11/28/2018 03:15PM]: [273/5007] clang++ -MMD -MF obj/base/base/string_number_conversions.o.d -DUSE_SYMBOLIZE -DV8_DEPRECATION_WARNINGS -DUSE_UDEV -DUSE_AURA=1 -DUSE_GLIB=1 -DUSE_NSS_CERTS=1 -DUSE_X11=1 -DFULL_SAFE_BROWSING -DSAFE_BROWSING_CSD -DSAFE_BROWSING_DB_LOCAL -DCHROMIUM_BUILD -D_FILE_OFFSET_BITS=64 -D_LARGEFILE_SOURCE -D_LARGEFILE64_SOURCE -D_GNU_SOURCE -DCR_CLANG_REVISION=\340925-1\ -D__STDC_CONSTANT_MACROS -D__STDC_FORMAT_MACROS -DCOMPONENT_BUILD -DNDEBUG -DNVALGRIND -DDYNAMIC_ANNOTATIONS_ENABLED=0 -DBASE_IMPLEMENTATION -DGLIB_VERSION_MAX_ALLOWED=GLIB_VERSION_2_32 -DGLIB_VERSION_MIN_REQUIRED=GLIB_VERSION_2_26 -I../.. -Igen -fno-strict-aliasing --param=ssp-buffer-size=4 -fstack-protector -Wno-builtin-macro-redefined -D__DATE__= -D__TIME__= -D__TIMESTAMP__= -funwind-tables -fPIC -pthread -fcolor-diagnostics -fmerge-all-constants -Xclang -mllvm -Xclang -instcombine-lower-dbg-declare=0 -no-canonical-prefixes -m64 -march=x86-64 -Wall -Wextra -Wimplicit-fallthrough -Wthread-safety -Wno-missing-field-initializers -Wno-unused-parameter -Wno-c++11-narrowing -Wno-covered-switch-default -Wno-unneeded-internal-declaration -Wno-undefined-var-template -Wno-nonportable-include-path -Wno-user-defined-warnings -Wno-unused-lambda-capture -Wno-ignored-pragma-optimize -fno-omit-frame-pointer -g0 -fvisibility=hidden -Wheader-hygiene -Wstring-conversion -Wtautological-overlap-compare -Wno-char-subscripts -Wglobal-constructors -Wexit-time-destructors -Wexit-time-destructors -Wshadow -I/usr/include/glib-2.0 -I/usr/lib/glib-2.0/include -I/usr/lib/libffi-3.2.1/include -Wexit-time-destructors -O2 -fno-ident -fdata-sections -ffunction-sections -std=c++14 -fno-exceptions -fno-rtti -fvisibility-inlines-hidden -D_FORTIFY_SOURCE=2 -march=x86-64 -mtune=generic -O2 -pipe -fstack-protector-strong -fno-plt -c ../../base/strings/string_number_conversions.cc -o obj/base/base/string_number_conversions.o
1200  [11/28/2018 03:15PM]: [274/5007] clang++ -MMD -MF obj/base/base/string_split.o.d -DUSE_SYMBOLIZE -DV8_DEPRECATION_WARNINGS -DUSE_UDEV -DUSE_AURA=1 -DUSE_GLIB=1 -DUSE_NSS_CERTS=1 -DUSE_X11=1 -DFULL_SAFE_BROWSING -DSAFE_BROWSING_CSD -DSAFE_BROWSING_DB_LOCAL -DCHROMIUM_BUILD -D_FILE_OFFSET_BITS=64 -D_LARGEFILE_SOURCE -D_LARGEFILE64_SOURCE -D_GNU_SOURCE -DCR_CLANG_REVISION=\340925-1\ -D__STDC_CONSTANT_MACROS -D__STDC_FORMAT_MACROS -DCOMPONENT_BUILD -DNDEBUG -DNVALGRIND -DDYNAMIC_ANNOTATIONS_ENABLED=0 -DBASE_IMPLEMENTATION -DGLIB_VERSION_MAX_ALLOWED=GLIB_VERSION_2_32 -DGLIB_VERSION_MIN_REQUIRED=GLIB_VERSION_2_26 -I../.. -Igen -fno-strict-aliasing --param=ssp-buffer-size=4 -fstack-protector -Wno-builtin-macro-redefined -D__DATE__= -D__TIME__= -D__TIMESTAMP__= -funwind-tables -fPIC -pthread -fcolor-diagnostics -fmerge-all-constants -Xclang -mllvm -Xclang -instcombine-lower-dbg-declare=0 -no-canonical-prefixes -m64 -march=x86-64 -Wall -Wextra -Wimplicit-fallthrough -Wthread-safety -Wno-missing-field-initializers -Wno-unused-parameter -Wno-c++11-narrowing -Wno-covered-switch-default -Wno-unneeded-internal-declaration -Wno-undefined-var-template -Wno-nonportable-include-path -Wno-user-defined-warnings -Wno-unused-lambda-capture -Wno-ignored-pragma-optimize -fno-omit-frame-pointer -g0 -fvisibility=hidden -Wheader-hygiene -Wstring-conversion -Wtautological-overlap-compare -Wno-char-subscripts -Wglobal-constructors -Wexit-time-destructors -Wexit-time-destructors -Wshadow -I/usr/include/glib-2.0 -I/usr/lib/glib-2.0/include -I/usr/lib/libffi-3.2.1/include -Wexit-time-destructors -O2 -fno-ident -fdata-sections -ffunction-sections -std=c++14 -fno-exceptions -fno-rtti -fvisibility-inlines-hidden -D_FORTIFY_SOURCE=2 -march=x86-64 -mtune=generic -O2 -pipe -fstack-protector-strong -fno-plt -c ../../base/strings/string_split.cc -o obj/base/base/string_split.o
1201  [11/28/2018 03:15PM]: [275/5007] clang++ -MMD -MF obj/base/base/stringprintf.o.d -DUSE_SYMBOLIZE -DV8_DEPRECATION_WARNINGS -DUSE_UDEV -DUSE_AURA=1 -DUSE_GLIB=1 -DUSE_NSS_CERTS=1 -DUSE_X11=1 -DFULL_SAFE_BROWSING -DSAFE_BROWSING_CSD -DSAFE_BROWSING_DB_LOCAL -DCHROMIUM_BUILD -D_FILE_OFFSET_BITS=64 -D_LARGEFILE_SOURCE -D_LARGEFILE64_SOURCE -D_GNU_SOURCE -DCR_CLANG_REVISION=\340925-1\ -D__STDC_CONSTANT_MACROS -D__STDC_FORMAT_MACROS -DCOMPONENT_BUILD -DNDEBUG -DNVALGRIND -DDYNAMIC_ANNOTATIONS_ENABLED=0 -DBASE_IMPLEMENTATION -DGLIB_VERSION_MAX_ALLOWED=GLIB_VERSION_2_32 -DGLIB_VERSION_MIN_REQUIRED=GLIB_VERSION_2_26 -I../.. -Igen -fno-strict-aliasing --param=ssp-buffer-size=4 -fstack-protector -Wno-builtin-macro-redefined -D__DATE__= -D__TIME__= -D__TIMESTAMP__= -funwind-tables -fPIC -pthread -fcolor-diagnostics -fmerge-all-constants -Xclang -mllvm -Xclang -instcombine-lower-dbg-declare=0 -no-canonical-prefixes -m64 -march=x86-64 -Wall -Wextra -Wimplicit-fallthrough -Wthread-safety -Wno-missing-field-initializers -Wno-unused-parameter -Wno-c++11-narrowing -Wno-covered-switch-default -Wno-unneeded-internal-declaration -Wno-undefined-var-template -Wno-nonportable-include-path -Wno-user-defined-warnings -Wno-unused-lambda-capture -Wno-ignored-pragma-optimize -fno-omit-frame-pointer -g0 -fvisibility=hidden -Wheader-hygiene -Wstring-conversion -Wtautological-overlap-compare -Wno-char-subscripts -Wglobal-constructors -Wexit-time-destructors -Wexit-time-destructors -Wshadow -I/usr/include/glib-2.0 -I/usr/lib/glib-2.0/include -I/usr/lib/libffi-3.2.1/include -Wexit-time-destructors -O2 -fno-ident -fdata-sections -ffunction-sections -std=c++14 -fno-exceptions -fno-rtti -fvisibility-inlines-hidden -D_FORTIFY_SOURCE=2 -march=x86-64 -mtune=generic -O2 -pipe -fstack-protector-strong -fno-plt -c ../../base/strings/stringprintf.cc -o obj/base/base/stringprintf.o
1202  [11/28/2018 03:15PM]: [276/5007] clang++ -MMD -MF obj/base/base/utf_string_conversion_utils.o.d -DUSE_SYMBOLIZE -DV8_DEPRECATION_WARNINGS -DUSE_UDEV -DUSE_AURA=1 -DUSE_GLIB=1 -DUSE_NSS_CERTS=1 -DUSE_X11=1 -DFULL_SAFE_BROWSING -DSAFE_BROWSING_CSD -DSAFE_BROWSING_DB_LOCAL -DCHROMIUM_BUILD -D_FILE_OFFSET_BITS=64 -D_LARGEFILE_SOURCE -D_LARGEFILE64_SOURCE -D_GNU_SOURCE -DCR_CLANG_REVISION=\340925-1\ -D__STDC_CONSTANT_MACROS -D__STDC_FORMAT_MACROS -DCOMPONENT_BUILD -DNDEBUG -DNVALGRIND -DDYNAMIC_ANNOTATIONS_ENABLED=0 -DBASE_IMPLEMENTATION -DGLIB_VERSION_MAX_ALLOWED=GLIB_VERSION_2_32 -DGLIB_VERSION_MIN_REQUIRED=GLIB_VERSION_2_26 -I../.. -Igen -fno-strict-aliasing --param=ssp-buffer-size=4 -fstack-protector -Wno-builtin-macro-redefined -D__DATE__= -D__TIME__= -D__TIMESTAMP__= -funwind-tables -fPIC -pthread -fcolor-diagnostics -fmerge-all-constants -Xclang -mllvm -Xclang -instcombine-lower-dbg-declare=0 -no-canonical-prefixes -m64 -march=x86-64 -Wall -Wextra -Wimplicit-fallthrough -Wthread-safety -Wno-missing-field-initializers -Wno-unused-parameter -Wno-c++11-narrowing -Wno-covered-switch-default -Wno-unneeded-internal-declaration -Wno-undefined-var-template -Wno-nonportable-include-path -Wno-user-defined-warnings -Wno-unused-lambda-capture -Wno-ignored-pragma-optimize -fno-omit-frame-pointer -g0 -fvisibility=hidden -Wheader-hygiene -Wstring-conversion -Wtautological-overlap-compare -Wno-char-subscripts -Wglobal-constructors -Wexit-time-destructors -Wexit-time-destructors -Wshadow -I/usr/include/glib-2.0 -I/usr/lib/glib-2.0/include -I/usr/lib/libffi-3.2.1/include -Wexit-time-destructors -O2 -fno-ident -fdata-sections -ffunction-sections -std=c++14 -fno-exceptions -fno-rtti -fvisibility-inlines-hidden -D_FORTIFY_SOURCE=2 -march=x86-64 -mtune=generic -O2 -pipe -fstack-protector-strong -fno-plt -c ../../base/strings/utf_string_conversion_utils.cc -o obj/base/base/utf_string_conversion_utils.o
1203  [11/28/2018 03:15PM]: [277/5007] clang++ -MMD -MF obj/base/base/utf_offset_string_conversions.o.d -DUSE_SYMBOLIZE -DV8_DEPRECATION_WARNINGS -DUSE_UDEV -DUSE_AURA=1 -DUSE_GLIB=1 -DUSE_NSS_CERTS=1 -DUSE_X11=1 -DFULL_SAFE_BROWSING -DSAFE_BROWSING_CSD -DSAFE_BROWSING_DB_LOCAL -DCHROMIUM_BUILD -D_FILE_OFFSET_BITS=64 -D_LARGEFILE_SOURCE -D_LARGEFILE64_SOURCE -D_GNU_SOURCE -DCR_CLANG_REVISION=\340925-1\ -D__STDC_CONSTANT_MACROS -D__STDC_FORMAT_MACROS -DCOMPONENT_BUILD -DNDEBUG -DNVALGRIND -DDYNAMIC_ANNOTATIONS_ENABLED=0 -DBASE_IMPLEMENTATION -DGLIB_VERSION_MAX_ALLOWED=GLIB_VERSION_2_32 -DGLIB_VERSION_MIN_REQUIRED=GLIB_VERSION_2_26 -I../.. -Igen -fno-strict-aliasing --param=ssp-buffer-size=4 -fstack-protector -Wno-builtin-macro-redefined -D__DATE__= -D__TIME__= -D__TIMESTAMP__= -funwind-tables -fPIC -pthread -fcolor-diagnostics -fmerge-all-constants -Xclang -mllvm -Xclang -instcombine-lower-dbg-declare=0 -no-canonical-prefixes -m64 -march=x86-64 -Wall -Wextra -Wimplicit-fallthrough -Wthread-safety -Wno-missing-field-initializers -Wno-unused-parameter -Wno-c++11-narrowing -Wno-covered-switch-default -Wno-unneeded-internal-declaration -Wno-undefined-var-template -Wno-nonportable-include-path -Wno-user-defined-warnings -Wno-unused-lambda-capture -Wno-ignored-pragma-optimize -fno-omit-frame-pointer -g0 -fvisibility=hidden -Wheader-hygiene -Wstring-conversion -Wtautological-overlap-compare -Wno-char-subscripts -Wglobal-constructors -Wexit-time-destructors -Wexit-time-destructors -Wshadow -I/usr/include/glib-2.0 -I/usr/lib/glib-2.0/include -I/usr/lib/libffi-3.2.1/include -Wexit-time-destructors -O2 -fno-ident -fdata-sections -ffunction-sections -std=c++14 -fno-exceptions -fno-rtti -fvisibility-inlines-hidden -D_FORTIFY_SOURCE=2 -march=x86-64 -mtune=generic -O2 -pipe -fstack-protector-strong -fno-plt -c ../../base/strings/utf_offset_string_conversions.cc -o obj/base/base/utf_offset_string_conversions.o
1204  [11/28/2018 03:15PM]: [278/5007] clang++ -MMD -MF obj/base/base/string_util.o.d -DUSE_SYMBOLIZE -DV8_DEPRECATION_WARNINGS -DUSE_UDEV -DUSE_AURA=1 -DUSE_GLIB=1 -DUSE_NSS_CERTS=1 -DUSE_X11=1 -DFULL_SAFE_BROWSING -DSAFE_BROWSING_CSD -DSAFE_BROWSING_DB_LOCAL -DCHROMIUM_BUILD -D_FILE_OFFSET_BITS=64 -D_LARGEFILE_SOURCE -D_LARGEFILE64_SOURCE -D_GNU_SOURCE -DCR_CLANG_REVISION=\340925-1\ -D__STDC_CONSTANT_MACROS -D__STDC_FORMAT_MACROS -DCOMPONENT_BUILD -DNDEBUG -DNVALGRIND -DDYNAMIC_ANNOTATIONS_ENABLED=0 -DBASE_IMPLEMENTATION -DGLIB_VERSION_MAX_ALLOWED=GLIB_VERSION_2_32 -DGLIB_VERSION_MIN_REQUIRED=GLIB_VERSION_2_26 -I../.. -Igen -fno-strict-aliasing --param=ssp-buffer-size=4 -fstack-protector -Wno-builtin-macro-redefined -D__DATE__= -D__TIME__= -D__TIMESTAMP__= -funwind-tables -fPIC -pthread -fcolor-diagnostics -fmerge-all-constants -Xclang -mllvm -Xclang -instcombine-lower-dbg-declare=0 -no-canonical-prefixes -m64 -march=x86-64 -Wall -Wextra -Wimplicit-fallthrough -Wthread-safety -Wno-missing-field-initializers -Wno-unused-parameter -Wno-c++11-narrowing -Wno-covered-switch-default -Wno-unneeded-internal-declaration -Wno-undefined-var-template -Wno-nonportable-include-path -Wno-user-defined-warnings -Wno-unused-lambda-capture -Wno-ignored-pragma-optimize -fno-omit-frame-pointer -g0 -fvisibility=hidden -Wheader-hygiene -Wstring-conversion -Wtautological-overlap-compare -Wno-char-subscripts -Wglobal-constructors -Wexit-time-destructors -Wexit-time-destructors -Wshadow -I/usr/include/glib-2.0 -I/usr/lib/glib-2.0/include -I/usr/lib/libffi-3.2.1/include -Wexit-time-destructors -O2 -fno-ident -fdata-sections -ffunction-sections -std=c++14 -fno-exceptions -fno-rtti -fvisibility-inlines-hidden -D_FORTIFY_SOURCE=2 -march=x86-64 -mtune=generic -O2 -pipe -fstack-protector-strong -fno-plt -c ../../base/strings/string_util.cc -o obj/base/base/string_util.o
1205  [11/28/2018 03:15PM]: [279/5007] clang++ -MMD -MF obj/base/base/utf_string_conversions.o.d -DUSE_SYMBOLIZE -DV8_DEPRECATION_WARNINGS -DUSE_UDEV -DUSE_AURA=1 -DUSE_GLIB=1 -DUSE_NSS_CERTS=1 -DUSE_X11=1 -DFULL_SAFE_BROWSING -DSAFE_BROWSING_CSD -DSAFE_BROWSING_DB_LOCAL -DCHROMIUM_BUILD -D_FILE_OFFSET_BITS=64 -D_LARGEFILE_SOURCE -D_LARGEFILE64_SOURCE -D_GNU_SOURCE -DCR_CLANG_REVISION=\340925-1\ -D__STDC_CONSTANT_MACROS -D__STDC_FORMAT_MACROS -DCOMPONENT_BUILD -DNDEBUG -DNVALGRIND -DDYNAMIC_ANNOTATIONS_ENABLED=0 -DBASE_IMPLEMENTATION -DGLIB_VERSION_MAX_ALLOWED=GLIB_VERSION_2_32 -DGLIB_VERSION_MIN_REQUIRED=GLIB_VERSION_2_26 -I../.. -Igen -fno-strict-aliasing --param=ssp-buffer-size=4 -fstack-protector -Wno-builtin-macro-redefined -D__DATE__= -D__TIME__= -D__TIMESTAMP__= -funwind-tables -fPIC -pthread -fcolor-diagnostics -fmerge-all-constants -Xclang -mllvm -Xclang -instcombine-lower-dbg-declare=0 -no-canonical-prefixes -m64 -march=x86-64 -Wall -Wextra -Wimplicit-fallthrough -Wthread-safety -Wno-missing-field-initializers -Wno-unused-parameter -Wno-c++11-narrowing -Wno-covered-switch-default -Wno-unneeded-internal-declaration -Wno-undefined-var-template -Wno-nonportable-include-path -Wno-user-defined-warnings -Wno-unused-lambda-capture -Wno-ignored-pragma-optimize -fno-omit-frame-pointer -g0 -fvisibility=hidden -Wheader-hygiene -Wstring-conversion -Wtautological-overlap-compare -Wno-char-subscripts -Wglobal-constructors -Wexit-time-destructors -Wexit-time-destructors -Wshadow -I/usr/include/glib-2.0 -I/usr/lib/glib-2.0/include -I/usr/lib/libffi-3.2.1/include -Wexit-time-destructors -O2 -fno-ident -fdata-sections -ffunction-sections -std=c++14 -fno-exceptions -fno-rtti -fvisibility-inlines-hidden -D_FORTIFY_SOURCE=2 -march=x86-64 -mtune=generic -O2 -pipe -fstack-protector-strong -fno-plt -c ../../base/strings/utf_string_conversions.cc -o obj/base/base/utf_string_conversions.o
1206  [11/28/2018 03:15PM]: [280/5007] clang++ -MMD -MF obj/base/base/lock.o.d -DUSE_SYMBOLIZE -DV8_DEPRECATION_WARNINGS -DUSE_UDEV -DUSE_AURA=1 -DUSE_GLIB=1 -DUSE_NSS_CERTS=1 -DUSE_X11=1 -DFULL_SAFE_BROWSING -DSAFE_BROWSING_CSD -DSAFE_BROWSING_DB_LOCAL -DCHROMIUM_BUILD -D_FILE_OFFSET_BITS=64 -D_LARGEFILE_SOURCE -D_LARGEFILE64_SOURCE -D_GNU_SOURCE -DCR_CLANG_REVISION=\340925-1\ -D__STDC_CONSTANT_MACROS -D__STDC_FORMAT_MACROS -DCOMPONENT_BUILD -DNDEBUG -DNVALGRIND -DDYNAMIC_ANNOTATIONS_ENABLED=0 -DBASE_IMPLEMENTATION -DGLIB_VERSION_MAX_ALLOWED=GLIB_VERSION_2_32 -DGLIB_VERSION_MIN_REQUIRED=GLIB_VERSION_2_26 -I../.. -Igen -fno-strict-aliasing --param=ssp-buffer-size=4 -fstack-protector -Wno-builtin-macro-redefined -D__DATE__= -D__TIME__= -D__TIMESTAMP__= -funwind-tables -fPIC -pthread -fcolor-diagnostics -fmerge-all-constants -Xclang -mllvm -Xclang -instcombine-lower-dbg-declare=0 -no-canonical-prefixes -m64 -march=x86-64 -Wall -Wextra -Wimplicit-fallthrough -Wthread-safety -Wno-missing-field-initializers -Wno-unused-parameter -Wno-c++11-narrowing -Wno-covered-switch-default -Wno-unneeded-internal-declaration -Wno-undefined-var-template -Wno-nonportable-include-path -Wno-user-defined-warnings -Wno-unused-lambda-capture -Wno-ignored-pragma-optimize -fno-omit-frame-pointer -g0 -fvisibility=hidden -Wheader-hygiene -Wstring-conversion -Wtautological-overlap-compare -Wno-char-subscripts -Wglobal-constructors -Wexit-time-destructors -Wexit-time-destructors -Wshadow -I/usr/include/glib-2.0 -I/usr/lib/glib-2.0/include -I/usr/lib/libffi-3.2.1/include -Wexit-time-destructors -O2 -fno-ident -fdata-sections -ffunction-sections -std=c++14 -fno-exceptions -fno-rtti -fvisibility-inlines-hidden -D_FORTIFY_SOURCE=2 -march=x86-64 -mtune=generic -O2 -pipe -fstack-protector-strong -fno-plt -c ../../base/synchronization/lock.cc -o obj/base/base/lock.o
1207  [11/28/2018 03:15PM]: [281/5007] clang++ -MMD -MF obj/base/base/atomic_flag.o.d -DUSE_SYMBOLIZE -DV8_DEPRECATION_WARNINGS -DUSE_UDEV -DUSE_AURA=1 -DUSE_GLIB=1 -DUSE_NSS_CERTS=1 -DUSE_X11=1 -DFULL_SAFE_BROWSING -DSAFE_BROWSING_CSD -DSAFE_BROWSING_DB_LOCAL -DCHROMIUM_BUILD -D_FILE_OFFSET_BITS=64 -D_LARGEFILE_SOURCE -D_LARGEFILE64_SOURCE -D_GNU_SOURCE -DCR_CLANG_REVISION=\340925-1\ -D__STDC_CONSTANT_MACROS -D__STDC_FORMAT_MACROS -DCOMPONENT_BUILD -DNDEBUG -DNVALGRIND -DDYNAMIC_ANNOTATIONS_ENABLED=0 -DBASE_IMPLEMENTATION -DGLIB_VERSION_MAX_ALLOWED=GLIB_VERSION_2_32 -DGLIB_VERSION_MIN_REQUIRED=GLIB_VERSION_2_26 -I../.. -Igen -fno-strict-aliasing --param=ssp-buffer-size=4 -fstack-protector -Wno-builtin-macro-redefined -D__DATE__= -D__TIME__= -D__TIMESTAMP__= -funwind-tables -fPIC -pthread -fcolor-diagnostics -fmerge-all-constants -Xclang -mllvm -Xclang -instcombine-lower-dbg-declare=0 -no-canonical-prefixes -m64 -march=x86-64 -Wall -Wextra -Wimplicit-fallthrough -Wthread-safety -Wno-missing-field-initializers -Wno-unused-parameter -Wno-c++11-narrowing -Wno-covered-switch-default -Wno-unneeded-internal-declaration -Wno-undefined-var-template -Wno-nonportable-include-path -Wno-user-defined-warnings -Wno-unused-lambda-capture -Wno-ignored-pragma-optimize -fno-omit-frame-pointer -g0 -fvisibility=hidden -Wheader-hygiene -Wstring-conversion -Wtautological-overlap-compare -Wno-char-subscripts -Wglobal-constructors -Wexit-time-destructors -Wexit-time-destructors -Wshadow -I/usr/include/glib-2.0 -I/usr/lib/glib-2.0/include -I/usr/lib/libffi-3.2.1/include -Wexit-time-destructors -O2 -fno-ident -fdata-sections -ffunction-sections -std=c++14 -fno-exceptions -fno-rtti -fvisibility-inlines-hidden -D_FORTIFY_SOURCE=2 -march=x86-64 -mtune=generic -O2 -pipe -fstack-protector-strong -fno-plt -c ../../base/synchronization/atomic_flag.cc -o obj/base/base/atomic_flag.o
1208  [11/28/2018 03:15PM]: [282/5007] clang++ -MMD -MF obj/base/base/supports_user_data.o.d -DUSE_SYMBOLIZE -DV8_DEPRECATION_WARNINGS -DUSE_UDEV -DUSE_AURA=1 -DUSE_GLIB=1 -DUSE_NSS_CERTS=1 -DUSE_X11=1 -DFULL_SAFE_BROWSING -DSAFE_BROWSING_CSD -DSAFE_BROWSING_DB_LOCAL -DCHROMIUM_BUILD -D_FILE_OFFSET_BITS=64 -D_LARGEFILE_SOURCE -D_LARGEFILE64_SOURCE -D_GNU_SOURCE -DCR_CLANG_REVISION=\340925-1\ -D__STDC_CONSTANT_MACROS -D__STDC_FORMAT_MACROS -DCOMPONENT_BUILD -DNDEBUG -DNVALGRIND -DDYNAMIC_ANNOTATIONS_ENABLED=0 -DBASE_IMPLEMENTATION -DGLIB_VERSION_MAX_ALLOWED=GLIB_VERSION_2_32 -DGLIB_VERSION_MIN_REQUIRED=GLIB_VERSION_2_26 -I../.. -Igen -fno-strict-aliasing --param=ssp-buffer-size=4 -fstack-protector -Wno-builtin-macro-redefined -D__DATE__= -D__TIME__= -D__TIMESTAMP__= -funwind-tables -fPIC -pthread -fcolor-diagnostics -fmerge-all-constants -Xclang -mllvm -Xclang -instcombine-lower-dbg-declare=0 -no-canonical-prefixes -m64 -march=x86-64 -Wall -Wextra -Wimplicit-fallthrough -Wthread-safety -Wno-missing-field-initializers -Wno-unused-parameter -Wno-c++11-narrowing -Wno-covered-switch-default -Wno-unneeded-internal-declaration -Wno-undefined-var-template -Wno-nonportable-include-path -Wno-user-defined-warnings -Wno-unused-lambda-capture -Wno-ignored-pragma-optimize -fno-omit-frame-pointer -g0 -fvisibility=hidden -Wheader-hygiene -Wstring-conversion -Wtautological-overlap-compare -Wno-char-subscripts -Wglobal-constructors -Wexit-time-destructors -Wexit-time-destructors -Wshadow -I/usr/include/glib-2.0 -I/usr/lib/glib-2.0/include -I/usr/lib/libffi-3.2.1/include -Wexit-time-destructors -O2 -fno-ident -fdata-sections -ffunction-sections -std=c++14 -fno-exceptions -fno-rtti -fvisibility-inlines-hidden -D_FORTIFY_SOURCE=2 -march=x86-64 -mtune=generic -O2 -pipe -fstack-protector-strong -fno-plt -c ../../base/supports_user_data.cc -o obj/base/base/supports_user_data.o
1209  [11/28/2018 03:15PM]: [283/5007] clang++ -MMD -MF obj/base/base/syslog_logging.o.d -DUSE_SYMBOLIZE -DV8_DEPRECATION_WARNINGS -DUSE_UDEV -DUSE_AURA=1 -DUSE_GLIB=1 -DUSE_NSS_CERTS=1 -DUSE_X11=1 -DFULL_SAFE_BROWSING -DSAFE_BROWSING_CSD -DSAFE_BROWSING_DB_LOCAL -DCHROMIUM_BUILD -D_FILE_OFFSET_BITS=64 -D_LARGEFILE_SOURCE -D_LARGEFILE64_SOURCE -D_GNU_SOURCE -DCR_CLANG_REVISION=\340925-1\ -D__STDC_CONSTANT_MACROS -D__STDC_FORMAT_MACROS -DCOMPONENT_BUILD -DNDEBUG -DNVALGRIND -DDYNAMIC_ANNOTATIONS_ENABLED=0 -DBASE_IMPLEMENTATION -DGLIB_VERSION_MAX_ALLOWED=GLIB_VERSION_2_32 -DGLIB_VERSION_MIN_REQUIRED=GLIB_VERSION_2_26 -I../.. -Igen -fno-strict-aliasing --param=ssp-buffer-size=4 -fstack-protector -Wno-builtin-macro-redefined -D__DATE__= -D__TIME__= -D__TIMESTAMP__= -funwind-tables -fPIC -pthread -fcolor-diagnostics -fmerge-all-constants -Xclang -mllvm -Xclang -instcombine-lower-dbg-declare=0 -no-canonical-prefixes -m64 -march=x86-64 -Wall -Wextra -Wimplicit-fallthrough -Wthread-safety -Wno-missing-field-initializers -Wno-unused-parameter -Wno-c++11-narrowing -Wno-covered-switch-default -Wno-unneeded-internal-declaration -Wno-undefined-var-template -Wno-nonportable-include-path -Wno-user-defined-warnings -Wno-unused-lambda-capture -Wno-ignored-pragma-optimize -fno-omit-frame-pointer -g0 -fvisibility=hidden -Wheader-hygiene -Wstring-conversion -Wtautological-overlap-compare -Wno-char-subscripts -Wglobal-constructors -Wexit-time-destructors -Wexit-time-destructors -Wshadow -I/usr/include/glib-2.0 -I/usr/lib/glib-2.0/include -I/usr/lib/libffi-3.2.1/include -Wexit-time-destructors -O2 -fno-ident -fdata-sections -ffunction-sections -std=c++14 -fno-exceptions -fno-rtti -fvisibility-inlines-hidden -D_FORTIFY_SOURCE=2 -march=x86-64 -mtune=generic -O2 -pipe -fstack-protector-strong -fno-plt -c ../../base/syslog_logging.cc -o obj/base/base/syslog_logging.o
1210  [11/28/2018 03:15PM]: [284/5007] clang++ -MMD -MF obj/base/base/sys_info.o.d -DUSE_SYMBOLIZE -DV8_DEPRECATION_WARNINGS -DUSE_UDEV -DUSE_AURA=1 -DUSE_GLIB=1 -DUSE_NSS_CERTS=1 -DUSE_X11=1 -DFULL_SAFE_BROWSING -DSAFE_BROWSING_CSD -DSAFE_BROWSING_DB_LOCAL -DCHROMIUM_BUILD -D_FILE_OFFSET_BITS=64 -D_LARGEFILE_SOURCE -D_LARGEFILE64_SOURCE -D_GNU_SOURCE -DCR_CLANG_REVISION=\340925-1\ -D__STDC_CONSTANT_MACROS -D__STDC_FORMAT_MACROS -DCOMPONENT_BUILD -DNDEBUG -DNVALGRIND -DDYNAMIC_ANNOTATIONS_ENABLED=0 -DBASE_IMPLEMENTATION -DGLIB_VERSION_MAX_ALLOWED=GLIB_VERSION_2_32 -DGLIB_VERSION_MIN_REQUIRED=GLIB_VERSION_2_26 -I../.. -Igen -fno-strict-aliasing --param=ssp-buffer-size=4 -fstack-protector -Wno-builtin-macro-redefined -D__DATE__= -D__TIME__= -D__TIMESTAMP__= -funwind-tables -fPIC -pthread -fcolor-diagnostics -fmerge-all-constants -Xclang -mllvm -Xclang -instcombine-lower-dbg-declare=0 -no-canonical-prefixes -m64 -march=x86-64 -Wall -Wextra -Wimplicit-fallthrough -Wthread-safety -Wno-missing-field-initializers -Wno-unused-parameter -Wno-c++11-narrowing -Wno-covered-switch-default -Wno-unneeded-internal-declaration -Wno-undefined-var-template -Wno-nonportable-include-path -Wno-user-defined-warnings -Wno-unused-lambda-capture -Wno-ignored-pragma-optimize -fno-omit-frame-pointer -g0 -fvisibility=hidden -Wheader-hygiene -Wstring-conversion -Wtautological-overlap-compare -Wno-char-subscripts -Wglobal-constructors -Wexit-time-destructors -Wexit-time-destructors -Wshadow -I/usr/include/glib-2.0 -I/usr/lib/glib-2.0/include -I/usr/lib/libffi-3.2.1/include -Wexit-time-destructors -O2 -fno-ident -fdata-sections -ffunction-sections -std=c++14 -fno-exceptions -fno-rtti -fvisibility-inlines-hidden -D_FORTIFY_SOURCE=2 -march=x86-64 -mtune=generic -O2 -pipe -fstack-protector-strong -fno-plt -c ../../base/sys_info.cc -o obj/base/base/sys_info.o
1211  [11/28/2018 03:15PM]: [285/5007] clang++ -MMD -MF obj/base/base/sys_info_linux.o.d -DUSE_SYMBOLIZE -DV8_DEPRECATION_WARNINGS -DUSE_UDEV -DUSE_AURA=1 -DUSE_GLIB=1 -DUSE_NSS_CERTS=1 -DUSE_X11=1 -DFULL_SAFE_BROWSING -DSAFE_BROWSING_CSD -DSAFE_BROWSING_DB_LOCAL -DCHROMIUM_BUILD -D_FILE_OFFSET_BITS=64 -D_LARGEFILE_SOURCE -D_LARGEFILE64_SOURCE -D_GNU_SOURCE -DCR_CLANG_REVISION=\340925-1\ -D__STDC_CONSTANT_MACROS -D__STDC_FORMAT_MACROS -DCOMPONENT_BUILD -DNDEBUG -DNVALGRIND -DDYNAMIC_ANNOTATIONS_ENABLED=0 -DBASE_IMPLEMENTATION -DGLIB_VERSION_MAX_ALLOWED=GLIB_VERSION_2_32 -DGLIB_VERSION_MIN_REQUIRED=GLIB_VERSION_2_26 -I../.. -Igen -fno-strict-aliasing --param=ssp-buffer-size=4 -fstack-protector -Wno-builtin-macro-redefined -D__DATE__= -D__TIME__= -D__TIMESTAMP__= -funwind-tables -fPIC -pthread -fcolor-diagnostics -fmerge-all-constants -Xclang -mllvm -Xclang -instcombine-lower-dbg-declare=0 -no-canonical-prefixes -m64 -march=x86-64 -Wall -Wextra -Wimplicit-fallthrough -Wthread-safety -Wno-missing-field-initializers -Wno-unused-parameter -Wno-c++11-narrowing -Wno-covered-switch-default -Wno-unneeded-internal-declaration -Wno-undefined-var-template -Wno-nonportable-include-path -Wno-user-defined-warnings -Wno-unused-lambda-capture -Wno-ignored-pragma-optimize -fno-omit-frame-pointer -g0 -fvisibility=hidden -Wheader-hygiene -Wstring-conversion -Wtautological-overlap-compare -Wno-char-subscripts -Wglobal-constructors -Wexit-time-destructors -Wexit-time-destructors -Wshadow -I/usr/include/glib-2.0 -I/usr/lib/glib-2.0/include -I/usr/lib/libffi-3.2.1/include -Wexit-time-destructors -O2 -fno-ident -fdata-sections -ffunction-sections -std=c++14 -fno-exceptions -fno-rtti -fvisibility-inlines-hidden -D_FORTIFY_SOURCE=2 -march=x86-64 -mtune=generic -O2 -pipe -fstack-protector-strong -fno-plt -c ../../base/sys_info_linux.cc -o obj/base/base/sys_info_linux.o
1212  [11/28/2018 03:15PM]: [286/5007] clang++ -MMD -MF obj/base/base/post_task.o.d -DUSE_SYMBOLIZE -DV8_DEPRECATION_WARNINGS -DUSE_UDEV -DUSE_AURA=1 -DUSE_GLIB=1 -DUSE_NSS_CERTS=1 -DUSE_X11=1 -DFULL_SAFE_BROWSING -DSAFE_BROWSING_CSD -DSAFE_BROWSING_DB_LOCAL -DCHROMIUM_BUILD -D_FILE_OFFSET_BITS=64 -D_LARGEFILE_SOURCE -D_LARGEFILE64_SOURCE -D_GNU_SOURCE -DCR_CLANG_REVISION=\340925-1\ -D__STDC_CONSTANT_MACROS -D__STDC_FORMAT_MACROS -DCOMPONENT_BUILD -DNDEBUG -DNVALGRIND -DDYNAMIC_ANNOTATIONS_ENABLED=0 -DBASE_IMPLEMENTATION -DGLIB_VERSION_MAX_ALLOWED=GLIB_VERSION_2_32 -DGLIB_VERSION_MIN_REQUIRED=GLIB_VERSION_2_26 -I../.. -Igen -fno-strict-aliasing --param=ssp-buffer-size=4 -fstack-protector -Wno-builtin-macro-redefined -D__DATE__= -D__TIME__= -D__TIMESTAMP__= -funwind-tables -fPIC -pthread -fcolor-diagnostics -fmerge-all-constants -Xclang -mllvm -Xclang -instcombine-lower-dbg-declare=0 -no-canonical-prefixes -m64 -march=x86-64 -Wall -Wextra -Wimplicit-fallthrough -Wthread-safety -Wno-missing-field-initializers -Wno-unused-parameter -Wno-c++11-narrowing -Wno-covered-switch-default -Wno-unneeded-internal-declaration -Wno-undefined-var-template -Wno-nonportable-include-path -Wno-user-defined-warnings -Wno-unused-lambda-capture -Wno-ignored-pragma-optimize -fno-omit-frame-pointer -g0 -fvisibility=hidden -Wheader-hygiene -Wstring-conversion -Wtautological-overlap-compare -Wno-char-subscripts -Wglobal-constructors -Wexit-time-destructors -Wexit-time-destructors -Wshadow -I/usr/include/glib-2.0 -I/usr/lib/glib-2.0/include -I/usr/lib/libffi-3.2.1/include -Wexit-time-destructors -O2 -fno-ident -fdata-sections -ffunction-sections -std=c++14 -fno-exceptions -fno-rtti -fvisibility-inlines-hidden -D_FORTIFY_SOURCE=2 -march=x86-64 -mtune=generic -O2 -pipe -fstack-protector-strong -fno-plt -c ../../base/task/post_task.cc -o obj/base/base/post_task.o
1213  [11/28/2018 03:15PM]: [287/5007] clang++ -MMD -MF obj/base/base/enqueue_order.o.d -DUSE_SYMBOLIZE -DV8_DEPRECATION_WARNINGS -DUSE_UDEV -DUSE_AURA=1 -DUSE_GLIB=1 -DUSE_NSS_CERTS=1 -DUSE_X11=1 -DFULL_SAFE_BROWSING -DSAFE_BROWSING_CSD -DSAFE_BROWSING_DB_LOCAL -DCHROMIUM_BUILD -D_FILE_OFFSET_BITS=64 -D_LARGEFILE_SOURCE -D_LARGEFILE64_SOURCE -D_GNU_SOURCE -DCR_CLANG_REVISION=\340925-1\ -D__STDC_CONSTANT_MACROS -D__STDC_FORMAT_MACROS -DCOMPONENT_BUILD -DNDEBUG -DNVALGRIND -DDYNAMIC_ANNOTATIONS_ENABLED=0 -DBASE_IMPLEMENTATION -DGLIB_VERSION_MAX_ALLOWED=GLIB_VERSION_2_32 -DGLIB_VERSION_MIN_REQUIRED=GLIB_VERSION_2_26 -I../.. -Igen -fno-strict-aliasing --param=ssp-buffer-size=4 -fstack-protector -Wno-builtin-macro-redefined -D__DATE__= -D__TIME__= -D__TIMESTAMP__= -funwind-tables -fPIC -pthread -fcolor-diagnostics -fmerge-all-constants -Xclang -mllvm -Xclang -instcombine-lower-dbg-declare=0 -no-canonical-prefixes -m64 -march=x86-64 -Wall -Wextra -Wimplicit-fallthrough -Wthread-safety -Wno-missing-field-initializers -Wno-unused-parameter -Wno-c++11-narrowing -Wno-covered-switch-default -Wno-unneeded-internal-declaration -Wno-undefined-var-template -Wno-nonportable-include-path -Wno-user-defined-warnings -Wno-unused-lambda-capture -Wno-ignored-pragma-optimize -fno-omit-frame-pointer -g0 -fvisibility=hidden -Wheader-hygiene -Wstring-conversion -Wtautological-overlap-compare -Wno-char-subscripts -Wglobal-constructors -Wexit-time-destructors -Wexit-time-destructors -Wshadow -I/usr/include/glib-2.0 -I/usr/lib/glib-2.0/include -I/usr/lib/libffi-3.2.1/include -Wexit-time-destructors -O2 -fno-ident -fdata-sections -ffunction-sections -std=c++14 -fno-exceptions -fno-rtti -fvisibility-inlines-hidden -D_FORTIFY_SOURCE=2 -march=x86-64 -mtune=generic -O2 -pipe -fstack-protector-strong -fno-plt -c ../../base/task/sequence_manager/enqueue_order.cc -o obj/base/base/enqueue_order.o
1214  [11/28/2018 03:15PM]: [288/5007] clang++ -MMD -MF obj/base/base/system_monitor.o.d -DUSE_SYMBOLIZE -DV8_DEPRECATION_WARNINGS -DUSE_UDEV -DUSE_AURA=1 -DUSE_GLIB=1 -DUSE_NSS_CERTS=1 -DUSE_X11=1 -DFULL_SAFE_BROWSING -DSAFE_BROWSING_CSD -DSAFE_BROWSING_DB_LOCAL -DCHROMIUM_BUILD -D_FILE_OFFSET_BITS=64 -D_LARGEFILE_SOURCE -D_LARGEFILE64_SOURCE -D_GNU_SOURCE -DCR_CLANG_REVISION=\340925-1\ -D__STDC_CONSTANT_MACROS -D__STDC_FORMAT_MACROS -DCOMPONENT_BUILD -DNDEBUG -DNVALGRIND -DDYNAMIC_ANNOTATIONS_ENABLED=0 -DBASE_IMPLEMENTATION -DGLIB_VERSION_MAX_ALLOWED=GLIB_VERSION_2_32 -DGLIB_VERSION_MIN_REQUIRED=GLIB_VERSION_2_26 -I../.. -Igen -fno-strict-aliasing --param=ssp-buffer-size=4 -fstack-protector -Wno-builtin-macro-redefined -D__DATE__= -D__TIME__= -D__TIMESTAMP__= -funwind-tables -fPIC -pthread -fcolor-diagnostics -fmerge-all-constants -Xclang -mllvm -Xclang -instcombine-lower-dbg-declare=0 -no-canonical-prefixes -m64 -march=x86-64 -Wall -Wextra -Wimplicit-fallthrough -Wthread-safety -Wno-missing-field-initializers -Wno-unused-parameter -Wno-c++11-narrowing -Wno-covered-switch-default -Wno-unneeded-internal-declaration -Wno-undefined-var-template -Wno-nonportable-include-path -Wno-user-defined-warnings -Wno-unused-lambda-capture -Wno-ignored-pragma-optimize -fno-omit-frame-pointer -g0 -fvisibility=hidden -Wheader-hygiene -Wstring-conversion -Wtautological-overlap-compare -Wno-char-subscripts -Wglobal-constructors -Wexit-time-destructors -Wexit-time-destructors -Wshadow -I/usr/include/glib-2.0 -I/usr/lib/glib-2.0/include -I/usr/lib/libffi-3.2.1/include -Wexit-time-destructors -O2 -fno-ident -fdata-sections -ffunction-sections -std=c++14 -fno-exceptions -fno-rtti -fvisibility-inlines-hidden -D_FORTIFY_SOURCE=2 -march=x86-64 -mtune=generic -O2 -pipe -fstack-protector-strong -fno-plt -c ../../base/system_monitor/system_monitor.cc -o obj/base/base/system_monitor.o
1215  [11/28/2018 03:15PM]: [289/5007] clang++ -MMD -MF obj/base/base/lazy_task_runner.o.d -DUSE_SYMBOLIZE -DV8_DEPRECATION_WARNINGS -DUSE_UDEV -DUSE_AURA=1 -DUSE_GLIB=1 -DUSE_NSS_CERTS=1 -DUSE_X11=1 -DFULL_SAFE_BROWSING -DSAFE_BROWSING_CSD -DSAFE_BROWSING_DB_LOCAL -DCHROMIUM_BUILD -D_FILE_OFFSET_BITS=64 -D_LARGEFILE_SOURCE -D_LARGEFILE64_SOURCE -D_GNU_SOURCE -DCR_CLANG_REVISION=\340925-1\ -D__STDC_CONSTANT_MACROS -D__STDC_FORMAT_MACROS -DCOMPONENT_BUILD -DNDEBUG -DNVALGRIND -DDYNAMIC_ANNOTATIONS_ENABLED=0 -DBASE_IMPLEMENTATION -DGLIB_VERSION_MAX_ALLOWED=GLIB_VERSION_2_32 -DGLIB_VERSION_MIN_REQUIRED=GLIB_VERSION_2_26 -I../.. -Igen -fno-strict-aliasing --param=ssp-buffer-size=4 -fstack-protector -Wno-builtin-macro-redefined -D__DATE__= -D__TIME__= -D__TIMESTAMP__= -funwind-tables -fPIC -pthread -fcolor-diagnostics -fmerge-all-constants -Xclang -mllvm -Xclang -instcombine-lower-dbg-declare=0 -no-canonical-prefixes -m64 -march=x86-64 -Wall -Wextra -Wimplicit-fallthrough -Wthread-safety -Wno-missing-field-initializers -Wno-unused-parameter -Wno-c++11-narrowing -Wno-covered-switch-default -Wno-unneeded-internal-declaration -Wno-undefined-var-template -Wno-nonportable-include-path -Wno-user-defined-warnings -Wno-unused-lambda-capture -Wno-ignored-pragma-optimize -fno-omit-frame-pointer -g0 -fvisibility=hidden -Wheader-hygiene -Wstring-conversion -Wtautological-overlap-compare -Wno-char-subscripts -Wglobal-constructors -Wexit-time-destructors -Wexit-time-destructors -Wshadow -I/usr/include/glib-2.0 -I/usr/lib/glib-2.0/include -I/usr/lib/libffi-3.2.1/include -Wexit-time-destructors -O2 -fno-ident -fdata-sections -ffunction-sections -std=c++14 -fno-exceptions -fno-rtti -fvisibility-inlines-hidden -D_FORTIFY_SOURCE=2 -march=x86-64 -mtune=generic -O2 -pipe -fstack-protector-strong -fno-plt -c ../../base/task/lazy_task_runner.cc -o obj/base/base/lazy_task_runner.o
1216  [11/28/2018 03:15PM]: [290/5007] clang++ -MMD -MF obj/base/base/cancelable_task_tracker.o.d -DUSE_SYMBOLIZE -DV8_DEPRECATION_WARNINGS -DUSE_UDEV -DUSE_AURA=1 -DUSE_GLIB=1 -DUSE_NSS_CERTS=1 -DUSE_X11=1 -DFULL_SAFE_BROWSING -DSAFE_BROWSING_CSD -DSAFE_BROWSING_DB_LOCAL -DCHROMIUM_BUILD -D_FILE_OFFSET_BITS=64 -D_LARGEFILE_SOURCE -D_LARGEFILE64_SOURCE -D_GNU_SOURCE -DCR_CLANG_REVISION=\340925-1\ -D__STDC_CONSTANT_MACROS -D__STDC_FORMAT_MACROS -DCOMPONENT_BUILD -DNDEBUG -DNVALGRIND -DDYNAMIC_ANNOTATIONS_ENABLED=0 -DBASE_IMPLEMENTATION -DGLIB_VERSION_MAX_ALLOWED=GLIB_VERSION_2_32 -DGLIB_VERSION_MIN_REQUIRED=GLIB_VERSION_2_26 -I../.. -Igen -fno-strict-aliasing --param=ssp-buffer-size=4 -fstack-protector -Wno-builtin-macro-redefined -D__DATE__= -D__TIME__= -D__TIMESTAMP__= -funwind-tables -fPIC -pthread -fcolor-diagnostics -fmerge-all-constants -Xclang -mllvm -Xclang -instcombine-lower-dbg-declare=0 -no-canonical-prefixes -m64 -march=x86-64 -Wall -Wextra -Wimplicit-fallthrough -Wthread-safety -Wno-missing-field-initializers -Wno-unused-parameter -Wno-c++11-narrowing -Wno-covered-switch-default -Wno-unneeded-internal-declaration -Wno-undefined-var-template -Wno-nonportable-include-path -Wno-user-defined-warnings -Wno-unused-lambda-capture -Wno-ignored-pragma-optimize -fno-omit-frame-pointer -g0 -fvisibility=hidden -Wheader-hygiene -Wstring-conversion -Wtautological-overlap-compare -Wno-char-subscripts -Wglobal-constructors -Wexit-time-destructors -Wexit-time-destructors -Wshadow -I/usr/include/glib-2.0 -I/usr/lib/glib-2.0/include -I/usr/lib/libffi-3.2.1/include -Wexit-time-destructors -O2 -fno-ident -fdata-sections -ffunction-sections -std=c++14 -fno-exceptions -fno-rtti -fvisibility-inlines-hidden -D_FORTIFY_SOURCE=2 -march=x86-64 -mtune=generic -O2 -pipe -fstack-protector-strong -fno-plt -c ../../base/task/cancelable_task_tracker.cc -o obj/base/base/cancelable_task_tracker.o
1217  [11/28/2018 03:15PM]: [291/5007] clang++ -MMD -MF obj/base/base/scoped_set_task_priority_for_current_thread.o.d -DUSE_SYMBOLIZE -DV8_DEPRECATION_WARNINGS -DUSE_UDEV -DUSE_AURA=1 -DUSE_GLIB=1 -DUSE_NSS_CERTS=1 -DUSE_X11=1 -DFULL_SAFE_BROWSING -DSAFE_BROWSING_CSD -DSAFE_BROWSING_DB_LOCAL -DCHROMIUM_BUILD -D_FILE_OFFSET_BITS=64 -D_LARGEFILE_SOURCE -D_LARGEFILE64_SOURCE -D_GNU_SOURCE -DCR_CLANG_REVISION=\340925-1\ -D__STDC_CONSTANT_MACROS -D__STDC_FORMAT_MACROS -DCOMPONENT_BUILD -DNDEBUG -DNVALGRIND -DDYNAMIC_ANNOTATIONS_ENABLED=0 -DBASE_IMPLEMENTATION -DGLIB_VERSION_MAX_ALLOWED=GLIB_VERSION_2_32 -DGLIB_VERSION_MIN_REQUIRED=GLIB_VERSION_2_26 -I../.. -Igen -fno-strict-aliasing --param=ssp-buffer-size=4 -fstack-protector -Wno-builtin-macro-redefined -D__DATE__= -D__TIME__= -D__TIMESTAMP__= -funwind-tables -fPIC -pthread -fcolor-diagnostics -fmerge-all-constants -Xclang -mllvm -Xclang -instcombine-lower-dbg-declare=0 -no-canonical-prefixes -m64 -march=x86-64 -Wall -Wextra -Wimplicit-fallthrough -Wthread-safety -Wno-missing-field-initializers -Wno-unused-parameter -Wno-c++11-narrowing -Wno-covered-switch-default -Wno-unneeded-internal-declaration -Wno-undefined-var-template -Wno-nonportable-include-path -Wno-user-defined-warnings -Wno-unused-lambda-capture -Wno-ignored-pragma-optimize -fno-omit-frame-pointer -g0 -fvisibility=hidden -Wheader-hygiene -Wstring-conversion -Wtautological-overlap-compare -Wno-char-subscripts -Wglobal-constructors -Wexit-time-destructors -Wexit-time-destructors -Wshadow -I/usr/include/glib-2.0 -I/usr/lib/glib-2.0/include -I/usr/lib/libffi-3.2.1/include -Wexit-time-destructors -O2 -fno-ident -fdata-sections -ffunction-sections -std=c++14 -fno-exceptions -fno-rtti -fvisibility-inlines-hidden -D_FORTIFY_SOURCE=2 -march=x86-64 -mtune=generic -O2 -pipe -fstack-protector-strong -fno-plt -c ../../base/task/scoped_set_task_priority_for_current_thread.cc -o obj/base/base/scoped_set_task_priority_for_current_thread.o
1218  [11/28/2018 03:15PM]: [292/5007] clang++ -MMD -MF obj/base/base/lazy_now.o.d -DUSE_SYMBOLIZE -DV8_DEPRECATION_WARNINGS -DUSE_UDEV -DUSE_AURA=1 -DUSE_GLIB=1 -DUSE_NSS_CERTS=1 -DUSE_X11=1 -DFULL_SAFE_BROWSING -DSAFE_BROWSING_CSD -DSAFE_BROWSING_DB_LOCAL -DCHROMIUM_BUILD -D_FILE_OFFSET_BITS=64 -D_LARGEFILE_SOURCE -D_LARGEFILE64_SOURCE -D_GNU_SOURCE -DCR_CLANG_REVISION=\340925-1\ -D__STDC_CONSTANT_MACROS -D__STDC_FORMAT_MACROS -DCOMPONENT_BUILD -DNDEBUG -DNVALGRIND -DDYNAMIC_ANNOTATIONS_ENABLED=0 -DBASE_IMPLEMENTATION -DGLIB_VERSION_MAX_ALLOWED=GLIB_VERSION_2_32 -DGLIB_VERSION_MIN_REQUIRED=GLIB_VERSION_2_26 -I../.. -Igen -fno-strict-aliasing --param=ssp-buffer-size=4 -fstack-protector -Wno-builtin-macro-redefined -D__DATE__= -D__TIME__= -D__TIMESTAMP__= -funwind-tables -fPIC -pthread -fcolor-diagnostics -fmerge-all-constants -Xclang -mllvm -Xclang -instcombine-lower-dbg-declare=0 -no-canonical-prefixes -m64 -march=x86-64 -Wall -Wextra -Wimplicit-fallthrough -Wthread-safety -Wno-missing-field-initializers -Wno-unused-parameter -Wno-c++11-narrowing -Wno-covered-switch-default -Wno-unneeded-internal-declaration -Wno-undefined-var-template -Wno-nonportable-include-path -Wno-user-defined-warnings -Wno-unused-lambda-capture -Wno-ignored-pragma-optimize -fno-omit-frame-pointer -g0 -fvisibility=hidden -Wheader-hygiene -Wstring-conversion -Wtautological-overlap-compare -Wno-char-subscripts -Wglobal-constructors -Wexit-time-destructors -Wexit-time-destructors -Wshadow -I/usr/include/glib-2.0 -I/usr/lib/glib-2.0/include -I/usr/lib/libffi-3.2.1/include -Wexit-time-destructors -O2 -fno-ident -fdata-sections -ffunction-sections -std=c++14 -fno-exceptions -fno-rtti -fvisibility-inlines-hidden -D_FORTIFY_SOURCE=2 -march=x86-64 -mtune=generic -O2 -pipe -fstack-protector-strong -fno-plt -c ../../base/task/sequence_manager/lazy_now.cc -o obj/base/base/lazy_now.o
1219  [11/28/2018 03:15PM]: [293/5007] clang++ -MMD -MF obj/base/base/graceful_queue_shutdown_helper.o.d -DUSE_SYMBOLIZE -DV8_DEPRECATION_WARNINGS -DUSE_UDEV -DUSE_AURA=1 -DUSE_GLIB=1 -DUSE_NSS_CERTS=1 -DUSE_X11=1 -DFULL_SAFE_BROWSING -DSAFE_BROWSING_CSD -DSAFE_BROWSING_DB_LOCAL -DCHROMIUM_BUILD -D_FILE_OFFSET_BITS=64 -D_LARGEFILE_SOURCE -D_LARGEFILE64_SOURCE -D_GNU_SOURCE -DCR_CLANG_REVISION=\340925-1\ -D__STDC_CONSTANT_MACROS -D__STDC_FORMAT_MACROS -DCOMPONENT_BUILD -DNDEBUG -DNVALGRIND -DDYNAMIC_ANNOTATIONS_ENABLED=0 -DBASE_IMPLEMENTATION -DGLIB_VERSION_MAX_ALLOWED=GLIB_VERSION_2_32 -DGLIB_VERSION_MIN_REQUIRED=GLIB_VERSION_2_26 -I../.. -Igen -fno-strict-aliasing --param=ssp-buffer-size=4 -fstack-protector -Wno-builtin-macro-redefined -D__DATE__= -D__TIME__= -D__TIMESTAMP__= -funwind-tables -fPIC -pthread -fcolor-diagnostics -fmerge-all-constants -Xclang -mllvm -Xclang -instcombine-lower-dbg-declare=0 -no-canonical-prefixes -m64 -march=x86-64 -Wall -Wextra -Wimplicit-fallthrough -Wthread-safety -Wno-missing-field-initializers -Wno-unused-parameter -Wno-c++11-narrowing -Wno-covered-switch-default -Wno-unneeded-internal-declaration -Wno-undefined-var-template -Wno-nonportable-include-path -Wno-user-defined-warnings -Wno-unused-lambda-capture -Wno-ignored-pragma-optimize -fno-omit-frame-pointer -g0 -fvisibility=hidden -Wheader-hygiene -Wstring-conversion -Wtautological-overlap-compare -Wno-char-subscripts -Wglobal-constructors -Wexit-time-destructors -Wexit-time-destructors -Wshadow -I/usr/include/glib-2.0 -I/usr/lib/glib-2.0/include -I/usr/lib/libffi-3.2.1/include -Wexit-time-destructors -O2 -fno-ident -fdata-sections -ffunction-sections -std=c++14 -fno-exceptions -fno-rtti -fvisibility-inlines-hidden -D_FORTIFY_SOURCE=2 -march=x86-64 -mtune=generic -O2 -pipe -fstack-protector-strong -fno-plt -c ../../base/task/sequence_manager/graceful_queue_shutdown_helper.cc -o obj/base/base/graceful_queue_shutdown_helper.o
1220  [11/28/2018 03:15PM]: [294/5007] clang++ -MMD -MF obj/base/base/sequence_manager.o.d -DUSE_SYMBOLIZE -DV8_DEPRECATION_WARNINGS -DUSE_UDEV -DUSE_AURA=1 -DUSE_GLIB=1 -DUSE_NSS_CERTS=1 -DUSE_X11=1 -DFULL_SAFE_BROWSING -DSAFE_BROWSING_CSD -DSAFE_BROWSING_DB_LOCAL -DCHROMIUM_BUILD -D_FILE_OFFSET_BITS=64 -D_LARGEFILE_SOURCE -D_LARGEFILE64_SOURCE -D_GNU_SOURCE -DCR_CLANG_REVISION=\340925-1\ -D__STDC_CONSTANT_MACROS -D__STDC_FORMAT_MACROS -DCOMPONENT_BUILD -DNDEBUG -DNVALGRIND -DDYNAMIC_ANNOTATIONS_ENABLED=0 -DBASE_IMPLEMENTATION -DGLIB_VERSION_MAX_ALLOWED=GLIB_VERSION_2_32 -DGLIB_VERSION_MIN_REQUIRED=GLIB_VERSION_2_26 -I../.. -Igen -fno-strict-aliasing --param=ssp-buffer-size=4 -fstack-protector -Wno-builtin-macro-redefined -D__DATE__= -D__TIME__= -D__TIMESTAMP__= -funwind-tables -fPIC -pthread -fcolor-diagnostics -fmerge-all-constants -Xclang -mllvm -Xclang -instcombine-lower-dbg-declare=0 -no-canonical-prefixes -m64 -march=x86-64 -Wall -Wextra -Wimplicit-fallthrough -Wthread-safety -Wno-missing-field-initializers -Wno-unused-parameter -Wno-c++11-narrowing -Wno-covered-switch-default -Wno-unneeded-internal-declaration -Wno-undefined-var-template -Wno-nonportable-include-path -Wno-user-defined-warnings -Wno-unused-lambda-capture -Wno-ignored-pragma-optimize -fno-omit-frame-pointer -g0 -fvisibility=hidden -Wheader-hygiene -Wstring-conversion -Wtautological-overlap-compare -Wno-char-subscripts -Wglobal-constructors -Wexit-time-destructors -Wexit-time-destructors -Wshadow -I/usr/include/glib-2.0 -I/usr/lib/glib-2.0/include -I/usr/lib/libffi-3.2.1/include -Wexit-time-destructors -O2 -fno-ident -fdata-sections -ffunction-sections -std=c++14 -fno-exceptions -fno-rtti -fvisibility-inlines-hidden -D_FORTIFY_SOURCE=2 -march=x86-64 -mtune=generic -O2 -pipe -fstack-protector-strong -fno-plt -c ../../base/task/sequence_manager/sequence_manager.cc -o obj/base/base/sequence_manager.o
1221  [11/28/2018 03:15PM]: [295/5007] clang++ -MMD -MF obj/base/base/real_time_domain.o.d -DUSE_SYMBOLIZE -DV8_DEPRECATION_WARNINGS -DUSE_UDEV -DUSE_AURA=1 -DUSE_GLIB=1 -DUSE_NSS_CERTS=1 -DUSE_X11=1 -DFULL_SAFE_BROWSING -DSAFE_BROWSING_CSD -DSAFE_BROWSING_DB_LOCAL -DCHROMIUM_BUILD -D_FILE_OFFSET_BITS=64 -D_LARGEFILE_SOURCE -D_LARGEFILE64_SOURCE -D_GNU_SOURCE -DCR_CLANG_REVISION=\340925-1\ -D__STDC_CONSTANT_MACROS -D__STDC_FORMAT_MACROS -DCOMPONENT_BUILD -DNDEBUG -DNVALGRIND -DDYNAMIC_ANNOTATIONS_ENABLED=0 -DBASE_IMPLEMENTATION -DGLIB_VERSION_MAX_ALLOWED=GLIB_VERSION_2_32 -DGLIB_VERSION_MIN_REQUIRED=GLIB_VERSION_2_26 -I../.. -Igen -fno-strict-aliasing --param=ssp-buffer-size=4 -fstack-protector -Wno-builtin-macro-redefined -D__DATE__= -D__TIME__= -D__TIMESTAMP__= -funwind-tables -fPIC -pthread -fcolor-diagnostics -fmerge-all-constants -Xclang -mllvm -Xclang -instcombine-lower-dbg-declare=0 -no-canonical-prefixes -m64 -march=x86-64 -Wall -Wextra -Wimplicit-fallthrough -Wthread-safety -Wno-missing-field-initializers -Wno-unused-parameter -Wno-c++11-narrowing -Wno-covered-switch-default -Wno-unneeded-internal-declaration -Wno-undefined-var-template -Wno-nonportable-include-path -Wno-user-defined-warnings -Wno-unused-lambda-capture -Wno-ignored-pragma-optimize -fno-omit-frame-pointer -g0 -fvisibility=hidden -Wheader-hygiene -Wstring-conversion -Wtautological-overlap-compare -Wno-char-subscripts -Wglobal-constructors -Wexit-time-destructors -Wexit-time-destructors -Wshadow -I/usr/include/glib-2.0 -I/usr/lib/glib-2.0/include -I/usr/lib/libffi-3.2.1/include -Wexit-time-destructors -O2 -fno-ident -fdata-sections -ffunction-sections -std=c++14 -fno-exceptions -fno-rtti -fvisibility-inlines-hidden -D_FORTIFY_SOURCE=2 -march=x86-64 -mtune=generic -O2 -pipe -fstack-protector-strong -fno-plt -c ../../base/task/sequence_manager/real_time_domain.cc -o obj/base/base/real_time_domain.o
1222  [11/28/2018 03:15PM]: [296/5007] clang++ -MMD -MF obj/base/base/task_queue.o.d -DUSE_SYMBOLIZE -DV8_DEPRECATION_WARNINGS -DUSE_UDEV -DUSE_AURA=1 -DUSE_GLIB=1 -DUSE_NSS_CERTS=1 -DUSE_X11=1 -DFULL_SAFE_BROWSING -DSAFE_BROWSING_CSD -DSAFE_BROWSING_DB_LOCAL -DCHROMIUM_BUILD -D_FILE_OFFSET_BITS=64 -D_LARGEFILE_SOURCE -D_LARGEFILE64_SOURCE -D_GNU_SOURCE -DCR_CLANG_REVISION=\340925-1\ -D__STDC_CONSTANT_MACROS -D__STDC_FORMAT_MACROS -DCOMPONENT_BUILD -DNDEBUG -DNVALGRIND -DDYNAMIC_ANNOTATIONS_ENABLED=0 -DBASE_IMPLEMENTATION -DGLIB_VERSION_MAX_ALLOWED=GLIB_VERSION_2_32 -DGLIB_VERSION_MIN_REQUIRED=GLIB_VERSION_2_26 -I../.. -Igen -fno-strict-aliasing --param=ssp-buffer-size=4 -fstack-protector -Wno-builtin-macro-redefined -D__DATE__= -D__TIME__= -D__TIMESTAMP__= -funwind-tables -fPIC -pthread -fcolor-diagnostics -fmerge-all-constants -Xclang -mllvm -Xclang -instcombine-lower-dbg-declare=0 -no-canonical-prefixes -m64 -march=x86-64 -Wall -Wextra -Wimplicit-fallthrough -Wthread-safety -Wno-missing-field-initializers -Wno-unused-parameter -Wno-c++11-narrowing -Wno-covered-switch-default -Wno-unneeded-internal-declaration -Wno-undefined-var-template -Wno-nonportable-include-path -Wno-user-defined-warnings -Wno-unused-lambda-capture -Wno-ignored-pragma-optimize -fno-omit-frame-pointer -g0 -fvisibility=hidden -Wheader-hygiene -Wstring-conversion -Wtautological-overlap-compare -Wno-char-subscripts -Wglobal-constructors -Wexit-time-destructors -Wexit-time-destructors -Wshadow -I/usr/include/glib-2.0 -I/usr/lib/glib-2.0/include -I/usr/lib/libffi-3.2.1/include -Wexit-time-destructors -O2 -fno-ident -fdata-sections -ffunction-sections -std=c++14 -fno-exceptions -fno-rtti -fvisibility-inlines-hidden -D_FORTIFY_SOURCE=2 -march=x86-64 -mtune=generic -O2 -pipe -fstack-protector-strong -fno-plt -c ../../base/task/sequence_manager/task_queue.cc -o obj/base/base/task_queue.o
1223  [11/28/2018 03:15PM]: [297/5007] clang++ -MMD -MF obj/base/base/task_queue_task_runner.o.d -DUSE_SYMBOLIZE -DV8_DEPRECATION_WARNINGS -DUSE_UDEV -DUSE_AURA=1 -DUSE_GLIB=1 -DUSE_NSS_CERTS=1 -DUSE_X11=1 -DFULL_SAFE_BROWSING -DSAFE_BROWSING_CSD -DSAFE_BROWSING_DB_LOCAL -DCHROMIUM_BUILD -D_FILE_OFFSET_BITS=64 -D_LARGEFILE_SOURCE -D_LARGEFILE64_SOURCE -D_GNU_SOURCE -DCR_CLANG_REVISION=\340925-1\ -D__STDC_CONSTANT_MACROS -D__STDC_FORMAT_MACROS -DCOMPONENT_BUILD -DNDEBUG -DNVALGRIND -DDYNAMIC_ANNOTATIONS_ENABLED=0 -DBASE_IMPLEMENTATION -DGLIB_VERSION_MAX_ALLOWED=GLIB_VERSION_2_32 -DGLIB_VERSION_MIN_REQUIRED=GLIB_VERSION_2_26 -I../.. -Igen -fno-strict-aliasing --param=ssp-buffer-size=4 -fstack-protector -Wno-builtin-macro-redefined -D__DATE__= -D__TIME__= -D__TIMESTAMP__= -funwind-tables -fPIC -pthread -fcolor-diagnostics -fmerge-all-constants -Xclang -mllvm -Xclang -instcombine-lower-dbg-declare=0 -no-canonical-prefixes -m64 -march=x86-64 -Wall -Wextra -Wimplicit-fallthrough -Wthread-safety -Wno-missing-field-initializers -Wno-unused-parameter -Wno-c++11-narrowing -Wno-covered-switch-default -Wno-unneeded-internal-declaration -Wno-undefined-var-template -Wno-nonportable-include-path -Wno-user-defined-warnings -Wno-unused-lambda-capture -Wno-ignored-pragma-optimize -fno-omit-frame-pointer -g0 -fvisibility=hidden -Wheader-hygiene -Wstring-conversion -Wtautological-overlap-compare -Wno-char-subscripts -Wglobal-constructors -Wexit-time-destructors -Wexit-time-destructors -Wshadow -I/usr/include/glib-2.0 -I/usr/lib/glib-2.0/include -I/usr/lib/libffi-3.2.1/include -Wexit-time-destructors -O2 -fno-ident -fdata-sections -ffunction-sections -std=c++14 -fno-exceptions -fno-rtti -fvisibility-inlines-hidden -D_FORTIFY_SOURCE=2 -march=x86-64 -mtune=generic -O2 -pipe -fstack-protector-strong -fno-plt -c ../../base/task/sequence_manager/task_queue_task_runner.cc -o obj/base/base/task_queue_task_runner.o
1224  [11/28/2018 03:15PM]: [298/5007] clang++ -MMD -MF obj/base/base/task_queue_selector.o.d -DUSE_SYMBOLIZE -DV8_DEPRECATION_WARNINGS -DUSE_UDEV -DUSE_AURA=1 -DUSE_GLIB=1 -DUSE_NSS_CERTS=1 -DUSE_X11=1 -DFULL_SAFE_BROWSING -DSAFE_BROWSING_CSD -DSAFE_BROWSING_DB_LOCAL -DCHROMIUM_BUILD -D_FILE_OFFSET_BITS=64 -D_LARGEFILE_SOURCE -D_LARGEFILE64_SOURCE -D_GNU_SOURCE -DCR_CLANG_REVISION=\340925-1\ -D__STDC_CONSTANT_MACROS -D__STDC_FORMAT_MACROS -DCOMPONENT_BUILD -DNDEBUG -DNVALGRIND -DDYNAMIC_ANNOTATIONS_ENABLED=0 -DBASE_IMPLEMENTATION -DGLIB_VERSION_MAX_ALLOWED=GLIB_VERSION_2_32 -DGLIB_VERSION_MIN_REQUIRED=GLIB_VERSION_2_26 -I../.. -Igen -fno-strict-aliasing --param=ssp-buffer-size=4 -fstack-protector -Wno-builtin-macro-redefined -D__DATE__= -D__TIME__= -D__TIMESTAMP__= -funwind-tables -fPIC -pthread -fcolor-diagnostics -fmerge-all-constants -Xclang -mllvm -Xclang -instcombine-lower-dbg-declare=0 -no-canonical-prefixes -m64 -march=x86-64 -Wall -Wextra -Wimplicit-fallthrough -Wthread-safety -Wno-missing-field-initializers -Wno-unused-parameter -Wno-c++11-narrowing -Wno-covered-switch-default -Wno-unneeded-internal-declaration -Wno-undefined-var-template -Wno-nonportable-include-path -Wno-user-defined-warnings -Wno-unused-lambda-capture -Wno-ignored-pragma-optimize -fno-omit-frame-pointer -g0 -fvisibility=hidden -Wheader-hygiene -Wstring-conversion -Wtautological-overlap-compare -Wno-char-subscripts -Wglobal-constructors -Wexit-time-destructors -Wexit-time-destructors -Wshadow -I/usr/include/glib-2.0 -I/usr/lib/glib-2.0/include -I/usr/lib/libffi-3.2.1/include -Wexit-time-destructors -O2 -fno-ident -fdata-sections -ffunction-sections -std=c++14 -fno-exceptions -fno-rtti -fvisibility-inlines-hidden -D_FORTIFY_SOURCE=2 -march=x86-64 -mtune=generic -O2 -pipe -fstack-protector-strong -fno-plt -c ../../base/task/sequence_manager/task_queue_selector.cc -o obj/base/base/task_queue_selector.o
1225  [11/28/2018 03:15PM]: [299/5007] clang++ -MMD -MF obj/base/base/thread_controller_impl.o.d -DUSE_SYMBOLIZE -DV8_DEPRECATION_WARNINGS -DUSE_UDEV -DUSE_AURA=1 -DUSE_GLIB=1 -DUSE_NSS_CERTS=1 -DUSE_X11=1 -DFULL_SAFE_BROWSING -DSAFE_BROWSING_CSD -DSAFE_BROWSING_DB_LOCAL -DCHROMIUM_BUILD -D_FILE_OFFSET_BITS=64 -D_LARGEFILE_SOURCE -D_LARGEFILE64_SOURCE -D_GNU_SOURCE -DCR_CLANG_REVISION=\340925-1\ -D__STDC_CONSTANT_MACROS -D__STDC_FORMAT_MACROS -DCOMPONENT_BUILD -DNDEBUG -DNVALGRIND -DDYNAMIC_ANNOTATIONS_ENABLED=0 -DBASE_IMPLEMENTATION -DGLIB_VERSION_MAX_ALLOWED=GLIB_VERSION_2_32 -DGLIB_VERSION_MIN_REQUIRED=GLIB_VERSION_2_26 -I../.. -Igen -fno-strict-aliasing --param=ssp-buffer-size=4 -fstack-protector -Wno-builtin-macro-redefined -D__DATE__= -D__TIME__= -D__TIMESTAMP__= -funwind-tables -fPIC -pthread -fcolor-diagnostics -fmerge-all-constants -Xclang -mllvm -Xclang -instcombine-lower-dbg-declare=0 -no-canonical-prefixes -m64 -march=x86-64 -Wall -Wextra -Wimplicit-fallthrough -Wthread-safety -Wno-missing-field-initializers -Wno-unused-parameter -Wno-c++11-narrowing -Wno-covered-switch-default -Wno-unneeded-internal-declaration -Wno-undefined-var-template -Wno-nonportable-include-path -Wno-user-defined-warnings -Wno-unused-lambda-capture -Wno-ignored-pragma-optimize -fno-omit-frame-pointer -g0 -fvisibility=hidden -Wheader-hygiene -Wstring-conversion -Wtautological-overlap-compare -Wno-char-subscripts -Wglobal-constructors -Wexit-time-destructors -Wexit-time-destructors -Wshadow -I/usr/include/glib-2.0 -I/usr/lib/glib-2.0/include -I/usr/lib/libffi-3.2.1/include -Wexit-time-destructors -O2 -fno-ident -fdata-sections -ffunction-sections -std=c++14 -fno-exceptions -fno-rtti -fvisibility-inlines-hidden -D_FORTIFY_SOURCE=2 -march=x86-64 -mtune=generic -O2 -pipe -fstack-protector-strong -fno-plt -c ../../base/task/sequence_manager/thread_controller_impl.cc -o obj/base/base/thread_controller_impl.o
1226  [11/28/2018 03:15PM]: [300/5007] clang++ -MMD -MF obj/base/base/task_queue_impl.o.d -DUSE_SYMBOLIZE -DV8_DEPRECATION_WARNINGS -DUSE_UDEV -DUSE_AURA=1 -DUSE_GLIB=1 -DUSE_NSS_CERTS=1 -DUSE_X11=1 -DFULL_SAFE_BROWSING -DSAFE_BROWSING_CSD -DSAFE_BROWSING_DB_LOCAL -DCHROMIUM_BUILD -D_FILE_OFFSET_BITS=64 -D_LARGEFILE_SOURCE -D_LARGEFILE64_SOURCE -D_GNU_SOURCE -DCR_CLANG_REVISION=\340925-1\ -D__STDC_CONSTANT_MACROS -D__STDC_FORMAT_MACROS -DCOMPONENT_BUILD -DNDEBUG -DNVALGRIND -DDYNAMIC_ANNOTATIONS_ENABLED=0 -DBASE_IMPLEMENTATION -DGLIB_VERSION_MAX_ALLOWED=GLIB_VERSION_2_32 -DGLIB_VERSION_MIN_REQUIRED=GLIB_VERSION_2_26 -I../.. -Igen -fno-strict-aliasing --param=ssp-buffer-size=4 -fstack-protector -Wno-builtin-macro-redefined -D__DATE__= -D__TIME__= -D__TIMESTAMP__= -funwind-tables -fPIC -pthread -fcolor-diagnostics -fmerge-all-constants -Xclang -mllvm -Xclang -instcombine-lower-dbg-declare=0 -no-canonical-prefixes -m64 -march=x86-64 -Wall -Wextra -Wimplicit-fallthrough -Wthread-safety -Wno-missing-field-initializers -Wno-unused-parameter -Wno-c++11-narrowing -Wno-covered-switch-default -Wno-unneeded-internal-declaration -Wno-undefined-var-template -Wno-nonportable-include-path -Wno-user-defined-warnings -Wno-unused-lambda-capture -Wno-ignored-pragma-optimize -fno-omit-frame-pointer -g0 -fvisibility=hidden -Wheader-hygiene -Wstring-conversion -Wtautological-overlap-compare -Wno-char-subscripts -Wglobal-constructors -Wexit-time-destructors -Wexit-time-destructors -Wshadow -I/usr/include/glib-2.0 -I/usr/lib/glib-2.0/include -I/usr/lib/libffi-3.2.1/include -Wexit-time-destructors -O2 -fno-ident -fdata-sections -ffunction-sections -std=c++14 -fno-exceptions -fno-rtti -fvisibility-inlines-hidden -D_FORTIFY_SOURCE=2 -march=x86-64 -mtune=generic -O2 -pipe -fstack-protector-strong -fno-plt -c ../../base/task/sequence_manager/task_queue_impl.cc -o obj/base/base/task_queue_impl.o
1227  [11/28/2018 03:15PM]: [301/5007] clang++ -MMD -MF obj/base/base/thread_controller_with_message_pump_impl.o.d -DUSE_SYMBOLIZE -DV8_DEPRECATION_WARNINGS -DUSE_UDEV -DUSE_AURA=1 -DUSE_GLIB=1 -DUSE_NSS_CERTS=1 -DUSE_X11=1 -DFULL_SAFE_BROWSING -DSAFE_BROWSING_CSD -DSAFE_BROWSING_DB_LOCAL -DCHROMIUM_BUILD -D_FILE_OFFSET_BITS=64 -D_LARGEFILE_SOURCE -D_LARGEFILE64_SOURCE -D_GNU_SOURCE -DCR_CLANG_REVISION=\340925-1\ -D__STDC_CONSTANT_MACROS -D__STDC_FORMAT_MACROS -DCOMPONENT_BUILD -DNDEBUG -DNVALGRIND -DDYNAMIC_ANNOTATIONS_ENABLED=0 -DBASE_IMPLEMENTATION -DGLIB_VERSION_MAX_ALLOWED=GLIB_VERSION_2_32 -DGLIB_VERSION_MIN_REQUIRED=GLIB_VERSION_2_26 -I../.. -Igen -fno-strict-aliasing --param=ssp-buffer-size=4 -fstack-protector -Wno-builtin-macro-redefined -D__DATE__= -D__TIME__= -D__TIMESTAMP__= -funwind-tables -fPIC -pthread -fcolor-diagnostics -fmerge-all-constants -Xclang -mllvm -Xclang -instcombine-lower-dbg-declare=0 -no-canonical-prefixes -m64 -march=x86-64 -Wall -Wextra -Wimplicit-fallthrough -Wthread-safety -Wno-missing-field-initializers -Wno-unused-parameter -Wno-c++11-narrowing -Wno-covered-switch-default -Wno-unneeded-internal-declaration -Wno-undefined-var-template -Wno-nonportable-include-path -Wno-user-defined-warnings -Wno-unused-lambda-capture -Wno-ignored-pragma-optimize -fno-omit-frame-pointer -g0 -fvisibility=hidden -Wheader-hygiene -Wstring-conversion -Wtautological-overlap-compare -Wno-char-subscripts -Wglobal-constructors -Wexit-time-destructors -Wexit-time-destructors -Wshadow -I/usr/include/glib-2.0 -I/usr/lib/glib-2.0/include -I/usr/lib/libffi-3.2.1/include -Wexit-time-destructors -O2 -fno-ident -fdata-sections -ffunction-sections -std=c++14 -fno-exceptions -fno-rtti -fvisibility-inlines-hidden -D_FORTIFY_SOURCE=2 -march=x86-64 -mtune=generic -O2 -pipe -fstack-protector-strong -fno-plt -c ../../base/task/sequence_manager/thread_controller_with_message_pump_impl.cc -o obj/base/base/thread_controller_with_message_pump_impl.o
1228  [11/28/2018 03:15PM]: [302/5007] clang++ -MMD -MF obj/base/base/sequence_manager_impl.o.d -DUSE_SYMBOLIZE -DV8_DEPRECATION_WARNINGS -DUSE_UDEV -DUSE_AURA=1 -DUSE_GLIB=1 -DUSE_NSS_CERTS=1 -DUSE_X11=1 -DFULL_SAFE_BROWSING -DSAFE_BROWSING_CSD -DSAFE_BROWSING_DB_LOCAL -DCHROMIUM_BUILD -D_FILE_OFFSET_BITS=64 -D_LARGEFILE_SOURCE -D_LARGEFILE64_SOURCE -D_GNU_SOURCE -DCR_CLANG_REVISION=\340925-1\ -D__STDC_CONSTANT_MACROS -D__STDC_FORMAT_MACROS -DCOMPONENT_BUILD -DNDEBUG -DNVALGRIND -DDYNAMIC_ANNOTATIONS_ENABLED=0 -DBASE_IMPLEMENTATION -DGLIB_VERSION_MAX_ALLOWED=GLIB_VERSION_2_32 -DGLIB_VERSION_MIN_REQUIRED=GLIB_VERSION_2_26 -I../.. -Igen -fno-strict-aliasing --param=ssp-buffer-size=4 -fstack-protector -Wno-builtin-macro-redefined -D__DATE__= -D__TIME__= -D__TIMESTAMP__= -funwind-tables -fPIC -pthread -fcolor-diagnostics -fmerge-all-constants -Xclang -mllvm -Xclang -instcombine-lower-dbg-declare=0 -no-canonical-prefixes -m64 -march=x86-64 -Wall -Wextra -Wimplicit-fallthrough -Wthread-safety -Wno-missing-field-initializers -Wno-unused-parameter -Wno-c++11-narrowing -Wno-covered-switch-default -Wno-unneeded-internal-declaration -Wno-undefined-var-template -Wno-nonportable-include-path -Wno-user-defined-warnings -Wno-unused-lambda-capture -Wno-ignored-pragma-optimize -fno-omit-frame-pointer -g0 -fvisibility=hidden -Wheader-hygiene -Wstring-conversion -Wtautological-overlap-compare -Wno-char-subscripts -Wglobal-constructors -Wexit-time-destructors -Wexit-time-destructors -Wshadow -I/usr/include/glib-2.0 -I/usr/lib/glib-2.0/include -I/usr/lib/libffi-3.2.1/include -Wexit-time-destructors -O2 -fno-ident -fdata-sections -ffunction-sections -std=c++14 -fno-exceptions -fno-rtti -fvisibility-inlines-hidden -D_FORTIFY_SOURCE=2 -march=x86-64 -mtune=generic -O2 -pipe -fstack-protector-strong -fno-plt -c ../../base/task/sequence_manager/sequence_manager_impl.cc -o obj/base/base/sequence_manager_impl.o
1229  [11/28/2018 03:15PM]: [303/5007] clang++ -MMD -MF obj/base/base/task_executor.o.d -DUSE_SYMBOLIZE -DV8_DEPRECATION_WARNINGS -DUSE_UDEV -DUSE_AURA=1 -DUSE_GLIB=1 -DUSE_NSS_CERTS=1 -DUSE_X11=1 -DFULL_SAFE_BROWSING -DSAFE_BROWSING_CSD -DSAFE_BROWSING_DB_LOCAL -DCHROMIUM_BUILD -D_FILE_OFFSET_BITS=64 -D_LARGEFILE_SOURCE -D_LARGEFILE64_SOURCE -D_GNU_SOURCE -DCR_CLANG_REVISION=\340925-1\ -D__STDC_CONSTANT_MACROS -D__STDC_FORMAT_MACROS -DCOMPONENT_BUILD -DNDEBUG -DNVALGRIND -DDYNAMIC_ANNOTATIONS_ENABLED=0 -DBASE_IMPLEMENTATION -DGLIB_VERSION_MAX_ALLOWED=GLIB_VERSION_2_32 -DGLIB_VERSION_MIN_REQUIRED=GLIB_VERSION_2_26 -I../.. -Igen -fno-strict-aliasing --param=ssp-buffer-size=4 -fstack-protector -Wno-builtin-macro-redefined -D__DATE__= -D__TIME__= -D__TIMESTAMP__= -funwind-tables -fPIC -pthread -fcolor-diagnostics -fmerge-all-constants -Xclang -mllvm -Xclang -instcombine-lower-dbg-declare=0 -no-canonical-prefixes -m64 -march=x86-64 -Wall -Wextra -Wimplicit-fallthrough -Wthread-safety -Wno-missing-field-initializers -Wno-unused-parameter -Wno-c++11-narrowing -Wno-covered-switch-default -Wno-unneeded-internal-declaration -Wno-undefined-var-template -Wno-nonportable-include-path -Wno-user-defined-warnings -Wno-unused-lambda-capture -Wno-ignored-pragma-optimize -fno-omit-frame-pointer -g0 -fvisibility=hidden -Wheader-hygiene -Wstring-conversion -Wtautological-overlap-compare -Wno-char-subscripts -Wglobal-constructors -Wexit-time-destructors -Wexit-time-destructors -Wshadow -I/usr/include/glib-2.0 -I/usr/lib/glib-2.0/include -I/usr/lib/libffi-3.2.1/include -Wexit-time-destructors -O2 -fno-ident -fdata-sections -ffunction-sections -std=c++14 -fno-exceptions -fno-rtti -fvisibility-inlines-hidden -D_FORTIFY_SOURCE=2 -march=x86-64 -mtune=generic -O2 -pipe -fstack-protector-strong -fno-plt -c ../../base/task/task_executor.cc -o obj/base/base/task_executor.o
1230  [11/28/2018 03:15PM]: [304/5007] clang++ -MMD -MF obj/base/base/time_domain.o.d -DUSE_SYMBOLIZE -DV8_DEPRECATION_WARNINGS -DUSE_UDEV -DUSE_AURA=1 -DUSE_GLIB=1 -DUSE_NSS_CERTS=1 -DUSE_X11=1 -DFULL_SAFE_BROWSING -DSAFE_BROWSING_CSD -DSAFE_BROWSING_DB_LOCAL -DCHROMIUM_BUILD -D_FILE_OFFSET_BITS=64 -D_LARGEFILE_SOURCE -D_LARGEFILE64_SOURCE -D_GNU_SOURCE -DCR_CLANG_REVISION=\340925-1\ -D__STDC_CONSTANT_MACROS -D__STDC_FORMAT_MACROS -DCOMPONENT_BUILD -DNDEBUG -DNVALGRIND -DDYNAMIC_ANNOTATIONS_ENABLED=0 -DBASE_IMPLEMENTATION -DGLIB_VERSION_MAX_ALLOWED=GLIB_VERSION_2_32 -DGLIB_VERSION_MIN_REQUIRED=GLIB_VERSION_2_26 -I../.. -Igen -fno-strict-aliasing --param=ssp-buffer-size=4 -fstack-protector -Wno-builtin-macro-redefined -D__DATE__= -D__TIME__= -D__TIMESTAMP__= -funwind-tables -fPIC -pthread -fcolor-diagnostics -fmerge-all-constants -Xclang -mllvm -Xclang -instcombine-lower-dbg-declare=0 -no-canonical-prefixes -m64 -march=x86-64 -Wall -Wextra -Wimplicit-fallthrough -Wthread-safety -Wno-missing-field-initializers -Wno-unused-parameter -Wno-c++11-narrowing -Wno-covered-switch-default -Wno-unneeded-internal-declaration -Wno-undefined-var-template -Wno-nonportable-include-path -Wno-user-defined-warnings -Wno-unused-lambda-capture -Wno-ignored-pragma-optimize -fno-omit-frame-pointer -g0 -fvisibility=hidden -Wheader-hygiene -Wstring-conversion -Wtautological-overlap-compare -Wno-char-subscripts -Wglobal-constructors -Wexit-time-destructors -Wexit-time-destructors -Wshadow -I/usr/include/glib-2.0 -I/usr/lib/glib-2.0/include -I/usr/lib/libffi-3.2.1/include -Wexit-time-destructors -O2 -fno-ident -fdata-sections -ffunction-sections -std=c++14 -fno-exceptions -fno-rtti -fvisibility-inlines-hidden -D_FORTIFY_SOURCE=2 -march=x86-64 -mtune=generic -O2 -pipe -fstack-protector-strong -fno-plt -c ../../base/task/sequence_manager/time_domain.cc -o obj/base/base/time_domain.o
1231  [11/28/2018 03:15PM]: [305/5007] clang++ -MMD -MF obj/base/base/work_queue.o.d -DUSE_SYMBOLIZE -DV8_DEPRECATION_WARNINGS -DUSE_UDEV -DUSE_AURA=1 -DUSE_GLIB=1 -DUSE_NSS_CERTS=1 -DUSE_X11=1 -DFULL_SAFE_BROWSING -DSAFE_BROWSING_CSD -DSAFE_BROWSING_DB_LOCAL -DCHROMIUM_BUILD -D_FILE_OFFSET_BITS=64 -D_LARGEFILE_SOURCE -D_LARGEFILE64_SOURCE -D_GNU_SOURCE -DCR_CLANG_REVISION=\340925-1\ -D__STDC_CONSTANT_MACROS -D__STDC_FORMAT_MACROS -DCOMPONENT_BUILD -DNDEBUG -DNVALGRIND -DDYNAMIC_ANNOTATIONS_ENABLED=0 -DBASE_IMPLEMENTATION -DGLIB_VERSION_MAX_ALLOWED=GLIB_VERSION_2_32 -DGLIB_VERSION_MIN_REQUIRED=GLIB_VERSION_2_26 -I../.. -Igen -fno-strict-aliasing --param=ssp-buffer-size=4 -fstack-protector -Wno-builtin-macro-redefined -D__DATE__= -D__TIME__= -D__TIMESTAMP__= -funwind-tables -fPIC -pthread -fcolor-diagnostics -fmerge-all-constants -Xclang -mllvm -Xclang -instcombine-lower-dbg-declare=0 -no-canonical-prefixes -m64 -march=x86-64 -Wall -Wextra -Wimplicit-fallthrough -Wthread-safety -Wno-missing-field-initializers -Wno-unused-parameter -Wno-c++11-narrowing -Wno-covered-switch-default -Wno-unneeded-internal-declaration -Wno-undefined-var-template -Wno-nonportable-include-path -Wno-user-defined-warnings -Wno-unused-lambda-capture -Wno-ignored-pragma-optimize -fno-omit-frame-pointer -g0 -fvisibility=hidden -Wheader-hygiene -Wstring-conversion -Wtautological-overlap-compare -Wno-char-subscripts -Wglobal-constructors -Wexit-time-destructors -Wexit-time-destructors -Wshadow -I/usr/include/glib-2.0 -I/usr/lib/glib-2.0/include -I/usr/lib/libffi-3.2.1/include -Wexit-time-destructors -O2 -fno-ident -fdata-sections -ffunction-sections -std=c++14 -fno-exceptions -fno-rtti -fvisibility-inlines-hidden -D_FORTIFY_SOURCE=2 -march=x86-64 -mtune=generic -O2 -pipe -fstack-protector-strong -fno-plt -c ../../base/task/sequence_manager/work_queue.cc -o obj/base/base/work_queue.o
1232  [11/28/2018 03:15PM]: [306/5007] clang++ -MMD -MF obj/base/base/delayed_task_manager.o.d -DUSE_SYMBOLIZE -DV8_DEPRECATION_WARNINGS -DUSE_UDEV -DUSE_AURA=1 -DUSE_GLIB=1 -DUSE_NSS_CERTS=1 -DUSE_X11=1 -DFULL_SAFE_BROWSING -DSAFE_BROWSING_CSD -DSAFE_BROWSING_DB_LOCAL -DCHROMIUM_BUILD -D_FILE_OFFSET_BITS=64 -D_LARGEFILE_SOURCE -D_LARGEFILE64_SOURCE -D_GNU_SOURCE -DCR_CLANG_REVISION=\340925-1\ -D__STDC_CONSTANT_MACROS -D__STDC_FORMAT_MACROS -DCOMPONENT_BUILD -DNDEBUG -DNVALGRIND -DDYNAMIC_ANNOTATIONS_ENABLED=0 -DBASE_IMPLEMENTATION -DGLIB_VERSION_MAX_ALLOWED=GLIB_VERSION_2_32 -DGLIB_VERSION_MIN_REQUIRED=GLIB_VERSION_2_26 -I../.. -Igen -fno-strict-aliasing --param=ssp-buffer-size=4 -fstack-protector -Wno-builtin-macro-redefined -D__DATE__= -D__TIME__= -D__TIMESTAMP__= -funwind-tables -fPIC -pthread -fcolor-diagnostics -fmerge-all-constants -Xclang -mllvm -Xclang -instcombine-lower-dbg-declare=0 -no-canonical-prefixes -m64 -march=x86-64 -Wall -Wextra -Wimplicit-fallthrough -Wthread-safety -Wno-missing-field-initializers -Wno-unused-parameter -Wno-c++11-narrowing -Wno-covered-switch-default -Wno-unneeded-internal-declaration -Wno-undefined-var-template -Wno-nonportable-include-path -Wno-user-defined-warnings -Wno-unused-lambda-capture -Wno-ignored-pragma-optimize -fno-omit-frame-pointer -g0 -fvisibility=hidden -Wheader-hygiene -Wstring-conversion -Wtautological-overlap-compare -Wno-char-subscripts -Wglobal-constructors -Wexit-time-destructors -Wexit-time-destructors -Wshadow -I/usr/include/glib-2.0 -I/usr/lib/glib-2.0/include -I/usr/lib/libffi-3.2.1/include -Wexit-time-destructors -O2 -fno-ident -fdata-sections -ffunction-sections -std=c++14 -fno-exceptions -fno-rtti -fvisibility-inlines-hidden -D_FORTIFY_SOURCE=2 -march=x86-64 -mtune=generic -O2 -pipe -fstack-protector-strong -fno-plt -c ../../base/task/task_scheduler/delayed_task_manager.cc -o obj/base/base/delayed_task_manager.o
1233  [11/28/2018 03:15PM]: [307/5007] clang++ -MMD -MF obj/base/base/environment_config.o.d -DUSE_SYMBOLIZE -DV8_DEPRECATION_WARNINGS -DUSE_UDEV -DUSE_AURA=1 -DUSE_GLIB=1 -DUSE_NSS_CERTS=1 -DUSE_X11=1 -DFULL_SAFE_BROWSING -DSAFE_BROWSING_CSD -DSAFE_BROWSING_DB_LOCAL -DCHROMIUM_BUILD -D_FILE_OFFSET_BITS=64 -D_LARGEFILE_SOURCE -D_LARGEFILE64_SOURCE -D_GNU_SOURCE -DCR_CLANG_REVISION=\340925-1\ -D__STDC_CONSTANT_MACROS -D__STDC_FORMAT_MACROS -DCOMPONENT_BUILD -DNDEBUG -DNVALGRIND -DDYNAMIC_ANNOTATIONS_ENABLED=0 -DBASE_IMPLEMENTATION -DGLIB_VERSION_MAX_ALLOWED=GLIB_VERSION_2_32 -DGLIB_VERSION_MIN_REQUIRED=GLIB_VERSION_2_26 -I../.. -Igen -fno-strict-aliasing --param=ssp-buffer-size=4 -fstack-protector -Wno-builtin-macro-redefined -D__DATE__= -D__TIME__= -D__TIMESTAMP__= -funwind-tables -fPIC -pthread -fcolor-diagnostics -fmerge-all-constants -Xclang -mllvm -Xclang -instcombine-lower-dbg-declare=0 -no-canonical-prefixes -m64 -march=x86-64 -Wall -Wextra -Wimplicit-fallthrough -Wthread-safety -Wno-missing-field-initializers -Wno-unused-parameter -Wno-c++11-narrowing -Wno-covered-switch-default -Wno-unneeded-internal-declaration -Wno-undefined-var-template -Wno-nonportable-include-path -Wno-user-defined-warnings -Wno-unused-lambda-capture -Wno-ignored-pragma-optimize -fno-omit-frame-pointer -g0 -fvisibility=hidden -Wheader-hygiene -Wstring-conversion -Wtautological-overlap-compare -Wno-char-subscripts -Wglobal-constructors -Wexit-time-destructors -Wexit-time-destructors -Wshadow -I/usr/include/glib-2.0 -I/usr/lib/glib-2.0/include -I/usr/lib/libffi-3.2.1/include -Wexit-time-destructors -O2 -fno-ident -fdata-sections -ffunction-sections -std=c++14 -fno-exceptions -fno-rtti -fvisibility-inlines-hidden -D_FORTIFY_SOURCE=2 -march=x86-64 -mtune=generic -O2 -pipe -fstack-protector-strong -fno-plt -c ../../base/task/task_scheduler/environment_config.cc -o obj/base/base/environment_config.o
1234  [11/28/2018 03:15PM]: [308/5007] clang++ -MMD -MF obj/base/base/initialization_util.o.d -DUSE_SYMBOLIZE -DV8_DEPRECATION_WARNINGS -DUSE_UDEV -DUSE_AURA=1 -DUSE_GLIB=1 -DUSE_NSS_CERTS=1 -DUSE_X11=1 -DFULL_SAFE_BROWSING -DSAFE_BROWSING_CSD -DSAFE_BROWSING_DB_LOCAL -DCHROMIUM_BUILD -D_FILE_OFFSET_BITS=64 -D_LARGEFILE_SOURCE -D_LARGEFILE64_SOURCE -D_GNU_SOURCE -DCR_CLANG_REVISION=\340925-1\ -D__STDC_CONSTANT_MACROS -D__STDC_FORMAT_MACROS -DCOMPONENT_BUILD -DNDEBUG -DNVALGRIND -DDYNAMIC_ANNOTATIONS_ENABLED=0 -DBASE_IMPLEMENTATION -DGLIB_VERSION_MAX_ALLOWED=GLIB_VERSION_2_32 -DGLIB_VERSION_MIN_REQUIRED=GLIB_VERSION_2_26 -I../.. -Igen -fno-strict-aliasing --param=ssp-buffer-size=4 -fstack-protector -Wno-builtin-macro-redefined -D__DATE__= -D__TIME__= -D__TIMESTAMP__= -funwind-tables -fPIC -pthread -fcolor-diagnostics -fmerge-all-constants -Xclang -mllvm -Xclang -instcombine-lower-dbg-declare=0 -no-canonical-prefixes -m64 -march=x86-64 -Wall -Wextra -Wimplicit-fallthrough -Wthread-safety -Wno-missing-field-initializers -Wno-unused-parameter -Wno-c++11-narrowing -Wno-covered-switch-default -Wno-unneeded-internal-declaration -Wno-undefined-var-template -Wno-nonportable-include-path -Wno-user-defined-warnings -Wno-unused-lambda-capture -Wno-ignored-pragma-optimize -fno-omit-frame-pointer -g0 -fvisibility=hidden -Wheader-hygiene -Wstring-conversion -Wtautological-overlap-compare -Wno-char-subscripts -Wglobal-constructors -Wexit-time-destructors -Wexit-time-destructors -Wshadow -I/usr/include/glib-2.0 -I/usr/lib/glib-2.0/include -I/usr/lib/libffi-3.2.1/include -Wexit-time-destructors -O2 -fno-ident -fdata-sections -ffunction-sections -std=c++14 -fno-exceptions -fno-rtti -fvisibility-inlines-hidden -D_FORTIFY_SOURCE=2 -march=x86-64 -mtune=generic -O2 -pipe -fstack-protector-strong -fno-plt -c ../../base/task/task_scheduler/initialization_util.cc -o obj/base/base/initialization_util.o
1235  [11/28/2018 03:15PM]: [309/5007] clang++ -MMD -MF obj/base/base/work_queue_sets.o.d -DUSE_SYMBOLIZE -DV8_DEPRECATION_WARNINGS -DUSE_UDEV -DUSE_AURA=1 -DUSE_GLIB=1 -DUSE_NSS_CERTS=1 -DUSE_X11=1 -DFULL_SAFE_BROWSING -DSAFE_BROWSING_CSD -DSAFE_BROWSING_DB_LOCAL -DCHROMIUM_BUILD -D_FILE_OFFSET_BITS=64 -D_LARGEFILE_SOURCE -D_LARGEFILE64_SOURCE -D_GNU_SOURCE -DCR_CLANG_REVISION=\340925-1\ -D__STDC_CONSTANT_MACROS -D__STDC_FORMAT_MACROS -DCOMPONENT_BUILD -DNDEBUG -DNVALGRIND -DDYNAMIC_ANNOTATIONS_ENABLED=0 -DBASE_IMPLEMENTATION -DGLIB_VERSION_MAX_ALLOWED=GLIB_VERSION_2_32 -DGLIB_VERSION_MIN_REQUIRED=GLIB_VERSION_2_26 -I../.. -Igen -fno-strict-aliasing --param=ssp-buffer-size=4 -fstack-protector -Wno-builtin-macro-redefined -D__DATE__= -D__TIME__= -D__TIMESTAMP__= -funwind-tables -fPIC -pthread -fcolor-diagnostics -fmerge-all-constants -Xclang -mllvm -Xclang -instcombine-lower-dbg-declare=0 -no-canonical-prefixes -m64 -march=x86-64 -Wall -Wextra -Wimplicit-fallthrough -Wthread-safety -Wno-missing-field-initializers -Wno-unused-parameter -Wno-c++11-narrowing -Wno-covered-switch-default -Wno-unneeded-internal-declaration -Wno-undefined-var-template -Wno-nonportable-include-path -Wno-user-defined-warnings -Wno-unused-lambda-capture -Wno-ignored-pragma-optimize -fno-omit-frame-pointer -g0 -fvisibility=hidden -Wheader-hygiene -Wstring-conversion -Wtautological-overlap-compare -Wno-char-subscripts -Wglobal-constructors -Wexit-time-destructors -Wexit-time-destructors -Wshadow -I/usr/include/glib-2.0 -I/usr/lib/glib-2.0/include -I/usr/lib/libffi-3.2.1/include -Wexit-time-destructors -O2 -fno-ident -fdata-sections -ffunction-sections -std=c++14 -fno-exceptions -fno-rtti -fvisibility-inlines-hidden -D_FORTIFY_SOURCE=2 -march=x86-64 -mtune=generic -O2 -pipe -fstack-protector-strong -fno-plt -c ../../base/task/sequence_manager/work_queue_sets.cc -o obj/base/base/work_queue_sets.o
1236  [11/28/2018 03:15PM]: [310/5007] clang++ -MMD -MF obj/base/base/priority_queue.o.d -DUSE_SYMBOLIZE -DV8_DEPRECATION_WARNINGS -DUSE_UDEV -DUSE_AURA=1 -DUSE_GLIB=1 -DUSE_NSS_CERTS=1 -DUSE_X11=1 -DFULL_SAFE_BROWSING -DSAFE_BROWSING_CSD -DSAFE_BROWSING_DB_LOCAL -DCHROMIUM_BUILD -D_FILE_OFFSET_BITS=64 -D_LARGEFILE_SOURCE -D_LARGEFILE64_SOURCE -D_GNU_SOURCE -DCR_CLANG_REVISION=\340925-1\ -D__STDC_CONSTANT_MACROS -D__STDC_FORMAT_MACROS -DCOMPONENT_BUILD -DNDEBUG -DNVALGRIND -DDYNAMIC_ANNOTATIONS_ENABLED=0 -DBASE_IMPLEMENTATION -DGLIB_VERSION_MAX_ALLOWED=GLIB_VERSION_2_32 -DGLIB_VERSION_MIN_REQUIRED=GLIB_VERSION_2_26 -I../.. -Igen -fno-strict-aliasing --param=ssp-buffer-size=4 -fstack-protector -Wno-builtin-macro-redefined -D__DATE__= -D__TIME__= -D__TIMESTAMP__= -funwind-tables -fPIC -pthread -fcolor-diagnostics -fmerge-all-constants -Xclang -mllvm -Xclang -instcombine-lower-dbg-declare=0 -no-canonical-prefixes -m64 -march=x86-64 -Wall -Wextra -Wimplicit-fallthrough -Wthread-safety -Wno-missing-field-initializers -Wno-unused-parameter -Wno-c++11-narrowing -Wno-covered-switch-default -Wno-unneeded-internal-declaration -Wno-undefined-var-template -Wno-nonportable-include-path -Wno-user-defined-warnings -Wno-unused-lambda-capture -Wno-ignored-pragma-optimize -fno-omit-frame-pointer -g0 -fvisibility=hidden -Wheader-hygiene -Wstring-conversion -Wtautological-overlap-compare -Wno-char-subscripts -Wglobal-constructors -Wexit-time-destructors -Wexit-time-destructors -Wshadow -I/usr/include/glib-2.0 -I/usr/lib/glib-2.0/include -I/usr/lib/libffi-3.2.1/include -Wexit-time-destructors -O2 -fno-ident -fdata-sections -ffunction-sections -std=c++14 -fno-exceptions -fno-rtti -fvisibility-inlines-hidden -D_FORTIFY_SOURCE=2 -march=x86-64 -mtune=generic -O2 -pipe -fstack-protector-strong -fno-plt -c ../../base/task/task_scheduler/priority_queue.cc -o obj/base/base/priority_queue.o
1237  [11/28/2018 03:15PM]: [311/5007] clang++ -MMD -MF obj/base/base/scheduler_lock_impl.o.d -DUSE_SYMBOLIZE -DV8_DEPRECATION_WARNINGS -DUSE_UDEV -DUSE_AURA=1 -DUSE_GLIB=1 -DUSE_NSS_CERTS=1 -DUSE_X11=1 -DFULL_SAFE_BROWSING -DSAFE_BROWSING_CSD -DSAFE_BROWSING_DB_LOCAL -DCHROMIUM_BUILD -D_FILE_OFFSET_BITS=64 -D_LARGEFILE_SOURCE -D_LARGEFILE64_SOURCE -D_GNU_SOURCE -DCR_CLANG_REVISION=\340925-1\ -D__STDC_CONSTANT_MACROS -D__STDC_FORMAT_MACROS -DCOMPONENT_BUILD -DNDEBUG -DNVALGRIND -DDYNAMIC_ANNOTATIONS_ENABLED=0 -DBASE_IMPLEMENTATION -DGLIB_VERSION_MAX_ALLOWED=GLIB_VERSION_2_32 -DGLIB_VERSION_MIN_REQUIRED=GLIB_VERSION_2_26 -I../.. -Igen -fno-strict-aliasing --param=ssp-buffer-size=4 -fstack-protector -Wno-builtin-macro-redefined -D__DATE__= -D__TIME__= -D__TIMESTAMP__= -funwind-tables -fPIC -pthread -fcolor-diagnostics -fmerge-all-constants -Xclang -mllvm -Xclang -instcombine-lower-dbg-declare=0 -no-canonical-prefixes -m64 -march=x86-64 -Wall -Wextra -Wimplicit-fallthrough -Wthread-safety -Wno-missing-field-initializers -Wno-unused-parameter -Wno-c++11-narrowing -Wno-covered-switch-default -Wno-unneeded-internal-declaration -Wno-undefined-var-template -Wno-nonportable-include-path -Wno-user-defined-warnings -Wno-unused-lambda-capture -Wno-ignored-pragma-optimize -fno-omit-frame-pointer -g0 -fvisibility=hidden -Wheader-hygiene -Wstring-conversion -Wtautological-overlap-compare -Wno-char-subscripts -Wglobal-constructors -Wexit-time-destructors -Wexit-time-destructors -Wshadow -I/usr/include/glib-2.0 -I/usr/lib/glib-2.0/include -I/usr/lib/libffi-3.2.1/include -Wexit-time-destructors -O2 -fno-ident -fdata-sections -ffunction-sections -std=c++14 -fno-exceptions -fno-rtti -fvisibility-inlines-hidden -D_FORTIFY_SOURCE=2 -march=x86-64 -mtune=generic -O2 -pipe -fstack-protector-strong -fno-plt -c ../../base/task/task_scheduler/scheduler_lock_impl.cc -o obj/base/base/scheduler_lock_impl.o
1238  [11/28/2018 03:15PM]: [312/5007] clang++ -MMD -MF obj/base/base/scheduler_worker_pool.o.d -DUSE_SYMBOLIZE -DV8_DEPRECATION_WARNINGS -DUSE_UDEV -DUSE_AURA=1 -DUSE_GLIB=1 -DUSE_NSS_CERTS=1 -DUSE_X11=1 -DFULL_SAFE_BROWSING -DSAFE_BROWSING_CSD -DSAFE_BROWSING_DB_LOCAL -DCHROMIUM_BUILD -D_FILE_OFFSET_BITS=64 -D_LARGEFILE_SOURCE -D_LARGEFILE64_SOURCE -D_GNU_SOURCE -DCR_CLANG_REVISION=\340925-1\ -D__STDC_CONSTANT_MACROS -D__STDC_FORMAT_MACROS -DCOMPONENT_BUILD -DNDEBUG -DNVALGRIND -DDYNAMIC_ANNOTATIONS_ENABLED=0 -DBASE_IMPLEMENTATION -DGLIB_VERSION_MAX_ALLOWED=GLIB_VERSION_2_32 -DGLIB_VERSION_MIN_REQUIRED=GLIB_VERSION_2_26 -I../.. -Igen -fno-strict-aliasing --param=ssp-buffer-size=4 -fstack-protector -Wno-builtin-macro-redefined -D__DATE__= -D__TIME__= -D__TIMESTAMP__= -funwind-tables -fPIC -pthread -fcolor-diagnostics -fmerge-all-constants -Xclang -mllvm -Xclang -instcombine-lower-dbg-declare=0 -no-canonical-prefixes -m64 -march=x86-64 -Wall -Wextra -Wimplicit-fallthrough -Wthread-safety -Wno-missing-field-initializers -Wno-unused-parameter -Wno-c++11-narrowing -Wno-covered-switch-default -Wno-unneeded-internal-declaration -Wno-undefined-var-template -Wno-nonportable-include-path -Wno-user-defined-warnings -Wno-unused-lambda-capture -Wno-ignored-pragma-optimize -fno-omit-frame-pointer -g0 -fvisibility=hidden -Wheader-hygiene -Wstring-conversion -Wtautological-overlap-compare -Wno-char-subscripts -Wglobal-constructors -Wexit-time-destructors -Wexit-time-destructors -Wshadow -I/usr/include/glib-2.0 -I/usr/lib/glib-2.0/include -I/usr/lib/libffi-3.2.1/include -Wexit-time-destructors -O2 -fno-ident -fdata-sections -ffunction-sections -std=c++14 -fno-exceptions -fno-rtti -fvisibility-inlines-hidden -D_FORTIFY_SOURCE=2 -march=x86-64 -mtune=generic -O2 -pipe -fstack-protector-strong -fno-plt -c ../../base/task/task_scheduler/scheduler_worker_pool.cc -o obj/base/base/scheduler_worker_pool.o
1239  [11/28/2018 03:15PM]: [313/5007] clang++ -MMD -MF obj/base/base/scheduler_worker_pool_params.o.d -DUSE_SYMBOLIZE -DV8_DEPRECATION_WARNINGS -DUSE_UDEV -DUSE_AURA=1 -DUSE_GLIB=1 -DUSE_NSS_CERTS=1 -DUSE_X11=1 -DFULL_SAFE_BROWSING -DSAFE_BROWSING_CSD -DSAFE_BROWSING_DB_LOCAL -DCHROMIUM_BUILD -D_FILE_OFFSET_BITS=64 -D_LARGEFILE_SOURCE -D_LARGEFILE64_SOURCE -D_GNU_SOURCE -DCR_CLANG_REVISION=\340925-1\ -D__STDC_CONSTANT_MACROS -D__STDC_FORMAT_MACROS -DCOMPONENT_BUILD -DNDEBUG -DNVALGRIND -DDYNAMIC_ANNOTATIONS_ENABLED=0 -DBASE_IMPLEMENTATION -DGLIB_VERSION_MAX_ALLOWED=GLIB_VERSION_2_32 -DGLIB_VERSION_MIN_REQUIRED=GLIB_VERSION_2_26 -I../.. -Igen -fno-strict-aliasing --param=ssp-buffer-size=4 -fstack-protector -Wno-builtin-macro-redefined -D__DATE__= -D__TIME__= -D__TIMESTAMP__= -funwind-tables -fPIC -pthread -fcolor-diagnostics -fmerge-all-constants -Xclang -mllvm -Xclang -instcombine-lower-dbg-declare=0 -no-canonical-prefixes -m64 -march=x86-64 -Wall -Wextra -Wimplicit-fallthrough -Wthread-safety -Wno-missing-field-initializers -Wno-unused-parameter -Wno-c++11-narrowing -Wno-covered-switch-default -Wno-unneeded-internal-declaration -Wno-undefined-var-template -Wno-nonportable-include-path -Wno-user-defined-warnings -Wno-unused-lambda-capture -Wno-ignored-pragma-optimize -fno-omit-frame-pointer -g0 -fvisibility=hidden -Wheader-hygiene -Wstring-conversion -Wtautological-overlap-compare -Wno-char-subscripts -Wglobal-constructors -Wexit-time-destructors -Wexit-time-destructors -Wshadow -I/usr/include/glib-2.0 -I/usr/lib/glib-2.0/include -I/usr/lib/libffi-3.2.1/include -Wexit-time-destructors -O2 -fno-ident -fdata-sections -ffunction-sections -std=c++14 -fno-exceptions -fno-rtti -fvisibility-inlines-hidden -D_FORTIFY_SOURCE=2 -march=x86-64 -mtune=generic -O2 -pipe -fstack-protector-strong -fno-plt -c ../../base/task/task_scheduler/scheduler_worker_pool_params.cc -o obj/base/base/scheduler_worker_pool_params.o
1240  [11/28/2018 03:16PM]: [314/5007] clang++ -MMD -MF obj/base/base/scheduler_worker.o.d -DUSE_SYMBOLIZE -DV8_DEPRECATION_WARNINGS -DUSE_UDEV -DUSE_AURA=1 -DUSE_GLIB=1 -DUSE_NSS_CERTS=1 -DUSE_X11=1 -DFULL_SAFE_BROWSING -DSAFE_BROWSING_CSD -DSAFE_BROWSING_DB_LOCAL -DCHROMIUM_BUILD -D_FILE_OFFSET_BITS=64 -D_LARGEFILE_SOURCE -D_LARGEFILE64_SOURCE -D_GNU_SOURCE -DCR_CLANG_REVISION=\340925-1\ -D__STDC_CONSTANT_MACROS -D__STDC_FORMAT_MACROS -DCOMPONENT_BUILD -DNDEBUG -DNVALGRIND -DDYNAMIC_ANNOTATIONS_ENABLED=0 -DBASE_IMPLEMENTATION -DGLIB_VERSION_MAX_ALLOWED=GLIB_VERSION_2_32 -DGLIB_VERSION_MIN_REQUIRED=GLIB_VERSION_2_26 -I../.. -Igen -fno-strict-aliasing --param=ssp-buffer-size=4 -fstack-protector -Wno-builtin-macro-redefined -D__DATE__= -D__TIME__= -D__TIMESTAMP__= -funwind-tables -fPIC -pthread -fcolor-diagnostics -fmerge-all-constants -Xclang -mllvm -Xclang -instcombine-lower-dbg-declare=0 -no-canonical-prefixes -m64 -march=x86-64 -Wall -Wextra -Wimplicit-fallthrough -Wthread-safety -Wno-missing-field-initializers -Wno-unused-parameter -Wno-c++11-narrowing -Wno-covered-switch-default -Wno-unneeded-internal-declaration -Wno-undefined-var-template -Wno-nonportable-include-path -Wno-user-defined-warnings -Wno-unused-lambda-capture -Wno-ignored-pragma-optimize -fno-omit-frame-pointer -g0 -fvisibility=hidden -Wheader-hygiene -Wstring-conversion -Wtautological-overlap-compare -Wno-char-subscripts -Wglobal-constructors -Wexit-time-destructors -Wexit-time-destructors -Wshadow -I/usr/include/glib-2.0 -I/usr/lib/glib-2.0/include -I/usr/lib/libffi-3.2.1/include -Wexit-time-destructors -O2 -fno-ident -fdata-sections -ffunction-sections -std=c++14 -fno-exceptions -fno-rtti -fvisibility-inlines-hidden -D_FORTIFY_SOURCE=2 -march=x86-64 -mtune=generic -O2 -pipe -fstack-protector-strong -fno-plt -c ../../base/task/task_scheduler/scheduler_worker.cc -o obj/base/base/scheduler_worker.o
1241  [11/28/2018 03:16PM]: [315/5007] clang++ -MMD -MF obj/base/base/scheduler_single_thread_task_runner_manager.o.d -DUSE_SYMBOLIZE -DV8_DEPRECATION_WARNINGS -DUSE_UDEV -DUSE_AURA=1 -DUSE_GLIB=1 -DUSE_NSS_CERTS=1 -DUSE_X11=1 -DFULL_SAFE_BROWSING -DSAFE_BROWSING_CSD -DSAFE_BROWSING_DB_LOCAL -DCHROMIUM_BUILD -D_FILE_OFFSET_BITS=64 -D_LARGEFILE_SOURCE -D_LARGEFILE64_SOURCE -D_GNU_SOURCE -DCR_CLANG_REVISION=\340925-1\ -D__STDC_CONSTANT_MACROS -D__STDC_FORMAT_MACROS -DCOMPONENT_BUILD -DNDEBUG -DNVALGRIND -DDYNAMIC_ANNOTATIONS_ENABLED=0 -DBASE_IMPLEMENTATION -DGLIB_VERSION_MAX_ALLOWED=GLIB_VERSION_2_32 -DGLIB_VERSION_MIN_REQUIRED=GLIB_VERSION_2_26 -I../.. -Igen -fno-strict-aliasing --param=ssp-buffer-size=4 -fstack-protector -Wno-builtin-macro-redefined -D__DATE__= -D__TIME__= -D__TIMESTAMP__= -funwind-tables -fPIC -pthread -fcolor-diagnostics -fmerge-all-constants -Xclang -mllvm -Xclang -instcombine-lower-dbg-declare=0 -no-canonical-prefixes -m64 -march=x86-64 -Wall -Wextra -Wimplicit-fallthrough -Wthread-safety -Wno-missing-field-initializers -Wno-unused-parameter -Wno-c++11-narrowing -Wno-covered-switch-default -Wno-unneeded-internal-declaration -Wno-undefined-var-template -Wno-nonportable-include-path -Wno-user-defined-warnings -Wno-unused-lambda-capture -Wno-ignored-pragma-optimize -fno-omit-frame-pointer -g0 -fvisibility=hidden -Wheader-hygiene -Wstring-conversion -Wtautological-overlap-compare -Wno-char-subscripts -Wglobal-constructors -Wexit-time-destructors -Wexit-time-destructors -Wshadow -I/usr/include/glib-2.0 -I/usr/lib/glib-2.0/include -I/usr/lib/libffi-3.2.1/include -Wexit-time-destructors -O2 -fno-ident -fdata-sections -ffunction-sections -std=c++14 -fno-exceptions -fno-rtti -fvisibility-inlines-hidden -D_FORTIFY_SOURCE=2 -march=x86-64 -mtune=generic -O2 -pipe -fstack-protector-strong -fno-plt -c ../../base/task/task_scheduler/scheduler_single_thread_task_runner_manager.cc -o obj/base/base/scheduler_single_thread_task_runner_manager.o
1242  [11/28/2018 03:16PM]: [316/5007] clang++ -MMD -MF obj/base/base/scheduler_worker_stack.o.d -DUSE_SYMBOLIZE -DV8_DEPRECATION_WARNINGS -DUSE_UDEV -DUSE_AURA=1 -DUSE_GLIB=1 -DUSE_NSS_CERTS=1 -DUSE_X11=1 -DFULL_SAFE_BROWSING -DSAFE_BROWSING_CSD -DSAFE_BROWSING_DB_LOCAL -DCHROMIUM_BUILD -D_FILE_OFFSET_BITS=64 -D_LARGEFILE_SOURCE -D_LARGEFILE64_SOURCE -D_GNU_SOURCE -DCR_CLANG_REVISION=\340925-1\ -D__STDC_CONSTANT_MACROS -D__STDC_FORMAT_MACROS -DCOMPONENT_BUILD -DNDEBUG -DNVALGRIND -DDYNAMIC_ANNOTATIONS_ENABLED=0 -DBASE_IMPLEMENTATION -DGLIB_VERSION_MAX_ALLOWED=GLIB_VERSION_2_32 -DGLIB_VERSION_MIN_REQUIRED=GLIB_VERSION_2_26 -I../.. -Igen -fno-strict-aliasing --param=ssp-buffer-size=4 -fstack-protector -Wno-builtin-macro-redefined -D__DATE__= -D__TIME__= -D__TIMESTAMP__= -funwind-tables -fPIC -pthread -fcolor-diagnostics -fmerge-all-constants -Xclang -mllvm -Xclang -instcombine-lower-dbg-declare=0 -no-canonical-prefixes -m64 -march=x86-64 -Wall -Wextra -Wimplicit-fallthrough -Wthread-safety -Wno-missing-field-initializers -Wno-unused-parameter -Wno-c++11-narrowing -Wno-covered-switch-default -Wno-unneeded-internal-declaration -Wno-undefined-var-template -Wno-nonportable-include-path -Wno-user-defined-warnings -Wno-unused-lambda-capture -Wno-ignored-pragma-optimize -fno-omit-frame-pointer -g0 -fvisibility=hidden -Wheader-hygiene -Wstring-conversion -Wtautological-overlap-compare -Wno-char-subscripts -Wglobal-constructors -Wexit-time-destructors -Wexit-time-destructors -Wshadow -I/usr/include/glib-2.0 -I/usr/lib/glib-2.0/include -I/usr/lib/libffi-3.2.1/include -Wexit-time-destructors -O2 -fno-ident -fdata-sections -ffunction-sections -std=c++14 -fno-exceptions -fno-rtti -fvisibility-inlines-hidden -D_FORTIFY_SOURCE=2 -march=x86-64 -mtune=generic -O2 -pipe -fstack-protector-strong -fno-plt -c ../../base/task/task_scheduler/scheduler_worker_stack.cc -o obj/base/base/scheduler_worker_stack.o
1243  [11/28/2018 03:16PM]: [317/5007] clang++ -MMD -MF obj/base/base/sequence_sort_key.o.d -DUSE_SYMBOLIZE -DV8_DEPRECATION_WARNINGS -DUSE_UDEV -DUSE_AURA=1 -DUSE_GLIB=1 -DUSE_NSS_CERTS=1 -DUSE_X11=1 -DFULL_SAFE_BROWSING -DSAFE_BROWSING_CSD -DSAFE_BROWSING_DB_LOCAL -DCHROMIUM_BUILD -D_FILE_OFFSET_BITS=64 -D_LARGEFILE_SOURCE -D_LARGEFILE64_SOURCE -D_GNU_SOURCE -DCR_CLANG_REVISION=\340925-1\ -D__STDC_CONSTANT_MACROS -D__STDC_FORM